<?xml version="1.0" encoding="UTF-8" standalone="no" ?>
<gpx xmlns="http://www.topografix.com/GPX/1/1" xmlns:xsi="http://www.w3.org/2001/XMLSchema-instance" xsi:schemaLocation="http://www.topografix.com/GPX/1/1 http://www.topografix.com/GPX/1/1/gpx.xsd" version="1.1" creator="VisuGPX - https://www.visugpx.com">
  <metadata>
    <name>Devecey - Dame Blanche - Monfaucon - Devecey</name>
    <desc><![CDATA[Boucle depuis Devecey en passant par la forêt de Chailluz avec les grandes baraques.  Attention à la descente depuis Montfaucon dans les bois à côté des pylônes haute tension, ça glisse...
Sinon le retour par Besançon et Valentin est tristounet. Mais bien tout de même...]]></desc>
  </metadata>
  <wpt lat="47.31804" lon="6.03607">
    <ele>403.6</ele>
    <name><![CDATA[Pause à 30/07/2015 à 12:03]]></name>
    <desc><![CDATA[Pause de 2min 36s]]></desc>
  </wpt>
  <wpt lat="47.31745" lon="6.03684">
    <ele>415.7</ele>
    <name><![CDATA[Pause à 30/07/2015 à 12:06]]></name>
    <desc><![CDATA[Pause de 2min 37s]]></desc>
  </wpt>
  <wpt lat="47.24691" lon="6.07948">
    <ele>458</ele>
    <name><![CDATA[Pause à 30/07/2015 à 15:11]]></name>
    <desc><![CDATA[Pause de 3min 37s]]></desc>
  </wpt>
  <wpt lat="47.25057" lon="6.08676">
    <ele>537.4</ele>
    <name><![CDATA[Pause à 30/07/2015 à 15:29]]></name>
    <desc><![CDATA[Pause de 3min 4s]]></desc>
  </wpt>
  <trk>
    <name><![CDATA[Dame blanchr]]></name>
    <extensions>
      <line xmlns="http://www.topografix.com/GPX/gpx_style/0/2">
        <color>0000FF</color>
        <width>4</width>
      </line>
    </extensions>
    <trkseg>
      <trkpt lat="47.32786" lon="6.01129">
        <ele>226.6</ele>
        <time>2015-07-30T09:29:56Z</time>
      </trkpt>
      <trkpt lat="47.3279" lon="6.01124">
        <ele>226.8</ele>
        <time>2015-07-30T09:30:10Z</time>
      </trkpt>
      <trkpt lat="47.32792" lon="6.01132">
        <ele>226.5</ele>
        <time>2015-07-30T09:30:17Z</time>
      </trkpt>
      <trkpt lat="47.3278" lon="6.01179">
        <ele>225</ele>
        <time>2015-07-30T09:30:39Z</time>
      </trkpt>
      <trkpt lat="47.32781" lon="6.01223">
        <ele>223.8</ele>
        <time>2015-07-30T09:30:54Z</time>
      </trkpt>
      <trkpt lat="47.32793" lon="6.0126">
        <ele>223.4</ele>
        <time>2015-07-30T09:31:10Z</time>
      </trkpt>
      <trkpt lat="47.32795" lon="6.01273">
        <ele>223.2</ele>
        <time>2015-07-30T09:31:16Z</time>
      </trkpt>
      <trkpt lat="47.32796" lon="6.01286">
        <ele>223</ele>
        <time>2015-07-30T09:31:22Z</time>
      </trkpt>
      <trkpt lat="47.32797" lon="6.01293">
        <ele>222.9</ele>
        <time>2015-07-30T09:31:25Z</time>
      </trkpt>
      <trkpt lat="47.3279" lon="6.0132">
        <ele>222.2</ele>
        <time>2015-07-30T09:31:36Z</time>
      </trkpt>
      <trkpt lat="47.3279" lon="6.01351">
        <ele>221.8</ele>
        <time>2015-07-30T09:31:48Z</time>
      </trkpt>
      <trkpt lat="47.32785" lon="6.01373">
        <ele>221.4</ele>
        <time>2015-07-30T09:31:56Z</time>
      </trkpt>
      <trkpt lat="47.32791" lon="6.01383">
        <ele>221.4</ele>
        <time>2015-07-30T09:32:00Z</time>
      </trkpt>
      <trkpt lat="47.32801" lon="6.014">
        <ele>221.2</ele>
        <time>2015-07-30T09:32:08Z</time>
      </trkpt>
      <trkpt lat="47.32797" lon="6.01406">
        <ele>221.1</ele>
        <time>2015-07-30T09:32:11Z</time>
      </trkpt>
      <trkpt lat="47.32788" lon="6.01421">
        <ele>220.9</ele>
        <time>2015-07-30T09:32:19Z</time>
      </trkpt>
      <trkpt lat="47.32782" lon="6.01429">
        <ele>220.7</ele>
        <time>2015-07-30T09:32:24Z</time>
      </trkpt>
      <trkpt lat="47.32765" lon="6.01426">
        <ele>220.8</ele>
        <time>2015-07-30T09:32:38Z</time>
      </trkpt>
      <trkpt lat="47.32756" lon="6.01421">
        <ele>220.9</ele>
        <time>2015-07-30T09:32:46Z</time>
      </trkpt>
      <trkpt lat="47.32744" lon="6.01415">
        <ele>221.1</ele>
        <time>2015-07-30T09:32:54Z</time>
      </trkpt>
      <trkpt lat="47.3273" lon="6.014">
        <ele>221.3</ele>
        <time>2015-07-30T09:33:06Z</time>
      </trkpt>
      <trkpt lat="47.32711" lon="6.01395">
        <ele>221.6</ele>
        <time>2015-07-30T09:33:17Z</time>
      </trkpt>
      <trkpt lat="47.32706" lon="6.01397">
        <ele>221.7</ele>
        <time>2015-07-30T09:33:20Z</time>
      </trkpt>
      <trkpt lat="47.32685" lon="6.01435">
        <ele>221.7</ele>
        <time>2015-07-30T09:33:40Z</time>
      </trkpt>
      <trkpt lat="47.32681" lon="6.01466">
        <ele>221.7</ele>
        <time>2015-07-30T09:33:54Z</time>
      </trkpt>
      <trkpt lat="47.32681" lon="6.01483">
        <ele>221.7</ele>
        <time>2015-07-30T09:34:01Z</time>
      </trkpt>
      <trkpt lat="47.32671" lon="6.01519">
        <ele>221.9</ele>
        <time>2015-07-30T09:34:17Z</time>
      </trkpt>
      <trkpt lat="47.3267" lon="6.01527">
        <ele>221.9</ele>
        <time>2015-07-30T09:34:20Z</time>
      </trkpt>
      <trkpt lat="47.32669" lon="6.01537">
        <ele>221.9</ele>
        <time>2015-07-30T09:34:24Z</time>
      </trkpt>
      <trkpt lat="47.32661" lon="6.01582">
        <ele>222.4</ele>
        <time>2015-07-30T09:34:44Z</time>
      </trkpt>
      <trkpt lat="47.32661" lon="6.01587">
        <ele>222.3</ele>
        <time>2015-07-30T09:34:46Z</time>
      </trkpt>
      <trkpt lat="47.3266" lon="6.01602">
        <ele>221.8</ele>
        <time>2015-07-30T09:34:53Z</time>
      </trkpt>
      <trkpt lat="47.32655" lon="6.01652">
        <ele>220.1</ele>
        <time>2015-07-30T09:35:13Z</time>
      </trkpt>
      <trkpt lat="47.32653" lon="6.01659">
        <ele>220</ele>
        <time>2015-07-30T09:35:16Z</time>
      </trkpt>
      <trkpt lat="47.32653" lon="6.01666">
        <ele>219.7</ele>
        <time>2015-07-30T09:35:19Z</time>
      </trkpt>
      <trkpt lat="47.32651" lon="6.01675">
        <ele>219.7</ele>
        <time>2015-07-30T09:35:23Z</time>
      </trkpt>
      <trkpt lat="47.32643" lon="6.01722">
        <ele>219.6</ele>
        <time>2015-07-30T09:35:44Z</time>
      </trkpt>
      <trkpt lat="47.32641" lon="6.01731">
        <ele>219.5</ele>
        <time>2015-07-30T09:35:47Z</time>
      </trkpt>
      <trkpt lat="47.32636" lon="6.01748">
        <ele>219.4</ele>
        <time>2015-07-30T09:35:54Z</time>
      </trkpt>
      <trkpt lat="47.32628" lon="6.01784">
        <ele>220.5</ele>
        <time>2015-07-30T09:36:09Z</time>
      </trkpt>
      <trkpt lat="47.32628" lon="6.01805">
        <ele>221.1</ele>
        <time>2015-07-30T09:36:18Z</time>
      </trkpt>
      <trkpt lat="47.32629" lon="6.01842">
        <ele>222.2</ele>
        <time>2015-07-30T09:36:33Z</time>
      </trkpt>
      <trkpt lat="47.32629" lon="6.01847">
        <ele>222.4</ele>
        <time>2015-07-30T09:36:35Z</time>
      </trkpt>
      <trkpt lat="47.32624" lon="6.01867">
        <ele>223.2</ele>
        <time>2015-07-30T09:36:43Z</time>
      </trkpt>
      <trkpt lat="47.32623" lon="6.01892">
        <ele>224.2</ele>
        <time>2015-07-30T09:36:54Z</time>
      </trkpt>
      <trkpt lat="47.32622" lon="6.01906">
        <ele>224.8</ele>
        <time>2015-07-30T09:37:00Z</time>
      </trkpt>
      <trkpt lat="47.32621" lon="6.01916">
        <ele>225.2</ele>
        <time>2015-07-30T09:37:04Z</time>
      </trkpt>
      <trkpt lat="47.32613" lon="6.01951">
        <ele>226.5</ele>
        <time>2015-07-30T09:37:18Z</time>
      </trkpt>
      <trkpt lat="47.32606" lon="6.02039">
        <ele>228.5</ele>
        <time>2015-07-30T09:37:54Z</time>
      </trkpt>
      <trkpt lat="47.32597" lon="6.02093">
        <ele>228.9</ele>
        <time>2015-07-30T09:38:17Z</time>
      </trkpt>
      <trkpt lat="47.326" lon="6.02101">
        <ele>228.5</ele>
        <time>2015-07-30T09:38:21Z</time>
      </trkpt>
      <trkpt lat="47.32602" lon="6.02111">
        <ele>228.2</ele>
        <time>2015-07-30T09:38:25Z</time>
      </trkpt>
      <trkpt lat="47.32605" lon="6.0218">
        <ele>227.3</ele>
        <time>2015-07-30T09:38:54Z</time>
      </trkpt>
      <trkpt lat="47.32616" lon="6.02235">
        <ele>229.2</ele>
        <time>2015-07-30T09:39:18Z</time>
      </trkpt>
      <trkpt lat="47.32617" lon="6.02312">
        <ele>230.7</ele>
        <time>2015-07-30T09:39:50Z</time>
      </trkpt>
      <trkpt lat="47.32628" lon="6.02375">
        <ele>230.5</ele>
        <time>2015-07-30T09:40:17Z</time>
      </trkpt>
      <trkpt lat="47.3263" lon="6.02382">
        <ele>230.5</ele>
        <time>2015-07-30T09:40:20Z</time>
      </trkpt>
      <trkpt lat="47.32648" lon="6.02463">
        <ele>230.2</ele>
        <time>2015-07-30T09:40:54Z</time>
      </trkpt>
      <trkpt lat="47.32656" lon="6.02517">
        <ele>230</ele>
        <time>2015-07-30T09:41:18Z</time>
      </trkpt>
      <trkpt lat="47.32659" lon="6.02528">
        <ele>230</ele>
        <time>2015-07-30T09:41:23Z</time>
      </trkpt>
      <trkpt lat="47.32652" lon="6.02548">
        <ele>230.1</ele>
        <time>2015-07-30T09:41:34Z</time>
      </trkpt>
      <trkpt lat="47.32647" lon="6.02555">
        <ele>230.2</ele>
        <time>2015-07-30T09:41:38Z</time>
      </trkpt>
      <trkpt lat="47.32642" lon="6.0256">
        <ele>230.2</ele>
        <time>2015-07-30T09:41:42Z</time>
      </trkpt>
      <trkpt lat="47.32636" lon="6.02568">
        <ele>230.3</ele>
        <time>2015-07-30T09:41:46Z</time>
      </trkpt>
      <trkpt lat="47.3263" lon="6.02573">
        <ele>230.4</ele>
        <time>2015-07-30T09:41:52Z</time>
      </trkpt>
      <trkpt lat="47.32624" lon="6.02581">
        <ele>230.5</ele>
        <time>2015-07-30T09:41:58Z</time>
      </trkpt>
      <trkpt lat="47.32618" lon="6.02588">
        <ele>230.6</ele>
        <time>2015-07-30T09:42:02Z</time>
      </trkpt>
      <trkpt lat="47.32613" lon="6.02595">
        <ele>230.7</ele>
        <time>2015-07-30T09:42:07Z</time>
      </trkpt>
      <trkpt lat="47.3261" lon="6.02599">
        <ele>230.7</ele>
        <time>2015-07-30T09:42:10Z</time>
      </trkpt>
      <trkpt lat="47.32599" lon="6.02611">
        <ele>230.7</ele>
        <time>2015-07-30T09:42:18Z</time>
      </trkpt>
      <trkpt lat="47.32592" lon="6.02614">
        <ele>230.6</ele>
        <time>2015-07-30T09:42:22Z</time>
      </trkpt>
      <trkpt lat="47.32566" lon="6.02652">
        <ele>231.3</ele>
        <time>2015-07-30T09:42:40Z</time>
      </trkpt>
      <trkpt lat="47.32562" lon="6.02657">
        <ele>231.5</ele>
        <time>2015-07-30T09:42:42Z</time>
      </trkpt>
      <trkpt lat="47.32546" lon="6.02683">
        <ele>232.7</ele>
        <time>2015-07-30T09:42:54Z</time>
      </trkpt>
      <trkpt lat="47.32505" lon="6.02756">
        <ele>236.2</ele>
        <time>2015-07-30T09:43:18Z</time>
      </trkpt>
      <trkpt lat="47.32504" lon="6.02763">
        <ele>236.6</ele>
        <time>2015-07-30T09:43:21Z</time>
      </trkpt>
      <trkpt lat="47.32502" lon="6.02773">
        <ele>237.3</ele>
        <time>2015-07-30T09:43:25Z</time>
      </trkpt>
      <trkpt lat="47.32499" lon="6.02779">
        <ele>237.8</ele>
        <time>2015-07-30T09:43:28Z</time>
      </trkpt>
      <trkpt lat="47.32494" lon="6.02784">
        <ele>238.2</ele>
        <time>2015-07-30T09:43:30Z</time>
      </trkpt>
      <trkpt lat="47.32464" lon="6.02833">
        <ele>241.4</ele>
        <time>2015-07-30T09:43:54Z</time>
      </trkpt>
      <trkpt lat="47.32451" lon="6.0286">
        <ele>242</ele>
        <time>2015-07-30T09:44:10Z</time>
      </trkpt>
      <trkpt lat="47.32445" lon="6.02874">
        <ele>242.5</ele>
        <time>2015-07-30T09:44:17Z</time>
      </trkpt>
      <trkpt lat="47.32438" lon="6.02879">
        <ele>242.8</ele>
        <time>2015-07-30T09:44:20Z</time>
      </trkpt>
      <trkpt lat="47.32433" lon="6.02883">
        <ele>243.1</ele>
        <time>2015-07-30T09:44:23Z</time>
      </trkpt>
      <trkpt lat="47.3239" lon="6.02925">
        <ele>245.7</ele>
        <time>2015-07-30T09:44:52Z</time>
      </trkpt>
      <trkpt lat="47.32361" lon="6.02945">
        <ele>246.2</ele>
        <time>2015-07-30T09:45:13Z</time>
      </trkpt>
      <trkpt lat="47.32357" lon="6.02952">
        <ele>246.2</ele>
        <time>2015-07-30T09:45:20Z</time>
      </trkpt>
      <trkpt lat="47.32298" lon="6.02982">
        <ele>250.3</ele>
        <time>2015-07-30T09:45:53Z</time>
      </trkpt>
      <trkpt lat="47.32259" lon="6.02999">
        <ele>254.9</ele>
        <time>2015-07-30T09:46:18Z</time>
      </trkpt>
      <trkpt lat="47.32251" lon="6.03001">
        <ele>255.8</ele>
        <time>2015-07-30T09:46:23Z</time>
      </trkpt>
      <trkpt lat="47.32231" lon="6.03008">
        <ele>262.7</ele>
        <time>2015-07-30T09:46:35Z</time>
      </trkpt>
      <trkpt lat="47.32216" lon="6.03012">
        <ele>268.1</ele>
        <time>2015-07-30T09:46:46Z</time>
      </trkpt>
      <trkpt lat="47.322" lon="6.03016">
        <ele>273.9</ele>
        <time>2015-07-30T09:46:55Z</time>
      </trkpt>
      <trkpt lat="47.32164" lon="6.03025">
        <ele>287.5</ele>
        <time>2015-07-30T09:47:18Z</time>
      </trkpt>
      <trkpt lat="47.32154" lon="6.03028">
        <ele>292.4</ele>
        <time>2015-07-30T09:47:23Z</time>
      </trkpt>
      <trkpt lat="47.32124" lon="6.03044">
        <ele>307.2</ele>
        <time>2015-07-30T09:47:54Z</time>
      </trkpt>
      <trkpt lat="47.32118" lon="6.03045">
        <ele>310.2</ele>
        <time>2015-07-30T09:48:06Z</time>
      </trkpt>
      <trkpt lat="47.32113" lon="6.03048">
        <ele>312.7</ele>
        <time>2015-07-30T09:48:08Z</time>
      </trkpt>
      <trkpt lat="47.32109" lon="6.03056">
        <ele>314.5</ele>
        <time>2015-07-30T09:48:16Z</time>
      </trkpt>
      <trkpt lat="47.32108" lon="6.03064">
        <ele>314.8</ele>
        <time>2015-07-30T09:48:20Z</time>
      </trkpt>
      <trkpt lat="47.32105" lon="6.03073">
        <ele>316.1</ele>
        <time>2015-07-30T09:48:23Z</time>
      </trkpt>
      <trkpt lat="47.32102" lon="6.03082">
        <ele>317.4</ele>
        <time>2015-07-30T09:48:28Z</time>
      </trkpt>
      <trkpt lat="47.321" lon="6.0309">
        <ele>318.3</ele>
        <time>2015-07-30T09:48:32Z</time>
      </trkpt>
      <trkpt lat="47.32102" lon="6.03099">
        <ele>317.2</ele>
        <time>2015-07-30T09:48:36Z</time>
      </trkpt>
      <trkpt lat="47.32101" lon="6.03108">
        <ele>317.7</ele>
        <time>2015-07-30T09:48:40Z</time>
      </trkpt>
      <trkpt lat="47.321" lon="6.03116">
        <ele>318.1</ele>
        <time>2015-07-30T09:48:44Z</time>
      </trkpt>
      <trkpt lat="47.32101" lon="6.03126">
        <ele>317.5</ele>
        <time>2015-07-30T09:48:50Z</time>
      </trkpt>
      <trkpt lat="47.32101" lon="6.03135">
        <ele>317.4</ele>
        <time>2015-07-30T09:48:54Z</time>
      </trkpt>
      <trkpt lat="47.32101" lon="6.03143">
        <ele>317.4</ele>
        <time>2015-07-30T09:48:58Z</time>
      </trkpt>
      <trkpt lat="47.32099" lon="6.0315">
        <ele>318.2</ele>
        <time>2015-07-30T09:49:02Z</time>
      </trkpt>
      <trkpt lat="47.32096" lon="6.03158">
        <ele>319.5</ele>
        <time>2015-07-30T09:49:06Z</time>
      </trkpt>
      <trkpt lat="47.32098" lon="6.03166">
        <ele>318.5</ele>
        <time>2015-07-30T09:49:10Z</time>
      </trkpt>
      <trkpt lat="47.321" lon="6.03174">
        <ele>318</ele>
        <time>2015-07-30T09:49:14Z</time>
      </trkpt>
      <trkpt lat="47.32103" lon="6.03181">
        <ele>317.2</ele>
        <time>2015-07-30T09:49:17Z</time>
      </trkpt>
      <trkpt lat="47.32105" lon="6.03189">
        <ele>316.8</ele>
        <time>2015-07-30T09:49:20Z</time>
      </trkpt>
      <trkpt lat="47.32106" lon="6.03195">
        <ele>316.8</ele>
        <time>2015-07-30T09:49:23Z</time>
      </trkpt>
      <trkpt lat="47.32106" lon="6.03202">
        <ele>317.2</ele>
        <time>2015-07-30T09:49:26Z</time>
      </trkpt>
      <trkpt lat="47.32108" lon="6.03212">
        <ele>317</ele>
        <time>2015-07-30T09:49:32Z</time>
      </trkpt>
      <trkpt lat="47.32111" lon="6.03218">
        <ele>316.2</ele>
        <time>2015-07-30T09:49:34Z</time>
      </trkpt>
      <trkpt lat="47.32113" lon="6.03228">
        <ele>316.1</ele>
        <time>2015-07-30T09:49:38Z</time>
      </trkpt>
      <trkpt lat="47.32111" lon="6.03238">
        <ele>317.6</ele>
        <time>2015-07-30T09:49:42Z</time>
      </trkpt>
      <trkpt lat="47.32111" lon="6.03246">
        <ele>318.1</ele>
        <time>2015-07-30T09:49:46Z</time>
      </trkpt>
      <trkpt lat="47.32114" lon="6.03256">
        <ele>317.7</ele>
        <time>2015-07-30T09:49:50Z</time>
      </trkpt>
      <trkpt lat="47.32115" lon="6.03264">
        <ele>317.9</ele>
        <time>2015-07-30T09:49:56Z</time>
      </trkpt>
      <trkpt lat="47.32117" lon="6.03272">
        <ele>317.7</ele>
        <time>2015-07-30T09:50:00Z</time>
      </trkpt>
      <trkpt lat="47.32119" lon="6.03281">
        <ele>317.6</ele>
        <time>2015-07-30T09:50:04Z</time>
      </trkpt>
      <trkpt lat="47.32121" lon="6.03291">
        <ele>317.7</ele>
        <time>2015-07-30T09:50:08Z</time>
      </trkpt>
      <trkpt lat="47.32117" lon="6.033">
        <ele>319.8</ele>
        <time>2015-07-30T09:50:12Z</time>
      </trkpt>
      <trkpt lat="47.32116" lon="6.03308">
        <ele>320.8</ele>
        <time>2015-07-30T09:50:16Z</time>
      </trkpt>
      <trkpt lat="47.32115" lon="6.03316">
        <ele>321.7</ele>
        <time>2015-07-30T09:50:20Z</time>
      </trkpt>
      <trkpt lat="47.32116" lon="6.03324">
        <ele>321.9</ele>
        <time>2015-07-30T09:50:24Z</time>
      </trkpt>
      <trkpt lat="47.32117" lon="6.03332">
        <ele>322.2</ele>
        <time>2015-07-30T09:50:28Z</time>
      </trkpt>
      <trkpt lat="47.32114" lon="6.03337">
        <ele>323.5</ele>
        <time>2015-07-30T09:50:30Z</time>
      </trkpt>
      <trkpt lat="47.32109" lon="6.03346">
        <ele>325.6</ele>
        <time>2015-07-30T09:50:34Z</time>
      </trkpt>
      <trkpt lat="47.32106" lon="6.03354">
        <ele>326.9</ele>
        <time>2015-07-30T09:50:38Z</time>
      </trkpt>
      <trkpt lat="47.32105" lon="6.03361">
        <ele>327.6</ele>
        <time>2015-07-30T09:50:42Z</time>
      </trkpt>
      <trkpt lat="47.32105" lon="6.03369">
        <ele>327.9</ele>
        <time>2015-07-30T09:50:47Z</time>
      </trkpt>
      <trkpt lat="47.32105" lon="6.03379">
        <ele>328.3</ele>
        <time>2015-07-30T09:50:54Z</time>
      </trkpt>
      <trkpt lat="47.32103" lon="6.03386">
        <ele>329.2</ele>
        <time>2015-07-30T09:50:58Z</time>
      </trkpt>
      <trkpt lat="47.32102" lon="6.03393">
        <ele>329.7</ele>
        <time>2015-07-30T09:51:02Z</time>
      </trkpt>
      <trkpt lat="47.32101" lon="6.03404">
        <ele>330.4</ele>
        <time>2015-07-30T09:51:08Z</time>
      </trkpt>
      <trkpt lat="47.32101" lon="6.03412">
        <ele>330.7</ele>
        <time>2015-07-30T09:51:12Z</time>
      </trkpt>
      <trkpt lat="47.32103" lon="6.03418">
        <ele>330.3</ele>
        <time>2015-07-30T09:51:16Z</time>
      </trkpt>
      <trkpt lat="47.32105" lon="6.03426">
        <ele>329.7</ele>
        <time>2015-07-30T09:51:20Z</time>
      </trkpt>
      <trkpt lat="47.32109" lon="6.03434">
        <ele>328.6</ele>
        <time>2015-07-30T09:51:25Z</time>
      </trkpt>
      <trkpt lat="47.32108" lon="6.03444">
        <ele>328.8</ele>
        <time>2015-07-30T09:51:30Z</time>
      </trkpt>
      <trkpt lat="47.3211" lon="6.03454">
        <ele>328.3</ele>
        <time>2015-07-30T09:51:34Z</time>
      </trkpt>
      <trkpt lat="47.32113" lon="6.03464">
        <ele>327.5</ele>
        <time>2015-07-30T09:51:38Z</time>
      </trkpt>
      <trkpt lat="47.32116" lon="6.03472">
        <ele>326.8</ele>
        <time>2015-07-30T09:51:42Z</time>
      </trkpt>
      <trkpt lat="47.32112" lon="6.03482">
        <ele>327.8</ele>
        <time>2015-07-30T09:51:46Z</time>
      </trkpt>
      <trkpt lat="47.3211" lon="6.0349">
        <ele>328.2</ele>
        <time>2015-07-30T09:51:50Z</time>
      </trkpt>
      <trkpt lat="47.32111" lon="6.03499">
        <ele>328</ele>
        <time>2015-07-30T09:51:55Z</time>
      </trkpt>
      <trkpt lat="47.32113" lon="6.03506">
        <ele>327.9</ele>
        <time>2015-07-30T09:51:58Z</time>
      </trkpt>
      <trkpt lat="47.32112" lon="6.03516">
        <ele>328.7</ele>
        <time>2015-07-30T09:52:02Z</time>
      </trkpt>
      <trkpt lat="47.32116" lon="6.03525">
        <ele>328.4</ele>
        <time>2015-07-30T09:52:06Z</time>
      </trkpt>
      <trkpt lat="47.32121" lon="6.03528">
        <ele>327.5</ele>
        <time>2015-07-30T09:52:09Z</time>
      </trkpt>
      <trkpt lat="47.32117" lon="6.03535">
        <ele>328.7</ele>
        <time>2015-07-30T09:52:13Z</time>
      </trkpt>
      <trkpt lat="47.3212" lon="6.03542">
        <ele>328.5</ele>
        <time>2015-07-30T09:52:16Z</time>
      </trkpt>
      <trkpt lat="47.32123" lon="6.03547">
        <ele>328.2</ele>
        <time>2015-07-30T09:52:20Z</time>
      </trkpt>
      <trkpt lat="47.32132" lon="6.0358">
        <ele>328.4</ele>
        <time>2015-07-30T09:52:38Z</time>
      </trkpt>
      <trkpt lat="47.32138" lon="6.03582">
        <ele>327.4</ele>
        <time>2015-07-30T09:52:44Z</time>
      </trkpt>
      <trkpt lat="47.32142" lon="6.03583">
        <ele>326.7</ele>
        <time>2015-07-30T09:52:48Z</time>
      </trkpt>
      <trkpt lat="47.32146" lon="6.03589">
        <ele>326.6</ele>
        <time>2015-07-30T09:52:52Z</time>
      </trkpt>
      <trkpt lat="47.3214" lon="6.03588">
        <ele>327.7</ele>
        <time>2015-07-30T09:53:04Z</time>
      </trkpt>
      <trkpt lat="47.32135" lon="6.03584">
        <ele>328.2</ele>
        <time>2015-07-30T09:53:09Z</time>
      </trkpt>
      <trkpt lat="47.3213" lon="6.03582">
        <ele>329</ele>
        <time>2015-07-30T09:53:13Z</time>
      </trkpt>
      <trkpt lat="47.32123" lon="6.0358">
        <ele>330.2</ele>
        <time>2015-07-30T09:53:16Z</time>
      </trkpt>
      <trkpt lat="47.32119" lon="6.03577">
        <ele>330.8</ele>
        <time>2015-07-30T09:53:19Z</time>
      </trkpt>
      <trkpt lat="47.32111" lon="6.03572">
        <ele>332.1</ele>
        <time>2015-07-30T09:53:32Z</time>
      </trkpt>
      <trkpt lat="47.32103" lon="6.0357">
        <ele>333.5</ele>
        <time>2015-07-30T09:53:43Z</time>
      </trkpt>
      <trkpt lat="47.321" lon="6.03564">
        <ele>333.8</ele>
        <time>2015-07-30T09:53:52Z</time>
      </trkpt>
      <trkpt lat="47.32071" lon="6.03553">
        <ele>339.3</ele>
        <time>2015-07-30T09:54:13Z</time>
      </trkpt>
      <trkpt lat="47.32068" lon="6.03546">
        <ele>339.5</ele>
        <time>2015-07-30T09:54:17Z</time>
      </trkpt>
      <trkpt lat="47.32034" lon="6.03532">
        <ele>345.4</ele>
        <time>2015-07-30T09:54:40Z</time>
      </trkpt>
      <trkpt lat="47.32011" lon="6.03519">
        <ele>348.4</ele>
        <time>2015-07-30T09:54:53Z</time>
      </trkpt>
      <trkpt lat="47.32003" lon="6.03517">
        <ele>349.7</ele>
        <time>2015-07-30T09:54:59Z</time>
      </trkpt>
      <trkpt lat="47.31998" lon="6.03515">
        <ele>350.8</ele>
        <time>2015-07-30T09:55:04Z</time>
      </trkpt>
      <trkpt lat="47.31989" lon="6.03518">
        <ele>354.6</ele>
        <time>2015-07-30T09:55:12Z</time>
      </trkpt>
      <trkpt lat="47.31984" lon="6.03516">
        <ele>356.3</ele>
        <time>2015-07-30T09:55:20Z</time>
      </trkpt>
      <trkpt lat="47.31966" lon="6.03503">
        <ele>361.5</ele>
        <time>2015-07-30T09:55:42Z</time>
      </trkpt>
      <trkpt lat="47.31957" lon="6.03498">
        <ele>364.5</ele>
        <time>2015-07-30T09:55:53Z</time>
      </trkpt>
      <trkpt lat="47.31949" lon="6.03499">
        <ele>367.6</ele>
        <time>2015-07-30T09:56:00Z</time>
      </trkpt>
      <trkpt lat="47.31936" lon="6.03499">
        <ele>372.5</ele>
        <time>2015-07-30T09:56:14Z</time>
      </trkpt>
      <trkpt lat="47.31922" lon="6.03496">
        <ele>377.8</ele>
        <time>2015-07-30T09:56:39Z</time>
      </trkpt>
      <trkpt lat="47.31912" lon="6.03494">
        <ele>381.7</ele>
        <time>2015-07-30T09:57:00Z</time>
      </trkpt>
      <trkpt lat="47.31902" lon="6.03496">
        <ele>385.8</ele>
        <time>2015-07-30T09:57:03Z</time>
      </trkpt>
      <trkpt lat="47.31893" lon="6.03506">
        <ele>390.4</ele>
        <time>2015-07-30T09:57:15Z</time>
      </trkpt>
      <trkpt lat="47.31883" lon="6.03517">
        <ele>395.8</ele>
        <time>2015-07-30T09:57:40Z</time>
      </trkpt>
      <trkpt lat="47.31878" lon="6.0352">
        <ele>398.1</ele>
        <time>2015-07-30T09:57:49Z</time>
      </trkpt>
      <trkpt lat="47.31869" lon="6.03518">
        <ele>401.4</ele>
        <time>2015-07-30T09:58:02Z</time>
      </trkpt>
      <trkpt lat="47.31863" lon="6.03516">
        <ele>403.6</ele>
        <time>2015-07-30T09:58:11Z</time>
      </trkpt>
      <trkpt lat="47.31857" lon="6.03517">
        <ele>406.1</ele>
        <time>2015-07-30T09:58:20Z</time>
      </trkpt>
      <trkpt lat="47.31852" lon="6.03515">
        <ele>407.8</ele>
        <time>2015-07-30T09:58:25Z</time>
      </trkpt>
      <trkpt lat="47.31839" lon="6.03523">
        <ele>413.7</ele>
        <time>2015-07-30T09:58:44Z</time>
      </trkpt>
      <trkpt lat="47.31839" lon="6.03537">
        <ele>414.9</ele>
        <time>2015-07-30T09:59:04Z</time>
      </trkpt>
      <trkpt lat="47.31839" lon="6.03552">
        <ele>416.3</ele>
        <time>2015-07-30T09:59:17Z</time>
      </trkpt>
      <trkpt lat="47.31832" lon="6.03564">
        <ele>419.7</ele>
        <time>2015-07-30T09:59:52Z</time>
      </trkpt>
      <trkpt lat="47.31829" lon="6.03571">
        <ele>421.1</ele>
        <time>2015-07-30T09:59:58Z</time>
      </trkpt>
      <trkpt lat="47.31821" lon="6.03579">
        <ele>423.6</ele>
        <time>2015-07-30T10:00:08Z</time>
      </trkpt>
      <trkpt lat="47.31817" lon="6.03582">
        <ele>424.8</ele>
        <time>2015-07-30T10:00:19Z</time>
      </trkpt>
      <trkpt lat="47.31816" lon="6.03583">
        <ele>425.1</ele>
        <time>2015-07-30T10:00:20Z</time>
      </trkpt>
      <trkpt lat="47.31818" lon="6.03595">
        <ele>424.1</ele>
        <time>2015-07-30T10:00:34Z</time>
      </trkpt>
      <trkpt lat="47.31812" lon="6.03602">
        <ele>424.9</ele>
        <time>2015-07-30T10:00:53Z</time>
      </trkpt>
      <trkpt lat="47.31804" lon="6.03607">
        <ele>426.1</ele>
        <time>2015-07-30T10:01:17Z</time>
      </trkpt>
      <trkpt lat="47.31802" lon="6.03614">
        <ele>425.8</ele>
        <time>2015-07-30T10:01:26Z</time>
      </trkpt>
      <trkpt lat="47.31797" lon="6.03618">
        <ele>426.2</ele>
        <time>2015-07-30T10:01:46Z</time>
      </trkpt>
      <trkpt lat="47.31796" lon="6.03626">
        <ele>425.5</ele>
        <time>2015-07-30T10:02:15Z</time>
      </trkpt>
      <trkpt lat="47.31791" lon="6.03626">
        <ele>426.2</ele>
        <time>2015-07-30T10:02:19Z</time>
      </trkpt>
      <trkpt lat="47.31794" lon="6.03642">
        <ele>424.1</ele>
        <time>2015-07-30T10:02:51Z</time>
      </trkpt>
      <trkpt lat="47.31748" lon="6.0365">
        <ele>426.7</ele>
        <time>2015-07-30T10:03:53Z</time>
      </trkpt>
      <trkpt lat="47.31745" lon="6.03684">
        <ele>417.6</ele>
        <time>2015-07-30T10:04:17Z</time>
      </trkpt>
      <trkpt lat="47.31742" lon="6.03708">
        <ele>410.1</ele>
        <time>2015-07-30T10:04:53Z</time>
      </trkpt>
      <trkpt lat="47.31743" lon="6.03716">
        <ele>407.5</ele>
        <time>2015-07-30T10:05:07Z</time>
      </trkpt>
      <trkpt lat="47.31746" lon="6.03712">
        <ele>408.6</ele>
        <time>2015-07-30T10:05:12Z</time>
      </trkpt>
      <trkpt lat="47.31751" lon="6.0371">
        <ele>409</ele>
        <time>2015-07-30T10:05:16Z</time>
      </trkpt>
      <trkpt lat="47.31739" lon="6.03709">
        <ele>410</ele>
        <time>2015-07-30T10:05:20Z</time>
      </trkpt>
      <trkpt lat="47.31732" lon="6.03701">
        <ele>412.8</ele>
        <time>2015-07-30T10:05:25Z</time>
      </trkpt>
      <trkpt lat="47.31729" lon="6.037">
        <ele>413.3</ele>
        <time>2015-07-30T10:05:46Z</time>
      </trkpt>
      <trkpt lat="47.31727" lon="6.03698">
        <ele>414</ele>
        <time>2015-07-30T10:05:50Z</time>
      </trkpt>
      <trkpt lat="47.31723" lon="6.03696">
        <ele>414.8</ele>
        <time>2015-07-30T10:06:02Z</time>
      </trkpt>
      <trkpt lat="47.31722" lon="6.03696">
        <ele>414.9</ele>
        <time>2015-07-30T10:06:04Z</time>
      </trkpt>
      <trkpt lat="47.31717" lon="6.03692">
        <ele>416.3</ele>
        <time>2015-07-30T10:06:10Z</time>
      </trkpt>
      <trkpt lat="47.317" lon="6.03671">
        <ele>423</ele>
        <time>2015-07-30T10:06:54Z</time>
      </trkpt>
      <trkpt lat="47.31695" lon="6.03665">
        <ele>424.7</ele>
        <time>2015-07-30T10:06:58Z</time>
      </trkpt>
      <trkpt lat="47.31693" lon="6.03658">
        <ele>426.6</ele>
        <time>2015-07-30T10:07:06Z</time>
      </trkpt>
      <trkpt lat="47.31689" lon="6.03653">
        <ele>428</ele>
        <time>2015-07-30T10:07:16Z</time>
      </trkpt>
      <trkpt lat="47.31679" lon="6.03648">
        <ele>429.7</ele>
        <time>2015-07-30T10:07:24Z</time>
      </trkpt>
      <trkpt lat="47.31678" lon="6.03642">
        <ele>431.3</ele>
        <time>2015-07-30T10:07:28Z</time>
      </trkpt>
      <trkpt lat="47.31673" lon="6.0364">
        <ele>432.1</ele>
        <time>2015-07-30T10:07:31Z</time>
      </trkpt>
      <trkpt lat="47.31675" lon="6.03634">
        <ele>433.6</ele>
        <time>2015-07-30T10:07:37Z</time>
      </trkpt>
      <trkpt lat="47.3167" lon="6.0363">
        <ele>435</ele>
        <time>2015-07-30T10:07:46Z</time>
      </trkpt>
      <trkpt lat="47.31663" lon="6.03628">
        <ele>436.2</ele>
        <time>2015-07-30T10:07:54Z</time>
      </trkpt>
      <trkpt lat="47.31644" lon="6.03613">
        <ele>442.8</ele>
        <time>2015-07-30T10:08:14Z</time>
      </trkpt>
      <trkpt lat="47.31618" lon="6.03589">
        <ele>452.9</ele>
        <time>2015-07-30T10:08:48Z</time>
      </trkpt>
      <trkpt lat="47.31599" lon="6.03578">
        <ele>458.4</ele>
        <time>2015-07-30T10:09:04Z</time>
      </trkpt>
      <trkpt lat="47.31585" lon="6.03565">
        <ele>464.2</ele>
        <time>2015-07-30T10:09:20Z</time>
      </trkpt>
      <trkpt lat="47.31582" lon="6.0356">
        <ele>466.4</ele>
        <time>2015-07-30T10:09:25Z</time>
      </trkpt>
      <trkpt lat="47.31577" lon="6.03559">
        <ele>468.3</ele>
        <time>2015-07-30T10:09:30Z</time>
      </trkpt>
      <trkpt lat="47.31559" lon="6.0355">
        <ele>476.7</ele>
        <time>2015-07-30T10:09:46Z</time>
      </trkpt>
      <trkpt lat="47.31543" lon="6.0353">
        <ele>487.4</ele>
        <time>2015-07-30T10:10:13Z</time>
      </trkpt>
      <trkpt lat="47.31537" lon="6.03526">
        <ele>490.4</ele>
        <time>2015-07-30T10:10:20Z</time>
      </trkpt>
      <trkpt lat="47.31495" lon="6.03507">
        <ele>508.6</ele>
        <time>2015-07-30T10:10:53Z</time>
      </trkpt>
      <trkpt lat="47.31481" lon="6.03493">
        <ele>514.9</ele>
        <time>2015-07-30T10:11:18Z</time>
      </trkpt>
      <trkpt lat="47.31467" lon="6.03489">
        <ele>518.9</ele>
        <time>2015-07-30T10:11:49Z</time>
      </trkpt>
      <trkpt lat="47.31461" lon="6.03488">
        <ele>520.6</ele>
        <time>2015-07-30T10:12:03Z</time>
      </trkpt>
      <trkpt lat="47.31454" lon="6.03479">
        <ele>522.4</ele>
        <time>2015-07-30T10:12:18Z</time>
      </trkpt>
      <trkpt lat="47.31447" lon="6.03475">
        <ele>524.1</ele>
        <time>2015-07-30T10:12:25Z</time>
      </trkpt>
      <trkpt lat="47.31435" lon="6.03467">
        <ele>526.8</ele>
        <time>2015-07-30T10:12:38Z</time>
      </trkpt>
      <trkpt lat="47.31431" lon="6.03461">
        <ele>527.4</ele>
        <time>2015-07-30T10:12:46Z</time>
      </trkpt>
      <trkpt lat="47.31405" lon="6.03453">
        <ele>531.4</ele>
        <time>2015-07-30T10:13:18Z</time>
      </trkpt>
      <trkpt lat="47.31385" lon="6.03452">
        <ele>533.7</ele>
        <time>2015-07-30T10:13:50Z</time>
      </trkpt>
      <trkpt lat="47.31362" lon="6.0346">
        <ele>537.2</ele>
        <time>2015-07-30T10:14:14Z</time>
      </trkpt>
      <trkpt lat="47.31348" lon="6.03457">
        <ele>538.6</ele>
        <time>2015-07-30T10:14:40Z</time>
      </trkpt>
      <trkpt lat="47.31346" lon="6.03464">
        <ele>539.6</ele>
        <time>2015-07-30T10:14:42Z</time>
      </trkpt>
      <trkpt lat="47.31342" lon="6.03468">
        <ele>540.5</ele>
        <time>2015-07-30T10:14:50Z</time>
      </trkpt>
      <trkpt lat="47.31338" lon="6.03475">
        <ele>541.7</ele>
        <time>2015-07-30T10:15:01Z</time>
      </trkpt>
      <trkpt lat="47.31334" lon="6.03481">
        <ele>542.9</ele>
        <time>2015-07-30T10:15:07Z</time>
      </trkpt>
      <trkpt lat="47.31327" lon="6.03489">
        <ele>543.8</ele>
        <time>2015-07-30T10:15:18Z</time>
      </trkpt>
      <trkpt lat="47.31323" lon="6.03494">
        <ele>544.4</ele>
        <time>2015-07-30T10:15:22Z</time>
      </trkpt>
      <trkpt lat="47.31319" lon="6.035">
        <ele>545</ele>
        <time>2015-07-30T10:15:26Z</time>
      </trkpt>
      <trkpt lat="47.31315" lon="6.03504">
        <ele>544.5</ele>
        <time>2015-07-30T10:15:30Z</time>
      </trkpt>
      <trkpt lat="47.31312" lon="6.03509">
        <ele>544</ele>
        <time>2015-07-30T10:15:38Z</time>
      </trkpt>
      <trkpt lat="47.31309" lon="6.03514">
        <ele>543.4</ele>
        <time>2015-07-30T10:15:40Z</time>
      </trkpt>
      <trkpt lat="47.31306" lon="6.03519">
        <ele>542.9</ele>
        <time>2015-07-30T10:15:43Z</time>
      </trkpt>
      <trkpt lat="47.31302" lon="6.03523">
        <ele>542.5</ele>
        <time>2015-07-30T10:15:48Z</time>
      </trkpt>
      <trkpt lat="47.31297" lon="6.03528">
        <ele>542</ele>
        <time>2015-07-30T10:15:54Z</time>
      </trkpt>
      <trkpt lat="47.31292" lon="6.03534">
        <ele>541.5</ele>
        <time>2015-07-30T10:16:02Z</time>
      </trkpt>
      <trkpt lat="47.31287" lon="6.03536">
        <ele>541.4</ele>
        <time>2015-07-30T10:16:08Z</time>
      </trkpt>
      <trkpt lat="47.31281" lon="6.03539">
        <ele>541.3</ele>
        <time>2015-07-30T10:16:12Z</time>
      </trkpt>
      <trkpt lat="47.31276" lon="6.03541">
        <ele>541.3</ele>
        <time>2015-07-30T10:16:14Z</time>
      </trkpt>
      <trkpt lat="47.31271" lon="6.03545">
        <ele>541.1</ele>
        <time>2015-07-30T10:16:16Z</time>
      </trkpt>
      <trkpt lat="47.31265" lon="6.03549">
        <ele>540.9</ele>
        <time>2015-07-30T10:16:21Z</time>
      </trkpt>
      <trkpt lat="47.31261" lon="6.03554">
        <ele>540.7</ele>
        <time>2015-07-30T10:16:26Z</time>
      </trkpt>
      <trkpt lat="47.31257" lon="6.03556">
        <ele>540.7</ele>
        <time>2015-07-30T10:16:30Z</time>
      </trkpt>
      <trkpt lat="47.31251" lon="6.03556">
        <ele>540.9</ele>
        <time>2015-07-30T10:16:34Z</time>
      </trkpt>
      <trkpt lat="47.31245" lon="6.03558">
        <ele>540.8</ele>
        <time>2015-07-30T10:16:40Z</time>
      </trkpt>
      <trkpt lat="47.31239" lon="6.03557">
        <ele>540.9</ele>
        <time>2015-07-30T10:16:48Z</time>
      </trkpt>
      <trkpt lat="47.31233" lon="6.03557">
        <ele>540.8</ele>
        <time>2015-07-30T10:16:52Z</time>
      </trkpt>
      <trkpt lat="47.31228" lon="6.03557">
        <ele>540.8</ele>
        <time>2015-07-30T10:16:55Z</time>
      </trkpt>
      <trkpt lat="47.31223" lon="6.03558">
        <ele>540.8</ele>
        <time>2015-07-30T10:16:57Z</time>
      </trkpt>
      <trkpt lat="47.31216" lon="6.03561">
        <ele>540.6</ele>
        <time>2015-07-30T10:16:59Z</time>
      </trkpt>
      <trkpt lat="47.3121" lon="6.0356">
        <ele>540.6</ele>
        <time>2015-07-30T10:17:07Z</time>
      </trkpt>
      <trkpt lat="47.31202" lon="6.0355">
        <ele>541.1</ele>
        <time>2015-07-30T10:17:18Z</time>
      </trkpt>
      <trkpt lat="47.31195" lon="6.03547">
        <ele>541.1</ele>
        <time>2015-07-30T10:17:25Z</time>
      </trkpt>
      <trkpt lat="47.31176" lon="6.03553">
        <ele>540.8</ele>
        <time>2015-07-30T10:17:46Z</time>
      </trkpt>
      <trkpt lat="47.31151" lon="6.03556">
        <ele>540.9</ele>
        <time>2015-07-30T10:18:13Z</time>
      </trkpt>
      <trkpt lat="47.31143" lon="6.03556">
        <ele>541</ele>
        <time>2015-07-30T10:18:20Z</time>
      </trkpt>
      <trkpt lat="47.3112" lon="6.03553">
        <ele>541.4</ele>
        <time>2015-07-30T10:18:34Z</time>
      </trkpt>
      <trkpt lat="47.31104" lon="6.03556">
        <ele>541.7</ele>
        <time>2015-07-30T10:18:42Z</time>
      </trkpt>
      <trkpt lat="47.3109" lon="6.03555">
        <ele>541.9</ele>
        <time>2015-07-30T10:18:54Z</time>
      </trkpt>
      <trkpt lat="47.31085" lon="6.03554">
        <ele>541.9</ele>
        <time>2015-07-30T10:18:57Z</time>
      </trkpt>
      <trkpt lat="47.31059" lon="6.03554">
        <ele>540.7</ele>
        <time>2015-07-30T10:19:13Z</time>
      </trkpt>
      <trkpt lat="47.31053" lon="6.0355">
        <ele>540.2</ele>
        <time>2015-07-30T10:19:17Z</time>
      </trkpt>
      <trkpt lat="47.31044" lon="6.03549">
        <ele>539.7</ele>
        <time>2015-07-30T10:19:25Z</time>
      </trkpt>
      <trkpt lat="47.31032" lon="6.03553">
        <ele>539.2</ele>
        <time>2015-07-30T10:19:33Z</time>
      </trkpt>
      <trkpt lat="47.31012" lon="6.03556">
        <ele>538.3</ele>
        <time>2015-07-30T10:19:47Z</time>
      </trkpt>
      <trkpt lat="47.30988" lon="6.03592">
        <ele>537.7</ele>
        <time>2015-07-30T10:20:13Z</time>
      </trkpt>
      <trkpt lat="47.3098" lon="6.03602">
        <ele>536.9</ele>
        <time>2015-07-30T10:20:20Z</time>
      </trkpt>
      <trkpt lat="47.30977" lon="6.03608">
        <ele>536.7</ele>
        <time>2015-07-30T10:20:25Z</time>
      </trkpt>
      <trkpt lat="47.30974" lon="6.03614">
        <ele>536.4</ele>
        <time>2015-07-30T10:20:29Z</time>
      </trkpt>
      <trkpt lat="47.30974" lon="6.03613">
        <ele>536.4</ele>
        <time>2015-07-30T10:20:37Z</time>
      </trkpt>
      <trkpt lat="47.30969" lon="6.03618">
        <ele>535.8</ele>
        <time>2015-07-30T10:20:46Z</time>
      </trkpt>
      <trkpt lat="47.30964" lon="6.03624">
        <ele>535.2</ele>
        <time>2015-07-30T10:21:06Z</time>
      </trkpt>
      <trkpt lat="47.30967" lon="6.03631">
        <ele>535.7</ele>
        <time>2015-07-30T10:21:16Z</time>
      </trkpt>
      <trkpt lat="47.3097" lon="6.03637">
        <ele>536.2</ele>
        <time>2015-07-30T10:21:21Z</time>
      </trkpt>
      <trkpt lat="47.30971" lon="6.03644">
        <ele>536.5</ele>
        <time>2015-07-30T10:21:26Z</time>
      </trkpt>
      <trkpt lat="47.3097" lon="6.03651">
        <ele>536.4</ele>
        <time>2015-07-30T10:21:30Z</time>
      </trkpt>
      <trkpt lat="47.30976" lon="6.03655">
        <ele>537.3</ele>
        <time>2015-07-30T10:21:34Z</time>
      </trkpt>
      <trkpt lat="47.30981" lon="6.03665">
        <ele>538.2</ele>
        <time>2015-07-30T10:21:40Z</time>
      </trkpt>
      <trkpt lat="47.3098" lon="6.03673">
        <ele>538.2</ele>
        <time>2015-07-30T10:21:44Z</time>
      </trkpt>
      <trkpt lat="47.3098" lon="6.03683">
        <ele>538.4</ele>
        <time>2015-07-30T10:21:48Z</time>
      </trkpt>
      <trkpt lat="47.30978" lon="6.03691">
        <ele>538.2</ele>
        <time>2015-07-30T10:21:52Z</time>
      </trkpt>
      <trkpt lat="47.30978" lon="6.03698">
        <ele>538.3</ele>
        <time>2015-07-30T10:21:56Z</time>
      </trkpt>
      <trkpt lat="47.30978" lon="6.03707">
        <ele>538.4</ele>
        <time>2015-07-30T10:22:04Z</time>
      </trkpt>
      <trkpt lat="47.30973" lon="6.03713">
        <ele>537.5</ele>
        <time>2015-07-30T10:22:08Z</time>
      </trkpt>
      <trkpt lat="47.30971" lon="6.0372">
        <ele>537.2</ele>
        <time>2015-07-30T10:22:12Z</time>
      </trkpt>
      <trkpt lat="47.30973" lon="6.03727">
        <ele>537.6</ele>
        <time>2015-07-30T10:22:15Z</time>
      </trkpt>
      <trkpt lat="47.30973" lon="6.03734">
        <ele>537.7</ele>
        <time>2015-07-30T10:22:18Z</time>
      </trkpt>
      <trkpt lat="47.30974" lon="6.03743">
        <ele>538</ele>
        <time>2015-07-30T10:22:24Z</time>
      </trkpt>
      <trkpt lat="47.30973" lon="6.03754">
        <ele>537.9</ele>
        <time>2015-07-30T10:22:30Z</time>
      </trkpt>
      <trkpt lat="47.30973" lon="6.03762">
        <ele>538.1</ele>
        <time>2015-07-30T10:22:34Z</time>
      </trkpt>
      <trkpt lat="47.30974" lon="6.03773">
        <ele>538.6</ele>
        <time>2015-07-30T10:22:40Z</time>
      </trkpt>
      <trkpt lat="47.30974" lon="6.03781">
        <ele>538.8</ele>
        <time>2015-07-30T10:22:44Z</time>
      </trkpt>
      <trkpt lat="47.30971" lon="6.03789">
        <ele>538.3</ele>
        <time>2015-07-30T10:22:48Z</time>
      </trkpt>
      <trkpt lat="47.30969" lon="6.03798">
        <ele>538</ele>
        <time>2015-07-30T10:22:53Z</time>
      </trkpt>
      <trkpt lat="47.30971" lon="6.03809">
        <ele>538.8</ele>
        <time>2015-07-30T10:23:00Z</time>
      </trkpt>
      <trkpt lat="47.30973" lon="6.0384">
        <ele>539.9</ele>
        <time>2015-07-30T10:23:15Z</time>
      </trkpt>
      <trkpt lat="47.30974" lon="6.03848">
        <ele>540.2</ele>
        <time>2015-07-30T10:23:20Z</time>
      </trkpt>
      <trkpt lat="47.30984" lon="6.03882">
        <ele>542.9</ele>
        <time>2015-07-30T10:23:38Z</time>
      </trkpt>
      <trkpt lat="47.30984" lon="6.03892">
        <ele>542.9</ele>
        <time>2015-07-30T10:23:44Z</time>
      </trkpt>
      <trkpt lat="47.30989" lon="6.03951">
        <ele>545.3</ele>
        <time>2015-07-30T10:24:19Z</time>
      </trkpt>
      <trkpt lat="47.30988" lon="6.03963">
        <ele>545.4</ele>
        <time>2015-07-30T10:24:26Z</time>
      </trkpt>
      <trkpt lat="47.30995" lon="6.03998">
        <ele>548.5</ele>
        <time>2015-07-30T10:24:47Z</time>
      </trkpt>
      <trkpt lat="47.30999" lon="6.0401">
        <ele>549.7</ele>
        <time>2015-07-30T10:24:54Z</time>
      </trkpt>
      <trkpt lat="47.30998" lon="6.04025">
        <ele>549.4</ele>
        <time>2015-07-30T10:25:04Z</time>
      </trkpt>
      <trkpt lat="47.30999" lon="6.04039">
        <ele>549.7</ele>
        <time>2015-07-30T10:25:12Z</time>
      </trkpt>
      <trkpt lat="47.31002" lon="6.04056">
        <ele>550.4</ele>
        <time>2015-07-30T10:25:20Z</time>
      </trkpt>
      <trkpt lat="47.31006" lon="6.04067">
        <ele>551.2</ele>
        <time>2015-07-30T10:25:28Z</time>
      </trkpt>
      <trkpt lat="47.31006" lon="6.04077">
        <ele>551.3</ele>
        <time>2015-07-30T10:25:33Z</time>
      </trkpt>
      <trkpt lat="47.31008" lon="6.04088">
        <ele>551.8</ele>
        <time>2015-07-30T10:25:38Z</time>
      </trkpt>
      <trkpt lat="47.31012" lon="6.04125">
        <ele>553.2</ele>
        <time>2015-07-30T10:25:54Z</time>
      </trkpt>
      <trkpt lat="47.31015" lon="6.04141">
        <ele>554.1</ele>
        <time>2015-07-30T10:26:03Z</time>
      </trkpt>
      <trkpt lat="47.31018" lon="6.04158">
        <ele>555</ele>
        <time>2015-07-30T10:26:13Z</time>
      </trkpt>
      <trkpt lat="47.3102" lon="6.04167">
        <ele>555.6</ele>
        <time>2015-07-30T10:26:17Z</time>
      </trkpt>
      <trkpt lat="47.31025" lon="6.04175">
        <ele>556.8</ele>
        <time>2015-07-30T10:26:21Z</time>
      </trkpt>
      <trkpt lat="47.31036" lon="6.04235">
        <ele>560</ele>
        <time>2015-07-30T10:26:51Z</time>
      </trkpt>
      <trkpt lat="47.31044" lon="6.0426">
        <ele>561.9</ele>
        <time>2015-07-30T10:27:03Z</time>
      </trkpt>
      <trkpt lat="47.31047" lon="6.04296">
        <ele>562</ele>
        <time>2015-07-30T10:27:19Z</time>
      </trkpt>
      <trkpt lat="47.31055" lon="6.0431">
        <ele>563.8</ele>
        <time>2015-07-30T10:27:26Z</time>
      </trkpt>
      <trkpt lat="47.31059" lon="6.04322">
        <ele>564.7</ele>
        <time>2015-07-30T10:27:32Z</time>
      </trkpt>
      <trkpt lat="47.31059" lon="6.0434">
        <ele>564.3</ele>
        <time>2015-07-30T10:27:42Z</time>
      </trkpt>
      <trkpt lat="47.31061" lon="6.04356">
        <ele>564.1</ele>
        <time>2015-07-30T10:27:50Z</time>
      </trkpt>
      <trkpt lat="47.3107" lon="6.04397">
        <ele>564.8</ele>
        <time>2015-07-30T10:28:15Z</time>
      </trkpt>
      <trkpt lat="47.31075" lon="6.04407">
        <ele>565.9</ele>
        <time>2015-07-30T10:28:21Z</time>
      </trkpt>
      <trkpt lat="47.3108" lon="6.04414">
        <ele>567.1</ele>
        <time>2015-07-30T10:28:26Z</time>
      </trkpt>
      <trkpt lat="47.31092" lon="6.0442">
        <ele>568.1</ele>
        <time>2015-07-30T10:28:29Z</time>
      </trkpt>
      <trkpt lat="47.31113" lon="6.04433">
        <ele>568.1</ele>
        <time>2015-07-30T10:28:51Z</time>
      </trkpt>
      <trkpt lat="47.31118" lon="6.0444">
        <ele>567.8</ele>
        <time>2015-07-30T10:29:07Z</time>
      </trkpt>
      <trkpt lat="47.3111" lon="6.04456">
        <ele>565.3</ele>
        <time>2015-07-30T10:29:15Z</time>
      </trkpt>
      <trkpt lat="47.31115" lon="6.04467">
        <ele>564.7</ele>
        <time>2015-07-30T10:29:21Z</time>
      </trkpt>
      <trkpt lat="47.31115" lon="6.04476">
        <ele>563.8</ele>
        <time>2015-07-30T10:29:26Z</time>
      </trkpt>
      <trkpt lat="47.31113" lon="6.04487">
        <ele>562.4</ele>
        <time>2015-07-30T10:29:33Z</time>
      </trkpt>
      <trkpt lat="47.31116" lon="6.04501">
        <ele>561.3</ele>
        <time>2015-07-30T10:29:41Z</time>
      </trkpt>
      <trkpt lat="47.3114" lon="6.04535">
        <ele>560.9</ele>
        <time>2015-07-30T10:30:09Z</time>
      </trkpt>
      <trkpt lat="47.31154" lon="6.04548">
        <ele>561.8</ele>
        <time>2015-07-30T10:30:19Z</time>
      </trkpt>
      <trkpt lat="47.31157" lon="6.04553">
        <ele>561.8</ele>
        <time>2015-07-30T10:30:22Z</time>
      </trkpt>
      <trkpt lat="47.3116" lon="6.04562">
        <ele>561.3</ele>
        <time>2015-07-30T10:30:26Z</time>
      </trkpt>
      <trkpt lat="47.31162" lon="6.04573">
        <ele>560.3</ele>
        <time>2015-07-30T10:30:30Z</time>
      </trkpt>
      <trkpt lat="47.31165" lon="6.04581">
        <ele>559.9</ele>
        <time>2015-07-30T10:30:33Z</time>
      </trkpt>
      <trkpt lat="47.31171" lon="6.04625">
        <ele>554.6</ele>
        <time>2015-07-30T10:30:53Z</time>
      </trkpt>
      <trkpt lat="47.31175" lon="6.04638">
        <ele>553.1</ele>
        <time>2015-07-30T10:30:59Z</time>
      </trkpt>
      <trkpt lat="47.31174" lon="6.04651">
        <ele>551.6</ele>
        <time>2015-07-30T10:31:05Z</time>
      </trkpt>
      <trkpt lat="47.31176" lon="6.04658">
        <ele>550.9</ele>
        <time>2015-07-30T10:31:09Z</time>
      </trkpt>
      <trkpt lat="47.31186" lon="6.04674">
        <ele>550.5</ele>
        <time>2015-07-30T10:31:19Z</time>
      </trkpt>
      <trkpt lat="47.31187" lon="6.04683">
        <ele>550.3</ele>
        <time>2015-07-30T10:31:23Z</time>
      </trkpt>
      <trkpt lat="47.31189" lon="6.0469">
        <ele>550.2</ele>
        <time>2015-07-30T10:31:26Z</time>
      </trkpt>
      <trkpt lat="47.31191" lon="6.04696">
        <ele>550.2</ele>
        <time>2015-07-30T10:31:29Z</time>
      </trkpt>
      <trkpt lat="47.31192" lon="6.04709">
        <ele>549.8</ele>
        <time>2015-07-30T10:31:35Z</time>
      </trkpt>
      <trkpt lat="47.31197" lon="6.0472">
        <ele>550.1</ele>
        <time>2015-07-30T10:31:41Z</time>
      </trkpt>
      <trkpt lat="47.31205" lon="6.04741">
        <ele>550.7</ele>
        <time>2015-07-30T10:31:53Z</time>
      </trkpt>
      <trkpt lat="47.31212" lon="6.04763">
        <ele>550.3</ele>
        <time>2015-07-30T10:32:05Z</time>
      </trkpt>
      <trkpt lat="47.31219" lon="6.04775">
        <ele>550.4</ele>
        <time>2015-07-30T10:32:11Z</time>
      </trkpt>
      <trkpt lat="47.31225" lon="6.04799">
        <ele>549.2</ele>
        <time>2015-07-30T10:32:19Z</time>
      </trkpt>
      <trkpt lat="47.31227" lon="6.04805">
        <ele>549</ele>
        <time>2015-07-30T10:32:22Z</time>
      </trkpt>
      <trkpt lat="47.31237" lon="6.04869">
        <ele>545.3</ele>
        <time>2015-07-30T10:32:53Z</time>
      </trkpt>
      <trkpt lat="47.31215" lon="6.04907">
        <ele>537.3</ele>
        <time>2015-07-30T10:33:19Z</time>
      </trkpt>
      <trkpt lat="47.31219" lon="6.04915">
        <ele>537.5</ele>
        <time>2015-07-30T10:33:26Z</time>
      </trkpt>
      <trkpt lat="47.31232" lon="6.04934">
        <ele>539.1</ele>
        <time>2015-07-30T10:33:38Z</time>
      </trkpt>
      <trkpt lat="47.31236" lon="6.0494">
        <ele>539.7</ele>
        <time>2015-07-30T10:33:42Z</time>
      </trkpt>
      <trkpt lat="47.3124" lon="6.04945">
        <ele>540.4</ele>
        <time>2015-07-30T10:33:46Z</time>
      </trkpt>
      <trkpt lat="47.31245" lon="6.04948">
        <ele>541.3</ele>
        <time>2015-07-30T10:33:50Z</time>
      </trkpt>
      <trkpt lat="47.31247" lon="6.04957">
        <ele>541.4</ele>
        <time>2015-07-30T10:33:58Z</time>
      </trkpt>
      <trkpt lat="47.31246" lon="6.04965">
        <ele>540.7</ele>
        <time>2015-07-30T10:34:02Z</time>
      </trkpt>
      <trkpt lat="47.31249" lon="6.04974">
        <ele>541</ele>
        <time>2015-07-30T10:34:06Z</time>
      </trkpt>
      <trkpt lat="47.31252" lon="6.04982">
        <ele>541</ele>
        <time>2015-07-30T10:34:10Z</time>
      </trkpt>
      <trkpt lat="47.31255" lon="6.04989">
        <ele>541</ele>
        <time>2015-07-30T10:34:14Z</time>
      </trkpt>
      <trkpt lat="47.31261" lon="6.04996">
        <ele>541.4</ele>
        <time>2015-07-30T10:34:18Z</time>
      </trkpt>
      <trkpt lat="47.31264" lon="6.05001">
        <ele>541.6</ele>
        <time>2015-07-30T10:34:20Z</time>
      </trkpt>
      <trkpt lat="47.31268" lon="6.05009">
        <ele>541.8</ele>
        <time>2015-07-30T10:34:24Z</time>
      </trkpt>
      <trkpt lat="47.31276" lon="6.05025">
        <ele>542.5</ele>
        <time>2015-07-30T10:34:34Z</time>
      </trkpt>
      <trkpt lat="47.31276" lon="6.05034">
        <ele>542.2</ele>
        <time>2015-07-30T10:34:39Z</time>
      </trkpt>
      <trkpt lat="47.31281" lon="6.05056">
        <ele>542.6</ele>
        <time>2015-07-30T10:34:55Z</time>
      </trkpt>
      <trkpt lat="47.31292" lon="6.05092">
        <ele>544.5</ele>
        <time>2015-07-30T10:35:12Z</time>
      </trkpt>
      <trkpt lat="47.31294" lon="6.051">
        <ele>544.9</ele>
        <time>2015-07-30T10:35:16Z</time>
      </trkpt>
      <trkpt lat="47.31298" lon="6.05106">
        <ele>545.9</ele>
        <time>2015-07-30T10:35:18Z</time>
      </trkpt>
      <trkpt lat="47.31315" lon="6.05174">
        <ele>549.7</ele>
        <time>2015-07-30T10:35:53Z</time>
      </trkpt>
      <trkpt lat="47.31324" lon="6.05199">
        <ele>550.6</ele>
        <time>2015-07-30T10:36:06Z</time>
      </trkpt>
      <trkpt lat="47.3134" lon="6.0522">
        <ele>552.3</ele>
        <time>2015-07-30T10:36:21Z</time>
      </trkpt>
      <trkpt lat="47.31348" lon="6.05225">
        <ele>552.8</ele>
        <time>2015-07-30T10:36:26Z</time>
      </trkpt>
      <trkpt lat="47.31356" lon="6.05263">
        <ele>552.3</ele>
        <time>2015-07-30T10:36:53Z</time>
      </trkpt>
      <trkpt lat="47.31357" lon="6.05274">
        <ele>551.8</ele>
        <time>2015-07-30T10:36:59Z</time>
      </trkpt>
      <trkpt lat="47.31362" lon="6.05276">
        <ele>552.4</ele>
        <time>2015-07-30T10:37:03Z</time>
      </trkpt>
      <trkpt lat="47.31381" lon="6.05299">
        <ele>554.4</ele>
        <time>2015-07-30T10:37:19Z</time>
      </trkpt>
      <trkpt lat="47.31405" lon="6.05313">
        <ele>558.2</ele>
        <time>2015-07-30T10:37:41Z</time>
      </trkpt>
      <trkpt lat="47.31415" lon="6.0533">
        <ele>559.7</ele>
        <time>2015-07-30T10:37:53Z</time>
      </trkpt>
      <trkpt lat="47.3143" lon="6.05347">
        <ele>559.7</ele>
        <time>2015-07-30T10:38:10Z</time>
      </trkpt>
      <trkpt lat="47.31435" lon="6.05362">
        <ele>559.5</ele>
        <time>2015-07-30T10:38:18Z</time>
      </trkpt>
      <trkpt lat="47.31448" lon="6.05388">
        <ele>560.3</ele>
        <time>2015-07-30T10:38:41Z</time>
      </trkpt>
      <trkpt lat="47.31464" lon="6.05409">
        <ele>562.7</ele>
        <time>2015-07-30T10:38:53Z</time>
      </trkpt>
      <trkpt lat="47.31481" lon="6.05418">
        <ele>565.8</ele>
        <time>2015-07-30T10:39:05Z</time>
      </trkpt>
      <trkpt lat="47.31487" lon="6.0542">
        <ele>566.7</ele>
        <time>2015-07-30T10:39:10Z</time>
      </trkpt>
      <trkpt lat="47.31493" lon="6.05424">
        <ele>567.6</ele>
        <time>2015-07-30T10:39:16Z</time>
      </trkpt>
      <trkpt lat="47.31498" lon="6.05432">
        <ele>568.3</ele>
        <time>2015-07-30T10:39:21Z</time>
      </trkpt>
      <trkpt lat="47.31526" lon="6.05463">
        <ele>569.4</ele>
        <time>2015-07-30T10:39:39Z</time>
      </trkpt>
      <trkpt lat="47.3153" lon="6.05468">
        <ele>569.8</ele>
        <time>2015-07-30T10:39:43Z</time>
      </trkpt>
      <trkpt lat="47.31533" lon="6.05473">
        <ele>570.2</ele>
        <time>2015-07-30T10:39:47Z</time>
      </trkpt>
      <trkpt lat="47.31556" lon="6.05495">
        <ele>573.9</ele>
        <time>2015-07-30T10:40:12Z</time>
      </trkpt>
      <trkpt lat="47.31561" lon="6.05495">
        <ele>574.6</ele>
        <time>2015-07-30T10:40:15Z</time>
      </trkpt>
      <trkpt lat="47.31571" lon="6.05503">
        <ele>576.3</ele>
        <time>2015-07-30T10:40:21Z</time>
      </trkpt>
      <trkpt lat="47.31598" lon="6.05539">
        <ele>576.9</ele>
        <time>2015-07-30T10:40:41Z</time>
      </trkpt>
      <trkpt lat="47.316" lon="6.05546">
        <ele>577.1</ele>
        <time>2015-07-30T10:40:43Z</time>
      </trkpt>
      <trkpt lat="47.31611" lon="6.05561">
        <ele>577.6</ele>
        <time>2015-07-30T10:40:53Z</time>
      </trkpt>
      <trkpt lat="47.31619" lon="6.05574">
        <ele>578.8</ele>
        <time>2015-07-30T10:41:03Z</time>
      </trkpt>
      <trkpt lat="47.31622" lon="6.05579">
        <ele>579.4</ele>
        <time>2015-07-30T10:41:05Z</time>
      </trkpt>
      <trkpt lat="47.31639" lon="6.05588">
        <ele>580.6</ele>
        <time>2015-07-30T10:41:19Z</time>
      </trkpt>
      <trkpt lat="47.31644" lon="6.05589">
        <ele>580.9</ele>
        <time>2015-07-30T10:41:22Z</time>
      </trkpt>
      <trkpt lat="47.31651" lon="6.05593">
        <ele>581.2</ele>
        <time>2015-07-30T10:41:26Z</time>
      </trkpt>
      <trkpt lat="47.3165" lon="6.05628">
        <ele>581.1</ele>
        <time>2015-07-30T10:41:46Z</time>
      </trkpt>
      <trkpt lat="47.31669" lon="6.05679">
        <ele>582.3</ele>
        <time>2015-07-30T10:42:13Z</time>
      </trkpt>
      <trkpt lat="47.3168" lon="6.05686">
        <ele>581.2</ele>
        <time>2015-07-30T10:42:19Z</time>
      </trkpt>
      <trkpt lat="47.31685" lon="6.0569">
        <ele>580.8</ele>
        <time>2015-07-30T10:42:24Z</time>
      </trkpt>
      <trkpt lat="47.31692" lon="6.05712">
        <ele>580.8</ele>
        <time>2015-07-30T10:42:46Z</time>
      </trkpt>
      <trkpt lat="47.31695" lon="6.05716">
        <ele>580.9</ele>
        <time>2015-07-30T10:42:48Z</time>
      </trkpt>
      <trkpt lat="47.31703" lon="6.05742">
        <ele>582.2</ele>
        <time>2015-07-30T10:43:01Z</time>
      </trkpt>
      <trkpt lat="47.31715" lon="6.05762">
        <ele>583.7</ele>
        <time>2015-07-30T10:43:13Z</time>
      </trkpt>
      <trkpt lat="47.31719" lon="6.05767">
        <ele>584.1</ele>
        <time>2015-07-30T10:43:15Z</time>
      </trkpt>
      <trkpt lat="47.31721" lon="6.05774">
        <ele>584.4</ele>
        <time>2015-07-30T10:43:19Z</time>
      </trkpt>
      <trkpt lat="47.31726" lon="6.05782">
        <ele>585</ele>
        <time>2015-07-30T10:43:23Z</time>
      </trkpt>
      <trkpt lat="47.31733" lon="6.05794">
        <ele>585.9</ele>
        <time>2015-07-30T10:43:29Z</time>
      </trkpt>
      <trkpt lat="47.31749" lon="6.0583">
        <ele>588.8</ele>
        <time>2015-07-30T10:43:48Z</time>
      </trkpt>
      <trkpt lat="47.3175" lon="6.05838">
        <ele>589</ele>
        <time>2015-07-30T10:43:52Z</time>
      </trkpt>
      <trkpt lat="47.3177" lon="6.05857">
        <ele>589.3</ele>
        <time>2015-07-30T10:44:10Z</time>
      </trkpt>
      <trkpt lat="47.3178" lon="6.05867">
        <ele>589.8</ele>
        <time>2015-07-30T10:44:20Z</time>
      </trkpt>
      <trkpt lat="47.3181" lon="6.05876">
        <ele>591.2</ele>
        <time>2015-07-30T10:44:42Z</time>
      </trkpt>
      <trkpt lat="47.31823" lon="6.05885">
        <ele>592.5</ele>
        <time>2015-07-30T10:44:53Z</time>
      </trkpt>
      <trkpt lat="47.31829" lon="6.05905">
        <ele>594.6</ele>
        <time>2015-07-30T10:45:05Z</time>
      </trkpt>
      <trkpt lat="47.31842" lon="6.05923">
        <ele>595.7</ele>
        <time>2015-07-30T10:45:13Z</time>
      </trkpt>
      <trkpt lat="47.31846" lon="6.05927">
        <ele>595.7</ele>
        <time>2015-07-30T10:45:15Z</time>
      </trkpt>
      <trkpt lat="47.31855" lon="6.05936">
        <ele>595.8</ele>
        <time>2015-07-30T10:45:21Z</time>
      </trkpt>
      <trkpt lat="47.31873" lon="6.05943">
        <ele>595.8</ele>
        <time>2015-07-30T10:45:26Z</time>
      </trkpt>
      <trkpt lat="47.31878" lon="6.05951">
        <ele>596.4</ele>
        <time>2015-07-30T10:45:30Z</time>
      </trkpt>
      <trkpt lat="47.31882" lon="6.05959">
        <ele>597.1</ele>
        <time>2015-07-30T10:45:34Z</time>
      </trkpt>
      <trkpt lat="47.31885" lon="6.05967">
        <ele>597.9</ele>
        <time>2015-07-30T10:45:42Z</time>
      </trkpt>
      <trkpt lat="47.31887" lon="6.05968">
        <ele>598</ele>
        <time>2015-07-30T10:46:03Z</time>
      </trkpt>
      <trkpt lat="47.31887" lon="6.05968">
        <ele>598</ele>
        <time>2015-07-30T10:46:19Z</time>
      </trkpt>
      <trkpt lat="47.31887" lon="6.05968">
        <ele>598</ele>
        <time>2015-07-30T10:46:34Z</time>
      </trkpt>
      <trkpt lat="47.31887" lon="6.05978">
        <ele>599</ele>
        <time>2015-07-30T10:46:44Z</time>
      </trkpt>
      <trkpt lat="47.31884" lon="6.05984">
        <ele>599.5</ele>
        <time>2015-07-30T10:46:50Z</time>
      </trkpt>
      <trkpt lat="47.31878" lon="6.05989">
        <ele>599.7</ele>
        <time>2015-07-30T10:46:56Z</time>
      </trkpt>
      <trkpt lat="47.31871" lon="6.05992">
        <ele>599.6</ele>
        <time>2015-07-30T10:47:00Z</time>
      </trkpt>
      <trkpt lat="47.31866" lon="6.05996">
        <ele>599.7</ele>
        <time>2015-07-30T10:47:06Z</time>
      </trkpt>
      <trkpt lat="47.31859" lon="6.06">
        <ele>599.5</ele>
        <time>2015-07-30T10:47:12Z</time>
      </trkpt>
      <trkpt lat="47.31854" lon="6.06004">
        <ele>599.3</ele>
        <time>2015-07-30T10:47:16Z</time>
      </trkpt>
      <trkpt lat="47.31846" lon="6.06005">
        <ele>598.8</ele>
        <time>2015-07-30T10:47:32Z</time>
      </trkpt>
      <trkpt lat="47.31842" lon="6.0601">
        <ele>598.7</ele>
        <time>2015-07-30T10:47:37Z</time>
      </trkpt>
      <trkpt lat="47.31838" lon="6.06017">
        <ele>598.5</ele>
        <time>2015-07-30T10:47:42Z</time>
      </trkpt>
      <trkpt lat="47.31833" lon="6.06021">
        <ele>598.2</ele>
        <time>2015-07-30T10:47:45Z</time>
      </trkpt>
      <trkpt lat="47.31829" lon="6.06025">
        <ele>597.7</ele>
        <time>2015-07-30T10:47:49Z</time>
      </trkpt>
      <trkpt lat="47.31823" lon="6.06033">
        <ele>596.9</ele>
        <time>2015-07-30T10:47:54Z</time>
      </trkpt>
      <trkpt lat="47.31819" lon="6.0604">
        <ele>596.3</ele>
        <time>2015-07-30T10:47:58Z</time>
      </trkpt>
      <trkpt lat="47.31815" lon="6.06043">
        <ele>595.8</ele>
        <time>2015-07-30T10:48:01Z</time>
      </trkpt>
      <trkpt lat="47.31809" lon="6.06049">
        <ele>594.9</ele>
        <time>2015-07-30T10:48:04Z</time>
      </trkpt>
      <trkpt lat="47.31806" lon="6.06054">
        <ele>594.4</ele>
        <time>2015-07-30T10:48:08Z</time>
      </trkpt>
      <trkpt lat="47.31804" lon="6.0606">
        <ele>594.1</ele>
        <time>2015-07-30T10:48:12Z</time>
      </trkpt>
      <trkpt lat="47.31801" lon="6.06066">
        <ele>593.6</ele>
        <time>2015-07-30T10:48:16Z</time>
      </trkpt>
      <trkpt lat="47.31798" lon="6.06075">
        <ele>593.1</ele>
        <time>2015-07-30T10:48:24Z</time>
      </trkpt>
      <trkpt lat="47.31794" lon="6.06083">
        <ele>592.4</ele>
        <time>2015-07-30T10:48:28Z</time>
      </trkpt>
      <trkpt lat="47.31793" lon="6.06091">
        <ele>592</ele>
        <time>2015-07-30T10:48:32Z</time>
      </trkpt>
      <trkpt lat="47.31789" lon="6.061">
        <ele>590.9</ele>
        <time>2015-07-30T10:48:36Z</time>
      </trkpt>
      <trkpt lat="47.31787" lon="6.06108">
        <ele>590.3</ele>
        <time>2015-07-30T10:48:40Z</time>
      </trkpt>
      <trkpt lat="47.31786" lon="6.06119">
        <ele>589.7</ele>
        <time>2015-07-30T10:48:46Z</time>
      </trkpt>
      <trkpt lat="47.31783" lon="6.06128">
        <ele>588.8</ele>
        <time>2015-07-30T10:48:48Z</time>
      </trkpt>
      <trkpt lat="47.31783" lon="6.06137">
        <ele>588.5</ele>
        <time>2015-07-30T10:48:52Z</time>
      </trkpt>
      <trkpt lat="47.31783" lon="6.06146">
        <ele>588.1</ele>
        <time>2015-07-30T10:48:56Z</time>
      </trkpt>
      <trkpt lat="47.31784" lon="6.06153">
        <ele>588.1</ele>
        <time>2015-07-30T10:49:00Z</time>
      </trkpt>
      <trkpt lat="47.31789" lon="6.06174">
        <ele>588</ele>
        <time>2015-07-30T10:49:09Z</time>
      </trkpt>
      <trkpt lat="47.31792" lon="6.06201">
        <ele>587</ele>
        <time>2015-07-30T10:49:21Z</time>
      </trkpt>
      <trkpt lat="47.31794" lon="6.06207">
        <ele>587.1</ele>
        <time>2015-07-30T10:49:23Z</time>
      </trkpt>
      <trkpt lat="47.31792" lon="6.06215">
        <ele>586.2</ele>
        <time>2015-07-30T10:49:27Z</time>
      </trkpt>
      <trkpt lat="47.31792" lon="6.06225">
        <ele>585.6</ele>
        <time>2015-07-30T10:49:31Z</time>
      </trkpt>
      <trkpt lat="47.31806" lon="6.0626">
        <ele>586.7</ele>
        <time>2015-07-30T10:49:50Z</time>
      </trkpt>
      <trkpt lat="47.31838" lon="6.06303">
        <ele>591.5</ele>
        <time>2015-07-30T10:50:18Z</time>
      </trkpt>
      <trkpt lat="47.31842" lon="6.06311">
        <ele>591.6</ele>
        <time>2015-07-30T10:50:24Z</time>
      </trkpt>
      <trkpt lat="47.31845" lon="6.06315">
        <ele>591.9</ele>
        <time>2015-07-30T10:50:27Z</time>
      </trkpt>
      <trkpt lat="47.31855" lon="6.06345">
        <ele>591.3</ele>
        <time>2015-07-30T10:50:50Z</time>
      </trkpt>
      <trkpt lat="47.31859" lon="6.06357">
        <ele>590.9</ele>
        <time>2015-07-30T10:50:59Z</time>
      </trkpt>
      <trkpt lat="47.31888" lon="6.06385">
        <ele>594</ele>
        <time>2015-07-30T10:51:20Z</time>
      </trkpt>
      <trkpt lat="47.31892" lon="6.06393">
        <ele>594.2</ele>
        <time>2015-07-30T10:51:26Z</time>
      </trkpt>
      <trkpt lat="47.31912" lon="6.06415">
        <ele>597.1</ele>
        <time>2015-07-30T10:51:53Z</time>
      </trkpt>
      <trkpt lat="47.31936" lon="6.0643">
        <ele>599.3</ele>
        <time>2015-07-30T10:52:20Z</time>
      </trkpt>
      <trkpt lat="47.31965" lon="6.06496">
        <ele>598.2</ele>
        <time>2015-07-30T10:52:53Z</time>
      </trkpt>
      <trkpt lat="47.31972" lon="6.06525">
        <ele>596.4</ele>
        <time>2015-07-30T10:53:10Z</time>
      </trkpt>
      <trkpt lat="47.31977" lon="6.06544">
        <ele>595.3</ele>
        <time>2015-07-30T10:53:20Z</time>
      </trkpt>
      <trkpt lat="47.31978" lon="6.06552">
        <ele>594.6</ele>
        <time>2015-07-30T10:53:23Z</time>
      </trkpt>
      <trkpt lat="47.32004" lon="6.06603">
        <ele>594.5</ele>
        <time>2015-07-30T10:53:53Z</time>
      </trkpt>
      <trkpt lat="47.3202" lon="6.06623">
        <ele>594.7</ele>
        <time>2015-07-30T10:54:19Z</time>
      </trkpt>
      <trkpt lat="47.32023" lon="6.0663">
        <ele>594.5</ele>
        <time>2015-07-30T10:54:24Z</time>
      </trkpt>
      <trkpt lat="47.32036" lon="6.06662">
        <ele>594.3</ele>
        <time>2015-07-30T10:54:36Z</time>
      </trkpt>
      <trkpt lat="47.32031" lon="6.06673">
        <ele>592.7</ele>
        <time>2015-07-30T10:54:40Z</time>
      </trkpt>
      <trkpt lat="47.32035" lon="6.06681">
        <ele>592.7</ele>
        <time>2015-07-30T10:54:44Z</time>
      </trkpt>
      <trkpt lat="47.32029" lon="6.06692">
        <ele>590.8</ele>
        <time>2015-07-30T10:54:46Z</time>
      </trkpt>
      <trkpt lat="47.32031" lon="6.06699">
        <ele>590.6</ele>
        <time>2015-07-30T10:54:48Z</time>
      </trkpt>
      <trkpt lat="47.32037" lon="6.06706">
        <ele>591.1</ele>
        <time>2015-07-30T10:54:52Z</time>
      </trkpt>
      <trkpt lat="47.32035" lon="6.06714">
        <ele>590.1</ele>
        <time>2015-07-30T10:54:54Z</time>
      </trkpt>
      <trkpt lat="47.32043" lon="6.06724">
        <ele>590.8</ele>
        <time>2015-07-30T10:54:58Z</time>
      </trkpt>
      <trkpt lat="47.32047" lon="6.06732">
        <ele>590.9</ele>
        <time>2015-07-30T10:55:02Z</time>
      </trkpt>
      <trkpt lat="47.32052" lon="6.0674">
        <ele>591.1</ele>
        <time>2015-07-30T10:55:06Z</time>
      </trkpt>
      <trkpt lat="47.32053" lon="6.06748">
        <ele>590.7</ele>
        <time>2015-07-30T10:55:10Z</time>
      </trkpt>
      <trkpt lat="47.3205" lon="6.06756">
        <ele>589.3</ele>
        <time>2015-07-30T10:55:14Z</time>
      </trkpt>
      <trkpt lat="47.32044" lon="6.06762">
        <ele>587.4</ele>
        <time>2015-07-30T10:55:16Z</time>
      </trkpt>
      <trkpt lat="47.32042" lon="6.06769">
        <ele>586.2</ele>
        <time>2015-07-30T10:55:19Z</time>
      </trkpt>
      <trkpt lat="47.32043" lon="6.06776">
        <ele>585.5</ele>
        <time>2015-07-30T10:55:24Z</time>
      </trkpt>
      <trkpt lat="47.32043" lon="6.06785">
        <ele>584.4</ele>
        <time>2015-07-30T10:55:30Z</time>
      </trkpt>
      <trkpt lat="47.32043" lon="6.06793">
        <ele>583.4</ele>
        <time>2015-07-30T10:55:34Z</time>
      </trkpt>
      <trkpt lat="47.32044" lon="6.06803">
        <ele>582.3</ele>
        <time>2015-07-30T10:55:40Z</time>
      </trkpt>
      <trkpt lat="47.32046" lon="6.06809">
        <ele>582</ele>
        <time>2015-07-30T10:55:43Z</time>
      </trkpt>
      <trkpt lat="47.32046" lon="6.06818">
        <ele>580.9</ele>
        <time>2015-07-30T10:55:48Z</time>
      </trkpt>
      <trkpt lat="47.32047" lon="6.06826">
        <ele>580.2</ele>
        <time>2015-07-30T10:55:54Z</time>
      </trkpt>
      <trkpt lat="47.32045" lon="6.06835">
        <ele>578.6</ele>
        <time>2015-07-30T10:55:58Z</time>
      </trkpt>
      <trkpt lat="47.32047" lon="6.06844">
        <ele>577.9</ele>
        <time>2015-07-30T10:56:02Z</time>
      </trkpt>
      <trkpt lat="47.3205" lon="6.06851">
        <ele>577.8</ele>
        <time>2015-07-30T10:56:06Z</time>
      </trkpt>
      <trkpt lat="47.32056" lon="6.06853">
        <ele>579</ele>
        <time>2015-07-30T10:56:16Z</time>
      </trkpt>
      <trkpt lat="47.32059" lon="6.06848">
        <ele>580.3</ele>
        <time>2015-07-30T10:56:20Z</time>
      </trkpt>
      <trkpt lat="47.32056" lon="6.06843">
        <ele>580.2</ele>
        <time>2015-07-30T10:56:41Z</time>
      </trkpt>
      <trkpt lat="47.32055" lon="6.06843">
        <ele>580</ele>
        <time>2015-07-30T10:56:43Z</time>
      </trkpt>
      <trkpt lat="47.32053" lon="6.06849">
        <ele>578.8</ele>
        <time>2015-07-30T10:56:48Z</time>
      </trkpt>
      <trkpt lat="47.32053" lon="6.06858">
        <ele>577.7</ele>
        <time>2015-07-30T10:56:54Z</time>
      </trkpt>
      <trkpt lat="47.32056" lon="6.06866">
        <ele>577.4</ele>
        <time>2015-07-30T10:57:00Z</time>
      </trkpt>
      <trkpt lat="47.3206" lon="6.06873">
        <ele>577.5</ele>
        <time>2015-07-30T10:57:04Z</time>
      </trkpt>
      <trkpt lat="47.32064" lon="6.06879">
        <ele>577.8</ele>
        <time>2015-07-30T10:57:08Z</time>
      </trkpt>
      <trkpt lat="47.32066" lon="6.06886">
        <ele>577.4</ele>
        <time>2015-07-30T10:57:12Z</time>
      </trkpt>
      <trkpt lat="47.32066" lon="6.06897">
        <ele>576</ele>
        <time>2015-07-30T10:57:16Z</time>
      </trkpt>
      <trkpt lat="47.32069" lon="6.06907">
        <ele>575.6</ele>
        <time>2015-07-30T10:57:20Z</time>
      </trkpt>
      <trkpt lat="47.32071" lon="6.06915">
        <ele>575.1</ele>
        <time>2015-07-30T10:57:26Z</time>
      </trkpt>
      <trkpt lat="47.32073" lon="6.06921">
        <ele>574.8</ele>
        <time>2015-07-30T10:57:30Z</time>
      </trkpt>
      <trkpt lat="47.32073" lon="6.0693">
        <ele>573.5</ele>
        <time>2015-07-30T10:57:34Z</time>
      </trkpt>
      <trkpt lat="47.32072" lon="6.06938">
        <ele>572.1</ele>
        <time>2015-07-30T10:57:39Z</time>
      </trkpt>
      <trkpt lat="47.32072" lon="6.06947">
        <ele>570.8</ele>
        <time>2015-07-30T10:57:43Z</time>
      </trkpt>
      <trkpt lat="47.32077" lon="6.06954">
        <ele>571</ele>
        <time>2015-07-30T10:57:46Z</time>
      </trkpt>
      <trkpt lat="47.32086" lon="6.06962">
        <ele>572</ele>
        <time>2015-07-30T10:57:49Z</time>
      </trkpt>
      <trkpt lat="47.3209" lon="6.06967">
        <ele>572.1</ele>
        <time>2015-07-30T10:57:52Z</time>
      </trkpt>
      <trkpt lat="47.32094" lon="6.06974">
        <ele>571.9</ele>
        <time>2015-07-30T10:57:56Z</time>
      </trkpt>
      <trkpt lat="47.32101" lon="6.06981">
        <ele>572.4</ele>
        <time>2015-07-30T10:58:00Z</time>
      </trkpt>
      <trkpt lat="47.32107" lon="6.06984">
        <ele>573.2</ele>
        <time>2015-07-30T10:58:02Z</time>
      </trkpt>
      <trkpt lat="47.32108" lon="6.06992">
        <ele>572.4</ele>
        <time>2015-07-30T10:58:06Z</time>
      </trkpt>
      <trkpt lat="47.32112" lon="6.07">
        <ele>572.2</ele>
        <time>2015-07-30T10:58:12Z</time>
      </trkpt>
      <trkpt lat="47.32116" lon="6.07005">
        <ele>572.5</ele>
        <time>2015-07-30T10:58:14Z</time>
      </trkpt>
      <trkpt lat="47.32119" lon="6.07015">
        <ele>572</ele>
        <time>2015-07-30T10:58:18Z</time>
      </trkpt>
      <trkpt lat="47.32123" lon="6.07019">
        <ele>572.4</ele>
        <time>2015-07-30T10:58:20Z</time>
      </trkpt>
      <trkpt lat="47.32129" lon="6.07027">
        <ele>572.8</ele>
        <time>2015-07-30T10:58:24Z</time>
      </trkpt>
      <trkpt lat="47.32131" lon="6.07036">
        <ele>572.2</ele>
        <time>2015-07-30T10:58:28Z</time>
      </trkpt>
      <trkpt lat="47.32134" lon="6.07046">
        <ele>571.8</ele>
        <time>2015-07-30T10:58:34Z</time>
      </trkpt>
      <trkpt lat="47.32133" lon="6.07053">
        <ele>570.7</ele>
        <time>2015-07-30T10:58:38Z</time>
      </trkpt>
      <trkpt lat="47.32134" lon="6.07061">
        <ele>570.1</ele>
        <time>2015-07-30T10:58:42Z</time>
      </trkpt>
      <trkpt lat="47.32136" lon="6.07069">
        <ele>569.6</ele>
        <time>2015-07-30T10:58:46Z</time>
      </trkpt>
      <trkpt lat="47.32138" lon="6.07081">
        <ele>568.7</ele>
        <time>2015-07-30T10:58:52Z</time>
      </trkpt>
      <trkpt lat="47.32143" lon="6.07089">
        <ele>568.8</ele>
        <time>2015-07-30T10:58:56Z</time>
      </trkpt>
      <trkpt lat="47.32153" lon="6.07101">
        <ele>569.4</ele>
        <time>2015-07-30T10:59:05Z</time>
      </trkpt>
      <trkpt lat="47.3216" lon="6.07109">
        <ele>570</ele>
        <time>2015-07-30T10:59:09Z</time>
      </trkpt>
      <trkpt lat="47.32165" lon="6.07124">
        <ele>569.2</ele>
        <time>2015-07-30T10:59:17Z</time>
      </trkpt>
      <trkpt lat="47.32172" lon="6.07131">
        <ele>569.7</ele>
        <time>2015-07-30T10:59:22Z</time>
      </trkpt>
      <trkpt lat="47.32175" lon="6.07138">
        <ele>569.3</ele>
        <time>2015-07-30T10:59:26Z</time>
      </trkpt>
      <trkpt lat="47.3219" lon="6.07194">
        <ele>566.1</ele>
        <time>2015-07-30T10:59:49Z</time>
      </trkpt>
      <trkpt lat="47.32193" lon="6.07202">
        <ele>566</ele>
        <time>2015-07-30T10:59:54Z</time>
      </trkpt>
      <trkpt lat="47.32209" lon="6.07257">
        <ele>563.9</ele>
        <time>2015-07-30T11:00:22Z</time>
      </trkpt>
      <trkpt lat="47.32221" lon="6.07292">
        <ele>562.9</ele>
        <time>2015-07-30T11:00:42Z</time>
      </trkpt>
      <trkpt lat="47.32225" lon="6.07309">
        <ele>562</ele>
        <time>2015-07-30T11:00:53Z</time>
      </trkpt>
      <trkpt lat="47.32227" lon="6.07316">
        <ele>561.8</ele>
        <time>2015-07-30T11:00:56Z</time>
      </trkpt>
      <trkpt lat="47.3224" lon="6.0736">
        <ele>561.2</ele>
        <time>2015-07-30T11:01:18Z</time>
      </trkpt>
      <trkpt lat="47.32237" lon="6.0737">
        <ele>559.9</ele>
        <time>2015-07-30T11:01:22Z</time>
      </trkpt>
      <trkpt lat="47.32235" lon="6.07378">
        <ele>559</ele>
        <time>2015-07-30T11:01:24Z</time>
      </trkpt>
      <trkpt lat="47.32233" lon="6.07385">
        <ele>558.1</ele>
        <time>2015-07-30T11:01:26Z</time>
      </trkpt>
      <trkpt lat="47.32231" lon="6.07393">
        <ele>557.2</ele>
        <time>2015-07-30T11:01:31Z</time>
      </trkpt>
      <trkpt lat="47.3223" lon="6.074">
        <ele>556.5</ele>
        <time>2015-07-30T11:01:34Z</time>
      </trkpt>
      <trkpt lat="47.32232" lon="6.07407">
        <ele>556.5</ele>
        <time>2015-07-30T11:01:42Z</time>
      </trkpt>
      <trkpt lat="47.32232" lon="6.07418">
        <ele>555.8</ele>
        <time>2015-07-30T11:01:51Z</time>
      </trkpt>
      <trkpt lat="47.32229" lon="6.07423">
        <ele>554.9</ele>
        <time>2015-07-30T11:01:55Z</time>
      </trkpt>
      <trkpt lat="47.32235" lon="6.07431">
        <ele>555.9</ele>
        <time>2015-07-30T11:02:06Z</time>
      </trkpt>
      <trkpt lat="47.3223" lon="6.0743">
        <ele>554.8</ele>
        <time>2015-07-30T11:02:19Z</time>
      </trkpt>
      <trkpt lat="47.32225" lon="6.07428">
        <ele>553.8</ele>
        <time>2015-07-30T11:02:22Z</time>
      </trkpt>
      <trkpt lat="47.32219" lon="6.07426">
        <ele>552.6</ele>
        <time>2015-07-30T11:02:24Z</time>
      </trkpt>
      <trkpt lat="47.322" lon="6.07424">
        <ele>548.4</ele>
        <time>2015-07-30T11:02:37Z</time>
      </trkpt>
      <trkpt lat="47.32153" lon="6.07417">
        <ele>538.2</ele>
        <time>2015-07-30T11:02:53Z</time>
      </trkpt>
      <trkpt lat="47.3214" lon="6.07414">
        <ele>535.7</ele>
        <time>2015-07-30T11:02:59Z</time>
      </trkpt>
      <trkpt lat="47.32136" lon="6.07412">
        <ele>535</ele>
        <time>2015-07-30T11:03:01Z</time>
      </trkpt>
      <trkpt lat="47.32122" lon="6.07414">
        <ele>532</ele>
        <time>2015-07-30T11:03:10Z</time>
      </trkpt>
      <trkpt lat="47.32108" lon="6.07416">
        <ele>529.1</ele>
        <time>2015-07-30T11:03:22Z</time>
      </trkpt>
      <trkpt lat="47.32061" lon="6.0739">
        <ele>518.3</ele>
        <time>2015-07-30T11:03:42Z</time>
      </trkpt>
      <trkpt lat="47.32056" lon="6.07388">
        <ele>516.9</ele>
        <time>2015-07-30T11:03:44Z</time>
      </trkpt>
      <trkpt lat="47.32039" lon="6.07379">
        <ele>512.4</ele>
        <time>2015-07-30T11:03:53Z</time>
      </trkpt>
      <trkpt lat="47.32027" lon="6.07368">
        <ele>509.3</ele>
        <time>2015-07-30T11:04:00Z</time>
      </trkpt>
      <trkpt lat="47.32008" lon="6.07357">
        <ele>504.4</ele>
        <time>2015-07-30T11:04:06Z</time>
      </trkpt>
      <trkpt lat="47.32" lon="6.07357">
        <ele>502.1</ele>
        <time>2015-07-30T11:04:09Z</time>
      </trkpt>
      <trkpt lat="47.31977" lon="6.07333">
        <ele>495.8</ele>
        <time>2015-07-30T11:04:20Z</time>
      </trkpt>
      <trkpt lat="47.3197" lon="6.07328">
        <ele>494</ele>
        <time>2015-07-30T11:04:22Z</time>
      </trkpt>
      <trkpt lat="47.31949" lon="6.07308">
        <ele>489.1</ele>
        <time>2015-07-30T11:04:34Z</time>
      </trkpt>
      <trkpt lat="47.31943" lon="6.07305">
        <ele>487.5</ele>
        <time>2015-07-30T11:04:37Z</time>
      </trkpt>
      <trkpt lat="47.31936" lon="6.07303">
        <ele>485.5</ele>
        <time>2015-07-30T11:04:39Z</time>
      </trkpt>
      <trkpt lat="47.31929" lon="6.07299">
        <ele>483.7</ele>
        <time>2015-07-30T11:04:41Z</time>
      </trkpt>
      <trkpt lat="47.31924" lon="6.07291">
        <ele>482.8</ele>
        <time>2015-07-30T11:04:46Z</time>
      </trkpt>
      <trkpt lat="47.31921" lon="6.07287">
        <ele>482.2</ele>
        <time>2015-07-30T11:04:49Z</time>
      </trkpt>
      <trkpt lat="47.31917" lon="6.0728">
        <ele>481.6</ele>
        <time>2015-07-30T11:04:52Z</time>
      </trkpt>
      <trkpt lat="47.31915" lon="6.07272">
        <ele>481.7</ele>
        <time>2015-07-30T11:04:56Z</time>
      </trkpt>
      <trkpt lat="47.31911" lon="6.07266">
        <ele>481.1</ele>
        <time>2015-07-30T11:05:00Z</time>
      </trkpt>
      <trkpt lat="47.31908" lon="6.0726">
        <ele>480.7</ele>
        <time>2015-07-30T11:05:04Z</time>
      </trkpt>
      <trkpt lat="47.31905" lon="6.07253">
        <ele>480.4</ele>
        <time>2015-07-30T11:05:08Z</time>
      </trkpt>
      <trkpt lat="47.31902" lon="6.07247">
        <ele>480.1</ele>
        <time>2015-07-30T11:05:13Z</time>
      </trkpt>
      <trkpt lat="47.31898" lon="6.07243">
        <ele>479.4</ele>
        <time>2015-07-30T11:05:20Z</time>
      </trkpt>
      <trkpt lat="47.31893" lon="6.07238">
        <ele>478.6</ele>
        <time>2015-07-30T11:05:24Z</time>
      </trkpt>
      <trkpt lat="47.3189" lon="6.07229">
        <ele>478.8</ele>
        <time>2015-07-30T11:05:30Z</time>
      </trkpt>
      <trkpt lat="47.31885" lon="6.07226">
        <ele>477.8</ele>
        <time>2015-07-30T11:05:32Z</time>
      </trkpt>
      <trkpt lat="47.31876" lon="6.07222">
        <ele>475.8</ele>
        <time>2015-07-30T11:05:37Z</time>
      </trkpt>
      <trkpt lat="47.31869" lon="6.07216">
        <ele>474.6</ele>
        <time>2015-07-30T11:05:42Z</time>
      </trkpt>
      <trkpt lat="47.31865" lon="6.07213">
        <ele>473.9</ele>
        <time>2015-07-30T11:05:44Z</time>
      </trkpt>
      <trkpt lat="47.31858" lon="6.07208">
        <ele>472.7</ele>
        <time>2015-07-30T11:05:49Z</time>
      </trkpt>
      <trkpt lat="47.31854" lon="6.07203">
        <ele>472.3</ele>
        <time>2015-07-30T11:05:52Z</time>
      </trkpt>
      <trkpt lat="47.31851" lon="6.07198">
        <ele>472.2</ele>
        <time>2015-07-30T11:05:58Z</time>
      </trkpt>
      <trkpt lat="47.31852" lon="6.07191">
        <ele>473.4</ele>
        <time>2015-07-30T11:06:09Z</time>
      </trkpt>
      <trkpt lat="47.31843" lon="6.07177">
        <ele>473</ele>
        <time>2015-07-30T11:06:17Z</time>
      </trkpt>
      <trkpt lat="47.31831" lon="6.07171">
        <ele>470.8</ele>
        <time>2015-07-30T11:06:20Z</time>
      </trkpt>
      <trkpt lat="47.31824" lon="6.07165">
        <ele>470.1</ele>
        <time>2015-07-30T11:06:23Z</time>
      </trkpt>
      <trkpt lat="47.31818" lon="6.0716">
        <ele>469.2</ele>
        <time>2015-07-30T11:06:25Z</time>
      </trkpt>
      <trkpt lat="47.31813" lon="6.07155">
        <ele>468.7</ele>
        <time>2015-07-30T11:06:29Z</time>
      </trkpt>
      <trkpt lat="47.31806" lon="6.07159">
        <ele>466.6</ele>
        <time>2015-07-30T11:06:40Z</time>
      </trkpt>
      <trkpt lat="47.31774" lon="6.07165">
        <ele>458.7</ele>
        <time>2015-07-30T11:06:53Z</time>
      </trkpt>
      <trkpt lat="47.31761" lon="6.07174">
        <ele>454.5</ele>
        <time>2015-07-30T11:07:00Z</time>
      </trkpt>
      <trkpt lat="47.31714" lon="6.07193">
        <ele>442.5</ele>
        <time>2015-07-30T11:07:19Z</time>
      </trkpt>
      <trkpt lat="47.31709" lon="6.07194">
        <ele>441.4</ele>
        <time>2015-07-30T11:07:21Z</time>
      </trkpt>
      <trkpt lat="47.31703" lon="6.07196">
        <ele>439.9</ele>
        <time>2015-07-30T11:07:23Z</time>
      </trkpt>
      <trkpt lat="47.31659" lon="6.07215">
        <ele>429.4</ele>
        <time>2015-07-30T11:07:43Z</time>
      </trkpt>
      <trkpt lat="47.31654" lon="6.07217">
        <ele>428.3</ele>
        <time>2015-07-30T11:07:45Z</time>
      </trkpt>
      <trkpt lat="47.31618" lon="6.07249">
        <ele>418.9</ele>
        <time>2015-07-30T11:08:05Z</time>
      </trkpt>
      <trkpt lat="47.31617" lon="6.07256">
        <ele>418.1</ele>
        <time>2015-07-30T11:08:08Z</time>
      </trkpt>
      <trkpt lat="47.31609" lon="6.07264">
        <ele>415.9</ele>
        <time>2015-07-30T11:08:15Z</time>
      </trkpt>
      <trkpt lat="47.31604" lon="6.07272">
        <ele>414.2</ele>
        <time>2015-07-30T11:08:20Z</time>
      </trkpt>
      <trkpt lat="47.31598" lon="6.07274">
        <ele>413</ele>
        <time>2015-07-30T11:08:22Z</time>
      </trkpt>
      <trkpt lat="47.31591" lon="6.07276">
        <ele>411.5</ele>
        <time>2015-07-30T11:08:27Z</time>
      </trkpt>
      <trkpt lat="47.31586" lon="6.07279">
        <ele>410.3</ele>
        <time>2015-07-30T11:08:30Z</time>
      </trkpt>
      <trkpt lat="47.3154" lon="6.07288">
        <ele>399.3</ele>
        <time>2015-07-30T11:08:51Z</time>
      </trkpt>
      <trkpt lat="47.31535" lon="6.07287">
        <ele>398.2</ele>
        <time>2015-07-30T11:08:52Z</time>
      </trkpt>
      <trkpt lat="47.31528" lon="6.07289">
        <ele>396.5</ele>
        <time>2015-07-30T11:08:54Z</time>
      </trkpt>
      <trkpt lat="47.31522" lon="6.07291">
        <ele>395</ele>
        <time>2015-07-30T11:08:56Z</time>
      </trkpt>
      <trkpt lat="47.31516" lon="6.07292">
        <ele>393.5</ele>
        <time>2015-07-30T11:08:58Z</time>
      </trkpt>
      <trkpt lat="47.3151" lon="6.07294">
        <ele>392</ele>
        <time>2015-07-30T11:09:00Z</time>
      </trkpt>
      <trkpt lat="47.31497" lon="6.07303">
        <ele>388.4</ele>
        <time>2015-07-30T11:09:06Z</time>
      </trkpt>
      <trkpt lat="47.3149" lon="6.07303">
        <ele>387.1</ele>
        <time>2015-07-30T11:09:10Z</time>
      </trkpt>
      <trkpt lat="47.31485" lon="6.07303">
        <ele>386.1</ele>
        <time>2015-07-30T11:09:18Z</time>
      </trkpt>
      <trkpt lat="47.31477" lon="6.07305">
        <ele>384.5</ele>
        <time>2015-07-30T11:09:24Z</time>
      </trkpt>
      <trkpt lat="47.31472" lon="6.07303">
        <ele>383.7</ele>
        <time>2015-07-30T11:09:28Z</time>
      </trkpt>
      <trkpt lat="47.31465" lon="6.07301">
        <ele>382.6</ele>
        <time>2015-07-30T11:09:31Z</time>
      </trkpt>
      <trkpt lat="47.31459" lon="6.07301">
        <ele>381.5</ele>
        <time>2015-07-30T11:09:34Z</time>
      </trkpt>
      <trkpt lat="47.31449" lon="6.07301">
        <ele>379.7</ele>
        <time>2015-07-30T11:09:37Z</time>
      </trkpt>
      <trkpt lat="47.31445" lon="6.07301">
        <ele>378.9</ele>
        <time>2015-07-30T11:09:39Z</time>
      </trkpt>
      <trkpt lat="47.31441" lon="6.07308">
        <ele>377.6</ele>
        <time>2015-07-30T11:09:44Z</time>
      </trkpt>
      <trkpt lat="47.31435" lon="6.07312">
        <ele>376.1</ele>
        <time>2015-07-30T11:09:52Z</time>
      </trkpt>
      <trkpt lat="47.31431" lon="6.07318">
        <ele>374.9</ele>
        <time>2015-07-30T11:09:56Z</time>
      </trkpt>
      <trkpt lat="47.31426" lon="6.07319">
        <ele>373.9</ele>
        <time>2015-07-30T11:09:58Z</time>
      </trkpt>
      <trkpt lat="47.31419" lon="6.07324">
        <ele>372.2</ele>
        <time>2015-07-30T11:10:01Z</time>
      </trkpt>
      <trkpt lat="47.31414" lon="6.0733">
        <ele>371.2</ele>
        <time>2015-07-30T11:10:04Z</time>
      </trkpt>
      <trkpt lat="47.3141" lon="6.07334">
        <ele>370.7</ele>
        <time>2015-07-30T11:10:06Z</time>
      </trkpt>
      <trkpt lat="47.31404" lon="6.07338">
        <ele>370.3</ele>
        <time>2015-07-30T11:10:08Z</time>
      </trkpt>
      <trkpt lat="47.31405" lon="6.07346">
        <ele>370</ele>
        <time>2015-07-30T11:10:11Z</time>
      </trkpt>
      <trkpt lat="47.31406" lon="6.07352">
        <ele>369.7</ele>
        <time>2015-07-30T11:10:13Z</time>
      </trkpt>
      <trkpt lat="47.31404" lon="6.0736">
        <ele>369.3</ele>
        <time>2015-07-30T11:10:17Z</time>
      </trkpt>
      <trkpt lat="47.314" lon="6.07366">
        <ele>368.9</ele>
        <time>2015-07-30T11:10:20Z</time>
      </trkpt>
      <trkpt lat="47.31396" lon="6.07374">
        <ele>368.4</ele>
        <time>2015-07-30T11:10:25Z</time>
      </trkpt>
      <trkpt lat="47.31392" lon="6.0738">
        <ele>368</ele>
        <time>2015-07-30T11:10:29Z</time>
      </trkpt>
      <trkpt lat="47.31386" lon="6.07385">
        <ele>367.6</ele>
        <time>2015-07-30T11:10:33Z</time>
      </trkpt>
      <trkpt lat="47.31379" lon="6.07388">
        <ele>367.3</ele>
        <time>2015-07-30T11:10:38Z</time>
      </trkpt>
      <trkpt lat="47.31376" lon="6.07393">
        <ele>367</ele>
        <time>2015-07-30T11:10:41Z</time>
      </trkpt>
      <trkpt lat="47.31369" lon="6.07398">
        <ele>366.6</ele>
        <time>2015-07-30T11:10:46Z</time>
      </trkpt>
      <trkpt lat="47.31364" lon="6.07401">
        <ele>366.4</ele>
        <time>2015-07-30T11:10:50Z</time>
      </trkpt>
      <trkpt lat="47.31357" lon="6.07407">
        <ele>365.9</ele>
        <time>2015-07-30T11:10:55Z</time>
      </trkpt>
      <trkpt lat="47.31351" lon="6.07411">
        <ele>365.6</ele>
        <time>2015-07-30T11:10:58Z</time>
      </trkpt>
      <trkpt lat="47.31345" lon="6.07415">
        <ele>365.3</ele>
        <time>2015-07-30T11:11:02Z</time>
      </trkpt>
      <trkpt lat="47.31339" lon="6.07419">
        <ele>365.1</ele>
        <time>2015-07-30T11:11:06Z</time>
      </trkpt>
      <trkpt lat="47.31332" lon="6.07423">
        <ele>364.7</ele>
        <time>2015-07-30T11:11:10Z</time>
      </trkpt>
      <trkpt lat="47.31325" lon="6.07427">
        <ele>363.7</ele>
        <time>2015-07-30T11:11:14Z</time>
      </trkpt>
      <trkpt lat="47.31319" lon="6.07429">
        <ele>363</ele>
        <time>2015-07-30T11:11:17Z</time>
      </trkpt>
      <trkpt lat="47.31314" lon="6.07429">
        <ele>362.3</ele>
        <time>2015-07-30T11:11:20Z</time>
      </trkpt>
      <trkpt lat="47.31307" lon="6.0743">
        <ele>361.5</ele>
        <time>2015-07-30T11:11:24Z</time>
      </trkpt>
      <trkpt lat="47.313" lon="6.07429">
        <ele>360.6</ele>
        <time>2015-07-30T11:11:28Z</time>
      </trkpt>
      <trkpt lat="47.31295" lon="6.07426">
        <ele>360.1</ele>
        <time>2015-07-30T11:11:32Z</time>
      </trkpt>
      <trkpt lat="47.31277" lon="6.07412">
        <ele>358.4</ele>
        <time>2015-07-30T11:11:41Z</time>
      </trkpt>
      <trkpt lat="47.31254" lon="6.07385">
        <ele>357</ele>
        <time>2015-07-30T11:11:52Z</time>
      </trkpt>
      <trkpt lat="47.3125" lon="6.0738">
        <ele>356.8</ele>
        <time>2015-07-30T11:11:54Z</time>
      </trkpt>
      <trkpt lat="47.31234" lon="6.07362">
        <ele>355.1</ele>
        <time>2015-07-30T11:12:01Z</time>
      </trkpt>
      <trkpt lat="47.31187" lon="6.07309">
        <ele>349.7</ele>
        <time>2015-07-30T11:12:20Z</time>
      </trkpt>
      <trkpt lat="47.31182" lon="6.07303">
        <ele>349.4</ele>
        <time>2015-07-30T11:12:22Z</time>
      </trkpt>
      <trkpt lat="47.3117" lon="6.07291">
        <ele>348.6</ele>
        <time>2015-07-30T11:12:27Z</time>
      </trkpt>
      <trkpt lat="47.31124" lon="6.0723">
        <ele>349</ele>
        <time>2015-07-30T11:12:53Z</time>
      </trkpt>
      <trkpt lat="47.31061" lon="6.0719">
        <ele>344.1</ele>
        <time>2015-07-30T11:13:19Z</time>
      </trkpt>
      <trkpt lat="47.31056" lon="6.07189">
        <ele>343.8</ele>
        <time>2015-07-30T11:13:22Z</time>
      </trkpt>
      <trkpt lat="47.3105" lon="6.07185">
        <ele>343.4</ele>
        <time>2015-07-30T11:13:24Z</time>
      </trkpt>
      <trkpt lat="47.31043" lon="6.07181">
        <ele>342.9</ele>
        <time>2015-07-30T11:13:27Z</time>
      </trkpt>
      <trkpt lat="47.31038" lon="6.07179">
        <ele>342.6</ele>
        <time>2015-07-30T11:13:29Z</time>
      </trkpt>
      <trkpt lat="47.30981" lon="6.07132">
        <ele>340.1</ele>
        <time>2015-07-30T11:13:53Z</time>
      </trkpt>
      <trkpt lat="47.30944" lon="6.07079">
        <ele>340.7</ele>
        <time>2015-07-30T11:14:18Z</time>
      </trkpt>
      <trkpt lat="47.30938" lon="6.07072">
        <ele>340.7</ele>
        <time>2015-07-30T11:14:22Z</time>
      </trkpt>
      <trkpt lat="47.30888" lon="6.07032">
        <ele>339.5</ele>
        <time>2015-07-30T11:14:41Z</time>
      </trkpt>
      <trkpt lat="47.30884" lon="6.07026">
        <ele>339.4</ele>
        <time>2015-07-30T11:14:44Z</time>
      </trkpt>
      <trkpt lat="47.30881" lon="6.07021">
        <ele>339.3</ele>
        <time>2015-07-30T11:14:46Z</time>
      </trkpt>
      <trkpt lat="47.30877" lon="6.07017">
        <ele>339.1</ele>
        <time>2015-07-30T11:14:50Z</time>
      </trkpt>
      <trkpt lat="47.30872" lon="6.07015">
        <ele>338.9</ele>
        <time>2015-07-30T11:14:54Z</time>
      </trkpt>
      <trkpt lat="47.30876" lon="6.0702">
        <ele>339</ele>
        <time>2015-07-30T11:15:04Z</time>
      </trkpt>
      <trkpt lat="47.30873" lon="6.07021">
        <ele>338.9</ele>
        <time>2015-07-30T11:15:12Z</time>
      </trkpt>
      <trkpt lat="47.3088" lon="6.07021">
        <ele>339.2</ele>
        <time>2015-07-30T11:15:27Z</time>
      </trkpt>
      <trkpt lat="47.30882" lon="6.07021">
        <ele>339.3</ele>
        <time>2015-07-30T11:15:30Z</time>
      </trkpt>
      <trkpt lat="47.30883" lon="6.07024">
        <ele>339.3</ele>
        <time>2015-07-30T11:15:42Z</time>
      </trkpt>
      <trkpt lat="47.30888" lon="6.07022">
        <ele>339.5</ele>
        <time>2015-07-30T11:15:50Z</time>
      </trkpt>
      <trkpt lat="47.30885" lon="6.07016">
        <ele>339.4</ele>
        <time>2015-07-30T11:15:54Z</time>
      </trkpt>
      <trkpt lat="47.30878" lon="6.07008">
        <ele>339.1</ele>
        <time>2015-07-30T11:16:00Z</time>
      </trkpt>
      <trkpt lat="47.30871" lon="6.07003">
        <ele>338.8</ele>
        <time>2015-07-30T11:16:04Z</time>
      </trkpt>
      <trkpt lat="47.30867" lon="6.06996">
        <ele>338.8</ele>
        <time>2015-07-30T11:16:08Z</time>
      </trkpt>
      <trkpt lat="47.30842" lon="6.06972">
        <ele>338.5</ele>
        <time>2015-07-30T11:16:19Z</time>
      </trkpt>
      <trkpt lat="47.30836" lon="6.06964">
        <ele>338.4</ele>
        <time>2015-07-30T11:16:22Z</time>
      </trkpt>
      <trkpt lat="47.30828" lon="6.06949">
        <ele>339.1</ele>
        <time>2015-07-30T11:16:27Z</time>
      </trkpt>
      <trkpt lat="47.30808" lon="6.06921">
        <ele>341</ele>
        <time>2015-07-30T11:16:38Z</time>
      </trkpt>
      <trkpt lat="47.30802" lon="6.06916">
        <ele>341.5</ele>
        <time>2015-07-30T11:16:40Z</time>
      </trkpt>
      <trkpt lat="47.30719" lon="6.0682">
        <ele>350.3</ele>
        <time>2015-07-30T11:17:20Z</time>
      </trkpt>
      <trkpt lat="47.30714" lon="6.06814">
        <ele>350.6</ele>
        <time>2015-07-30T11:17:22Z</time>
      </trkpt>
      <trkpt lat="47.3071" lon="6.0681">
        <ele>350.7</ele>
        <time>2015-07-30T11:17:23Z</time>
      </trkpt>
      <trkpt lat="47.30703" lon="6.06802">
        <ele>351</ele>
        <time>2015-07-30T11:17:27Z</time>
      </trkpt>
      <trkpt lat="47.30675" lon="6.06772">
        <ele>351.8</ele>
        <time>2015-07-30T11:17:53Z</time>
      </trkpt>
      <trkpt lat="47.30656" lon="6.0675">
        <ele>351</ele>
        <time>2015-07-30T11:18:07Z</time>
      </trkpt>
      <trkpt lat="47.30631" lon="6.06723">
        <ele>348.8</ele>
        <time>2015-07-30T11:18:20Z</time>
      </trkpt>
      <trkpt lat="47.30626" lon="6.06716">
        <ele>348.5</ele>
        <time>2015-07-30T11:18:27Z</time>
      </trkpt>
      <trkpt lat="47.30577" lon="6.06666">
        <ele>346.7</ele>
        <time>2015-07-30T11:18:53Z</time>
      </trkpt>
      <trkpt lat="47.30542" lon="6.0663">
        <ele>346.3</ele>
        <time>2015-07-30T11:19:20Z</time>
      </trkpt>
      <trkpt lat="47.3051" lon="6.06584">
        <ele>346.5</ele>
        <time>2015-07-30T11:19:48Z</time>
      </trkpt>
      <trkpt lat="47.30506" lon="6.0658">
        <ele>346.4</ele>
        <time>2015-07-30T11:19:52Z</time>
      </trkpt>
      <trkpt lat="47.30501" lon="6.06575">
        <ele>346.4</ele>
        <time>2015-07-30T11:19:57Z</time>
      </trkpt>
      <trkpt lat="47.30495" lon="6.06569">
        <ele>346.2</ele>
        <time>2015-07-30T11:20:01Z</time>
      </trkpt>
      <trkpt lat="47.30491" lon="6.06564">
        <ele>346.1</ele>
        <time>2015-07-30T11:20:04Z</time>
      </trkpt>
      <trkpt lat="47.30487" lon="6.06559">
        <ele>346</ele>
        <time>2015-07-30T11:20:08Z</time>
      </trkpt>
      <trkpt lat="47.30483" lon="6.06554">
        <ele>345.9</ele>
        <time>2015-07-30T11:20:12Z</time>
      </trkpt>
      <trkpt lat="47.30478" lon="6.06548">
        <ele>345.7</ele>
        <time>2015-07-30T11:20:16Z</time>
      </trkpt>
      <trkpt lat="47.30472" lon="6.06545">
        <ele>345.4</ele>
        <time>2015-07-30T11:20:19Z</time>
      </trkpt>
      <trkpt lat="47.30466" lon="6.06537">
        <ele>345.2</ele>
        <time>2015-07-30T11:20:24Z</time>
      </trkpt>
      <trkpt lat="47.30461" lon="6.0653">
        <ele>345</ele>
        <time>2015-07-30T11:20:28Z</time>
      </trkpt>
      <trkpt lat="47.30456" lon="6.06522">
        <ele>344.8</ele>
        <time>2015-07-30T11:20:32Z</time>
      </trkpt>
      <trkpt lat="47.30451" lon="6.06516">
        <ele>344.5</ele>
        <time>2015-07-30T11:20:36Z</time>
      </trkpt>
      <trkpt lat="47.30446" lon="6.06513">
        <ele>344.2</ele>
        <time>2015-07-30T11:20:40Z</time>
      </trkpt>
      <trkpt lat="47.30442" lon="6.06505">
        <ele>344</ele>
        <time>2015-07-30T11:20:44Z</time>
      </trkpt>
      <trkpt lat="47.30438" lon="6.06499">
        <ele>343.8</ele>
        <time>2015-07-30T11:20:48Z</time>
      </trkpt>
      <trkpt lat="47.30433" lon="6.06494">
        <ele>343.4</ele>
        <time>2015-07-30T11:20:52Z</time>
      </trkpt>
      <trkpt lat="47.30428" lon="6.0649">
        <ele>343</ele>
        <time>2015-07-30T11:20:56Z</time>
      </trkpt>
      <trkpt lat="47.30422" lon="6.06485">
        <ele>342.5</ele>
        <time>2015-07-30T11:21:00Z</time>
      </trkpt>
      <trkpt lat="47.30418" lon="6.06478">
        <ele>342.1</ele>
        <time>2015-07-30T11:21:04Z</time>
      </trkpt>
      <trkpt lat="47.30415" lon="6.06472">
        <ele>341.9</ele>
        <time>2015-07-30T11:21:08Z</time>
      </trkpt>
      <trkpt lat="47.30411" lon="6.06465">
        <ele>341.6</ele>
        <time>2015-07-30T11:21:12Z</time>
      </trkpt>
      <trkpt lat="47.30407" lon="6.06455">
        <ele>341.4</ele>
        <time>2015-07-30T11:21:16Z</time>
      </trkpt>
      <trkpt lat="47.30402" lon="6.06449">
        <ele>341</ele>
        <time>2015-07-30T11:21:20Z</time>
      </trkpt>
      <trkpt lat="47.30397" lon="6.06442">
        <ele>340.7</ele>
        <time>2015-07-30T11:21:24Z</time>
      </trkpt>
      <trkpt lat="47.30393" lon="6.06439">
        <ele>340.4</ele>
        <time>2015-07-30T11:21:27Z</time>
      </trkpt>
      <trkpt lat="47.30388" lon="6.06436">
        <ele>340</ele>
        <time>2015-07-30T11:21:29Z</time>
      </trkpt>
      <trkpt lat="47.30382" lon="6.06432">
        <ele>339.6</ele>
        <time>2015-07-30T11:21:31Z</time>
      </trkpt>
      <trkpt lat="47.30375" lon="6.06427">
        <ele>339.1</ele>
        <time>2015-07-30T11:21:34Z</time>
      </trkpt>
      <trkpt lat="47.30371" lon="6.06422">
        <ele>338.7</ele>
        <time>2015-07-30T11:21:36Z</time>
      </trkpt>
      <trkpt lat="47.30368" lon="6.06417">
        <ele>338.5</ele>
        <time>2015-07-30T11:21:38Z</time>
      </trkpt>
      <trkpt lat="47.30365" lon="6.06411">
        <ele>338.5</ele>
        <time>2015-07-30T11:21:42Z</time>
      </trkpt>
      <trkpt lat="47.3036" lon="6.06411">
        <ele>338.1</ele>
        <time>2015-07-30T11:21:52Z</time>
      </trkpt>
      <trkpt lat="47.3036" lon="6.06401">
        <ele>338.5</ele>
        <time>2015-07-30T11:21:58Z</time>
      </trkpt>
      <trkpt lat="47.30358" lon="6.06392">
        <ele>338.7</ele>
        <time>2015-07-30T11:22:03Z</time>
      </trkpt>
      <trkpt lat="47.30357" lon="6.06384">
        <ele>338.9</ele>
        <time>2015-07-30T11:22:07Z</time>
      </trkpt>
      <trkpt lat="47.30356" lon="6.06374">
        <ele>339.2</ele>
        <time>2015-07-30T11:22:12Z</time>
      </trkpt>
      <trkpt lat="47.30357" lon="6.06365">
        <ele>339.6</ele>
        <time>2015-07-30T11:22:16Z</time>
      </trkpt>
      <trkpt lat="47.30356" lon="6.06358">
        <ele>339.8</ele>
        <time>2015-07-30T11:22:20Z</time>
      </trkpt>
      <trkpt lat="47.30354" lon="6.06349">
        <ele>339.9</ele>
        <time>2015-07-30T11:22:23Z</time>
      </trkpt>
      <trkpt lat="47.30352" lon="6.06338">
        <ele>340.1</ele>
        <time>2015-07-30T11:22:26Z</time>
      </trkpt>
      <trkpt lat="47.30351" lon="6.0633">
        <ele>340.3</ele>
        <time>2015-07-30T11:22:28Z</time>
      </trkpt>
      <trkpt lat="47.30349" lon="6.06321">
        <ele>340.4</ele>
        <time>2015-07-30T11:22:30Z</time>
      </trkpt>
      <trkpt lat="47.30347" lon="6.06313">
        <ele>340.5</ele>
        <time>2015-07-30T11:22:32Z</time>
      </trkpt>
      <trkpt lat="47.30346" lon="6.06304">
        <ele>340.8</ele>
        <time>2015-07-30T11:22:34Z</time>
      </trkpt>
      <trkpt lat="47.30348" lon="6.06297">
        <ele>341.4</ele>
        <time>2015-07-30T11:22:36Z</time>
      </trkpt>
      <trkpt lat="47.30348" lon="6.0629">
        <ele>341.7</ele>
        <time>2015-07-30T11:22:38Z</time>
      </trkpt>
      <trkpt lat="47.30347" lon="6.06279">
        <ele>342</ele>
        <time>2015-07-30T11:22:42Z</time>
      </trkpt>
      <trkpt lat="47.30348" lon="6.06272">
        <ele>342.4</ele>
        <time>2015-07-30T11:22:46Z</time>
      </trkpt>
      <trkpt lat="47.30346" lon="6.06263">
        <ele>342.6</ele>
        <time>2015-07-30T11:22:52Z</time>
      </trkpt>
      <trkpt lat="47.30345" lon="6.06256">
        <ele>342.9</ele>
        <time>2015-07-30T11:22:57Z</time>
      </trkpt>
      <trkpt lat="47.30344" lon="6.06248">
        <ele>343.1</ele>
        <time>2015-07-30T11:23:01Z</time>
      </trkpt>
      <trkpt lat="47.30341" lon="6.06242">
        <ele>343.1</ele>
        <time>2015-07-30T11:23:10Z</time>
      </trkpt>
      <trkpt lat="47.30335" lon="6.0624">
        <ele>342.7</ele>
        <time>2015-07-30T11:23:14Z</time>
      </trkpt>
      <trkpt lat="47.3033" lon="6.06241">
        <ele>342.3</ele>
        <time>2015-07-30T11:23:20Z</time>
      </trkpt>
      <trkpt lat="47.30323" lon="6.0624">
        <ele>342</ele>
        <time>2015-07-30T11:23:24Z</time>
      </trkpt>
      <trkpt lat="47.30318" lon="6.0624">
        <ele>341.7</ele>
        <time>2015-07-30T11:23:28Z</time>
      </trkpt>
      <trkpt lat="47.30313" lon="6.06238">
        <ele>341.5</ele>
        <time>2015-07-30T11:23:32Z</time>
      </trkpt>
      <trkpt lat="47.30307" lon="6.06238">
        <ele>341.2</ele>
        <time>2015-07-30T11:23:36Z</time>
      </trkpt>
      <trkpt lat="47.303" lon="6.0624">
        <ele>340.6</ele>
        <time>2015-07-30T11:23:40Z</time>
      </trkpt>
      <trkpt lat="47.30295" lon="6.06244">
        <ele>339.9</ele>
        <time>2015-07-30T11:23:42Z</time>
      </trkpt>
      <trkpt lat="47.30288" lon="6.06243">
        <ele>339.5</ele>
        <time>2015-07-30T11:23:46Z</time>
      </trkpt>
      <trkpt lat="47.30283" lon="6.06241">
        <ele>339.4</ele>
        <time>2015-07-30T11:23:50Z</time>
      </trkpt>
      <trkpt lat="47.30277" lon="6.06241">
        <ele>339.1</ele>
        <time>2015-07-30T11:23:54Z</time>
      </trkpt>
      <trkpt lat="47.30276" lon="6.0624">
        <ele>339.1</ele>
        <time>2015-07-30T11:24:06Z</time>
      </trkpt>
      <trkpt lat="47.30277" lon="6.06249">
        <ele>338.1</ele>
        <time>2015-07-30T11:24:16Z</time>
      </trkpt>
      <trkpt lat="47.3028" lon="6.06255">
        <ele>337.9</ele>
        <time>2015-07-30T11:24:22Z</time>
      </trkpt>
      <trkpt lat="47.30283" lon="6.06262">
        <ele>337.8</ele>
        <time>2015-07-30T11:24:26Z</time>
      </trkpt>
      <trkpt lat="47.30286" lon="6.06269">
        <ele>337.7</ele>
        <time>2015-07-30T11:24:30Z</time>
      </trkpt>
      <trkpt lat="47.3029" lon="6.06275">
        <ele>337.7</ele>
        <time>2015-07-30T11:24:34Z</time>
      </trkpt>
      <trkpt lat="47.30291" lon="6.06282">
        <ele>337.4</ele>
        <time>2015-07-30T11:24:40Z</time>
      </trkpt>
      <trkpt lat="47.30288" lon="6.06287">
        <ele>337</ele>
        <time>2015-07-30T11:24:44Z</time>
      </trkpt>
      <trkpt lat="47.30283" lon="6.06294">
        <ele>336.3</ele>
        <time>2015-07-30T11:24:50Z</time>
      </trkpt>
      <trkpt lat="47.30279" lon="6.06297">
        <ele>335.8</ele>
        <time>2015-07-30T11:24:54Z</time>
      </trkpt>
      <trkpt lat="47.30273" lon="6.06299">
        <ele>335.3</ele>
        <time>2015-07-30T11:25:00Z</time>
      </trkpt>
      <trkpt lat="47.30266" lon="6.06298">
        <ele>334.8</ele>
        <time>2015-07-30T11:25:04Z</time>
      </trkpt>
      <trkpt lat="47.30262" lon="6.06293">
        <ele>334.8</ele>
        <time>2015-07-30T11:25:11Z</time>
      </trkpt>
      <trkpt lat="47.30256" lon="6.06287">
        <ele>334.7</ele>
        <time>2015-07-30T11:25:16Z</time>
      </trkpt>
      <trkpt lat="47.3025" lon="6.06281">
        <ele>334.5</ele>
        <time>2015-07-30T11:25:20Z</time>
      </trkpt>
      <trkpt lat="47.30247" lon="6.06272">
        <ele>335.2</ele>
        <time>2015-07-30T11:25:24Z</time>
      </trkpt>
      <trkpt lat="47.30243" lon="6.06265">
        <ele>335.9</ele>
        <time>2015-07-30T11:25:27Z</time>
      </trkpt>
      <trkpt lat="47.3024" lon="6.06259">
        <ele>336.4</ele>
        <time>2015-07-30T11:25:34Z</time>
      </trkpt>
      <trkpt lat="47.30233" lon="6.06254">
        <ele>337.2</ele>
        <time>2015-07-30T11:25:38Z</time>
      </trkpt>
      <trkpt lat="47.30228" lon="6.0625">
        <ele>337.8</ele>
        <time>2015-07-30T11:25:42Z</time>
      </trkpt>
      <trkpt lat="47.30225" lon="6.06243">
        <ele>339</ele>
        <time>2015-07-30T11:25:46Z</time>
      </trkpt>
      <trkpt lat="47.30221" lon="6.06239">
        <ele>339.8</ele>
        <time>2015-07-30T11:25:50Z</time>
      </trkpt>
      <trkpt lat="47.30217" lon="6.06234">
        <ele>340.7</ele>
        <time>2015-07-30T11:25:54Z</time>
      </trkpt>
      <trkpt lat="47.30213" lon="6.06229">
        <ele>341.5</ele>
        <time>2015-07-30T11:25:58Z</time>
      </trkpt>
      <trkpt lat="47.30207" lon="6.06224">
        <ele>342.4</ele>
        <time>2015-07-30T11:26:01Z</time>
      </trkpt>
      <trkpt lat="47.30203" lon="6.06219">
        <ele>343.1</ele>
        <time>2015-07-30T11:26:05Z</time>
      </trkpt>
      <trkpt lat="47.30197" lon="6.06215">
        <ele>343.8</ele>
        <time>2015-07-30T11:26:07Z</time>
      </trkpt>
      <trkpt lat="47.30191" lon="6.06207">
        <ele>344.7</ele>
        <time>2015-07-30T11:26:10Z</time>
      </trkpt>
      <trkpt lat="47.30185" lon="6.062">
        <ele>345.5</ele>
        <time>2015-07-30T11:26:14Z</time>
      </trkpt>
      <trkpt lat="47.30183" lon="6.06192">
        <ele>346.2</ele>
        <time>2015-07-30T11:26:18Z</time>
      </trkpt>
      <trkpt lat="47.30178" lon="6.06189">
        <ele>346.5</ele>
        <time>2015-07-30T11:26:26Z</time>
      </trkpt>
      <trkpt lat="47.30172" lon="6.06181">
        <ele>347.1</ele>
        <time>2015-07-30T11:26:36Z</time>
      </trkpt>
      <trkpt lat="47.30169" lon="6.06178">
        <ele>347.3</ele>
        <time>2015-07-30T11:26:39Z</time>
      </trkpt>
      <trkpt lat="47.30162" lon="6.06169">
        <ele>347.9</ele>
        <time>2015-07-30T11:26:52Z</time>
      </trkpt>
      <trkpt lat="47.30164" lon="6.06162">
        <ele>348.6</ele>
        <time>2015-07-30T11:27:00Z</time>
      </trkpt>
      <trkpt lat="47.30153" lon="6.06156">
        <ele>349.5</ele>
        <time>2015-07-30T11:27:20Z</time>
      </trkpt>
      <trkpt lat="47.30148" lon="6.06151">
        <ele>350.2</ele>
        <time>2015-07-30T11:27:24Z</time>
      </trkpt>
      <trkpt lat="47.30121" lon="6.06124">
        <ele>353.6</ele>
        <time>2015-07-30T11:27:43Z</time>
      </trkpt>
      <trkpt lat="47.30099" lon="6.06093">
        <ele>357.1</ele>
        <time>2015-07-30T11:28:05Z</time>
      </trkpt>
      <trkpt lat="47.30092" lon="6.06084">
        <ele>358</ele>
        <time>2015-07-30T11:28:15Z</time>
      </trkpt>
      <trkpt lat="47.30086" lon="6.06079">
        <ele>358.5</ele>
        <time>2015-07-30T11:28:25Z</time>
      </trkpt>
      <trkpt lat="47.30083" lon="6.06074">
        <ele>359</ele>
        <time>2015-07-30T11:28:28Z</time>
      </trkpt>
      <trkpt lat="47.30067" lon="6.06054">
        <ele>360.2</ele>
        <time>2015-07-30T11:28:36Z</time>
      </trkpt>
      <trkpt lat="47.3006" lon="6.06047">
        <ele>360.5</ele>
        <time>2015-07-30T11:28:40Z</time>
      </trkpt>
      <trkpt lat="47.30055" lon="6.0604">
        <ele>360.8</ele>
        <time>2015-07-30T11:28:44Z</time>
      </trkpt>
      <trkpt lat="47.30049" lon="6.06035">
        <ele>360.8</ele>
        <time>2015-07-30T11:28:47Z</time>
      </trkpt>
      <trkpt lat="47.30044" lon="6.06029">
        <ele>360.9</ele>
        <time>2015-07-30T11:28:49Z</time>
      </trkpt>
      <trkpt lat="47.3004" lon="6.06023">
        <ele>361.1</ele>
        <time>2015-07-30T11:28:51Z</time>
      </trkpt>
      <trkpt lat="47.30034" lon="6.06016">
        <ele>361.1</ele>
        <time>2015-07-30T11:28:53Z</time>
      </trkpt>
      <trkpt lat="47.3003" lon="6.06011">
        <ele>361.1</ele>
        <time>2015-07-30T11:28:55Z</time>
      </trkpt>
      <trkpt lat="47.30024" lon="6.06003">
        <ele>361.1</ele>
        <time>2015-07-30T11:28:58Z</time>
      </trkpt>
      <trkpt lat="47.30019" lon="6.05996">
        <ele>361.2</ele>
        <time>2015-07-30T11:29:00Z</time>
      </trkpt>
      <trkpt lat="47.30014" lon="6.05988">
        <ele>361.5</ele>
        <time>2015-07-30T11:29:02Z</time>
      </trkpt>
      <trkpt lat="47.30008" lon="6.05981">
        <ele>361.7</ele>
        <time>2015-07-30T11:29:04Z</time>
      </trkpt>
      <trkpt lat="47.30002" lon="6.0597">
        <ele>362.4</ele>
        <time>2015-07-30T11:29:06Z</time>
      </trkpt>
      <trkpt lat="47.29998" lon="6.05964">
        <ele>362.7</ele>
        <time>2015-07-30T11:29:08Z</time>
      </trkpt>
      <trkpt lat="47.29993" lon="6.0596">
        <ele>362.8</ele>
        <time>2015-07-30T11:29:10Z</time>
      </trkpt>
      <trkpt lat="47.29991" lon="6.05954">
        <ele>363.3</ele>
        <time>2015-07-30T11:29:12Z</time>
      </trkpt>
      <trkpt lat="47.29987" lon="6.05945">
        <ele>364</ele>
        <time>2015-07-30T11:29:15Z</time>
      </trkpt>
      <trkpt lat="47.29981" lon="6.05938">
        <ele>364.3</ele>
        <time>2015-07-30T11:29:20Z</time>
      </trkpt>
      <trkpt lat="47.29976" lon="6.05935">
        <ele>364.2</ele>
        <time>2015-07-30T11:29:23Z</time>
      </trkpt>
      <trkpt lat="47.29971" lon="6.05932">
        <ele>364.2</ele>
        <time>2015-07-30T11:29:26Z</time>
      </trkpt>
      <trkpt lat="47.29964" lon="6.05929">
        <ele>364</ele>
        <time>2015-07-30T11:29:31Z</time>
      </trkpt>
      <trkpt lat="47.2996" lon="6.05923">
        <ele>364.4</ele>
        <time>2015-07-30T11:29:34Z</time>
      </trkpt>
      <trkpt lat="47.29959" lon="6.05916">
        <ele>365.1</ele>
        <time>2015-07-30T11:29:36Z</time>
      </trkpt>
      <trkpt lat="47.29953" lon="6.05907">
        <ele>364.8</ele>
        <time>2015-07-30T11:29:40Z</time>
      </trkpt>
      <trkpt lat="47.29949" lon="6.05901">
        <ele>364.7</ele>
        <time>2015-07-30T11:29:44Z</time>
      </trkpt>
      <trkpt lat="47.29941" lon="6.05894">
        <ele>364.2</ele>
        <time>2015-07-30T11:29:50Z</time>
      </trkpt>
      <trkpt lat="47.29932" lon="6.05888">
        <ele>363.6</ele>
        <time>2015-07-30T11:29:54Z</time>
      </trkpt>
      <trkpt lat="47.29928" lon="6.05884">
        <ele>363.3</ele>
        <time>2015-07-30T11:29:58Z</time>
      </trkpt>
      <trkpt lat="47.29922" lon="6.05879">
        <ele>362.9</ele>
        <time>2015-07-30T11:30:02Z</time>
      </trkpt>
      <trkpt lat="47.29918" lon="6.05875">
        <ele>362.6</ele>
        <time>2015-07-30T11:30:04Z</time>
      </trkpt>
      <trkpt lat="47.29914" lon="6.05871">
        <ele>362.3</ele>
        <time>2015-07-30T11:30:06Z</time>
      </trkpt>
      <trkpt lat="47.29901" lon="6.05846">
        <ele>361.2</ele>
        <time>2015-07-30T11:30:17Z</time>
      </trkpt>
      <trkpt lat="47.29896" lon="6.05839">
        <ele>360.7</ele>
        <time>2015-07-30T11:30:20Z</time>
      </trkpt>
      <trkpt lat="47.29888" lon="6.0583">
        <ele>360</ele>
        <time>2015-07-30T11:30:23Z</time>
      </trkpt>
      <trkpt lat="47.29876" lon="6.05821">
        <ele>359</ele>
        <time>2015-07-30T11:30:28Z</time>
      </trkpt>
      <trkpt lat="47.29849" lon="6.05788">
        <ele>356.9</ele>
        <time>2015-07-30T11:30:40Z</time>
      </trkpt>
      <trkpt lat="47.29835" lon="6.0578">
        <ele>355.5</ele>
        <time>2015-07-30T11:30:53Z</time>
      </trkpt>
      <trkpt lat="47.29835" lon="6.0578">
        <ele>355.5</ele>
        <time>2015-07-30T11:31:04Z</time>
      </trkpt>
      <trkpt lat="47.29834" lon="6.05774">
        <ele>355.5</ele>
        <time>2015-07-30T11:31:20Z</time>
      </trkpt>
      <trkpt lat="47.29829" lon="6.05778">
        <ele>354.7</ele>
        <time>2015-07-30T11:31:28Z</time>
      </trkpt>
      <trkpt lat="47.29824" lon="6.05781">
        <ele>353.9</ele>
        <time>2015-07-30T11:31:49Z</time>
      </trkpt>
      <trkpt lat="47.29821" lon="6.05776">
        <ele>353.5</ele>
        <time>2015-07-30T11:32:01Z</time>
      </trkpt>
      <trkpt lat="47.29812" lon="6.05756">
        <ele>352.6</ele>
        <time>2015-07-30T11:32:09Z</time>
      </trkpt>
      <trkpt lat="47.29785" lon="6.05719">
        <ele>348.2</ele>
        <time>2015-07-30T11:32:23Z</time>
      </trkpt>
      <trkpt lat="47.29778" lon="6.0571">
        <ele>347</ele>
        <time>2015-07-30T11:32:28Z</time>
      </trkpt>
      <trkpt lat="47.29773" lon="6.05705">
        <ele>346.2</ele>
        <time>2015-07-30T11:32:30Z</time>
      </trkpt>
      <trkpt lat="47.29733" lon="6.05652">
        <ele>340.6</ele>
        <time>2015-07-30T11:32:49Z</time>
      </trkpt>
      <trkpt lat="47.29664" lon="6.05574">
        <ele>333.9</ele>
        <time>2015-07-30T11:33:21Z</time>
      </trkpt>
      <trkpt lat="47.29659" lon="6.05569">
        <ele>333.5</ele>
        <time>2015-07-30T11:33:23Z</time>
      </trkpt>
      <trkpt lat="47.29645" lon="6.05552">
        <ele>332.7</ele>
        <time>2015-07-30T11:33:28Z</time>
      </trkpt>
      <trkpt lat="47.29598" lon="6.05492">
        <ele>330.2</ele>
        <time>2015-07-30T11:33:53Z</time>
      </trkpt>
      <trkpt lat="47.29589" lon="6.05479">
        <ele>329.9</ele>
        <time>2015-07-30T11:33:59Z</time>
      </trkpt>
      <trkpt lat="47.29575" lon="6.05465">
        <ele>329.6</ele>
        <time>2015-07-30T11:34:10Z</time>
      </trkpt>
      <trkpt lat="47.29571" lon="6.05459">
        <ele>329.7</ele>
        <time>2015-07-30T11:34:14Z</time>
      </trkpt>
      <trkpt lat="47.29569" lon="6.05452">
        <ele>329.9</ele>
        <time>2015-07-30T11:34:17Z</time>
      </trkpt>
      <trkpt lat="47.29567" lon="6.05443">
        <ele>330.1</ele>
        <time>2015-07-30T11:34:20Z</time>
      </trkpt>
      <trkpt lat="47.29564" lon="6.05435">
        <ele>330.4</ele>
        <time>2015-07-30T11:34:22Z</time>
      </trkpt>
      <trkpt lat="47.29559" lon="6.05428">
        <ele>330.6</ele>
        <time>2015-07-30T11:34:26Z</time>
      </trkpt>
      <trkpt lat="47.29556" lon="6.05424">
        <ele>330.7</ele>
        <time>2015-07-30T11:34:30Z</time>
      </trkpt>
      <trkpt lat="47.29551" lon="6.05421">
        <ele>330.8</ele>
        <time>2015-07-30T11:34:36Z</time>
      </trkpt>
      <trkpt lat="47.29549" lon="6.05415">
        <ele>331.1</ele>
        <time>2015-07-30T11:34:40Z</time>
      </trkpt>
      <trkpt lat="47.29548" lon="6.05408">
        <ele>331.3</ele>
        <time>2015-07-30T11:34:43Z</time>
      </trkpt>
      <trkpt lat="47.29544" lon="6.054">
        <ele>331.7</ele>
        <time>2015-07-30T11:34:46Z</time>
      </trkpt>
      <trkpt lat="47.29541" lon="6.05393">
        <ele>332</ele>
        <time>2015-07-30T11:34:50Z</time>
      </trkpt>
      <trkpt lat="47.29538" lon="6.05388">
        <ele>332.2</ele>
        <time>2015-07-30T11:34:52Z</time>
      </trkpt>
      <trkpt lat="47.29537" lon="6.05381">
        <ele>332.6</ele>
        <time>2015-07-30T11:34:55Z</time>
      </trkpt>
      <trkpt lat="47.29534" lon="6.05372">
        <ele>333</ele>
        <time>2015-07-30T11:34:59Z</time>
      </trkpt>
      <trkpt lat="47.29533" lon="6.05366">
        <ele>333.3</ele>
        <time>2015-07-30T11:35:02Z</time>
      </trkpt>
      <trkpt lat="47.2953" lon="6.05357">
        <ele>333.8</ele>
        <time>2015-07-30T11:35:06Z</time>
      </trkpt>
      <trkpt lat="47.29526" lon="6.05353">
        <ele>334.1</ele>
        <time>2015-07-30T11:35:10Z</time>
      </trkpt>
      <trkpt lat="47.2952" lon="6.05349">
        <ele>334.5</ele>
        <time>2015-07-30T11:35:14Z</time>
      </trkpt>
      <trkpt lat="47.29513" lon="6.05346">
        <ele>334.8</ele>
        <time>2015-07-30T11:35:18Z</time>
      </trkpt>
      <trkpt lat="47.29506" lon="6.05343">
        <ele>335.2</ele>
        <time>2015-07-30T11:35:21Z</time>
      </trkpt>
      <trkpt lat="47.29501" lon="6.05346">
        <ele>335.2</ele>
        <time>2015-07-30T11:35:24Z</time>
      </trkpt>
      <trkpt lat="47.29496" lon="6.05349">
        <ele>335.5</ele>
        <time>2015-07-30T11:35:28Z</time>
      </trkpt>
      <trkpt lat="47.29492" lon="6.05354">
        <ele>335.6</ele>
        <time>2015-07-30T11:35:31Z</time>
      </trkpt>
      <trkpt lat="47.29487" lon="6.05356">
        <ele>336</ele>
        <time>2015-07-30T11:35:36Z</time>
      </trkpt>
      <trkpt lat="47.29483" lon="6.05362">
        <ele>336</ele>
        <time>2015-07-30T11:35:40Z</time>
      </trkpt>
      <trkpt lat="47.2948" lon="6.05369">
        <ele>335.8</ele>
        <time>2015-07-30T11:35:44Z</time>
      </trkpt>
      <trkpt lat="47.29477" lon="6.0538">
        <ele>335.4</ele>
        <time>2015-07-30T11:35:48Z</time>
      </trkpt>
      <trkpt lat="47.29474" lon="6.0539">
        <ele>335</ele>
        <time>2015-07-30T11:35:52Z</time>
      </trkpt>
      <trkpt lat="47.29471" lon="6.05397">
        <ele>334.8</ele>
        <time>2015-07-30T11:35:56Z</time>
      </trkpt>
      <trkpt lat="47.29469" lon="6.05406">
        <ele>334.3</ele>
        <time>2015-07-30T11:36:00Z</time>
      </trkpt>
      <trkpt lat="47.29466" lon="6.05414">
        <ele>334</ele>
        <time>2015-07-30T11:36:04Z</time>
      </trkpt>
      <trkpt lat="47.29463" lon="6.05421">
        <ele>333.8</ele>
        <time>2015-07-30T11:36:08Z</time>
      </trkpt>
      <trkpt lat="47.29459" lon="6.0543">
        <ele>333.6</ele>
        <time>2015-07-30T11:36:12Z</time>
      </trkpt>
      <trkpt lat="47.29455" lon="6.05437">
        <ele>333.4</ele>
        <time>2015-07-30T11:36:16Z</time>
      </trkpt>
      <trkpt lat="47.29452" lon="6.05444">
        <ele>333.3</ele>
        <time>2015-07-30T11:36:20Z</time>
      </trkpt>
      <trkpt lat="47.29451" lon="6.05452">
        <ele>332.8</ele>
        <time>2015-07-30T11:36:24Z</time>
      </trkpt>
      <trkpt lat="47.29451" lon="6.05462">
        <ele>332.2</ele>
        <time>2015-07-30T11:36:28Z</time>
      </trkpt>
      <trkpt lat="47.2945" lon="6.05469">
        <ele>331.8</ele>
        <time>2015-07-30T11:36:32Z</time>
      </trkpt>
      <trkpt lat="47.29449" lon="6.05477">
        <ele>331.4</ele>
        <time>2015-07-30T11:36:36Z</time>
      </trkpt>
      <trkpt lat="47.2945" lon="6.05485">
        <ele>330.8</ele>
        <time>2015-07-30T11:36:40Z</time>
      </trkpt>
      <trkpt lat="47.2945" lon="6.05494">
        <ele>330.2</ele>
        <time>2015-07-30T11:36:44Z</time>
      </trkpt>
      <trkpt lat="47.2945" lon="6.05501">
        <ele>329.7</ele>
        <time>2015-07-30T11:36:48Z</time>
      </trkpt>
      <trkpt lat="47.2945" lon="6.05508">
        <ele>329.2</ele>
        <time>2015-07-30T11:36:52Z</time>
      </trkpt>
      <trkpt lat="47.29448" lon="6.05515">
        <ele>328.8</ele>
        <time>2015-07-30T11:36:56Z</time>
      </trkpt>
      <trkpt lat="47.29447" lon="6.05523">
        <ele>328.2</ele>
        <time>2015-07-30T11:37:00Z</time>
      </trkpt>
      <trkpt lat="47.29448" lon="6.05532">
        <ele>327.4</ele>
        <time>2015-07-30T11:37:04Z</time>
      </trkpt>
      <trkpt lat="47.29448" lon="6.05544">
        <ele>326.4</ele>
        <time>2015-07-30T11:37:10Z</time>
      </trkpt>
      <trkpt lat="47.29445" lon="6.05549">
        <ele>326.2</ele>
        <time>2015-07-30T11:37:14Z</time>
      </trkpt>
      <trkpt lat="47.29444" lon="6.05561">
        <ele>325.2</ele>
        <time>2015-07-30T11:37:19Z</time>
      </trkpt>
      <trkpt lat="47.29441" lon="6.05566">
        <ele>324.9</ele>
        <time>2015-07-30T11:37:22Z</time>
      </trkpt>
      <trkpt lat="47.29437" lon="6.05572">
        <ele>324.5</ele>
        <time>2015-07-30T11:37:25Z</time>
      </trkpt>
      <trkpt lat="47.29434" lon="6.05579">
        <ele>324</ele>
        <time>2015-07-30T11:37:28Z</time>
      </trkpt>
      <trkpt lat="47.29429" lon="6.05586">
        <ele>323.6</ele>
        <time>2015-07-30T11:37:32Z</time>
      </trkpt>
      <trkpt lat="47.29425" lon="6.05595">
        <ele>323.1</ele>
        <time>2015-07-30T11:37:36Z</time>
      </trkpt>
      <trkpt lat="47.29422" lon="6.05606">
        <ele>322.4</ele>
        <time>2015-07-30T11:37:40Z</time>
      </trkpt>
      <trkpt lat="47.2942" lon="6.05613">
        <ele>321.9</ele>
        <time>2015-07-30T11:37:43Z</time>
      </trkpt>
      <trkpt lat="47.29406" lon="6.05642">
        <ele>320.4</ele>
        <time>2015-07-30T11:37:53Z</time>
      </trkpt>
      <trkpt lat="47.29386" lon="6.0571">
        <ele>319.4</ele>
        <time>2015-07-30T11:38:11Z</time>
      </trkpt>
      <trkpt lat="47.29382" lon="6.05718">
        <ele>319.4</ele>
        <time>2015-07-30T11:38:13Z</time>
      </trkpt>
      <trkpt lat="47.29368" lon="6.05739">
        <ele>319.3</ele>
        <time>2015-07-30T11:38:20Z</time>
      </trkpt>
      <trkpt lat="47.29361" lon="6.05747">
        <ele>319.1</ele>
        <time>2015-07-30T11:38:23Z</time>
      </trkpt>
      <trkpt lat="47.29292" lon="6.05819">
        <ele>318.3</ele>
        <time>2015-07-30T11:38:53Z</time>
      </trkpt>
      <trkpt lat="47.29285" lon="6.05828">
        <ele>318.1</ele>
        <time>2015-07-30T11:38:56Z</time>
      </trkpt>
      <trkpt lat="47.29247" lon="6.05889">
        <ele>317.2</ele>
        <time>2015-07-30T11:39:23Z</time>
      </trkpt>
      <trkpt lat="47.29236" lon="6.05897">
        <ele>316.9</ele>
        <time>2015-07-30T11:39:28Z</time>
      </trkpt>
      <trkpt lat="47.29209" lon="6.05944">
        <ele>316</ele>
        <time>2015-07-30T11:39:43Z</time>
      </trkpt>
      <trkpt lat="47.2919" lon="6.05974">
        <ele>315.6</ele>
        <time>2015-07-30T11:39:53Z</time>
      </trkpt>
      <trkpt lat="47.29137" lon="6.06052">
        <ele>312.8</ele>
        <time>2015-07-30T11:40:18Z</time>
      </trkpt>
      <trkpt lat="47.29137" lon="6.06052">
        <ele>312.8</ele>
        <time>2015-07-30T11:40:18Z</time>
      </trkpt>
      <trkpt lat="47.2913" lon="6.06062">
        <ele>312.3</ele>
        <time>2015-07-30T11:40:21Z</time>
      </trkpt>
      <trkpt lat="47.29126" lon="6.06068">
        <ele>312</ele>
        <time>2015-07-30T11:40:23Z</time>
      </trkpt>
      <trkpt lat="47.29079" lon="6.06134">
        <ele>312.5</ele>
        <time>2015-07-30T11:40:49Z</time>
      </trkpt>
      <trkpt lat="47.29015" lon="6.0622">
        <ele>315.4</ele>
        <time>2015-07-30T11:41:21Z</time>
      </trkpt>
      <trkpt lat="47.28948" lon="6.06277">
        <ele>313.4</ele>
        <time>2015-07-30T11:41:53Z</time>
      </trkpt>
      <trkpt lat="47.2888" lon="6.06327">
        <ele>312</ele>
        <time>2015-07-30T11:42:21Z</time>
      </trkpt>
      <trkpt lat="47.28875" lon="6.06342">
        <ele>312.2</ele>
        <time>2015-07-30T11:42:23Z</time>
      </trkpt>
      <trkpt lat="47.28872" lon="6.06361">
        <ele>312.6</ele>
        <time>2015-07-30T11:42:28Z</time>
      </trkpt>
      <trkpt lat="47.28867" lon="6.06383">
        <ele>313.2</ele>
        <time>2015-07-30T11:42:35Z</time>
      </trkpt>
      <trkpt lat="47.28867" lon="6.0639">
        <ele>313.3</ele>
        <time>2015-07-30T11:42:38Z</time>
      </trkpt>
      <trkpt lat="47.28865" lon="6.064">
        <ele>313.7</ele>
        <time>2015-07-30T11:42:42Z</time>
      </trkpt>
      <trkpt lat="47.2886" lon="6.06405">
        <ele>314.1</ele>
        <time>2015-07-30T11:42:46Z</time>
      </trkpt>
      <trkpt lat="47.28857" lon="6.06411">
        <ele>314.4</ele>
        <time>2015-07-30T11:42:54Z</time>
      </trkpt>
      <trkpt lat="47.28855" lon="6.0642">
        <ele>314.9</ele>
        <time>2015-07-30T11:42:58Z</time>
      </trkpt>
      <trkpt lat="47.28855" lon="6.06429">
        <ele>315.4</ele>
        <time>2015-07-30T11:43:02Z</time>
      </trkpt>
      <trkpt lat="47.28853" lon="6.06436">
        <ele>315.9</ele>
        <time>2015-07-30T11:43:06Z</time>
      </trkpt>
      <trkpt lat="47.28851" lon="6.06443">
        <ele>316.4</ele>
        <time>2015-07-30T11:43:10Z</time>
      </trkpt>
      <trkpt lat="47.28845" lon="6.06449">
        <ele>317</ele>
        <time>2015-07-30T11:43:14Z</time>
      </trkpt>
      <trkpt lat="47.28841" lon="6.06458">
        <ele>317.7</ele>
        <time>2015-07-30T11:43:19Z</time>
      </trkpt>
      <trkpt lat="47.28837" lon="6.06464">
        <ele>318.1</ele>
        <time>2015-07-30T11:43:22Z</time>
      </trkpt>
      <trkpt lat="47.28834" lon="6.0647">
        <ele>318.5</ele>
        <time>2015-07-30T11:43:25Z</time>
      </trkpt>
      <trkpt lat="47.28829" lon="6.06473">
        <ele>318.7</ele>
        <time>2015-07-30T11:43:28Z</time>
      </trkpt>
      <trkpt lat="47.28824" lon="6.06475">
        <ele>318.9</ele>
        <time>2015-07-30T11:43:31Z</time>
      </trkpt>
      <trkpt lat="47.2882" lon="6.06477">
        <ele>319</ele>
        <time>2015-07-30T11:43:34Z</time>
      </trkpt>
      <trkpt lat="47.28813" lon="6.06478">
        <ele>319.1</ele>
        <time>2015-07-30T11:43:38Z</time>
      </trkpt>
      <trkpt lat="47.28807" lon="6.0648">
        <ele>319.3</ele>
        <time>2015-07-30T11:43:42Z</time>
      </trkpt>
      <trkpt lat="47.28799" lon="6.06482">
        <ele>319.5</ele>
        <time>2015-07-30T11:43:47Z</time>
      </trkpt>
      <trkpt lat="47.28795" lon="6.06483">
        <ele>319.6</ele>
        <time>2015-07-30T11:43:50Z</time>
      </trkpt>
      <trkpt lat="47.2879" lon="6.0649">
        <ele>320</ele>
        <time>2015-07-30T11:43:54Z</time>
      </trkpt>
      <trkpt lat="47.28785" lon="6.06497">
        <ele>320.4</ele>
        <time>2015-07-30T11:43:58Z</time>
      </trkpt>
      <trkpt lat="47.28783" lon="6.06505">
        <ele>320.8</ele>
        <time>2015-07-30T11:44:02Z</time>
      </trkpt>
      <trkpt lat="47.28782" lon="6.06514">
        <ele>321.2</ele>
        <time>2015-07-30T11:44:08Z</time>
      </trkpt>
      <trkpt lat="47.28778" lon="6.06519">
        <ele>321.5</ele>
        <time>2015-07-30T11:44:12Z</time>
      </trkpt>
      <trkpt lat="47.28772" lon="6.06524">
        <ele>321.8</ele>
        <time>2015-07-30T11:44:16Z</time>
      </trkpt>
      <trkpt lat="47.28766" lon="6.06528">
        <ele>322.1</ele>
        <time>2015-07-30T11:44:20Z</time>
      </trkpt>
      <trkpt lat="47.2876" lon="6.06533">
        <ele>322.4</ele>
        <time>2015-07-30T11:44:24Z</time>
      </trkpt>
      <trkpt lat="47.28754" lon="6.06537">
        <ele>322.7</ele>
        <time>2015-07-30T11:44:28Z</time>
      </trkpt>
      <trkpt lat="47.28748" lon="6.06541">
        <ele>322.8</ele>
        <time>2015-07-30T11:44:31Z</time>
      </trkpt>
      <trkpt lat="47.28743" lon="6.06546">
        <ele>322.6</ele>
        <time>2015-07-30T11:44:35Z</time>
      </trkpt>
      <trkpt lat="47.28739" lon="6.06549">
        <ele>322.4</ele>
        <time>2015-07-30T11:44:38Z</time>
      </trkpt>
      <trkpt lat="47.28732" lon="6.06554">
        <ele>322</ele>
        <time>2015-07-30T11:44:42Z</time>
      </trkpt>
      <trkpt lat="47.28726" lon="6.06558">
        <ele>321.7</ele>
        <time>2015-07-30T11:44:46Z</time>
      </trkpt>
      <trkpt lat="47.28721" lon="6.06564">
        <ele>321.4</ele>
        <time>2015-07-30T11:44:50Z</time>
      </trkpt>
      <trkpt lat="47.28717" lon="6.06569">
        <ele>321.3</ele>
        <time>2015-07-30T11:44:54Z</time>
      </trkpt>
      <trkpt lat="47.28713" lon="6.06574">
        <ele>321.1</ele>
        <time>2015-07-30T11:44:58Z</time>
      </trkpt>
      <trkpt lat="47.28708" lon="6.06577">
        <ele>320.7</ele>
        <time>2015-07-30T11:45:01Z</time>
      </trkpt>
      <trkpt lat="47.28702" lon="6.06582">
        <ele>320.3</ele>
        <time>2015-07-30T11:45:06Z</time>
      </trkpt>
      <trkpt lat="47.28696" lon="6.06586">
        <ele>319.9</ele>
        <time>2015-07-30T11:45:10Z</time>
      </trkpt>
      <trkpt lat="47.28693" lon="6.06591">
        <ele>319.7</ele>
        <time>2015-07-30T11:45:14Z</time>
      </trkpt>
      <trkpt lat="47.28689" lon="6.06594">
        <ele>319.3</ele>
        <time>2015-07-30T11:45:18Z</time>
      </trkpt>
      <trkpt lat="47.28682" lon="6.06597">
        <ele>318.7</ele>
        <time>2015-07-30T11:45:22Z</time>
      </trkpt>
      <trkpt lat="47.28677" lon="6.06604">
        <ele>318.3</ele>
        <time>2015-07-30T11:45:26Z</time>
      </trkpt>
      <trkpt lat="47.28672" lon="6.06611">
        <ele>317.9</ele>
        <time>2015-07-30T11:45:30Z</time>
      </trkpt>
      <trkpt lat="47.28667" lon="6.06618">
        <ele>317.5</ele>
        <time>2015-07-30T11:45:34Z</time>
      </trkpt>
      <trkpt lat="47.28658" lon="6.06625">
        <ele>316.7</ele>
        <time>2015-07-30T11:45:41Z</time>
      </trkpt>
      <trkpt lat="47.28651" lon="6.06633">
        <ele>316.1</ele>
        <time>2015-07-30T11:45:46Z</time>
      </trkpt>
      <trkpt lat="47.2864" lon="6.06641">
        <ele>315</ele>
        <time>2015-07-30T11:45:52Z</time>
      </trkpt>
      <trkpt lat="47.2863" lon="6.06664">
        <ele>314</ele>
        <time>2015-07-30T11:46:04Z</time>
      </trkpt>
      <trkpt lat="47.28627" lon="6.06672">
        <ele>313.7</ele>
        <time>2015-07-30T11:46:06Z</time>
      </trkpt>
      <trkpt lat="47.28614" lon="6.06704">
        <ele>312.7</ele>
        <time>2015-07-30T11:46:21Z</time>
      </trkpt>
      <trkpt lat="47.2861" lon="6.06711">
        <ele>312.4</ele>
        <time>2015-07-30T11:46:25Z</time>
      </trkpt>
      <trkpt lat="47.28606" lon="6.06719">
        <ele>312.2</ele>
        <time>2015-07-30T11:46:28Z</time>
      </trkpt>
      <trkpt lat="47.28601" lon="6.06745">
        <ele>312.2</ele>
        <time>2015-07-30T11:46:36Z</time>
      </trkpt>
      <trkpt lat="47.28593" lon="6.06774">
        <ele>311.7</ele>
        <time>2015-07-30T11:46:53Z</time>
      </trkpt>
      <trkpt lat="47.28583" lon="6.0678">
        <ele>311</ele>
        <time>2015-07-30T11:46:58Z</time>
      </trkpt>
      <trkpt lat="47.2856" lon="6.06815">
        <ele>308.2</ele>
        <time>2015-07-30T11:47:20Z</time>
      </trkpt>
      <trkpt lat="47.28556" lon="6.06822">
        <ele>307.6</ele>
        <time>2015-07-30T11:47:24Z</time>
      </trkpt>
      <trkpt lat="47.28553" lon="6.06835">
        <ele>306.9</ele>
        <time>2015-07-30T11:47:29Z</time>
      </trkpt>
      <trkpt lat="47.28552" lon="6.06857">
        <ele>305.6</ele>
        <time>2015-07-30T11:47:36Z</time>
      </trkpt>
      <trkpt lat="47.28548" lon="6.06887">
        <ele>303.4</ele>
        <time>2015-07-30T11:47:49Z</time>
      </trkpt>
      <trkpt lat="47.28553" lon="6.06896">
        <ele>303.5</ele>
        <time>2015-07-30T11:47:53Z</time>
      </trkpt>
      <trkpt lat="47.28554" lon="6.06934">
        <ele>302.1</ele>
        <time>2015-07-30T11:48:11Z</time>
      </trkpt>
      <trkpt lat="47.28554" lon="6.06941">
        <ele>301.9</ele>
        <time>2015-07-30T11:48:13Z</time>
      </trkpt>
      <trkpt lat="47.28555" lon="6.06948">
        <ele>301.8</ele>
        <time>2015-07-30T11:48:15Z</time>
      </trkpt>
      <trkpt lat="47.28553" lon="6.06972">
        <ele>301</ele>
        <time>2015-07-30T11:48:24Z</time>
      </trkpt>
      <trkpt lat="47.28544" lon="6.07005">
        <ele>299.5</ele>
        <time>2015-07-30T11:48:42Z</time>
      </trkpt>
      <trkpt lat="47.28536" lon="6.07011">
        <ele>298.7</ele>
        <time>2015-07-30T11:48:46Z</time>
      </trkpt>
      <trkpt lat="47.28531" lon="6.07022">
        <ele>298.6</ele>
        <time>2015-07-30T11:48:53Z</time>
      </trkpt>
      <trkpt lat="47.28509" lon="6.07063">
        <ele>297.9</ele>
        <time>2015-07-30T11:49:13Z</time>
      </trkpt>
      <trkpt lat="47.28507" lon="6.07067">
        <ele>297.9</ele>
        <time>2015-07-30T11:49:15Z</time>
      </trkpt>
      <trkpt lat="47.28506" lon="6.07068">
        <ele>297.9</ele>
        <time>2015-07-30T11:49:16Z</time>
      </trkpt>
      <trkpt lat="47.28498" lon="6.07079">
        <ele>297.7</ele>
        <time>2015-07-30T11:49:24Z</time>
      </trkpt>
      <trkpt lat="47.2848" lon="6.071">
        <ele>297.5</ele>
        <time>2015-07-30T11:49:39Z</time>
      </trkpt>
      <trkpt lat="47.28475" lon="6.07104">
        <ele>297.4</ele>
        <time>2015-07-30T11:49:42Z</time>
      </trkpt>
      <trkpt lat="47.28457" lon="6.07115">
        <ele>296.7</ele>
        <time>2015-07-30T11:49:53Z</time>
      </trkpt>
      <trkpt lat="47.28443" lon="6.07119">
        <ele>296</ele>
        <time>2015-07-30T11:50:01Z</time>
      </trkpt>
      <trkpt lat="47.28409" lon="6.07134">
        <ele>293.9</ele>
        <time>2015-07-30T11:50:22Z</time>
      </trkpt>
      <trkpt lat="47.28396" lon="6.07137">
        <ele>292.7</ele>
        <time>2015-07-30T11:50:30Z</time>
      </trkpt>
      <trkpt lat="47.28359" lon="6.0715">
        <ele>288.2</ele>
        <time>2015-07-30T11:50:53Z</time>
      </trkpt>
      <trkpt lat="47.28327" lon="6.07184">
        <ele>280.9</ele>
        <time>2015-07-30T11:51:22Z</time>
      </trkpt>
      <trkpt lat="47.28325" lon="6.0719">
        <ele>280.2</ele>
        <time>2015-07-30T11:51:26Z</time>
      </trkpt>
      <trkpt lat="47.28331" lon="6.07243">
        <ele>275.5</ele>
        <time>2015-07-30T11:51:52Z</time>
      </trkpt>
      <trkpt lat="47.28347" lon="6.07294">
        <ele>273</ele>
        <time>2015-07-30T11:52:18Z</time>
      </trkpt>
      <trkpt lat="47.28355" lon="6.07304">
        <ele>273.5</ele>
        <time>2015-07-30T11:52:24Z</time>
      </trkpt>
      <trkpt lat="47.28377" lon="6.0737">
        <ele>271.2</ele>
        <time>2015-07-30T11:52:53Z</time>
      </trkpt>
      <trkpt lat="47.28413" lon="6.07399">
        <ele>272.9</ele>
        <time>2015-07-30T11:53:22Z</time>
      </trkpt>
      <trkpt lat="47.28417" lon="6.07403">
        <ele>272.8</ele>
        <time>2015-07-30T11:53:24Z</time>
      </trkpt>
      <trkpt lat="47.28457" lon="6.07435">
        <ele>274.8</ele>
        <time>2015-07-30T11:53:53Z</time>
      </trkpt>
      <trkpt lat="47.28424" lon="6.07459">
        <ele>270.2</ele>
        <time>2015-07-30T11:54:22Z</time>
      </trkpt>
      <trkpt lat="47.2842" lon="6.07456">
        <ele>269.9</ele>
        <time>2015-07-30T11:54:25Z</time>
      </trkpt>
      <trkpt lat="47.28413" lon="6.07453">
        <ele>269.4</ele>
        <time>2015-07-30T11:54:29Z</time>
      </trkpt>
      <trkpt lat="47.2838" lon="6.07446">
        <ele>266.9</ele>
        <time>2015-07-30T11:54:48Z</time>
      </trkpt>
      <trkpt lat="47.2836" lon="6.07442">
        <ele>265.3</ele>
        <time>2015-07-30T11:55:01Z</time>
      </trkpt>
      <trkpt lat="47.28328" lon="6.07464">
        <ele>263.1</ele>
        <time>2015-07-30T11:55:24Z</time>
      </trkpt>
      <trkpt lat="47.28309" lon="6.07517">
        <ele>262.6</ele>
        <time>2015-07-30T11:55:52Z</time>
      </trkpt>
      <trkpt lat="47.28295" lon="6.07578">
        <ele>261.1</ele>
        <time>2015-07-30T11:56:22Z</time>
      </trkpt>
      <trkpt lat="47.28295" lon="6.07578">
        <ele>261.1</ele>
        <time>2015-07-30T11:56:22Z</time>
      </trkpt>
      <trkpt lat="47.28289" lon="6.07632">
        <ele>260.4</ele>
        <time>2015-07-30T11:56:45Z</time>
      </trkpt>
      <trkpt lat="47.28283" lon="6.07646">
        <ele>260.1</ele>
        <time>2015-07-30T11:56:52Z</time>
      </trkpt>
      <trkpt lat="47.2826" lon="6.07678">
        <ele>259.2</ele>
        <time>2015-07-30T11:57:21Z</time>
      </trkpt>
      <trkpt lat="47.28259" lon="6.07686">
        <ele>259.2</ele>
        <time>2015-07-30T11:57:25Z</time>
      </trkpt>
      <trkpt lat="47.28258" lon="6.07695">
        <ele>259.2</ele>
        <time>2015-07-30T11:57:29Z</time>
      </trkpt>
      <trkpt lat="47.28253" lon="6.07744">
        <ele>259.1</ele>
        <time>2015-07-30T11:57:53Z</time>
      </trkpt>
      <trkpt lat="47.28221" lon="6.07773">
        <ele>259</ele>
        <time>2015-07-30T11:58:18Z</time>
      </trkpt>
      <trkpt lat="47.28214" lon="6.07784">
        <ele>258.9</ele>
        <time>2015-07-30T11:58:24Z</time>
      </trkpt>
      <trkpt lat="47.2821" lon="6.07787">
        <ele>258.9</ele>
        <time>2015-07-30T11:58:27Z</time>
      </trkpt>
      <trkpt lat="47.28173" lon="6.07816">
        <ele>258.5</ele>
        <time>2015-07-30T11:58:53Z</time>
      </trkpt>
      <trkpt lat="47.28164" lon="6.07819">
        <ele>258.5</ele>
        <time>2015-07-30T11:58:59Z</time>
      </trkpt>
      <trkpt lat="47.2816" lon="6.07819">
        <ele>258.5</ele>
        <time>2015-07-30T11:59:02Z</time>
      </trkpt>
      <trkpt lat="47.28153" lon="6.07822">
        <ele>258.3</ele>
        <time>2015-07-30T11:59:06Z</time>
      </trkpt>
      <trkpt lat="47.28148" lon="6.07828">
        <ele>258</ele>
        <time>2015-07-30T11:59:10Z</time>
      </trkpt>
      <trkpt lat="47.28143" lon="6.07834">
        <ele>257.7</ele>
        <time>2015-07-30T11:59:14Z</time>
      </trkpt>
      <trkpt lat="47.28136" lon="6.07839">
        <ele>257.4</ele>
        <time>2015-07-30T11:59:19Z</time>
      </trkpt>
      <trkpt lat="47.28132" lon="6.07841">
        <ele>257.2</ele>
        <time>2015-07-30T11:59:22Z</time>
      </trkpt>
      <trkpt lat="47.28125" lon="6.07845">
        <ele>256.9</ele>
        <time>2015-07-30T11:59:26Z</time>
      </trkpt>
      <trkpt lat="47.28119" lon="6.07848">
        <ele>256.7</ele>
        <time>2015-07-30T11:59:30Z</time>
      </trkpt>
      <trkpt lat="47.28114" lon="6.07848">
        <ele>256.6</ele>
        <time>2015-07-30T11:59:32Z</time>
      </trkpt>
      <trkpt lat="47.28108" lon="6.07852">
        <ele>256.3</ele>
        <time>2015-07-30T11:59:36Z</time>
      </trkpt>
      <trkpt lat="47.28103" lon="6.07856">
        <ele>256</ele>
        <time>2015-07-30T11:59:40Z</time>
      </trkpt>
      <trkpt lat="47.28098" lon="6.0786">
        <ele>255.7</ele>
        <time>2015-07-30T11:59:44Z</time>
      </trkpt>
      <trkpt lat="47.28092" lon="6.07865">
        <ele>255.3</ele>
        <time>2015-07-30T11:59:48Z</time>
      </trkpt>
      <trkpt lat="47.28087" lon="6.0787">
        <ele>254.9</ele>
        <time>2015-07-30T11:59:52Z</time>
      </trkpt>
      <trkpt lat="47.28082" lon="6.07876">
        <ele>254.4</ele>
        <time>2015-07-30T11:59:56Z</time>
      </trkpt>
      <trkpt lat="47.28077" lon="6.07881">
        <ele>254</ele>
        <time>2015-07-30T12:00:00Z</time>
      </trkpt>
      <trkpt lat="47.2807" lon="6.07887">
        <ele>253.5</ele>
        <time>2015-07-30T12:00:06Z</time>
      </trkpt>
      <trkpt lat="47.28063" lon="6.07892">
        <ele>253.1</ele>
        <time>2015-07-30T12:00:10Z</time>
      </trkpt>
      <trkpt lat="47.28057" lon="6.07897">
        <ele>252.7</ele>
        <time>2015-07-30T12:00:14Z</time>
      </trkpt>
      <trkpt lat="47.28053" lon="6.07901">
        <ele>252.4</ele>
        <time>2015-07-30T12:00:18Z</time>
      </trkpt>
      <trkpt lat="47.28047" lon="6.07901">
        <ele>252.3</ele>
        <time>2015-07-30T12:00:22Z</time>
      </trkpt>
      <trkpt lat="47.28041" lon="6.079">
        <ele>252.3</ele>
        <time>2015-07-30T12:00:26Z</time>
      </trkpt>
      <trkpt lat="47.28035" lon="6.07897">
        <ele>252.3</ele>
        <time>2015-07-30T12:00:30Z</time>
      </trkpt>
      <trkpt lat="47.28027" lon="6.07893">
        <ele>252.4</ele>
        <time>2015-07-30T12:00:34Z</time>
      </trkpt>
      <trkpt lat="47.28021" lon="6.07889">
        <ele>252.4</ele>
        <time>2015-07-30T12:00:38Z</time>
      </trkpt>
      <trkpt lat="47.28014" lon="6.07885">
        <ele>252.4</ele>
        <time>2015-07-30T12:00:42Z</time>
      </trkpt>
      <trkpt lat="47.28007" lon="6.07885">
        <ele>252.3</ele>
        <time>2015-07-30T12:00:46Z</time>
      </trkpt>
      <trkpt lat="47.28001" lon="6.07882">
        <ele>252.3</ele>
        <time>2015-07-30T12:00:50Z</time>
      </trkpt>
      <trkpt lat="47.27995" lon="6.0788">
        <ele>252.2</ele>
        <time>2015-07-30T12:00:54Z</time>
      </trkpt>
      <trkpt lat="47.27989" lon="6.07881">
        <ele>252</ele>
        <time>2015-07-30T12:00:58Z</time>
      </trkpt>
      <trkpt lat="47.27984" lon="6.07879">
        <ele>251.9</ele>
        <time>2015-07-30T12:01:02Z</time>
      </trkpt>
      <trkpt lat="47.27977" lon="6.07878">
        <ele>251.7</ele>
        <time>2015-07-30T12:01:08Z</time>
      </trkpt>
      <trkpt lat="47.27971" lon="6.0788">
        <ele>251.5</ele>
        <time>2015-07-30T12:01:12Z</time>
      </trkpt>
      <trkpt lat="47.27964" lon="6.07879">
        <ele>251.3</ele>
        <time>2015-07-30T12:01:16Z</time>
      </trkpt>
      <trkpt lat="47.27959" lon="6.07878">
        <ele>251.2</ele>
        <time>2015-07-30T12:01:20Z</time>
      </trkpt>
      <trkpt lat="47.27953" lon="6.07875">
        <ele>251.1</ele>
        <time>2015-07-30T12:01:24Z</time>
      </trkpt>
      <trkpt lat="47.27947" lon="6.07874">
        <ele>250.9</ele>
        <time>2015-07-30T12:01:28Z</time>
      </trkpt>
      <trkpt lat="47.27942" lon="6.07873">
        <ele>250.8</ele>
        <time>2015-07-30T12:01:32Z</time>
      </trkpt>
      <trkpt lat="47.27934" lon="6.07871">
        <ele>250.5</ele>
        <time>2015-07-30T12:01:36Z</time>
      </trkpt>
      <trkpt lat="47.27927" lon="6.0787">
        <ele>250.3</ele>
        <time>2015-07-30T12:01:40Z</time>
      </trkpt>
      <trkpt lat="47.2792" lon="6.07869">
        <ele>250.1</ele>
        <time>2015-07-30T12:01:44Z</time>
      </trkpt>
      <trkpt lat="47.27913" lon="6.07865">
        <ele>250</ele>
        <time>2015-07-30T12:01:48Z</time>
      </trkpt>
      <trkpt lat="47.27907" lon="6.07862">
        <ele>250</ele>
        <time>2015-07-30T12:01:52Z</time>
      </trkpt>
      <trkpt lat="47.27902" lon="6.07859">
        <ele>250</ele>
        <time>2015-07-30T12:01:56Z</time>
      </trkpt>
      <trkpt lat="47.27895" lon="6.07858">
        <ele>250</ele>
        <time>2015-07-30T12:02:00Z</time>
      </trkpt>
      <trkpt lat="47.2789" lon="6.07855">
        <ele>250</ele>
        <time>2015-07-30T12:02:04Z</time>
      </trkpt>
      <trkpt lat="47.27884" lon="6.0785">
        <ele>250</ele>
        <time>2015-07-30T12:02:08Z</time>
      </trkpt>
      <trkpt lat="47.27879" lon="6.07846">
        <ele>250</ele>
        <time>2015-07-30T12:02:12Z</time>
      </trkpt>
      <trkpt lat="47.27874" lon="6.07841">
        <ele>250</ele>
        <time>2015-07-30T12:02:16Z</time>
      </trkpt>
      <trkpt lat="47.27869" lon="6.07836">
        <ele>250</ele>
        <time>2015-07-30T12:02:20Z</time>
      </trkpt>
      <trkpt lat="47.27864" lon="6.0783">
        <ele>250.1</ele>
        <time>2015-07-30T12:02:24Z</time>
      </trkpt>
      <trkpt lat="47.2786" lon="6.07826">
        <ele>250.2</ele>
        <time>2015-07-30T12:02:28Z</time>
      </trkpt>
      <trkpt lat="47.27855" lon="6.07821">
        <ele>250.3</ele>
        <time>2015-07-30T12:02:32Z</time>
      </trkpt>
      <trkpt lat="47.27852" lon="6.07816">
        <ele>250.4</ele>
        <time>2015-07-30T12:02:35Z</time>
      </trkpt>
      <trkpt lat="47.27848" lon="6.07812">
        <ele>250.5</ele>
        <time>2015-07-30T12:02:38Z</time>
      </trkpt>
      <trkpt lat="47.27844" lon="6.07805">
        <ele>250.7</ele>
        <time>2015-07-30T12:02:42Z</time>
      </trkpt>
      <trkpt lat="47.27839" lon="6.07801">
        <ele>250.8</ele>
        <time>2015-07-30T12:02:45Z</time>
      </trkpt>
      <trkpt lat="47.27835" lon="6.07797">
        <ele>250.9</ele>
        <time>2015-07-30T12:02:48Z</time>
      </trkpt>
      <trkpt lat="47.27829" lon="6.07793">
        <ele>250.8</ele>
        <time>2015-07-30T12:02:52Z</time>
      </trkpt>
      <trkpt lat="47.27823" lon="6.07787">
        <ele>250.6</ele>
        <time>2015-07-30T12:02:56Z</time>
      </trkpt>
      <trkpt lat="47.27818" lon="6.07782">
        <ele>250.4</ele>
        <time>2015-07-30T12:03:00Z</time>
      </trkpt>
      <trkpt lat="47.27814" lon="6.07776">
        <ele>250.3</ele>
        <time>2015-07-30T12:03:04Z</time>
      </trkpt>
      <trkpt lat="47.27811" lon="6.07772">
        <ele>250.1</ele>
        <time>2015-07-30T12:03:07Z</time>
      </trkpt>
      <trkpt lat="47.27806" lon="6.07767">
        <ele>249.9</ele>
        <time>2015-07-30T12:03:10Z</time>
      </trkpt>
      <trkpt lat="47.278" lon="6.07763">
        <ele>249.5</ele>
        <time>2015-07-30T12:03:14Z</time>
      </trkpt>
      <trkpt lat="47.27794" lon="6.07758">
        <ele>249.2</ele>
        <time>2015-07-30T12:03:19Z</time>
      </trkpt>
      <trkpt lat="47.27787" lon="6.07758">
        <ele>248.7</ele>
        <time>2015-07-30T12:03:24Z</time>
      </trkpt>
      <trkpt lat="47.27781" lon="6.07761">
        <ele>248.3</ele>
        <time>2015-07-30T12:03:28Z</time>
      </trkpt>
      <trkpt lat="47.27773" lon="6.0776">
        <ele>247.8</ele>
        <time>2015-07-30T12:03:34Z</time>
      </trkpt>
      <trkpt lat="47.27766" lon="6.07763">
        <ele>247.3</ele>
        <time>2015-07-30T12:03:37Z</time>
      </trkpt>
      <trkpt lat="47.27762" lon="6.07769">
        <ele>247.2</ele>
        <time>2015-07-30T12:03:40Z</time>
      </trkpt>
      <trkpt lat="47.27757" lon="6.07774">
        <ele>247</ele>
        <time>2015-07-30T12:03:44Z</time>
      </trkpt>
      <trkpt lat="47.27751" lon="6.07781">
        <ele>246.8</ele>
        <time>2015-07-30T12:03:48Z</time>
      </trkpt>
      <trkpt lat="47.27746" lon="6.07785">
        <ele>246.8</ele>
        <time>2015-07-30T12:03:52Z</time>
      </trkpt>
      <trkpt lat="47.27741" lon="6.07788">
        <ele>246.7</ele>
        <time>2015-07-30T12:03:56Z</time>
      </trkpt>
      <trkpt lat="47.27736" lon="6.07793">
        <ele>246.7</ele>
        <time>2015-07-30T12:04:00Z</time>
      </trkpt>
      <trkpt lat="47.27731" lon="6.07797">
        <ele>246.6</ele>
        <time>2015-07-30T12:04:04Z</time>
      </trkpt>
      <trkpt lat="47.27726" lon="6.078">
        <ele>246.6</ele>
        <time>2015-07-30T12:04:08Z</time>
      </trkpt>
      <trkpt lat="47.2772" lon="6.07798">
        <ele>246.4</ele>
        <time>2015-07-30T12:04:12Z</time>
      </trkpt>
      <trkpt lat="47.27713" lon="6.07804">
        <ele>246.3</ele>
        <time>2015-07-30T12:04:18Z</time>
      </trkpt>
      <trkpt lat="47.2771" lon="6.0781">
        <ele>246.3</ele>
        <time>2015-07-30T12:04:22Z</time>
      </trkpt>
      <trkpt lat="47.27706" lon="6.07816">
        <ele>246.2</ele>
        <time>2015-07-30T12:04:26Z</time>
      </trkpt>
      <trkpt lat="47.27702" lon="6.07823">
        <ele>246.2</ele>
        <time>2015-07-30T12:04:30Z</time>
      </trkpt>
      <trkpt lat="47.27698" lon="6.07829">
        <ele>246.1</ele>
        <time>2015-07-30T12:04:34Z</time>
      </trkpt>
      <trkpt lat="47.27694" lon="6.07836">
        <ele>246</ele>
        <time>2015-07-30T12:04:38Z</time>
      </trkpt>
      <trkpt lat="47.27691" lon="6.07841">
        <ele>246</ele>
        <time>2015-07-30T12:04:42Z</time>
      </trkpt>
      <trkpt lat="47.27686" lon="6.07848">
        <ele>245.9</ele>
        <time>2015-07-30T12:04:46Z</time>
      </trkpt>
      <trkpt lat="47.27683" lon="6.07853">
        <ele>245.9</ele>
        <time>2015-07-30T12:04:50Z</time>
      </trkpt>
      <trkpt lat="47.27679" lon="6.0786">
        <ele>245.9</ele>
        <time>2015-07-30T12:04:54Z</time>
      </trkpt>
      <trkpt lat="47.27675" lon="6.07867">
        <ele>246</ele>
        <time>2015-07-30T12:04:58Z</time>
      </trkpt>
      <trkpt lat="47.27671" lon="6.07874">
        <ele>246.1</ele>
        <time>2015-07-30T12:05:02Z</time>
      </trkpt>
      <trkpt lat="47.27668" lon="6.07882">
        <ele>246.2</ele>
        <time>2015-07-30T12:05:06Z</time>
      </trkpt>
      <trkpt lat="47.27665" lon="6.07889">
        <ele>246.3</ele>
        <time>2015-07-30T12:05:10Z</time>
      </trkpt>
      <trkpt lat="47.27661" lon="6.07895">
        <ele>246.3</ele>
        <time>2015-07-30T12:05:14Z</time>
      </trkpt>
      <trkpt lat="47.27657" lon="6.07905">
        <ele>246.3</ele>
        <time>2015-07-30T12:05:18Z</time>
      </trkpt>
      <trkpt lat="47.27652" lon="6.07911">
        <ele>246.2</ele>
        <time>2015-07-30T12:05:22Z</time>
      </trkpt>
      <trkpt lat="47.27649" lon="6.07918">
        <ele>246.1</ele>
        <time>2015-07-30T12:05:26Z</time>
      </trkpt>
      <trkpt lat="47.27647" lon="6.07925">
        <ele>245.8</ele>
        <time>2015-07-30T12:05:30Z</time>
      </trkpt>
      <trkpt lat="47.27644" lon="6.07931">
        <ele>245.5</ele>
        <time>2015-07-30T12:05:34Z</time>
      </trkpt>
      <trkpt lat="47.2764" lon="6.07938">
        <ele>245.2</ele>
        <time>2015-07-30T12:05:38Z</time>
      </trkpt>
      <trkpt lat="47.27634" lon="6.07944">
        <ele>244.8</ele>
        <time>2015-07-30T12:05:42Z</time>
      </trkpt>
      <trkpt lat="47.2763" lon="6.0795">
        <ele>244.6</ele>
        <time>2015-07-30T12:05:46Z</time>
      </trkpt>
      <trkpt lat="47.27623" lon="6.07955">
        <ele>244.2</ele>
        <time>2015-07-30T12:05:52Z</time>
      </trkpt>
      <trkpt lat="47.27618" lon="6.07963">
        <ele>244</ele>
        <time>2015-07-30T12:05:58Z</time>
      </trkpt>
      <trkpt lat="47.27616" lon="6.07969">
        <ele>243.8</ele>
        <time>2015-07-30T12:06:01Z</time>
      </trkpt>
      <trkpt lat="47.27614" lon="6.07975">
        <ele>243.7</ele>
        <time>2015-07-30T12:06:04Z</time>
      </trkpt>
      <trkpt lat="47.2761" lon="6.0798">
        <ele>243.6</ele>
        <time>2015-07-30T12:06:10Z</time>
      </trkpt>
      <trkpt lat="47.27607" lon="6.07989">
        <ele>243.4</ele>
        <time>2015-07-30T12:06:14Z</time>
      </trkpt>
      <trkpt lat="47.27609" lon="6.07999">
        <ele>243.3</ele>
        <time>2015-07-30T12:06:18Z</time>
      </trkpt>
      <trkpt lat="47.27611" lon="6.08006">
        <ele>243.3</ele>
        <time>2015-07-30T12:06:22Z</time>
      </trkpt>
      <trkpt lat="47.27615" lon="6.08014">
        <ele>243.3</ele>
        <time>2015-07-30T12:06:27Z</time>
      </trkpt>
      <trkpt lat="47.27619" lon="6.08022">
        <ele>243.2</ele>
        <time>2015-07-30T12:06:31Z</time>
      </trkpt>
      <trkpt lat="47.27623" lon="6.0803">
        <ele>243.1</ele>
        <time>2015-07-30T12:06:36Z</time>
      </trkpt>
      <trkpt lat="47.27626" lon="6.08038">
        <ele>243</ele>
        <time>2015-07-30T12:06:40Z</time>
      </trkpt>
      <trkpt lat="47.2763" lon="6.08046">
        <ele>242.9</ele>
        <time>2015-07-30T12:06:44Z</time>
      </trkpt>
      <trkpt lat="47.27633" lon="6.08054">
        <ele>242.8</ele>
        <time>2015-07-30T12:06:48Z</time>
      </trkpt>
      <trkpt lat="47.27637" lon="6.08065">
        <ele>242.6</ele>
        <time>2015-07-30T12:06:53Z</time>
      </trkpt>
      <trkpt lat="47.27641" lon="6.08074">
        <ele>242.5</ele>
        <time>2015-07-30T12:06:57Z</time>
      </trkpt>
      <trkpt lat="47.27651" lon="6.08105">
        <ele>242.2</ele>
        <time>2015-07-30T12:07:10Z</time>
      </trkpt>
      <trkpt lat="47.27655" lon="6.08121">
        <ele>242.1</ele>
        <time>2015-07-30T12:07:18Z</time>
      </trkpt>
      <trkpt lat="47.27658" lon="6.08133">
        <ele>242.1</ele>
        <time>2015-07-30T12:07:24Z</time>
      </trkpt>
      <trkpt lat="47.27675" lon="6.08175">
        <ele>242.2</ele>
        <time>2015-07-30T12:07:44Z</time>
      </trkpt>
      <trkpt lat="47.27676" lon="6.08182">
        <ele>242.2</ele>
        <time>2015-07-30T12:07:47Z</time>
      </trkpt>
      <trkpt lat="47.27681" lon="6.08198">
        <ele>242.2</ele>
        <time>2015-07-30T12:07:55Z</time>
      </trkpt>
      <trkpt lat="47.27691" lon="6.08222">
        <ele>242.2</ele>
        <time>2015-07-30T12:08:08Z</time>
      </trkpt>
      <trkpt lat="47.27697" lon="6.08235">
        <ele>242.1</ele>
        <time>2015-07-30T12:08:15Z</time>
      </trkpt>
      <trkpt lat="47.27703" lon="6.08249">
        <ele>242</ele>
        <time>2015-07-30T12:08:22Z</time>
      </trkpt>
      <trkpt lat="47.27717" lon="6.08286">
        <ele>242.6</ele>
        <time>2015-07-30T12:08:43Z</time>
      </trkpt>
      <trkpt lat="47.27721" lon="6.0829">
        <ele>242.6</ele>
        <time>2015-07-30T12:08:46Z</time>
      </trkpt>
      <trkpt lat="47.27728" lon="6.083">
        <ele>242.8</ele>
        <time>2015-07-30T12:08:53Z</time>
      </trkpt>
      <trkpt lat="47.27743" lon="6.08317">
        <ele>242.9</ele>
        <time>2015-07-30T12:09:08Z</time>
      </trkpt>
      <trkpt lat="47.27753" lon="6.08343">
        <ele>243.3</ele>
        <time>2015-07-30T12:09:22Z</time>
      </trkpt>
      <trkpt lat="47.27753" lon="6.08374">
        <ele>244</ele>
        <time>2015-07-30T12:09:44Z</time>
      </trkpt>
      <trkpt lat="47.2776" lon="6.08346">
        <ele>243.6</ele>
        <time>2015-07-30T12:10:15Z</time>
      </trkpt>
      <trkpt lat="47.27761" lon="6.08339">
        <ele>243.5</ele>
        <time>2015-07-30T12:10:20Z</time>
      </trkpt>
      <trkpt lat="47.27763" lon="6.08332">
        <ele>243.5</ele>
        <time>2015-07-30T12:10:24Z</time>
      </trkpt>
      <trkpt lat="47.27763" lon="6.0832">
        <ele>243.4</ele>
        <time>2015-07-30T12:10:29Z</time>
      </trkpt>
      <trkpt lat="47.27779" lon="6.08313">
        <ele>244</ele>
        <time>2015-07-30T12:11:11Z</time>
      </trkpt>
      <trkpt lat="47.27784" lon="6.08319">
        <ele>244.2</ele>
        <time>2015-07-30T12:11:15Z</time>
      </trkpt>
      <trkpt lat="47.2779" lon="6.08326">
        <ele>244.4</ele>
        <time>2015-07-30T12:11:20Z</time>
      </trkpt>
      <trkpt lat="47.27795" lon="6.08333">
        <ele>244.6</ele>
        <time>2015-07-30T12:11:24Z</time>
      </trkpt>
      <trkpt lat="47.278" lon="6.08343">
        <ele>244.8</ele>
        <time>2015-07-30T12:11:29Z</time>
      </trkpt>
      <trkpt lat="47.27807" lon="6.08383">
        <ele>244.6</ele>
        <time>2015-07-30T12:11:49Z</time>
      </trkpt>
      <trkpt lat="47.27811" lon="6.08432">
        <ele>244.4</ele>
        <time>2015-07-30T12:12:11Z</time>
      </trkpt>
      <trkpt lat="47.27811" lon="6.08432">
        <ele>244.4</ele>
        <time>2015-07-30T12:12:11Z</time>
      </trkpt>
      <trkpt lat="47.27808" lon="6.0846">
        <ele>244.7</ele>
        <time>2015-07-30T12:12:22Z</time>
      </trkpt>
      <trkpt lat="47.27808" lon="6.08467">
        <ele>244.7</ele>
        <time>2015-07-30T12:12:25Z</time>
      </trkpt>
      <trkpt lat="47.27808" lon="6.08478">
        <ele>244.8</ele>
        <time>2015-07-30T12:12:29Z</time>
      </trkpt>
      <trkpt lat="47.27797" lon="6.08517">
        <ele>245</ele>
        <time>2015-07-30T12:12:49Z</time>
      </trkpt>
      <trkpt lat="47.27791" lon="6.08518">
        <ele>245</ele>
        <time>2015-07-30T12:12:53Z</time>
      </trkpt>
      <trkpt lat="47.27779" lon="6.08515">
        <ele>244.9</ele>
        <time>2015-07-30T12:13:00Z</time>
      </trkpt>
      <trkpt lat="47.27773" lon="6.0851">
        <ele>244.9</ele>
        <time>2015-07-30T12:13:05Z</time>
      </trkpt>
      <trkpt lat="47.27747" lon="6.08508">
        <ele>244.8</ele>
        <time>2015-07-30T12:13:22Z</time>
      </trkpt>
      <trkpt lat="47.27742" lon="6.08512">
        <ele>244.7</ele>
        <time>2015-07-30T12:13:26Z</time>
      </trkpt>
      <trkpt lat="47.27739" lon="6.08519">
        <ele>244.5</ele>
        <time>2015-07-30T12:13:29Z</time>
      </trkpt>
      <trkpt lat="47.27726" lon="6.08569">
        <ele>243.4</ele>
        <time>2015-07-30T12:13:53Z</time>
      </trkpt>
      <trkpt lat="47.27719" lon="6.08637">
        <ele>242.7</ele>
        <time>2015-07-30T12:14:22Z</time>
      </trkpt>
      <trkpt lat="47.27711" lon="6.08701">
        <ele>242.3</ele>
        <time>2015-07-30T12:14:53Z</time>
      </trkpt>
      <trkpt lat="47.27697" lon="6.08767">
        <ele>242.1</ele>
        <time>2015-07-30T12:15:22Z</time>
      </trkpt>
      <trkpt lat="47.27694" lon="6.08773">
        <ele>242.2</ele>
        <time>2015-07-30T12:15:25Z</time>
      </trkpt>
      <trkpt lat="47.27691" lon="6.08779">
        <ele>242.2</ele>
        <time>2015-07-30T12:15:29Z</time>
      </trkpt>
      <trkpt lat="47.27667" lon="6.08807">
        <ele>242</ele>
        <time>2015-07-30T12:15:52Z</time>
      </trkpt>
      <trkpt lat="47.27638" lon="6.08838">
        <ele>242.1</ele>
        <time>2015-07-30T12:16:16Z</time>
      </trkpt>
      <trkpt lat="47.27629" lon="6.08847">
        <ele>242.3</ele>
        <time>2015-07-30T12:16:24Z</time>
      </trkpt>
      <trkpt lat="47.27622" lon="6.08854">
        <ele>242.4</ele>
        <time>2015-07-30T12:16:30Z</time>
      </trkpt>
      <trkpt lat="47.27613" lon="6.08863">
        <ele>242.5</ele>
        <time>2015-07-30T12:16:37Z</time>
      </trkpt>
      <trkpt lat="47.27589" lon="6.08883">
        <ele>242.6</ele>
        <time>2015-07-30T12:16:53Z</time>
      </trkpt>
      <trkpt lat="47.27546" lon="6.08913">
        <ele>243</ele>
        <time>2015-07-30T12:17:22Z</time>
      </trkpt>
      <trkpt lat="47.27507" lon="6.08938">
        <ele>242.8</ele>
        <time>2015-07-30T12:17:48Z</time>
      </trkpt>
      <trkpt lat="47.27501" lon="6.08942">
        <ele>242.7</ele>
        <time>2015-07-30T12:17:52Z</time>
      </trkpt>
      <trkpt lat="47.27496" lon="6.08945">
        <ele>242.7</ele>
        <time>2015-07-30T12:17:55Z</time>
      </trkpt>
      <trkpt lat="47.27491" lon="6.08947">
        <ele>242.6</ele>
        <time>2015-07-30T12:17:58Z</time>
      </trkpt>
      <trkpt lat="47.27487" lon="6.08951">
        <ele>242.6</ele>
        <time>2015-07-30T12:18:02Z</time>
      </trkpt>
      <trkpt lat="47.27482" lon="6.08954">
        <ele>242.6</ele>
        <time>2015-07-30T12:18:06Z</time>
      </trkpt>
      <trkpt lat="47.27477" lon="6.08957">
        <ele>242.6</ele>
        <time>2015-07-30T12:18:10Z</time>
      </trkpt>
      <trkpt lat="47.2747" lon="6.08962">
        <ele>242.7</ele>
        <time>2015-07-30T12:18:14Z</time>
      </trkpt>
      <trkpt lat="47.27464" lon="6.08966">
        <ele>242.7</ele>
        <time>2015-07-30T12:18:18Z</time>
      </trkpt>
      <trkpt lat="47.27458" lon="6.08967">
        <ele>242.8</ele>
        <time>2015-07-30T12:18:22Z</time>
      </trkpt>
      <trkpt lat="47.27453" lon="6.08968">
        <ele>242.9</ele>
        <time>2015-07-30T12:18:26Z</time>
      </trkpt>
      <trkpt lat="47.27447" lon="6.08971">
        <ele>243</ele>
        <time>2015-07-30T12:18:30Z</time>
      </trkpt>
      <trkpt lat="47.27441" lon="6.08971">
        <ele>243</ele>
        <time>2015-07-30T12:18:34Z</time>
      </trkpt>
      <trkpt lat="47.27436" lon="6.08975">
        <ele>243.1</ele>
        <time>2015-07-30T12:18:38Z</time>
      </trkpt>
      <trkpt lat="47.2743" lon="6.08976">
        <ele>243.2</ele>
        <time>2015-07-30T12:18:42Z</time>
      </trkpt>
      <trkpt lat="47.27423" lon="6.08978">
        <ele>243.4</ele>
        <time>2015-07-30T12:18:46Z</time>
      </trkpt>
      <trkpt lat="47.27416" lon="6.08978">
        <ele>243.5</ele>
        <time>2015-07-30T12:18:51Z</time>
      </trkpt>
      <trkpt lat="47.27409" lon="6.08979">
        <ele>243.5</ele>
        <time>2015-07-30T12:18:55Z</time>
      </trkpt>
      <trkpt lat="47.27404" lon="6.08979">
        <ele>243.6</ele>
        <time>2015-07-30T12:18:58Z</time>
      </trkpt>
      <trkpt lat="47.27398" lon="6.08978">
        <ele>243.6</ele>
        <time>2015-07-30T12:19:02Z</time>
      </trkpt>
      <trkpt lat="47.27393" lon="6.08977">
        <ele>243.6</ele>
        <time>2015-07-30T12:19:06Z</time>
      </trkpt>
      <trkpt lat="47.27387" lon="6.08977">
        <ele>243.6</ele>
        <time>2015-07-30T12:19:10Z</time>
      </trkpt>
      <trkpt lat="47.2738" lon="6.08978">
        <ele>243.7</ele>
        <time>2015-07-30T12:19:14Z</time>
      </trkpt>
      <trkpt lat="47.27367" lon="6.08979">
        <ele>243.8</ele>
        <time>2015-07-30T12:19:23Z</time>
      </trkpt>
      <trkpt lat="47.27356" lon="6.0898">
        <ele>243.9</ele>
        <time>2015-07-30T12:19:29Z</time>
      </trkpt>
      <trkpt lat="47.27351" lon="6.08981">
        <ele>243.9</ele>
        <time>2015-07-30T12:19:32Z</time>
      </trkpt>
      <trkpt lat="47.27345" lon="6.08982">
        <ele>243.9</ele>
        <time>2015-07-30T12:19:36Z</time>
      </trkpt>
      <trkpt lat="47.27339" lon="6.08982">
        <ele>244</ele>
        <time>2015-07-30T12:19:40Z</time>
      </trkpt>
      <trkpt lat="47.27334" lon="6.08982">
        <ele>244</ele>
        <time>2015-07-30T12:19:44Z</time>
      </trkpt>
      <trkpt lat="47.27327" lon="6.08983">
        <ele>243.9</ele>
        <time>2015-07-30T12:19:48Z</time>
      </trkpt>
      <trkpt lat="47.27321" lon="6.08984">
        <ele>243.9</ele>
        <time>2015-07-30T12:19:52Z</time>
      </trkpt>
      <trkpt lat="47.27314" lon="6.08984">
        <ele>243.8</ele>
        <time>2015-07-30T12:19:56Z</time>
      </trkpt>
      <trkpt lat="47.27308" lon="6.08984">
        <ele>243.7</ele>
        <time>2015-07-30T12:20:00Z</time>
      </trkpt>
      <trkpt lat="47.27303" lon="6.08987">
        <ele>243.6</ele>
        <time>2015-07-30T12:20:04Z</time>
      </trkpt>
      <trkpt lat="47.27298" lon="6.08989">
        <ele>243.6</ele>
        <time>2015-07-30T12:20:08Z</time>
      </trkpt>
      <trkpt lat="47.27292" lon="6.08989">
        <ele>243.5</ele>
        <time>2015-07-30T12:20:12Z</time>
      </trkpt>
      <trkpt lat="47.27286" lon="6.0899">
        <ele>243.4</ele>
        <time>2015-07-30T12:20:16Z</time>
      </trkpt>
      <trkpt lat="47.27279" lon="6.08991">
        <ele>243.3</ele>
        <time>2015-07-30T12:20:20Z</time>
      </trkpt>
      <trkpt lat="47.27273" lon="6.08994">
        <ele>243.3</ele>
        <time>2015-07-30T12:20:24Z</time>
      </trkpt>
      <trkpt lat="47.27268" lon="6.08998">
        <ele>243.2</ele>
        <time>2015-07-30T12:20:28Z</time>
      </trkpt>
      <trkpt lat="47.27263" lon="6.09">
        <ele>243.2</ele>
        <time>2015-07-30T12:20:31Z</time>
      </trkpt>
      <trkpt lat="47.27259" lon="6.09003">
        <ele>243.1</ele>
        <time>2015-07-30T12:20:34Z</time>
      </trkpt>
      <trkpt lat="47.27252" lon="6.09005">
        <ele>243.1</ele>
        <time>2015-07-30T12:20:38Z</time>
      </trkpt>
      <trkpt lat="47.27246" lon="6.09008">
        <ele>243.1</ele>
        <time>2015-07-30T12:20:42Z</time>
      </trkpt>
      <trkpt lat="47.27241" lon="6.0901">
        <ele>243.2</ele>
        <time>2015-07-30T12:20:50Z</time>
      </trkpt>
      <trkpt lat="47.2723" lon="6.08997">
        <ele>243.2</ele>
        <time>2015-07-30T12:21:22Z</time>
      </trkpt>
      <trkpt lat="47.27223" lon="6.08997">
        <ele>243.3</ele>
        <time>2015-07-30T12:21:26Z</time>
      </trkpt>
      <trkpt lat="47.2722" lon="6.08998">
        <ele>243.4</ele>
        <time>2015-07-30T12:21:28Z</time>
      </trkpt>
      <trkpt lat="47.27187" lon="6.09004">
        <ele>243.8</ele>
        <time>2015-07-30T12:21:53Z</time>
      </trkpt>
      <trkpt lat="47.27155" lon="6.09009">
        <ele>244.1</ele>
        <time>2015-07-30T12:22:16Z</time>
      </trkpt>
      <trkpt lat="47.27149" lon="6.0901">
        <ele>244.1</ele>
        <time>2015-07-30T12:22:20Z</time>
      </trkpt>
      <trkpt lat="47.2714" lon="6.09012">
        <ele>244.1</ele>
        <time>2015-07-30T12:22:25Z</time>
      </trkpt>
      <trkpt lat="47.27134" lon="6.09013">
        <ele>244.2</ele>
        <time>2015-07-30T12:22:27Z</time>
      </trkpt>
      <trkpt lat="47.27125" lon="6.09014">
        <ele>244.2</ele>
        <time>2015-07-30T12:22:30Z</time>
      </trkpt>
      <trkpt lat="47.27095" lon="6.09018">
        <ele>244.2</ele>
        <time>2015-07-30T12:22:53Z</time>
      </trkpt>
      <trkpt lat="47.27083" lon="6.09018">
        <ele>244.2</ele>
        <time>2015-07-30T12:22:58Z</time>
      </trkpt>
      <trkpt lat="47.27077" lon="6.0902">
        <ele>244.3</ele>
        <time>2015-07-30T12:23:02Z</time>
      </trkpt>
      <trkpt lat="47.27076" lon="6.0902">
        <ele>244.3</ele>
        <time>2015-07-30T12:23:10Z</time>
      </trkpt>
      <trkpt lat="47.27071" lon="6.09019">
        <ele>244.4</ele>
        <time>2015-07-30T12:23:12Z</time>
      </trkpt>
      <trkpt lat="47.27066" lon="6.09019">
        <ele>244.5</ele>
        <time>2015-07-30T12:23:18Z</time>
      </trkpt>
      <trkpt lat="47.2706" lon="6.09018">
        <ele>244.6</ele>
        <time>2015-07-30T12:23:24Z</time>
      </trkpt>
      <trkpt lat="47.27052" lon="6.09005">
        <ele>244.5</ele>
        <time>2015-07-30T12:23:34Z</time>
      </trkpt>
      <trkpt lat="47.27054" lon="6.08963">
        <ele>244.6</ele>
        <time>2015-07-30T12:23:53Z</time>
      </trkpt>
      <trkpt lat="47.27065" lon="6.089">
        <ele>245.1</ele>
        <time>2015-07-30T12:24:22Z</time>
      </trkpt>
      <trkpt lat="47.27065" lon="6.08892">
        <ele>245.1</ele>
        <time>2015-07-30T12:24:26Z</time>
      </trkpt>
      <trkpt lat="47.27067" lon="6.08835">
        <ele>245.4</ele>
        <time>2015-07-30T12:24:53Z</time>
      </trkpt>
      <trkpt lat="47.27076" lon="6.08768">
        <ele>244.3</ele>
        <time>2015-07-30T12:25:23Z</time>
      </trkpt>
      <trkpt lat="47.27086" lon="6.08698">
        <ele>243.3</ele>
        <time>2015-07-30T12:25:52Z</time>
      </trkpt>
      <trkpt lat="47.27091" lon="6.08628">
        <ele>243</ele>
        <time>2015-07-30T12:26:22Z</time>
      </trkpt>
      <trkpt lat="47.2709" lon="6.0862">
        <ele>243</ele>
        <time>2015-07-30T12:26:25Z</time>
      </trkpt>
      <trkpt lat="47.27091" lon="6.08586">
        <ele>243.1</ele>
        <time>2015-07-30T12:26:40Z</time>
      </trkpt>
      <trkpt lat="47.27089" lon="6.08561">
        <ele>243.3</ele>
        <time>2015-07-30T12:26:52Z</time>
      </trkpt>
      <trkpt lat="47.2708" lon="6.08492">
        <ele>243.8</ele>
        <time>2015-07-30T12:27:23Z</time>
      </trkpt>
      <trkpt lat="47.27079" lon="6.08485">
        <ele>243.7</ele>
        <time>2015-07-30T12:27:26Z</time>
      </trkpt>
      <trkpt lat="47.27078" lon="6.08478">
        <ele>243.5</ele>
        <time>2015-07-30T12:27:30Z</time>
      </trkpt>
      <trkpt lat="47.27052" lon="6.08488">
        <ele>244.1</ele>
        <time>2015-07-30T12:27:53Z</time>
      </trkpt>
      <trkpt lat="47.27023" lon="6.08491">
        <ele>244.5</ele>
        <time>2015-07-30T12:28:12Z</time>
      </trkpt>
      <trkpt lat="47.27018" lon="6.08492">
        <ele>244.6</ele>
        <time>2015-07-30T12:28:15Z</time>
      </trkpt>
      <trkpt lat="47.27007" lon="6.08495">
        <ele>244.8</ele>
        <time>2015-07-30T12:28:23Z</time>
      </trkpt>
      <trkpt lat="47.27003" lon="6.08496">
        <ele>244.9</ele>
        <time>2015-07-30T12:28:26Z</time>
      </trkpt>
      <trkpt lat="47.26968" lon="6.08506">
        <ele>244.6</ele>
        <time>2015-07-30T12:28:49Z</time>
      </trkpt>
      <trkpt lat="47.26962" lon="6.08508">
        <ele>244.6</ele>
        <time>2015-07-30T12:28:53Z</time>
      </trkpt>
      <trkpt lat="47.26937" lon="6.08513">
        <ele>244.4</ele>
        <time>2015-07-30T12:29:10Z</time>
      </trkpt>
      <trkpt lat="47.26926" lon="6.08519">
        <ele>244.3</ele>
        <time>2015-07-30T12:29:18Z</time>
      </trkpt>
      <trkpt lat="47.26917" lon="6.08521">
        <ele>244.3</ele>
        <time>2015-07-30T12:29:25Z</time>
      </trkpt>
      <trkpt lat="47.26881" lon="6.08536">
        <ele>245.1</ele>
        <time>2015-07-30T12:29:45Z</time>
      </trkpt>
      <trkpt lat="47.2687" lon="6.08547">
        <ele>245.4</ele>
        <time>2015-07-30T12:29:53Z</time>
      </trkpt>
      <trkpt lat="47.26851" lon="6.08582">
        <ele>245.8</ele>
        <time>2015-07-30T12:30:12Z</time>
      </trkpt>
      <trkpt lat="47.2685" lon="6.08588">
        <ele>245.8</ele>
        <time>2015-07-30T12:30:15Z</time>
      </trkpt>
      <trkpt lat="47.26848" lon="6.08595">
        <ele>245.7</ele>
        <time>2015-07-30T12:30:18Z</time>
      </trkpt>
      <trkpt lat="47.26844" lon="6.08602">
        <ele>245.7</ele>
        <time>2015-07-30T12:30:22Z</time>
      </trkpt>
      <trkpt lat="47.26843" lon="6.08609">
        <ele>245.6</ele>
        <time>2015-07-30T12:30:25Z</time>
      </trkpt>
      <trkpt lat="47.2684" lon="6.08615">
        <ele>245.6</ele>
        <time>2015-07-30T12:30:28Z</time>
      </trkpt>
      <trkpt lat="47.26838" lon="6.08624">
        <ele>245.5</ele>
        <time>2015-07-30T12:30:32Z</time>
      </trkpt>
      <trkpt lat="47.26837" lon="6.08632">
        <ele>245.4</ele>
        <time>2015-07-30T12:30:36Z</time>
      </trkpt>
      <trkpt lat="47.26837" lon="6.08641">
        <ele>245.3</ele>
        <time>2015-07-30T12:30:40Z</time>
      </trkpt>
      <trkpt lat="47.26837" lon="6.08651">
        <ele>245.2</ele>
        <time>2015-07-30T12:30:44Z</time>
      </trkpt>
      <trkpt lat="47.26837" lon="6.08659">
        <ele>245.1</ele>
        <time>2015-07-30T12:30:48Z</time>
      </trkpt>
      <trkpt lat="47.26838" lon="6.08674">
        <ele>245</ele>
        <time>2015-07-30T12:30:54Z</time>
      </trkpt>
      <trkpt lat="47.26838" lon="6.08681">
        <ele>245</ele>
        <time>2015-07-30T12:30:57Z</time>
      </trkpt>
      <trkpt lat="47.26838" lon="6.08726">
        <ele>245.1</ele>
        <time>2015-07-30T12:31:15Z</time>
      </trkpt>
      <trkpt lat="47.2684" lon="6.08745">
        <ele>245.2</ele>
        <time>2015-07-30T12:31:23Z</time>
      </trkpt>
      <trkpt lat="47.26838" lon="6.08751">
        <ele>245.1</ele>
        <time>2015-07-30T12:31:26Z</time>
      </trkpt>
      <trkpt lat="47.26836" lon="6.0876">
        <ele>245.3</ele>
        <time>2015-07-30T12:31:30Z</time>
      </trkpt>
      <trkpt lat="47.26837" lon="6.08776">
        <ele>245.7</ele>
        <time>2015-07-30T12:31:37Z</time>
      </trkpt>
      <trkpt lat="47.26831" lon="6.08786">
        <ele>245.9</ele>
        <time>2015-07-30T12:31:46Z</time>
      </trkpt>
      <trkpt lat="47.26813" lon="6.08798">
        <ele>246.4</ele>
        <time>2015-07-30T12:31:58Z</time>
      </trkpt>
      <trkpt lat="47.26809" lon="6.08801">
        <ele>246.6</ele>
        <time>2015-07-30T12:32:01Z</time>
      </trkpt>
      <trkpt lat="47.26782" lon="6.0883">
        <ele>248.1</ele>
        <time>2015-07-30T12:32:22Z</time>
      </trkpt>
      <trkpt lat="47.26778" lon="6.08837">
        <ele>248.7</ele>
        <time>2015-07-30T12:32:26Z</time>
      </trkpt>
      <trkpt lat="47.26775" lon="6.08843">
        <ele>249.4</ele>
        <time>2015-07-30T12:32:30Z</time>
      </trkpt>
      <trkpt lat="47.26759" lon="6.08866">
        <ele>252.7</ele>
        <time>2015-07-30T12:32:44Z</time>
      </trkpt>
      <trkpt lat="47.26747" lon="6.08875">
        <ele>254.7</ele>
        <time>2015-07-30T12:32:53Z</time>
      </trkpt>
      <trkpt lat="47.26727" lon="6.08875">
        <ele>255.9</ele>
        <time>2015-07-30T12:33:06Z</time>
      </trkpt>
      <trkpt lat="47.26711" lon="6.08871">
        <ele>256.2</ele>
        <time>2015-07-30T12:33:16Z</time>
      </trkpt>
      <trkpt lat="47.26703" lon="6.0887">
        <ele>256.5</ele>
        <time>2015-07-30T12:33:20Z</time>
      </trkpt>
      <trkpt lat="47.26697" lon="6.08872">
        <ele>257.2</ele>
        <time>2015-07-30T12:33:22Z</time>
      </trkpt>
      <trkpt lat="47.2669" lon="6.0887">
        <ele>257.3</ele>
        <time>2015-07-30T12:33:28Z</time>
      </trkpt>
      <trkpt lat="47.26687" lon="6.08871">
        <ele>257.6</ele>
        <time>2015-07-30T12:33:43Z</time>
      </trkpt>
      <trkpt lat="47.26687" lon="6.08871">
        <ele>257.6</ele>
        <time>2015-07-30T12:33:58Z</time>
      </trkpt>
      <trkpt lat="47.26685" lon="6.08885">
        <ele>260.1</ele>
        <time>2015-07-30T12:34:00Z</time>
      </trkpt>
      <trkpt lat="47.26683" lon="6.08876">
        <ele>258.7</ele>
        <time>2015-07-30T12:34:08Z</time>
      </trkpt>
      <trkpt lat="47.26682" lon="6.08868">
        <ele>257.4</ele>
        <time>2015-07-30T12:34:10Z</time>
      </trkpt>
      <trkpt lat="47.26677" lon="6.08862">
        <ele>256.6</ele>
        <time>2015-07-30T12:34:14Z</time>
      </trkpt>
      <trkpt lat="47.26672" lon="6.0886">
        <ele>256.5</ele>
        <time>2015-07-30T12:34:18Z</time>
      </trkpt>
      <trkpt lat="47.26666" lon="6.08858">
        <ele>256.5</ele>
        <time>2015-07-30T12:34:22Z</time>
      </trkpt>
      <trkpt lat="47.26659" lon="6.08856">
        <ele>256.6</ele>
        <time>2015-07-30T12:34:26Z</time>
      </trkpt>
      <trkpt lat="47.26653" lon="6.08854">
        <ele>256.7</ele>
        <time>2015-07-30T12:34:30Z</time>
      </trkpt>
      <trkpt lat="47.26647" lon="6.08853">
        <ele>256.9</ele>
        <time>2015-07-30T12:34:34Z</time>
      </trkpt>
      <trkpt lat="47.2664" lon="6.08852">
        <ele>257.2</ele>
        <time>2015-07-30T12:34:38Z</time>
      </trkpt>
      <trkpt lat="47.26636" lon="6.08851">
        <ele>257.3</ele>
        <time>2015-07-30T12:34:42Z</time>
      </trkpt>
      <trkpt lat="47.26624" lon="6.08846">
        <ele>257.2</ele>
        <time>2015-07-30T12:34:50Z</time>
      </trkpt>
      <trkpt lat="47.2662" lon="6.08844">
        <ele>257</ele>
        <time>2015-07-30T12:34:53Z</time>
      </trkpt>
      <trkpt lat="47.26597" lon="6.08837">
        <ele>257</ele>
        <time>2015-07-30T12:35:08Z</time>
      </trkpt>
      <trkpt lat="47.26591" lon="6.08833">
        <ele>256.5</ele>
        <time>2015-07-30T12:35:12Z</time>
      </trkpt>
      <trkpt lat="47.26582" lon="6.0883">
        <ele>256.7</ele>
        <time>2015-07-30T12:35:17Z</time>
      </trkpt>
      <trkpt lat="47.26572" lon="6.08827">
        <ele>257.4</ele>
        <time>2015-07-30T12:35:23Z</time>
      </trkpt>
      <trkpt lat="47.26564" lon="6.08823">
        <ele>257.7</ele>
        <time>2015-07-30T12:35:28Z</time>
      </trkpt>
      <trkpt lat="47.26528" lon="6.08812">
        <ele>259.5</ele>
        <time>2015-07-30T12:35:50Z</time>
      </trkpt>
      <trkpt lat="47.26523" lon="6.08809">
        <ele>259.3</ele>
        <time>2015-07-30T12:35:53Z</time>
      </trkpt>
      <trkpt lat="47.26495" lon="6.08793">
        <ele>258.5</ele>
        <time>2015-07-30T12:36:12Z</time>
      </trkpt>
      <trkpt lat="47.2649" lon="6.0879">
        <ele>258.6</ele>
        <time>2015-07-30T12:36:15Z</time>
      </trkpt>
      <trkpt lat="47.2648" lon="6.08781">
        <ele>257.9</ele>
        <time>2015-07-30T12:36:25Z</time>
      </trkpt>
      <trkpt lat="47.26474" lon="6.08778">
        <ele>258</ele>
        <time>2015-07-30T12:36:30Z</time>
      </trkpt>
      <trkpt lat="47.26464" lon="6.08771">
        <ele>257.8</ele>
        <time>2015-07-30T12:36:38Z</time>
      </trkpt>
      <trkpt lat="47.26439" lon="6.0876">
        <ele>258.5</ele>
        <time>2015-07-30T12:36:52Z</time>
      </trkpt>
      <trkpt lat="47.2643" lon="6.08756">
        <ele>258.7</ele>
        <time>2015-07-30T12:36:58Z</time>
      </trkpt>
      <trkpt lat="47.26421" lon="6.08753">
        <ele>259.2</ele>
        <time>2015-07-30T12:37:03Z</time>
      </trkpt>
      <trkpt lat="47.26409" lon="6.08747">
        <ele>259.9</ele>
        <time>2015-07-30T12:37:11Z</time>
      </trkpt>
      <trkpt lat="47.26399" lon="6.08742">
        <ele>260.8</ele>
        <time>2015-07-30T12:37:18Z</time>
      </trkpt>
      <trkpt lat="47.26392" lon="6.08735">
        <ele>260.8</ele>
        <time>2015-07-30T12:37:23Z</time>
      </trkpt>
      <trkpt lat="47.26388" lon="6.08732">
        <ele>260.9</ele>
        <time>2015-07-30T12:37:26Z</time>
      </trkpt>
      <trkpt lat="47.26358" lon="6.08722">
        <ele>263.4</ele>
        <time>2015-07-30T12:37:44Z</time>
      </trkpt>
      <trkpt lat="47.26347" lon="6.08721">
        <ele>264.7</ele>
        <time>2015-07-30T12:37:52Z</time>
      </trkpt>
      <trkpt lat="47.26318" lon="6.08714">
        <ele>268.3</ele>
        <time>2015-07-30T12:38:09Z</time>
      </trkpt>
      <trkpt lat="47.26299" lon="6.08705">
        <ele>270.3</ele>
        <time>2015-07-30T12:38:22Z</time>
      </trkpt>
      <trkpt lat="47.26255" lon="6.08685">
        <ele>274.7</ele>
        <time>2015-07-30T12:38:53Z</time>
      </trkpt>
      <trkpt lat="47.26215" lon="6.08657">
        <ele>277.4</ele>
        <time>2015-07-30T12:39:23Z</time>
      </trkpt>
      <trkpt lat="47.2621" lon="6.0865">
        <ele>276.6</ele>
        <time>2015-07-30T12:39:26Z</time>
      </trkpt>
      <trkpt lat="47.26203" lon="6.08646">
        <ele>277.1</ele>
        <time>2015-07-30T12:39:31Z</time>
      </trkpt>
      <trkpt lat="47.26198" lon="6.08643">
        <ele>277.4</ele>
        <time>2015-07-30T12:39:35Z</time>
      </trkpt>
      <trkpt lat="47.26194" lon="6.08638">
        <ele>276.8</ele>
        <time>2015-07-30T12:39:38Z</time>
      </trkpt>
      <trkpt lat="47.26189" lon="6.08633">
        <ele>276.4</ele>
        <time>2015-07-30T12:39:43Z</time>
      </trkpt>
      <trkpt lat="47.26183" lon="6.08626">
        <ele>275.6</ele>
        <time>2015-07-30T12:39:48Z</time>
      </trkpt>
      <trkpt lat="47.26177" lon="6.08623">
        <ele>276</ele>
        <time>2015-07-30T12:39:52Z</time>
      </trkpt>
      <trkpt lat="47.26172" lon="6.08621">
        <ele>276.5</ele>
        <time>2015-07-30T12:39:56Z</time>
      </trkpt>
      <trkpt lat="47.26161" lon="6.08614">
        <ele>276.9</ele>
        <time>2015-07-30T12:40:05Z</time>
      </trkpt>
      <trkpt lat="47.26138" lon="6.08605">
        <ele>280</ele>
        <time>2015-07-30T12:40:21Z</time>
      </trkpt>
      <trkpt lat="47.26131" lon="6.08599">
        <ele>279.7</ele>
        <time>2015-07-30T12:40:25Z</time>
      </trkpt>
      <trkpt lat="47.26125" lon="6.08593">
        <ele>279</ele>
        <time>2015-07-30T12:40:29Z</time>
      </trkpt>
      <trkpt lat="47.26112" lon="6.08581">
        <ele>278.1</ele>
        <time>2015-07-30T12:40:37Z</time>
      </trkpt>
      <trkpt lat="47.26109" lon="6.08575">
        <ele>276.9</ele>
        <time>2015-07-30T12:40:40Z</time>
      </trkpt>
      <trkpt lat="47.26104" lon="6.08573">
        <ele>277.5</ele>
        <time>2015-07-30T12:40:43Z</time>
      </trkpt>
      <trkpt lat="47.261" lon="6.08567">
        <ele>276.4</ele>
        <time>2015-07-30T12:40:46Z</time>
      </trkpt>
      <trkpt lat="47.26096" lon="6.08564">
        <ele>276.3</ele>
        <time>2015-07-30T12:40:49Z</time>
      </trkpt>
      <trkpt lat="47.26091" lon="6.08561">
        <ele>276.3</ele>
        <time>2015-07-30T12:40:52Z</time>
      </trkpt>
      <trkpt lat="47.26088" lon="6.08558">
        <ele>275.9</ele>
        <time>2015-07-30T12:40:55Z</time>
      </trkpt>
      <trkpt lat="47.26078" lon="6.08556">
        <ele>277.3</ele>
        <time>2015-07-30T12:41:02Z</time>
      </trkpt>
      <trkpt lat="47.26047" lon="6.08531">
        <ele>275</ele>
        <time>2015-07-30T12:41:22Z</time>
      </trkpt>
      <trkpt lat="47.26" lon="6.08504">
        <ele>275.4</ele>
        <time>2015-07-30T12:41:53Z</time>
      </trkpt>
      <trkpt lat="47.25956" lon="6.08473">
        <ele>278.3</ele>
        <time>2015-07-30T12:42:23Z</time>
      </trkpt>
      <trkpt lat="47.25951" lon="6.08469">
        <ele>278.2</ele>
        <time>2015-07-30T12:42:27Z</time>
      </trkpt>
      <trkpt lat="47.25945" lon="6.08466">
        <ele>278.6</ele>
        <time>2015-07-30T12:42:31Z</time>
      </trkpt>
      <trkpt lat="47.25912" lon="6.08453">
        <ele>282.1</ele>
        <time>2015-07-30T12:42:53Z</time>
      </trkpt>
      <trkpt lat="47.25863" lon="6.08427">
        <ele>287.2</ele>
        <time>2015-07-30T12:43:24Z</time>
      </trkpt>
      <trkpt lat="47.25857" lon="6.08425">
        <ele>288.4</ele>
        <time>2015-07-30T12:43:28Z</time>
      </trkpt>
      <trkpt lat="47.25825" lon="6.08399">
        <ele>287.9</ele>
        <time>2015-07-30T12:43:53Z</time>
      </trkpt>
      <trkpt lat="47.25805" lon="6.08383">
        <ele>286.3</ele>
        <time>2015-07-30T12:44:07Z</time>
      </trkpt>
      <trkpt lat="47.25777" lon="6.08359">
        <ele>281.9</ele>
        <time>2015-07-30T12:44:24Z</time>
      </trkpt>
      <trkpt lat="47.25734" lon="6.08337">
        <ele>281.5</ele>
        <time>2015-07-30T12:44:53Z</time>
      </trkpt>
      <trkpt lat="47.25689" lon="6.08307">
        <ele>281.5</ele>
        <time>2015-07-30T12:45:24Z</time>
      </trkpt>
      <trkpt lat="47.25682" lon="6.08303">
        <ele>281.5</ele>
        <time>2015-07-30T12:45:29Z</time>
      </trkpt>
      <trkpt lat="47.25645" lon="6.08283">
        <ele>280.8</ele>
        <time>2015-07-30T12:45:53Z</time>
      </trkpt>
      <trkpt lat="47.25611" lon="6.08269">
        <ele>281.5</ele>
        <time>2015-07-30T12:46:19Z</time>
      </trkpt>
      <trkpt lat="47.25601" lon="6.08262">
        <ele>280.2</ele>
        <time>2015-07-30T12:46:26Z</time>
      </trkpt>
      <trkpt lat="47.25592" lon="6.08257">
        <ele>279.6</ele>
        <time>2015-07-30T12:46:31Z</time>
      </trkpt>
      <trkpt lat="47.2558" lon="6.08249">
        <ele>278.4</ele>
        <time>2015-07-30T12:46:39Z</time>
      </trkpt>
      <trkpt lat="47.2557" lon="6.08243">
        <ele>278.4</ele>
        <time>2015-07-30T12:46:46Z</time>
      </trkpt>
      <trkpt lat="47.25517" lon="6.08213">
        <ele>278.7</ele>
        <time>2015-07-30T12:47:24Z</time>
      </trkpt>
      <trkpt lat="47.25504" lon="6.08203">
        <ele>277.7</ele>
        <time>2015-07-30T12:47:32Z</time>
      </trkpt>
      <trkpt lat="47.25473" lon="6.08181">
        <ele>281.1</ele>
        <time>2015-07-30T12:47:53Z</time>
      </trkpt>
      <trkpt lat="47.25423" lon="6.0815">
        <ele>290.2</ele>
        <time>2015-07-30T12:48:25Z</time>
      </trkpt>
      <trkpt lat="47.25415" lon="6.08145">
        <ele>291.1</ele>
        <time>2015-07-30T12:48:30Z</time>
      </trkpt>
      <trkpt lat="47.25384" lon="6.08124">
        <ele>295.6</ele>
        <time>2015-07-30T12:48:53Z</time>
      </trkpt>
      <trkpt lat="47.25369" lon="6.08112">
        <ele>297.4</ele>
        <time>2015-07-30T12:49:05Z</time>
      </trkpt>
      <trkpt lat="47.25338" lon="6.08089">
        <ele>302</ele>
        <time>2015-07-30T12:49:27Z</time>
      </trkpt>
      <trkpt lat="47.2531" lon="6.08054">
        <ele>302</ele>
        <time>2015-07-30T12:49:53Z</time>
      </trkpt>
      <trkpt lat="47.25296" lon="6.08027">
        <ele>298.6</ele>
        <time>2015-07-30T12:50:14Z</time>
      </trkpt>
      <trkpt lat="47.25285" lon="6.08007">
        <ele>296.2</ele>
        <time>2015-07-30T12:50:25Z</time>
      </trkpt>
      <trkpt lat="47.25281" lon="6.08002">
        <ele>296.1</ele>
        <time>2015-07-30T12:50:27Z</time>
      </trkpt>
      <trkpt lat="47.25277" lon="6.07991">
        <ele>294.6</ele>
        <time>2015-07-30T12:50:34Z</time>
      </trkpt>
      <trkpt lat="47.25269" lon="6.07966">
        <ele>290.9</ele>
        <time>2015-07-30T12:50:50Z</time>
      </trkpt>
      <trkpt lat="47.25253" lon="6.0796">
        <ele>294.9</ele>
        <time>2015-07-30T12:51:09Z</time>
      </trkpt>
      <trkpt lat="47.25248" lon="6.07959">
        <ele>296.3</ele>
        <time>2015-07-30T12:51:14Z</time>
      </trkpt>
      <trkpt lat="47.25243" lon="6.07959">
        <ele>297.8</ele>
        <time>2015-07-30T12:51:17Z</time>
      </trkpt>
      <trkpt lat="47.25238" lon="6.07955">
        <ele>298.2</ele>
        <time>2015-07-30T12:51:21Z</time>
      </trkpt>
      <trkpt lat="47.25233" lon="6.07954">
        <ele>299.4</ele>
        <time>2015-07-30T12:51:28Z</time>
      </trkpt>
      <trkpt lat="47.25203" lon="6.07949">
        <ele>307</ele>
        <time>2015-07-30T12:51:52Z</time>
      </trkpt>
      <trkpt lat="47.25176" lon="6.0794">
        <ele>312.4</ele>
        <time>2015-07-30T12:52:15Z</time>
      </trkpt>
      <trkpt lat="47.25171" lon="6.07938">
        <ele>313.3</ele>
        <time>2015-07-30T12:52:19Z</time>
      </trkpt>
      <trkpt lat="47.25161" lon="6.07936">
        <ele>315.9</ele>
        <time>2015-07-30T12:52:27Z</time>
      </trkpt>
      <trkpt lat="47.25154" lon="6.07928">
        <ele>315.8</ele>
        <time>2015-07-30T12:52:42Z</time>
      </trkpt>
      <trkpt lat="47.25148" lon="6.07926">
        <ele>317.3</ele>
        <time>2015-07-30T12:52:51Z</time>
      </trkpt>
      <trkpt lat="47.25139" lon="6.07922">
        <ele>319.3</ele>
        <time>2015-07-30T12:52:58Z</time>
      </trkpt>
      <trkpt lat="47.25132" lon="6.07921">
        <ele>321.6</ele>
        <time>2015-07-30T12:53:02Z</time>
      </trkpt>
      <trkpt lat="47.25117" lon="6.07925">
        <ele>327.7</ele>
        <time>2015-07-30T12:53:22Z</time>
      </trkpt>
      <trkpt lat="47.25099" lon="6.07933">
        <ele>335.4</ele>
        <time>2015-07-30T12:53:47Z</time>
      </trkpt>
      <trkpt lat="47.25089" lon="6.07931">
        <ele>338.3</ele>
        <time>2015-07-30T12:54:13Z</time>
      </trkpt>
      <trkpt lat="47.25082" lon="6.07948">
        <ele>343.8</ele>
        <time>2015-07-30T12:54:47Z</time>
      </trkpt>
      <trkpt lat="47.25071" lon="6.07974">
        <ele>354.5</ele>
        <time>2015-07-30T12:55:10Z</time>
      </trkpt>
      <trkpt lat="47.25067" lon="6.07978">
        <ele>357.5</ele>
        <time>2015-07-30T12:55:15Z</time>
      </trkpt>
      <trkpt lat="47.25058" lon="6.0798">
        <ele>363.2</ele>
        <time>2015-07-30T12:55:25Z</time>
      </trkpt>
      <trkpt lat="47.25047" lon="6.07995">
        <ele>371.4</ele>
        <time>2015-07-30T12:55:48Z</time>
      </trkpt>
      <trkpt lat="47.25042" lon="6.08003">
        <ele>375.5</ele>
        <time>2015-07-30T12:55:53Z</time>
      </trkpt>
      <trkpt lat="47.25036" lon="6.08021">
        <ele>382.6</ele>
        <time>2015-07-30T12:56:09Z</time>
      </trkpt>
      <trkpt lat="47.2503" lon="6.08038">
        <ele>388.9</ele>
        <time>2015-07-30T12:56:21Z</time>
      </trkpt>
      <trkpt lat="47.25026" lon="6.08044">
        <ele>391.7</ele>
        <time>2015-07-30T12:56:27Z</time>
      </trkpt>
      <trkpt lat="47.25023" lon="6.08056">
        <ele>394.9</ele>
        <time>2015-07-30T12:56:46Z</time>
      </trkpt>
      <trkpt lat="47.25019" lon="6.08064">
        <ele>397.6</ele>
        <time>2015-07-30T12:56:53Z</time>
      </trkpt>
      <trkpt lat="47.25021" lon="6.08081">
        <ele>399.6</ele>
        <time>2015-07-30T12:57:09Z</time>
      </trkpt>
      <trkpt lat="47.25016" lon="6.0809">
        <ele>403.3</ele>
        <time>2015-07-30T12:57:21Z</time>
      </trkpt>
      <trkpt lat="47.25012" lon="6.08096">
        <ele>406.1</ele>
        <time>2015-07-30T12:57:27Z</time>
      </trkpt>
      <trkpt lat="47.2501" lon="6.08115">
        <ele>411.8</ele>
        <time>2015-07-30T12:57:47Z</time>
      </trkpt>
      <trkpt lat="47.25006" lon="6.08124">
        <ele>414.8</ele>
        <time>2015-07-30T12:57:56Z</time>
      </trkpt>
      <trkpt lat="47.24997" lon="6.08135">
        <ele>418.8</ele>
        <time>2015-07-30T12:58:07Z</time>
      </trkpt>
      <trkpt lat="47.24989" lon="6.08145">
        <ele>421.7</ele>
        <time>2015-07-30T12:58:15Z</time>
      </trkpt>
      <trkpt lat="47.24983" lon="6.08137">
        <ele>420.8</ele>
        <time>2015-07-30T12:58:25Z</time>
      </trkpt>
      <trkpt lat="47.24973" lon="6.08128">
        <ele>420.8</ele>
        <time>2015-07-30T12:58:27Z</time>
      </trkpt>
      <trkpt lat="47.24982" lon="6.08145">
        <ele>422.2</ele>
        <time>2015-07-30T12:58:51Z</time>
      </trkpt>
      <trkpt lat="47.24983" lon="6.0816">
        <ele>424.7</ele>
        <time>2015-07-30T12:59:13Z</time>
      </trkpt>
      <trkpt lat="47.24986" lon="6.08173">
        <ele>427.4</ele>
        <time>2015-07-30T12:59:25Z</time>
      </trkpt>
      <trkpt lat="47.24984" lon="6.08196">
        <ele>432.8</ele>
        <time>2015-07-30T12:59:45Z</time>
      </trkpt>
      <trkpt lat="47.24958" lon="6.08201">
        <ele>431.4</ele>
        <time>2015-07-30T13:00:25Z</time>
      </trkpt>
      <trkpt lat="47.24962" lon="6.08212">
        <ele>433.8</ele>
        <time>2015-07-30T13:00:30Z</time>
      </trkpt>
      <trkpt lat="47.24915" lon="6.08195">
        <ele>427.3</ele>
        <time>2015-07-30T13:00:53Z</time>
      </trkpt>
      <trkpt lat="47.24902" lon="6.08198">
        <ele>429.7</ele>
        <time>2015-07-30T13:01:04Z</time>
      </trkpt>
      <trkpt lat="47.24888" lon="6.08209">
        <ele>432.9</ele>
        <time>2015-07-30T13:01:27Z</time>
      </trkpt>
      <trkpt lat="47.24883" lon="6.08211">
        <ele>433.8</ele>
        <time>2015-07-30T13:01:32Z</time>
      </trkpt>
      <trkpt lat="47.24877" lon="6.0821">
        <ele>434.8</ele>
        <time>2015-07-30T13:01:37Z</time>
      </trkpt>
      <trkpt lat="47.24872" lon="6.0821">
        <ele>435.6</ele>
        <time>2015-07-30T13:01:45Z</time>
      </trkpt>
      <trkpt lat="47.24859" lon="6.08214">
        <ele>438.1</ele>
        <time>2015-07-30T13:02:08Z</time>
      </trkpt>
      <trkpt lat="47.24853" lon="6.08212">
        <ele>439</ele>
        <time>2015-07-30T13:02:12Z</time>
      </trkpt>
      <trkpt lat="47.24849" lon="6.08208">
        <ele>439.3</ele>
        <time>2015-07-30T13:02:18Z</time>
      </trkpt>
      <trkpt lat="47.24843" lon="6.08209">
        <ele>440.4</ele>
        <time>2015-07-30T13:02:29Z</time>
      </trkpt>
      <trkpt lat="47.2484" lon="6.08213">
        <ele>441.2</ele>
        <time>2015-07-30T13:02:34Z</time>
      </trkpt>
      <trkpt lat="47.24836" lon="6.08217">
        <ele>442.2</ele>
        <time>2015-07-30T13:02:38Z</time>
      </trkpt>
      <trkpt lat="47.2483" lon="6.08222">
        <ele>443.8</ele>
        <time>2015-07-30T13:02:46Z</time>
      </trkpt>
      <trkpt lat="47.24825" lon="6.08222">
        <ele>444.9</ele>
        <time>2015-07-30T13:02:52Z</time>
      </trkpt>
      <trkpt lat="47.2482" lon="6.08221">
        <ele>446</ele>
        <time>2015-07-30T13:02:58Z</time>
      </trkpt>
      <trkpt lat="47.24815" lon="6.0822">
        <ele>447.1</ele>
        <time>2015-07-30T13:03:02Z</time>
      </trkpt>
      <trkpt lat="47.2481" lon="6.08216">
        <ele>447.9</ele>
        <time>2015-07-30T13:03:08Z</time>
      </trkpt>
      <trkpt lat="47.24805" lon="6.08213">
        <ele>448.7</ele>
        <time>2015-07-30T13:03:16Z</time>
      </trkpt>
      <trkpt lat="47.248" lon="6.08211">
        <ele>449.7</ele>
        <time>2015-07-30T13:03:22Z</time>
      </trkpt>
      <trkpt lat="47.24796" lon="6.08207">
        <ele>450.2</ele>
        <time>2015-07-30T13:03:28Z</time>
      </trkpt>
      <trkpt lat="47.24793" lon="6.08203">
        <ele>450.4</ele>
        <time>2015-07-30T13:03:32Z</time>
      </trkpt>
      <trkpt lat="47.24788" lon="6.08199">
        <ele>451.1</ele>
        <time>2015-07-30T13:03:38Z</time>
      </trkpt>
      <trkpt lat="47.24783" lon="6.08195">
        <ele>451.7</ele>
        <time>2015-07-30T13:03:44Z</time>
      </trkpt>
      <trkpt lat="47.2478" lon="6.0819">
        <ele>451.8</ele>
        <time>2015-07-30T13:03:48Z</time>
      </trkpt>
      <trkpt lat="47.24778" lon="6.08182">
        <ele>451.3</ele>
        <time>2015-07-30T13:03:52Z</time>
      </trkpt>
      <trkpt lat="47.24779" lon="6.08175">
        <ele>450.4</ele>
        <time>2015-07-30T13:03:58Z</time>
      </trkpt>
      <trkpt lat="47.24784" lon="6.08169">
        <ele>448.7</ele>
        <time>2015-07-30T13:04:06Z</time>
      </trkpt>
      <trkpt lat="47.24785" lon="6.0816">
        <ele>447.8</ele>
        <time>2015-07-30T13:04:12Z</time>
      </trkpt>
      <trkpt lat="47.24787" lon="6.08152">
        <ele>446.9</ele>
        <time>2015-07-30T13:04:18Z</time>
      </trkpt>
      <trkpt lat="47.24791" lon="6.08148">
        <ele>445.9</ele>
        <time>2015-07-30T13:04:22Z</time>
      </trkpt>
      <trkpt lat="47.24795" lon="6.08145">
        <ele>445</ele>
        <time>2015-07-30T13:04:26Z</time>
      </trkpt>
      <trkpt lat="47.24799" lon="6.08141">
        <ele>444</ele>
        <time>2015-07-30T13:04:31Z</time>
      </trkpt>
      <trkpt lat="47.24803" lon="6.08136">
        <ele>443</ele>
        <time>2015-07-30T13:04:36Z</time>
      </trkpt>
      <trkpt lat="47.24806" lon="6.08131">
        <ele>442.1</ele>
        <time>2015-07-30T13:04:43Z</time>
      </trkpt>
      <trkpt lat="47.24807" lon="6.08128">
        <ele>441.8</ele>
        <time>2015-07-30T13:04:47Z</time>
      </trkpt>
      <trkpt lat="47.24811" lon="6.08121">
        <ele>440.7</ele>
        <time>2015-07-30T13:04:53Z</time>
      </trkpt>
      <trkpt lat="47.24819" lon="6.08113">
        <ele>438.8</ele>
        <time>2015-07-30T13:05:04Z</time>
      </trkpt>
      <trkpt lat="47.24825" lon="6.08114">
        <ele>437.9</ele>
        <time>2015-07-30T13:05:11Z</time>
      </trkpt>
      <trkpt lat="47.2483" lon="6.08109">
        <ele>436.8</ele>
        <time>2015-07-30T13:05:17Z</time>
      </trkpt>
      <trkpt lat="47.24835" lon="6.08107">
        <ele>436</ele>
        <time>2015-07-30T13:05:25Z</time>
      </trkpt>
      <trkpt lat="47.24852" lon="6.08086">
        <ele>434.8</ele>
        <time>2015-07-30T13:05:53Z</time>
      </trkpt>
      <trkpt lat="47.24854" lon="6.08067">
        <ele>438</ele>
        <time>2015-07-30T13:06:25Z</time>
      </trkpt>
      <trkpt lat="47.24856" lon="6.08053">
        <ele>440.7</ele>
        <time>2015-07-30T13:06:41Z</time>
      </trkpt>
      <trkpt lat="47.24855" lon="6.08046">
        <ele>442.1</ele>
        <time>2015-07-30T13:06:53Z</time>
      </trkpt>
      <trkpt lat="47.24848" lon="6.0804">
        <ele>443.5</ele>
        <time>2015-07-30T13:07:12Z</time>
      </trkpt>
      <trkpt lat="47.24837" lon="6.08032">
        <ele>445.4</ele>
        <time>2015-07-30T13:07:25Z</time>
      </trkpt>
      <trkpt lat="47.24802" lon="6.08005">
        <ele>450.6</ele>
        <time>2015-07-30T13:07:53Z</time>
      </trkpt>
      <trkpt lat="47.24778" lon="6.07994">
        <ele>451.5</ele>
        <time>2015-07-30T13:08:13Z</time>
      </trkpt>
      <trkpt lat="47.24768" lon="6.07989">
        <ele>452</ele>
        <time>2015-07-30T13:08:21Z</time>
      </trkpt>
      <trkpt lat="47.24762" lon="6.07987">
        <ele>452.2</ele>
        <time>2015-07-30T13:08:24Z</time>
      </trkpt>
      <trkpt lat="47.24755" lon="6.07983">
        <ele>452.7</ele>
        <time>2015-07-30T13:08:28Z</time>
      </trkpt>
      <trkpt lat="47.24725" lon="6.07968">
        <ele>455.4</ele>
        <time>2015-07-30T13:08:53Z</time>
      </trkpt>
      <trkpt lat="47.24698" lon="6.07949">
        <ele>458.3</ele>
        <time>2015-07-30T13:09:27Z</time>
      </trkpt>
      <trkpt lat="47.24691" lon="6.07948">
        <ele>458.5</ele>
        <time>2015-07-30T13:09:33Z</time>
      </trkpt>
      <trkpt lat="47.2468" lon="6.07934">
        <ele>460.2</ele>
        <time>2015-07-30T13:09:53Z</time>
      </trkpt>
      <trkpt lat="47.24662" lon="6.0793">
        <ele>460.1</ele>
        <time>2015-07-30T13:10:26Z</time>
      </trkpt>
      <trkpt lat="47.24659" lon="6.07922">
        <ele>460.6</ele>
        <time>2015-07-30T13:10:46Z</time>
      </trkpt>
      <trkpt lat="47.24666" lon="6.07921">
        <ele>461.5</ele>
        <time>2015-07-30T13:11:09Z</time>
      </trkpt>
      <trkpt lat="47.24666" lon="6.07921">
        <ele>461.5</ele>
        <time>2015-07-30T13:11:09Z</time>
      </trkpt>
      <trkpt lat="47.24662" lon="6.07927">
        <ele>460.4</ele>
        <time>2015-07-30T13:11:24Z</time>
      </trkpt>
      <trkpt lat="47.24657" lon="6.07929">
        <ele>459.7</ele>
        <time>2015-07-30T13:11:30Z</time>
      </trkpt>
      <trkpt lat="47.24646" lon="6.07941">
        <ele>457.7</ele>
        <time>2015-07-30T13:13:10Z</time>
      </trkpt>
      <trkpt lat="47.24641" lon="6.07944">
        <ele>457.1</ele>
        <time>2015-07-30T13:13:16Z</time>
      </trkpt>
      <trkpt lat="47.24641" lon="6.07946">
        <ele>456.9</ele>
        <time>2015-07-30T13:13:30Z</time>
      </trkpt>
      <trkpt lat="47.24646" lon="6.07945">
        <ele>457.4</ele>
        <time>2015-07-30T13:13:34Z</time>
      </trkpt>
      <trkpt lat="47.24651" lon="6.07945">
        <ele>457.8</ele>
        <time>2015-07-30T13:13:40Z</time>
      </trkpt>
      <trkpt lat="47.2466" lon="6.07947">
        <ele>458.2</ele>
        <time>2015-07-30T13:13:46Z</time>
      </trkpt>
      <trkpt lat="47.24665" lon="6.07948">
        <ele>458.5</ele>
        <time>2015-07-30T13:13:52Z</time>
      </trkpt>
      <trkpt lat="47.24671" lon="6.07947">
        <ele>458.7</ele>
        <time>2015-07-30T13:13:58Z</time>
      </trkpt>
      <trkpt lat="47.24677" lon="6.07948">
        <ele>458.6</ele>
        <time>2015-07-30T13:14:01Z</time>
      </trkpt>
      <trkpt lat="47.24685" lon="6.07953">
        <ele>457.9</ele>
        <time>2015-07-30T13:14:06Z</time>
      </trkpt>
      <trkpt lat="47.24693" lon="6.07955">
        <ele>457.6</ele>
        <time>2015-07-30T13:14:10Z</time>
      </trkpt>
      <trkpt lat="47.24698" lon="6.07953">
        <ele>457.8</ele>
        <time>2015-07-30T13:14:14Z</time>
      </trkpt>
      <trkpt lat="47.24702" lon="6.07948">
        <ele>458.4</ele>
        <time>2015-07-30T13:14:18Z</time>
      </trkpt>
      <trkpt lat="47.24707" lon="6.07949">
        <ele>458.2</ele>
        <time>2015-07-30T13:14:24Z</time>
      </trkpt>
      <trkpt lat="47.24711" lon="6.07959">
        <ele>456.9</ele>
        <time>2015-07-30T13:14:28Z</time>
      </trkpt>
      <trkpt lat="47.24715" lon="6.07963">
        <ele>456.3</ele>
        <time>2015-07-30T13:14:32Z</time>
      </trkpt>
      <trkpt lat="47.24716" lon="6.07962">
        <ele>456.4</ele>
        <time>2015-07-30T13:14:46Z</time>
      </trkpt>
      <trkpt lat="47.24712" lon="6.07968">
        <ele>455.7</ele>
        <time>2015-07-30T13:14:56Z</time>
      </trkpt>
      <trkpt lat="47.24707" lon="6.07971">
        <ele>455.4</ele>
        <time>2015-07-30T13:15:04Z</time>
      </trkpt>
      <trkpt lat="47.247" lon="6.07971">
        <ele>455.5</ele>
        <time>2015-07-30T13:15:07Z</time>
      </trkpt>
      <trkpt lat="47.24695" lon="6.07972">
        <ele>455.5</ele>
        <time>2015-07-30T13:15:11Z</time>
      </trkpt>
      <trkpt lat="47.24691" lon="6.07969">
        <ele>455.9</ele>
        <time>2015-07-30T13:15:14Z</time>
      </trkpt>
      <trkpt lat="47.24686" lon="6.07968">
        <ele>456.1</ele>
        <time>2015-07-30T13:15:17Z</time>
      </trkpt>
      <trkpt lat="47.2468" lon="6.07969">
        <ele>456.1</ele>
        <time>2015-07-30T13:15:22Z</time>
      </trkpt>
      <trkpt lat="47.24675" lon="6.07969">
        <ele>456.2</ele>
        <time>2015-07-30T13:15:28Z</time>
      </trkpt>
      <trkpt lat="47.24671" lon="6.07971">
        <ele>456</ele>
        <time>2015-07-30T13:15:32Z</time>
      </trkpt>
      <trkpt lat="47.24665" lon="6.07972">
        <ele>456</ele>
        <time>2015-07-30T13:15:35Z</time>
      </trkpt>
      <trkpt lat="47.2466" lon="6.07971">
        <ele>455.9</ele>
        <time>2015-07-30T13:15:38Z</time>
      </trkpt>
      <trkpt lat="47.24654" lon="6.07972">
        <ele>455.6</ele>
        <time>2015-07-30T13:15:40Z</time>
      </trkpt>
      <trkpt lat="47.2465" lon="6.07971">
        <ele>455.6</ele>
        <time>2015-07-30T13:15:42Z</time>
      </trkpt>
      <trkpt lat="47.24645" lon="6.07973">
        <ele>455.2</ele>
        <time>2015-07-30T13:15:46Z</time>
      </trkpt>
      <trkpt lat="47.24639" lon="6.07971">
        <ele>455.2</ele>
        <time>2015-07-30T13:15:49Z</time>
      </trkpt>
      <trkpt lat="47.24634" lon="6.0797">
        <ele>455.1</ele>
        <time>2015-07-30T13:15:54Z</time>
      </trkpt>
      <trkpt lat="47.24629" lon="6.07971">
        <ele>454.9</ele>
        <time>2015-07-30T13:15:59Z</time>
      </trkpt>
      <trkpt lat="47.24627" lon="6.07965">
        <ele>455.1</ele>
        <time>2015-07-30T13:16:16Z</time>
      </trkpt>
      <trkpt lat="47.24625" lon="6.0796">
        <ele>455.2</ele>
        <time>2015-07-30T13:16:26Z</time>
      </trkpt>
      <trkpt lat="47.2462" lon="6.07961">
        <ele>454.9</ele>
        <time>2015-07-30T13:16:33Z</time>
      </trkpt>
      <trkpt lat="47.24619" lon="6.07962">
        <ele>454.8</ele>
        <time>2015-07-30T13:16:46Z</time>
      </trkpt>
      <trkpt lat="47.2462" lon="6.07975">
        <ele>454.4</ele>
        <time>2015-07-30T13:16:50Z</time>
      </trkpt>
      <trkpt lat="47.24624" lon="6.07981">
        <ele>454.3</ele>
        <time>2015-07-30T13:16:56Z</time>
      </trkpt>
      <trkpt lat="47.24625" lon="6.07988">
        <ele>454</ele>
        <time>2015-07-30T13:16:59Z</time>
      </trkpt>
      <trkpt lat="47.24621" lon="6.07993">
        <ele>453.8</ele>
        <time>2015-07-30T13:17:01Z</time>
      </trkpt>
      <trkpt lat="47.24625" lon="6.07996">
        <ele>453.7</ele>
        <time>2015-07-30T13:17:09Z</time>
      </trkpt>
      <trkpt lat="47.24616" lon="6.07994">
        <ele>453.8</ele>
        <time>2015-07-30T13:17:11Z</time>
      </trkpt>
      <trkpt lat="47.2462" lon="6.07998">
        <ele>453.6</ele>
        <time>2015-07-30T13:17:14Z</time>
      </trkpt>
      <trkpt lat="47.24622" lon="6.08006">
        <ele>454.1</ele>
        <time>2015-07-30T13:17:18Z</time>
      </trkpt>
      <trkpt lat="47.24624" lon="6.08014">
        <ele>454.8</ele>
        <time>2015-07-30T13:17:22Z</time>
      </trkpt>
      <trkpt lat="47.24624" lon="6.08023">
        <ele>455.6</ele>
        <time>2015-07-30T13:17:31Z</time>
      </trkpt>
      <trkpt lat="47.24624" lon="6.0803">
        <ele>456.2</ele>
        <time>2015-07-30T13:17:44Z</time>
      </trkpt>
      <trkpt lat="47.24625" lon="6.08039">
        <ele>457</ele>
        <time>2015-07-30T13:17:51Z</time>
      </trkpt>
      <trkpt lat="47.24627" lon="6.08045">
        <ele>457.5</ele>
        <time>2015-07-30T13:17:53Z</time>
      </trkpt>
      <trkpt lat="47.2463" lon="6.08054">
        <ele>458.1</ele>
        <time>2015-07-30T13:17:56Z</time>
      </trkpt>
      <trkpt lat="47.24632" lon="6.08065">
        <ele>458.9</ele>
        <time>2015-07-30T13:18:00Z</time>
      </trkpt>
      <trkpt lat="47.24635" lon="6.08073">
        <ele>459.4</ele>
        <time>2015-07-30T13:18:06Z</time>
      </trkpt>
      <trkpt lat="47.24637" lon="6.08081">
        <ele>459.9</ele>
        <time>2015-07-30T13:18:12Z</time>
      </trkpt>
      <trkpt lat="47.2464" lon="6.08089">
        <ele>460.7</ele>
        <time>2015-07-30T13:18:21Z</time>
      </trkpt>
      <trkpt lat="47.24643" lon="6.08097">
        <ele>461.5</ele>
        <time>2015-07-30T13:18:30Z</time>
      </trkpt>
      <trkpt lat="47.24649" lon="6.08102">
        <ele>461.7</ele>
        <time>2015-07-30T13:18:37Z</time>
      </trkpt>
      <trkpt lat="47.24651" lon="6.08103">
        <ele>461.6</ele>
        <time>2015-07-30T13:18:45Z</time>
      </trkpt>
      <trkpt lat="47.24654" lon="6.08105">
        <ele>461.6</ele>
        <time>2015-07-30T13:18:48Z</time>
      </trkpt>
      <trkpt lat="47.24656" lon="6.08112">
        <ele>462.3</ele>
        <time>2015-07-30T13:18:55Z</time>
      </trkpt>
      <trkpt lat="47.24656" lon="6.0812">
        <ele>463.3</ele>
        <time>2015-07-30T13:19:00Z</time>
      </trkpt>
      <trkpt lat="47.24654" lon="6.0813">
        <ele>464.8</ele>
        <time>2015-07-30T13:19:05Z</time>
      </trkpt>
      <trkpt lat="47.24653" lon="6.08138">
        <ele>465.9</ele>
        <time>2015-07-30T13:19:09Z</time>
      </trkpt>
      <trkpt lat="47.24657" lon="6.08143">
        <ele>466.1</ele>
        <time>2015-07-30T13:19:11Z</time>
      </trkpt>
      <trkpt lat="47.24661" lon="6.08148">
        <ele>466.3</ele>
        <time>2015-07-30T13:19:13Z</time>
      </trkpt>
      <trkpt lat="47.24666" lon="6.08153">
        <ele>466.4</ele>
        <time>2015-07-30T13:19:16Z</time>
      </trkpt>
      <trkpt lat="47.24666" lon="6.08162">
        <ele>467.5</ele>
        <time>2015-07-30T13:19:19Z</time>
      </trkpt>
      <trkpt lat="47.24664" lon="6.08172">
        <ele>469.3</ele>
        <time>2015-07-30T13:19:21Z</time>
      </trkpt>
      <trkpt lat="47.24667" lon="6.08179">
        <ele>470.2</ele>
        <time>2015-07-30T13:19:23Z</time>
      </trkpt>
      <trkpt lat="47.24669" lon="6.0819">
        <ele>471.8</ele>
        <time>2015-07-30T13:19:27Z</time>
      </trkpt>
      <trkpt lat="47.24677" lon="6.082">
        <ele>472.2</ele>
        <time>2015-07-30T13:19:30Z</time>
      </trkpt>
      <trkpt lat="47.2468" lon="6.0821">
        <ele>473.4</ele>
        <time>2015-07-30T13:19:34Z</time>
      </trkpt>
      <trkpt lat="47.24682" lon="6.08218">
        <ele>474.4</ele>
        <time>2015-07-30T13:19:37Z</time>
      </trkpt>
      <trkpt lat="47.24685" lon="6.08228">
        <ele>475.5</ele>
        <time>2015-07-30T13:19:41Z</time>
      </trkpt>
      <trkpt lat="47.24688" lon="6.08234">
        <ele>476</ele>
        <time>2015-07-30T13:19:44Z</time>
      </trkpt>
      <trkpt lat="47.2469" lon="6.08241">
        <ele>476.7</ele>
        <time>2015-07-30T13:19:48Z</time>
      </trkpt>
      <trkpt lat="47.24692" lon="6.0825">
        <ele>477.8</ele>
        <time>2015-07-30T13:19:54Z</time>
      </trkpt>
      <trkpt lat="47.24693" lon="6.08256">
        <ele>478.5</ele>
        <time>2015-07-30T13:20:00Z</time>
      </trkpt>
      <trkpt lat="47.24693" lon="6.08257">
        <ele>478.6</ele>
        <time>2015-07-30T13:20:02Z</time>
      </trkpt>
      <trkpt lat="47.24692" lon="6.08267">
        <ele>480.3</ele>
        <time>2015-07-30T13:20:10Z</time>
      </trkpt>
      <trkpt lat="47.24693" lon="6.08275">
        <ele>481.2</ele>
        <time>2015-07-30T13:20:14Z</time>
      </trkpt>
      <trkpt lat="47.24689" lon="6.08285">
        <ele>483.6</ele>
        <time>2015-07-30T13:20:19Z</time>
      </trkpt>
      <trkpt lat="47.24684" lon="6.08292">
        <ele>485.7</ele>
        <time>2015-07-30T13:20:22Z</time>
      </trkpt>
      <trkpt lat="47.24678" lon="6.08299">
        <ele>488.1</ele>
        <time>2015-07-30T13:20:26Z</time>
      </trkpt>
      <trkpt lat="47.24677" lon="6.08308">
        <ele>489.7</ele>
        <time>2015-07-30T13:20:31Z</time>
      </trkpt>
      <trkpt lat="47.24677" lon="6.08317">
        <ele>491</ele>
        <time>2015-07-30T13:20:36Z</time>
      </trkpt>
      <trkpt lat="47.24682" lon="6.08327">
        <ele>491.4</ele>
        <time>2015-07-30T13:20:40Z</time>
      </trkpt>
      <trkpt lat="47.24686" lon="6.08335">
        <ele>491.7</ele>
        <time>2015-07-30T13:20:44Z</time>
      </trkpt>
      <trkpt lat="47.24688" lon="6.08342">
        <ele>492.5</ele>
        <time>2015-07-30T13:20:48Z</time>
      </trkpt>
      <trkpt lat="47.24689" lon="6.08351">
        <ele>493.8</ele>
        <time>2015-07-30T13:20:53Z</time>
      </trkpt>
      <trkpt lat="47.24692" lon="6.08357">
        <ele>494.1</ele>
        <time>2015-07-30T13:20:56Z</time>
      </trkpt>
      <trkpt lat="47.24692" lon="6.08365">
        <ele>495.6</ele>
        <time>2015-07-30T13:21:00Z</time>
      </trkpt>
      <trkpt lat="47.24694" lon="6.08371">
        <ele>496.1</ele>
        <time>2015-07-30T13:21:04Z</time>
      </trkpt>
      <trkpt lat="47.24696" lon="6.08379">
        <ele>496.9</ele>
        <time>2015-07-30T13:21:10Z</time>
      </trkpt>
      <trkpt lat="47.24695" lon="6.08386">
        <ele>498.4</ele>
        <time>2015-07-30T13:21:14Z</time>
      </trkpt>
      <trkpt lat="47.24699" lon="6.08391">
        <ele>498.1</ele>
        <time>2015-07-30T13:21:20Z</time>
      </trkpt>
      <trkpt lat="47.24702" lon="6.08398">
        <ele>498.4</ele>
        <time>2015-07-30T13:21:28Z</time>
      </trkpt>
      <trkpt lat="47.24706" lon="6.08404">
        <ele>498.2</ele>
        <time>2015-07-30T13:21:31Z</time>
      </trkpt>
      <trkpt lat="47.24711" lon="6.0841">
        <ele>497.6</ele>
        <time>2015-07-30T13:21:34Z</time>
      </trkpt>
      <trkpt lat="47.24716" lon="6.08416">
        <ele>496.9</ele>
        <time>2015-07-30T13:21:36Z</time>
      </trkpt>
      <trkpt lat="47.24722" lon="6.08425">
        <ele>497.6</ele>
        <time>2015-07-30T13:21:40Z</time>
      </trkpt>
      <trkpt lat="47.24727" lon="6.08437">
        <ele>499.4</ele>
        <time>2015-07-30T13:21:44Z</time>
      </trkpt>
      <trkpt lat="47.2473" lon="6.08448">
        <ele>501.5</ele>
        <time>2015-07-30T13:21:50Z</time>
      </trkpt>
      <trkpt lat="47.24734" lon="6.0846">
        <ele>503.3</ele>
        <time>2015-07-30T13:21:54Z</time>
      </trkpt>
      <trkpt lat="47.24735" lon="6.08464">
        <ele>504</ele>
        <time>2015-07-30T13:22:01Z</time>
      </trkpt>
      <trkpt lat="47.24736" lon="6.08468">
        <ele>504.7</ele>
        <time>2015-07-30T13:22:12Z</time>
      </trkpt>
      <trkpt lat="47.24731" lon="6.08462">
        <ele>505.1</ele>
        <time>2015-07-30T13:22:24Z</time>
      </trkpt>
      <trkpt lat="47.24736" lon="6.08465">
        <ele>503.9</ele>
        <time>2015-07-30T13:22:29Z</time>
      </trkpt>
      <trkpt lat="47.24743" lon="6.08469">
        <ele>502.1</ele>
        <time>2015-07-30T13:22:33Z</time>
      </trkpt>
      <trkpt lat="47.24747" lon="6.08476">
        <ele>502.2</ele>
        <time>2015-07-30T13:22:37Z</time>
      </trkpt>
      <trkpt lat="47.24751" lon="6.08488">
        <ele>503.8</ele>
        <time>2015-07-30T13:22:44Z</time>
      </trkpt>
      <trkpt lat="47.24756" lon="6.08493">
        <ele>504</ele>
        <time>2015-07-30T13:22:48Z</time>
      </trkpt>
      <trkpt lat="47.24761" lon="6.08498">
        <ele>504.2</ele>
        <time>2015-07-30T13:22:53Z</time>
      </trkpt>
      <trkpt lat="47.24764" lon="6.08505">
        <ele>506.4</ele>
        <time>2015-07-30T13:22:58Z</time>
      </trkpt>
      <trkpt lat="47.24781" lon="6.0852">
        <ele>508.8</ele>
        <time>2015-07-30T13:23:07Z</time>
      </trkpt>
      <trkpt lat="47.24796" lon="6.08531">
        <ele>509.2</ele>
        <time>2015-07-30T13:23:19Z</time>
      </trkpt>
      <trkpt lat="47.24802" lon="6.0854">
        <ele>510.8</ele>
        <time>2015-07-30T13:23:26Z</time>
      </trkpt>
      <trkpt lat="47.24809" lon="6.08542">
        <ele>509.4</ele>
        <time>2015-07-30T13:23:30Z</time>
      </trkpt>
      <trkpt lat="47.24824" lon="6.08555">
        <ele>508.9</ele>
        <time>2015-07-30T13:23:40Z</time>
      </trkpt>
      <trkpt lat="47.24846" lon="6.08562">
        <ele>506</ele>
        <time>2015-07-30T13:23:53Z</time>
      </trkpt>
      <trkpt lat="47.24877" lon="6.08611">
        <ele>520.4</ele>
        <time>2015-07-30T13:24:26Z</time>
      </trkpt>
      <trkpt lat="47.24883" lon="6.08616">
        <ele>521.6</ele>
        <time>2015-07-30T13:24:29Z</time>
      </trkpt>
      <trkpt lat="47.24888" lon="6.0862">
        <ele>522.5</ele>
        <time>2015-07-30T13:24:33Z</time>
      </trkpt>
      <trkpt lat="47.24917" lon="6.08636">
        <ele>523.7</ele>
        <time>2015-07-30T13:24:53Z</time>
      </trkpt>
      <trkpt lat="47.24928" lon="6.08639">
        <ele>524.5</ele>
        <time>2015-07-30T13:25:00Z</time>
      </trkpt>
      <trkpt lat="47.2497" lon="6.08639">
        <ele>522.7</ele>
        <time>2015-07-30T13:25:26Z</time>
      </trkpt>
      <trkpt lat="47.25001" lon="6.08635">
        <ele>519.9</ele>
        <time>2015-07-30T13:25:47Z</time>
      </trkpt>
      <trkpt lat="47.25011" lon="6.08632">
        <ele>519.4</ele>
        <time>2015-07-30T13:25:53Z</time>
      </trkpt>
      <trkpt lat="47.25038" lon="6.08635">
        <ele>522.1</ele>
        <time>2015-07-30T13:26:26Z</time>
      </trkpt>
      <trkpt lat="47.25042" lon="6.08654">
        <ele>528.8</ele>
        <time>2015-07-30T13:26:53Z</time>
      </trkpt>
      <trkpt lat="47.25057" lon="6.08677">
        <ele>536.7</ele>
        <time>2015-07-30T13:27:22Z</time>
      </trkpt>
      <trkpt lat="47.25062" lon="6.0868">
        <ele>537.7</ele>
        <time>2015-07-30T13:27:35Z</time>
      </trkpt>
      <trkpt lat="47.25073" lon="6.08677">
        <ele>536.9</ele>
        <time>2015-07-30T13:27:55Z</time>
      </trkpt>
      <trkpt lat="47.25084" lon="6.08691">
        <ele>541</ele>
        <time>2015-07-30T13:28:22Z</time>
      </trkpt>
      <trkpt lat="47.25087" lon="6.08696">
        <ele>542.3</ele>
        <time>2015-07-30T13:28:28Z</time>
      </trkpt>
      <trkpt lat="47.2509" lon="6.08722">
        <ele>549.2</ele>
        <time>2015-07-30T13:28:52Z</time>
      </trkpt>
      <trkpt lat="47.24991" lon="6.08708">
        <ele>549.9</ele>
        <time>2015-07-30T13:30:26Z</time>
      </trkpt>
      <trkpt lat="47.24962" lon="6.08718">
        <ele>557.8</ele>
        <time>2015-07-30T13:30:53Z</time>
      </trkpt>
      <trkpt lat="47.24932" lon="6.08725">
        <ele>565</ele>
        <time>2015-07-30T13:31:22Z</time>
      </trkpt>
      <trkpt lat="47.24928" lon="6.08728">
        <ele>567.1</ele>
        <time>2015-07-30T13:31:28Z</time>
      </trkpt>
      <trkpt lat="47.24919" lon="6.08735">
        <ele>571.9</ele>
        <time>2015-07-30T13:31:38Z</time>
      </trkpt>
      <trkpt lat="47.24914" lon="6.08737">
        <ele>573.7</ele>
        <time>2015-07-30T13:31:53Z</time>
      </trkpt>
      <trkpt lat="47.24873" lon="6.08725">
        <ele>574.8</ele>
        <time>2015-07-30T13:32:26Z</time>
      </trkpt>
      <trkpt lat="47.24854" lon="6.0873">
        <ele>580.3</ele>
        <time>2015-07-30T13:32:53Z</time>
      </trkpt>
      <trkpt lat="47.24827" lon="6.08759">
        <ele>593.3</ele>
        <time>2015-07-30T13:33:28Z</time>
      </trkpt>
      <trkpt lat="47.24829" lon="6.08756">
        <ele>592.9</ele>
        <time>2015-07-30T13:33:26Z</time>
      </trkpt>
      <trkpt lat="47.24801" lon="6.08786">
        <ele>597.6</ele>
        <time>2015-07-30T13:33:51Z</time>
      </trkpt>
      <trkpt lat="47.24786" lon="6.08829">
        <ele>601.2</ele>
        <time>2015-07-30T13:34:17Z</time>
      </trkpt>
      <trkpt lat="47.24782" lon="6.08837">
        <ele>601.8</ele>
        <time>2015-07-30T13:34:20Z</time>
      </trkpt>
      <trkpt lat="47.24777" lon="6.08848">
        <ele>602.3</ele>
        <time>2015-07-30T13:34:27Z</time>
      </trkpt>
      <trkpt lat="47.2477" lon="6.08857">
        <ele>603</ele>
        <time>2015-07-30T13:34:34Z</time>
      </trkpt>
      <trkpt lat="47.24754" lon="6.08869">
        <ele>604.2</ele>
        <time>2015-07-30T13:34:52Z</time>
      </trkpt>
      <trkpt lat="47.24713" lon="6.08879">
        <ele>605.2</ele>
        <time>2015-07-30T13:35:15Z</time>
      </trkpt>
      <trkpt lat="47.24695" lon="6.08883">
        <ele>605.5</ele>
        <time>2015-07-30T13:35:27Z</time>
      </trkpt>
      <trkpt lat="47.24665" lon="6.08898">
        <ele>605.9</ele>
        <time>2015-07-30T13:35:53Z</time>
      </trkpt>
      <trkpt lat="47.24606" lon="6.0893">
        <ele>598.3</ele>
        <time>2015-07-30T13:36:27Z</time>
      </trkpt>
      <trkpt lat="47.24595" lon="6.08921">
        <ele>597.9</ele>
        <time>2015-07-30T13:36:39Z</time>
      </trkpt>
      <trkpt lat="47.2459" lon="6.08914">
        <ele>597.9</ele>
        <time>2015-07-30T13:36:42Z</time>
      </trkpt>
      <trkpt lat="47.24587" lon="6.08905">
        <ele>598.3</ele>
        <time>2015-07-30T13:36:46Z</time>
      </trkpt>
      <trkpt lat="47.24583" lon="6.08898">
        <ele>598.5</ele>
        <time>2015-07-30T13:36:50Z</time>
      </trkpt>
      <trkpt lat="47.24577" lon="6.08891">
        <ele>598.2</ele>
        <time>2015-07-30T13:36:55Z</time>
      </trkpt>
      <trkpt lat="47.24571" lon="6.08886">
        <ele>597.7</ele>
        <time>2015-07-30T13:37:00Z</time>
      </trkpt>
      <trkpt lat="47.24567" lon="6.08881">
        <ele>597.5</ele>
        <time>2015-07-30T13:37:04Z</time>
      </trkpt>
      <trkpt lat="47.24564" lon="6.08873">
        <ele>597.8</ele>
        <time>2015-07-30T13:37:10Z</time>
      </trkpt>
      <trkpt lat="47.2456" lon="6.08868">
        <ele>597.7</ele>
        <time>2015-07-30T13:37:14Z</time>
      </trkpt>
      <trkpt lat="47.24554" lon="6.08863">
        <ele>597.3</ele>
        <time>2015-07-30T13:37:18Z</time>
      </trkpt>
      <trkpt lat="47.24549" lon="6.08858">
        <ele>597</ele>
        <time>2015-07-30T13:37:21Z</time>
      </trkpt>
      <trkpt lat="47.24545" lon="6.08853">
        <ele>597</ele>
        <time>2015-07-30T13:37:24Z</time>
      </trkpt>
      <trkpt lat="47.2454" lon="6.08849">
        <ele>596.7</ele>
        <time>2015-07-30T13:37:28Z</time>
      </trkpt>
      <trkpt lat="47.24536" lon="6.08844">
        <ele>596.6</ele>
        <time>2015-07-30T13:37:31Z</time>
      </trkpt>
      <trkpt lat="47.24525" lon="6.08835">
        <ele>596.1</ele>
        <time>2015-07-30T13:37:38Z</time>
      </trkpt>
      <trkpt lat="47.24519" lon="6.08827">
        <ele>595.9</ele>
        <time>2015-07-30T13:37:42Z</time>
      </trkpt>
      <trkpt lat="47.24507" lon="6.08817">
        <ele>595.2</ele>
        <time>2015-07-30T13:37:53Z</time>
      </trkpt>
      <trkpt lat="47.24498" lon="6.08811">
        <ele>594.5</ele>
        <time>2015-07-30T13:38:00Z</time>
      </trkpt>
      <trkpt lat="47.24482" lon="6.08785">
        <ele>594.2</ele>
        <time>2015-07-30T13:38:19Z</time>
      </trkpt>
      <trkpt lat="47.24482" lon="6.08762">
        <ele>596.3</ele>
        <time>2015-07-30T13:38:26Z</time>
      </trkpt>
      <trkpt lat="47.24483" lon="6.08752">
        <ele>597.4</ele>
        <time>2015-07-30T13:38:29Z</time>
      </trkpt>
      <trkpt lat="47.24496" lon="6.08714">
        <ele>600.8</ele>
        <time>2015-07-30T13:38:49Z</time>
      </trkpt>
      <trkpt lat="47.245" lon="6.08707">
        <ele>601.5</ele>
        <time>2015-07-30T13:38:53Z</time>
      </trkpt>
      <trkpt lat="47.24509" lon="6.08674">
        <ele>603</ele>
        <time>2015-07-30T13:39:10Z</time>
      </trkpt>
      <trkpt lat="47.24501" lon="6.08666">
        <ele>603</ele>
        <time>2015-07-30T13:39:13Z</time>
      </trkpt>
      <trkpt lat="47.24499" lon="6.0865">
        <ele>602.9</ele>
        <time>2015-07-30T13:39:20Z</time>
      </trkpt>
      <trkpt lat="47.24503" lon="6.08636">
        <ele>603</ele>
        <time>2015-07-30T13:39:27Z</time>
      </trkpt>
      <trkpt lat="47.24505" lon="6.08629">
        <ele>603</ele>
        <time>2015-07-30T13:39:32Z</time>
      </trkpt>
      <trkpt lat="47.24525" lon="6.08587">
        <ele>601.9</ele>
        <time>2015-07-30T13:39:52Z</time>
      </trkpt>
      <trkpt lat="47.2451" lon="6.08561">
        <ele>600.7</ele>
        <time>2015-07-30T13:40:14Z</time>
      </trkpt>
      <trkpt lat="47.24495" lon="6.08544">
        <ele>600.6</ele>
        <time>2015-07-30T13:40:27Z</time>
      </trkpt>
      <trkpt lat="47.24457" lon="6.08518">
        <ele>600</ele>
        <time>2015-07-30T13:40:46Z</time>
      </trkpt>
      <trkpt lat="47.24455" lon="6.08506">
        <ele>599.7</ele>
        <time>2015-07-30T13:40:51Z</time>
      </trkpt>
      <trkpt lat="47.24422" lon="6.08476">
        <ele>598.5</ele>
        <time>2015-07-30T13:41:06Z</time>
      </trkpt>
      <trkpt lat="47.24412" lon="6.08466">
        <ele>598.3</ele>
        <time>2015-07-30T13:41:13Z</time>
      </trkpt>
      <trkpt lat="47.24392" lon="6.08443">
        <ele>597.8</ele>
        <time>2015-07-30T13:41:27Z</time>
      </trkpt>
      <trkpt lat="47.24389" lon="6.0844">
        <ele>597.9</ele>
        <time>2015-07-30T13:41:29Z</time>
      </trkpt>
      <trkpt lat="47.24361" lon="6.08406">
        <ele>597.6</ele>
        <time>2015-07-30T13:41:49Z</time>
      </trkpt>
      <trkpt lat="47.24331" lon="6.08375">
        <ele>597.7</ele>
        <time>2015-07-30T13:42:13Z</time>
      </trkpt>
      <trkpt lat="47.24307" lon="6.08359">
        <ele>598.7</ele>
        <time>2015-07-30T13:42:27Z</time>
      </trkpt>
      <trkpt lat="47.24304" lon="6.08355">
        <ele>598.8</ele>
        <time>2015-07-30T13:42:29Z</time>
      </trkpt>
      <trkpt lat="47.24258" lon="6.08325">
        <ele>602.9</ele>
        <time>2015-07-30T13:42:49Z</time>
      </trkpt>
      <trkpt lat="47.24222" lon="6.0828">
        <ele>590.2</ele>
        <time>2015-07-30T13:43:09Z</time>
      </trkpt>
      <trkpt lat="47.24217" lon="6.08272">
        <ele>588.6</ele>
        <time>2015-07-30T13:43:13Z</time>
      </trkpt>
      <trkpt lat="47.24207" lon="6.08264">
        <ele>587.3</ele>
        <time>2015-07-30T13:43:16Z</time>
      </trkpt>
      <trkpt lat="47.24183" lon="6.08242">
        <ele>584.6</ele>
        <time>2015-07-30T13:43:29Z</time>
      </trkpt>
      <trkpt lat="47.24141" lon="6.08206">
        <ele>579.2</ele>
        <time>2015-07-30T13:43:49Z</time>
      </trkpt>
      <trkpt lat="47.24137" lon="6.08202">
        <ele>578.7</ele>
        <time>2015-07-30T13:43:51Z</time>
      </trkpt>
      <trkpt lat="47.24129" lon="6.08197">
        <ele>578.3</ele>
        <time>2015-07-30T13:43:54Z</time>
      </trkpt>
      <trkpt lat="47.24115" lon="6.08182">
        <ele>577.3</ele>
        <time>2015-07-30T13:44:00Z</time>
      </trkpt>
      <trkpt lat="47.24094" lon="6.08151">
        <ele>574.4</ele>
        <time>2015-07-30T13:44:11Z</time>
      </trkpt>
      <trkpt lat="47.24087" lon="6.08135">
        <ele>572.2</ele>
        <time>2015-07-30T13:44:19Z</time>
      </trkpt>
      <trkpt lat="47.24067" lon="6.08113">
        <ele>568.4</ele>
        <time>2015-07-30T13:44:29Z</time>
      </trkpt>
      <trkpt lat="47.24063" lon="6.08109">
        <ele>567.7</ele>
        <time>2015-07-30T13:44:31Z</time>
      </trkpt>
      <trkpt lat="47.24022" lon="6.08061">
        <ele>560.3</ele>
        <time>2015-07-30T13:44:53Z</time>
      </trkpt>
      <trkpt lat="47.24017" lon="6.08055">
        <ele>559.5</ele>
        <time>2015-07-30T13:44:56Z</time>
      </trkpt>
      <trkpt lat="47.24003" lon="6.08042">
        <ele>558.7</ele>
        <time>2015-07-30T13:45:02Z</time>
      </trkpt>
      <trkpt lat="47.23954" lon="6.07991">
        <ele>548.5</ele>
        <time>2015-07-30T13:45:23Z</time>
      </trkpt>
      <trkpt lat="47.23951" lon="6.07986">
        <ele>547.5</ele>
        <time>2015-07-30T13:45:25Z</time>
      </trkpt>
      <trkpt lat="47.23946" lon="6.0798">
        <ele>546.3</ele>
        <time>2015-07-30T13:45:29Z</time>
      </trkpt>
      <trkpt lat="47.2391" lon="6.07955">
        <ele>542.5</ele>
        <time>2015-07-30T13:45:42Z</time>
      </trkpt>
      <trkpt lat="47.23903" lon="6.07949">
        <ele>541.1</ele>
        <time>2015-07-30T13:45:44Z</time>
      </trkpt>
      <trkpt lat="47.23884" lon="6.07932">
        <ele>537.2</ele>
        <time>2015-07-30T13:45:52Z</time>
      </trkpt>
      <trkpt lat="47.23848" lon="6.07891">
        <ele>527.8</ele>
        <time>2015-07-30T13:46:17Z</time>
      </trkpt>
      <trkpt lat="47.23847" lon="6.07883">
        <ele>526.4</ele>
        <time>2015-07-30T13:46:21Z</time>
      </trkpt>
      <trkpt lat="47.23842" lon="6.07877">
        <ele>525.2</ele>
        <time>2015-07-30T13:46:28Z</time>
      </trkpt>
      <trkpt lat="47.23835" lon="6.07875">
        <ele>524.6</ele>
        <time>2015-07-30T13:46:32Z</time>
      </trkpt>
      <trkpt lat="47.23828" lon="6.07872">
        <ele>523.4</ele>
        <time>2015-07-30T13:46:38Z</time>
      </trkpt>
      <trkpt lat="47.23822" lon="6.07871">
        <ele>522.6</ele>
        <time>2015-07-30T13:46:43Z</time>
      </trkpt>
      <trkpt lat="47.23814" lon="6.07871">
        <ele>521.7</ele>
        <time>2015-07-30T13:46:48Z</time>
      </trkpt>
      <trkpt lat="47.23809" lon="6.07871">
        <ele>521.1</ele>
        <time>2015-07-30T13:46:52Z</time>
      </trkpt>
      <trkpt lat="47.23801" lon="6.07869">
        <ele>520</ele>
        <time>2015-07-30T13:46:56Z</time>
      </trkpt>
      <trkpt lat="47.23785" lon="6.07868">
        <ele>518</ele>
        <time>2015-07-30T13:47:00Z</time>
      </trkpt>
      <trkpt lat="47.23776" lon="6.07871">
        <ele>517.4</ele>
        <time>2015-07-30T13:47:04Z</time>
      </trkpt>
      <trkpt lat="47.23766" lon="6.07874">
        <ele>516.7</ele>
        <time>2015-07-30T13:47:08Z</time>
      </trkpt>
      <trkpt lat="47.2376" lon="6.07874">
        <ele>516</ele>
        <time>2015-07-30T13:47:10Z</time>
      </trkpt>
      <trkpt lat="47.23756" lon="6.07876">
        <ele>515.8</ele>
        <time>2015-07-30T13:47:12Z</time>
      </trkpt>
      <trkpt lat="47.23748" lon="6.07881">
        <ele>515.6</ele>
        <time>2015-07-30T13:47:17Z</time>
      </trkpt>
      <trkpt lat="47.23739" lon="6.07884">
        <ele>515.3</ele>
        <time>2015-07-30T13:47:25Z</time>
      </trkpt>
      <trkpt lat="47.23726" lon="6.07896">
        <ele>515.8</ele>
        <time>2015-07-30T13:47:43Z</time>
      </trkpt>
      <trkpt lat="47.2372" lon="6.07897">
        <ele>515.5</ele>
        <time>2015-07-30T13:47:47Z</time>
      </trkpt>
      <trkpt lat="47.23714" lon="6.07897">
        <ele>515</ele>
        <time>2015-07-30T13:47:53Z</time>
      </trkpt>
      <trkpt lat="47.23692" lon="6.07856">
        <ele>508.5</ele>
        <time>2015-07-30T13:48:27Z</time>
      </trkpt>
      <trkpt lat="47.23696" lon="6.07846">
        <ele>507.6</ele>
        <time>2015-07-30T13:48:31Z</time>
      </trkpt>
      <trkpt lat="47.23701" lon="6.07837">
        <ele>506.9</ele>
        <time>2015-07-30T13:48:35Z</time>
      </trkpt>
      <trkpt lat="47.23706" lon="6.07834">
        <ele>506.9</ele>
        <time>2015-07-30T13:48:39Z</time>
      </trkpt>
      <trkpt lat="47.2371" lon="6.0783">
        <ele>506.7</ele>
        <time>2015-07-30T13:48:43Z</time>
      </trkpt>
      <trkpt lat="47.23714" lon="6.07822">
        <ele>506</ele>
        <time>2015-07-30T13:48:47Z</time>
      </trkpt>
      <trkpt lat="47.23717" lon="6.07816">
        <ele>505.5</ele>
        <time>2015-07-30T13:48:50Z</time>
      </trkpt>
      <trkpt lat="47.23721" lon="6.07807">
        <ele>504.7</ele>
        <time>2015-07-30T13:48:54Z</time>
      </trkpt>
      <trkpt lat="47.23725" lon="6.078">
        <ele>504.2</ele>
        <time>2015-07-30T13:48:58Z</time>
      </trkpt>
      <trkpt lat="47.23728" lon="6.07795">
        <ele>503.9</ele>
        <time>2015-07-30T13:49:02Z</time>
      </trkpt>
      <trkpt lat="47.23739" lon="6.07787">
        <ele>504</ele>
        <time>2015-07-30T13:49:06Z</time>
      </trkpt>
      <trkpt lat="47.23744" lon="6.07782">
        <ele>503.9</ele>
        <time>2015-07-30T13:49:10Z</time>
      </trkpt>
      <trkpt lat="47.2375" lon="6.07777">
        <ele>503.9</ele>
        <time>2015-07-30T13:49:14Z</time>
      </trkpt>
      <trkpt lat="47.23755" lon="6.07772">
        <ele>503.7</ele>
        <time>2015-07-30T13:49:18Z</time>
      </trkpt>
      <trkpt lat="47.23759" lon="6.07769">
        <ele>503.7</ele>
        <time>2015-07-30T13:49:22Z</time>
      </trkpt>
      <trkpt lat="47.23763" lon="6.07764">
        <ele>503.4</ele>
        <time>2015-07-30T13:49:26Z</time>
      </trkpt>
      <trkpt lat="47.23769" lon="6.0776">
        <ele>503.3</ele>
        <time>2015-07-30T13:49:30Z</time>
      </trkpt>
      <trkpt lat="47.23772" lon="6.07757">
        <ele>503.1</ele>
        <time>2015-07-30T13:49:44Z</time>
      </trkpt>
      <trkpt lat="47.23778" lon="6.07743">
        <ele>501.9</ele>
        <time>2015-07-30T13:49:46Z</time>
      </trkpt>
      <trkpt lat="47.23779" lon="6.07733">
        <ele>500.8</ele>
        <time>2015-07-30T13:49:52Z</time>
      </trkpt>
      <trkpt lat="47.23781" lon="6.07725">
        <ele>500.1</ele>
        <time>2015-07-30T13:49:56Z</time>
      </trkpt>
      <trkpt lat="47.23781" lon="6.07715">
        <ele>499</ele>
        <time>2015-07-30T13:50:02Z</time>
      </trkpt>
      <trkpt lat="47.23782" lon="6.07706">
        <ele>498</ele>
        <time>2015-07-30T13:50:06Z</time>
      </trkpt>
      <trkpt lat="47.23782" lon="6.07699">
        <ele>497.3</ele>
        <time>2015-07-30T13:50:10Z</time>
      </trkpt>
      <trkpt lat="47.23784" lon="6.0769">
        <ele>496.4</ele>
        <time>2015-07-30T13:50:12Z</time>
      </trkpt>
      <trkpt lat="47.23784" lon="6.07682">
        <ele>495.5</ele>
        <time>2015-07-30T13:50:14Z</time>
      </trkpt>
      <trkpt lat="47.23788" lon="6.07674">
        <ele>495</ele>
        <time>2015-07-30T13:50:18Z</time>
      </trkpt>
      <trkpt lat="47.23792" lon="6.07665">
        <ele>494.4</ele>
        <time>2015-07-30T13:50:22Z</time>
      </trkpt>
      <trkpt lat="47.23793" lon="6.07663">
        <ele>494.4</ele>
        <time>2015-07-30T13:50:30Z</time>
      </trkpt>
      <trkpt lat="47.23793" lon="6.07658">
        <ele>494.2</ele>
        <time>2015-07-30T13:50:38Z</time>
      </trkpt>
      <trkpt lat="47.23789" lon="6.07654">
        <ele>493.7</ele>
        <time>2015-07-30T13:50:56Z</time>
      </trkpt>
      <trkpt lat="47.23794" lon="6.07652">
        <ele>494</ele>
        <time>2015-07-30T13:51:02Z</time>
      </trkpt>
      <trkpt lat="47.23798" lon="6.07648">
        <ele>494.1</ele>
        <time>2015-07-30T13:51:06Z</time>
      </trkpt>
      <trkpt lat="47.23804" lon="6.07635">
        <ele>494</ele>
        <time>2015-07-30T13:51:13Z</time>
      </trkpt>
      <trkpt lat="47.23808" lon="6.07628">
        <ele>494</ele>
        <time>2015-07-30T13:51:16Z</time>
      </trkpt>
      <trkpt lat="47.23811" lon="6.076">
        <ele>492.9</ele>
        <time>2015-07-30T13:51:27Z</time>
      </trkpt>
      <trkpt lat="47.23814" lon="6.07592">
        <ele>492.8</ele>
        <time>2015-07-30T13:51:30Z</time>
      </trkpt>
      <trkpt lat="47.23817" lon="6.07585">
        <ele>492.7</ele>
        <time>2015-07-30T13:51:34Z</time>
      </trkpt>
      <trkpt lat="47.23833" lon="6.07566">
        <ele>492.7</ele>
        <time>2015-07-30T13:51:52Z</time>
      </trkpt>
      <trkpt lat="47.2384" lon="6.07512">
        <ele>489.5</ele>
        <time>2015-07-30T13:52:27Z</time>
      </trkpt>
      <trkpt lat="47.2384" lon="6.07505">
        <ele>489</ele>
        <time>2015-07-30T13:52:34Z</time>
      </trkpt>
      <trkpt lat="47.2384" lon="6.07491">
        <ele>488</ele>
        <time>2015-07-30T13:52:45Z</time>
      </trkpt>
      <trkpt lat="47.23839" lon="6.07489">
        <ele>487.8</ele>
        <time>2015-07-30T13:53:05Z</time>
      </trkpt>
      <trkpt lat="47.23839" lon="6.07489">
        <ele>487.8</ele>
        <time>2015-07-30T13:53:20Z</time>
      </trkpt>
      <trkpt lat="47.23835" lon="6.07491">
        <ele>487.5</ele>
        <time>2015-07-30T13:53:34Z</time>
      </trkpt>
      <trkpt lat="47.23831" lon="6.07485">
        <ele>486.7</ele>
        <time>2015-07-30T13:53:38Z</time>
      </trkpt>
      <trkpt lat="47.2383" lon="6.07477">
        <ele>486</ele>
        <time>2015-07-30T13:53:44Z</time>
      </trkpt>
      <trkpt lat="47.23834" lon="6.07468">
        <ele>485.8</ele>
        <time>2015-07-30T13:53:49Z</time>
      </trkpt>
      <trkpt lat="47.23836" lon="6.07461">
        <ele>485.5</ele>
        <time>2015-07-30T13:53:54Z</time>
      </trkpt>
      <trkpt lat="47.23839" lon="6.07455">
        <ele>485.3</ele>
        <time>2015-07-30T13:53:58Z</time>
      </trkpt>
      <trkpt lat="47.2384" lon="6.07447">
        <ele>484.9</ele>
        <time>2015-07-30T13:54:02Z</time>
      </trkpt>
      <trkpt lat="47.23844" lon="6.0744">
        <ele>484.8</ele>
        <time>2015-07-30T13:54:06Z</time>
      </trkpt>
      <trkpt lat="47.23848" lon="6.07433">
        <ele>484.7</ele>
        <time>2015-07-30T13:54:10Z</time>
      </trkpt>
      <trkpt lat="47.23852" lon="6.07429">
        <ele>484.9</ele>
        <time>2015-07-30T13:54:13Z</time>
      </trkpt>
      <trkpt lat="47.23851" lon="6.07421">
        <ele>484.2</ele>
        <time>2015-07-30T13:54:22Z</time>
      </trkpt>
      <trkpt lat="47.23847" lon="6.07418">
        <ele>483.6</ele>
        <time>2015-07-30T13:54:35Z</time>
      </trkpt>
      <trkpt lat="47.23847" lon="6.07415">
        <ele>483.3</ele>
        <time>2015-07-30T13:54:37Z</time>
      </trkpt>
      <trkpt lat="47.23848" lon="6.07408">
        <ele>482.6</ele>
        <time>2015-07-30T13:54:41Z</time>
      </trkpt>
      <trkpt lat="47.23849" lon="6.07402">
        <ele>482</ele>
        <time>2015-07-30T13:54:44Z</time>
      </trkpt>
      <trkpt lat="47.23854" lon="6.07397">
        <ele>482</ele>
        <time>2015-07-30T13:54:48Z</time>
      </trkpt>
      <trkpt lat="47.23858" lon="6.07392">
        <ele>481.8</ele>
        <time>2015-07-30T13:54:52Z</time>
      </trkpt>
      <trkpt lat="47.23861" lon="6.07386">
        <ele>481.4</ele>
        <time>2015-07-30T13:54:55Z</time>
      </trkpt>
      <trkpt lat="47.23861" lon="6.07379">
        <ele>480.6</ele>
        <time>2015-07-30T13:54:58Z</time>
      </trkpt>
      <trkpt lat="47.23863" lon="6.07371">
        <ele>479.9</ele>
        <time>2015-07-30T13:55:01Z</time>
      </trkpt>
      <trkpt lat="47.23863" lon="6.07364">
        <ele>479.1</ele>
        <time>2015-07-30T13:55:04Z</time>
      </trkpt>
      <trkpt lat="47.23865" lon="6.07358">
        <ele>478.5</ele>
        <time>2015-07-30T13:55:07Z</time>
      </trkpt>
      <trkpt lat="47.23864" lon="6.07351">
        <ele>477.6</ele>
        <time>2015-07-30T13:55:10Z</time>
      </trkpt>
      <trkpt lat="47.23866" lon="6.07343">
        <ele>476.9</ele>
        <time>2015-07-30T13:55:13Z</time>
      </trkpt>
      <trkpt lat="47.23867" lon="6.07334">
        <ele>475.9</ele>
        <time>2015-07-30T13:55:18Z</time>
      </trkpt>
      <trkpt lat="47.2387" lon="6.07325">
        <ele>474.8</ele>
        <time>2015-07-30T13:55:22Z</time>
      </trkpt>
      <trkpt lat="47.23873" lon="6.0732">
        <ele>474.3</ele>
        <time>2015-07-30T13:55:26Z</time>
      </trkpt>
      <trkpt lat="47.23879" lon="6.07318">
        <ele>474.5</ele>
        <time>2015-07-30T13:55:30Z</time>
      </trkpt>
      <trkpt lat="47.23884" lon="6.07319">
        <ele>475.1</ele>
        <time>2015-07-30T13:55:34Z</time>
      </trkpt>
      <trkpt lat="47.23891" lon="6.07321">
        <ele>476</ele>
        <time>2015-07-30T13:55:40Z</time>
      </trkpt>
      <trkpt lat="47.23896" lon="6.07322">
        <ele>476.6</ele>
        <time>2015-07-30T13:55:48Z</time>
      </trkpt>
      <trkpt lat="47.23901" lon="6.07324">
        <ele>477.3</ele>
        <time>2015-07-30T13:55:54Z</time>
      </trkpt>
      <trkpt lat="47.23905" lon="6.07323">
        <ele>477.5</ele>
        <time>2015-07-30T13:56:06Z</time>
      </trkpt>
      <trkpt lat="47.23906" lon="6.07323">
        <ele>477.6</ele>
        <time>2015-07-30T13:56:08Z</time>
      </trkpt>
      <trkpt lat="47.23909" lon="6.07316">
        <ele>476.8</ele>
        <time>2015-07-30T13:56:16Z</time>
      </trkpt>
      <trkpt lat="47.23914" lon="6.07315">
        <ele>477.1</ele>
        <time>2015-07-30T13:56:24Z</time>
      </trkpt>
      <trkpt lat="47.23919" lon="6.07314">
        <ele>477.3</ele>
        <time>2015-07-30T13:56:29Z</time>
      </trkpt>
      <trkpt lat="47.23923" lon="6.0731">
        <ele>476.9</ele>
        <time>2015-07-30T13:56:34Z</time>
      </trkpt>
      <trkpt lat="47.23928" lon="6.07308">
        <ele>476.8</ele>
        <time>2015-07-30T13:56:38Z</time>
      </trkpt>
      <trkpt lat="47.23932" lon="6.07302">
        <ele>476.1</ele>
        <time>2015-07-30T13:56:42Z</time>
      </trkpt>
      <trkpt lat="47.23935" lon="6.07294">
        <ele>475</ele>
        <time>2015-07-30T13:56:46Z</time>
      </trkpt>
      <trkpt lat="47.23937" lon="6.07287">
        <ele>474</ele>
        <time>2015-07-30T13:56:50Z</time>
      </trkpt>
      <trkpt lat="47.23938" lon="6.07279">
        <ele>472.9</ele>
        <time>2015-07-30T13:56:54Z</time>
      </trkpt>
      <trkpt lat="47.23939" lon="6.07269">
        <ele>471.4</ele>
        <time>2015-07-30T13:57:04Z</time>
      </trkpt>
      <trkpt lat="47.23941" lon="6.07263">
        <ele>470.5</ele>
        <time>2015-07-30T13:57:07Z</time>
      </trkpt>
      <trkpt lat="47.23938" lon="6.07258">
        <ele>469.7</ele>
        <time>2015-07-30T13:57:18Z</time>
      </trkpt>
      <trkpt lat="47.23933" lon="6.07253">
        <ele>468.8</ele>
        <time>2015-07-30T13:57:22Z</time>
      </trkpt>
      <trkpt lat="47.2393" lon="6.07247">
        <ele>467.7</ele>
        <time>2015-07-30T13:57:26Z</time>
      </trkpt>
      <trkpt lat="47.23927" lon="6.07241">
        <ele>466.3</ele>
        <time>2015-07-30T13:57:30Z</time>
      </trkpt>
      <trkpt lat="47.23924" lon="6.07233">
        <ele>464.5</ele>
        <time>2015-07-30T13:57:36Z</time>
      </trkpt>
      <trkpt lat="47.23925" lon="6.07231">
        <ele>464.1</ele>
        <time>2015-07-30T13:57:48Z</time>
      </trkpt>
      <trkpt lat="47.23924" lon="6.07225">
        <ele>462.7</ele>
        <time>2015-07-30T13:58:04Z</time>
      </trkpt>
      <trkpt lat="47.23926" lon="6.07218">
        <ele>461.3</ele>
        <time>2015-07-30T13:58:29Z</time>
      </trkpt>
      <trkpt lat="47.23939" lon="6.07203">
        <ele>458.2</ele>
        <time>2015-07-30T13:58:53Z</time>
      </trkpt>
      <trkpt lat="47.2394" lon="6.07194">
        <ele>456.3</ele>
        <time>2015-07-30T13:59:12Z</time>
      </trkpt>
      <trkpt lat="47.2393" lon="6.07184">
        <ele>453.9</ele>
        <time>2015-07-30T13:59:28Z</time>
      </trkpt>
      <trkpt lat="47.23933" lon="6.07154">
        <ele>447.6</ele>
        <time>2015-07-30T13:59:51Z</time>
      </trkpt>
      <trkpt lat="47.23936" lon="6.07137">
        <ele>444.1</ele>
        <time>2015-07-30T14:00:14Z</time>
      </trkpt>
      <trkpt lat="47.23939" lon="6.07126">
        <ele>441.8</ele>
        <time>2015-07-30T14:00:23Z</time>
      </trkpt>
      <trkpt lat="47.23941" lon="6.07114">
        <ele>439.4</ele>
        <time>2015-07-30T14:00:30Z</time>
      </trkpt>
      <trkpt lat="47.23944" lon="6.07106">
        <ele>437.7</ele>
        <time>2015-07-30T14:00:50Z</time>
      </trkpt>
      <trkpt lat="47.23941" lon="6.07096">
        <ele>435.6</ele>
        <time>2015-07-30T14:01:00Z</time>
      </trkpt>
      <trkpt lat="47.23943" lon="6.07062">
        <ele>428.5</ele>
        <time>2015-07-30T14:01:25Z</time>
      </trkpt>
      <trkpt lat="47.23943" lon="6.07056">
        <ele>427.2</ele>
        <time>2015-07-30T14:01:30Z</time>
      </trkpt>
      <trkpt lat="47.23943" lon="6.07048">
        <ele>425.5</ele>
        <time>2015-07-30T14:01:35Z</time>
      </trkpt>
      <trkpt lat="47.23945" lon="6.0704">
        <ele>423.8</ele>
        <time>2015-07-30T14:01:38Z</time>
      </trkpt>
      <trkpt lat="47.23956" lon="6.07032">
        <ele>421.9</ele>
        <time>2015-07-30T14:01:52Z</time>
      </trkpt>
      <trkpt lat="47.23956" lon="6.07015">
        <ele>418.3</ele>
        <time>2015-07-30T14:02:09Z</time>
      </trkpt>
      <trkpt lat="47.23954" lon="6.07009">
        <ele>417</ele>
        <time>2015-07-30T14:02:14Z</time>
      </trkpt>
      <trkpt lat="47.23959" lon="6.0701">
        <ele>417.1</ele>
        <time>2015-07-30T14:02:20Z</time>
      </trkpt>
      <trkpt lat="47.23963" lon="6.07007">
        <ele>416.4</ele>
        <time>2015-07-30T14:02:24Z</time>
      </trkpt>
      <trkpt lat="47.23969" lon="6.07006">
        <ele>416.1</ele>
        <time>2015-07-30T14:02:26Z</time>
      </trkpt>
      <trkpt lat="47.23973" lon="6.07001">
        <ele>414.9</ele>
        <time>2015-07-30T14:02:34Z</time>
      </trkpt>
      <trkpt lat="47.23981" lon="6.06998">
        <ele>414</ele>
        <time>2015-07-30T14:02:46Z</time>
      </trkpt>
      <trkpt lat="47.2398" lon="6.06991">
        <ele>412.3</ele>
        <time>2015-07-30T14:02:54Z</time>
      </trkpt>
      <trkpt lat="47.23974" lon="6.06985">
        <ele>411</ele>
        <time>2015-07-30T14:03:00Z</time>
      </trkpt>
      <trkpt lat="47.23967" lon="6.06979">
        <ele>409.6</ele>
        <time>2015-07-30T14:03:04Z</time>
      </trkpt>
      <trkpt lat="47.23962" lon="6.06974">
        <ele>408.4</ele>
        <time>2015-07-30T14:03:08Z</time>
      </trkpt>
      <trkpt lat="47.23956" lon="6.06963">
        <ele>405.7</ele>
        <time>2015-07-30T14:03:13Z</time>
      </trkpt>
      <trkpt lat="47.23952" lon="6.06957">
        <ele>404.2</ele>
        <time>2015-07-30T14:03:16Z</time>
      </trkpt>
      <trkpt lat="47.23948" lon="6.06951">
        <ele>402.6</ele>
        <time>2015-07-30T14:03:19Z</time>
      </trkpt>
      <trkpt lat="47.23939" lon="6.0694">
        <ele>399.7</ele>
        <time>2015-07-30T14:03:27Z</time>
      </trkpt>
      <trkpt lat="47.23934" lon="6.06935">
        <ele>398.3</ele>
        <time>2015-07-30T14:03:34Z</time>
      </trkpt>
      <trkpt lat="47.2393" lon="6.06931">
        <ele>397.2</ele>
        <time>2015-07-30T14:03:38Z</time>
      </trkpt>
      <trkpt lat="47.23924" lon="6.06929">
        <ele>396.5</ele>
        <time>2015-07-30T14:03:42Z</time>
      </trkpt>
      <trkpt lat="47.2392" lon="6.06926">
        <ele>395.6</ele>
        <time>2015-07-30T14:03:44Z</time>
      </trkpt>
      <trkpt lat="47.23912" lon="6.06925">
        <ele>393.7</ele>
        <time>2015-07-30T14:03:48Z</time>
      </trkpt>
      <trkpt lat="47.23904" lon="6.06921">
        <ele>389.9</ele>
        <time>2015-07-30T14:03:54Z</time>
      </trkpt>
      <trkpt lat="47.23898" lon="6.06919">
        <ele>387.3</ele>
        <time>2015-07-30T14:03:58Z</time>
      </trkpt>
      <trkpt lat="47.23892" lon="6.06916">
        <ele>384.5</ele>
        <time>2015-07-30T14:04:01Z</time>
      </trkpt>
      <trkpt lat="47.23885" lon="6.06914">
        <ele>381.7</ele>
        <time>2015-07-30T14:04:04Z</time>
      </trkpt>
      <trkpt lat="47.23879" lon="6.06912">
        <ele>379.2</ele>
        <time>2015-07-30T14:04:08Z</time>
      </trkpt>
      <trkpt lat="47.2387" lon="6.0691">
        <ele>375.7</ele>
        <time>2015-07-30T14:04:12Z</time>
      </trkpt>
      <trkpt lat="47.23864" lon="6.0691">
        <ele>373.7</ele>
        <time>2015-07-30T14:04:16Z</time>
      </trkpt>
      <trkpt lat="47.23859" lon="6.06909">
        <ele>371.8</ele>
        <time>2015-07-30T14:04:20Z</time>
      </trkpt>
      <trkpt lat="47.23854" lon="6.06913">
        <ele>371.1</ele>
        <time>2015-07-30T14:04:24Z</time>
      </trkpt>
      <trkpt lat="47.2385" lon="6.06918">
        <ele>370.9</ele>
        <time>2015-07-30T14:04:28Z</time>
      </trkpt>
      <trkpt lat="47.23846" lon="6.06925">
        <ele>371.2</ele>
        <time>2015-07-30T14:04:32Z</time>
      </trkpt>
      <trkpt lat="47.2384" lon="6.06927">
        <ele>369.6</ele>
        <time>2015-07-30T14:04:34Z</time>
      </trkpt>
      <trkpt lat="47.23838" lon="6.06933">
        <ele>370.3</ele>
        <time>2015-07-30T14:04:36Z</time>
      </trkpt>
      <trkpt lat="47.23833" lon="6.06935">
        <ele>369.1</ele>
        <time>2015-07-30T14:04:38Z</time>
      </trkpt>
      <trkpt lat="47.23828" lon="6.06943">
        <ele>370.4</ele>
        <time>2015-07-30T14:04:42Z</time>
      </trkpt>
      <trkpt lat="47.23824" lon="6.06951">
        <ele>371.8</ele>
        <time>2015-07-30T14:04:46Z</time>
      </trkpt>
      <trkpt lat="47.23821" lon="6.06959">
        <ele>373.2</ele>
        <time>2015-07-30T14:04:50Z</time>
      </trkpt>
      <trkpt lat="47.23816" lon="6.06966">
        <ele>374.3</ele>
        <time>2015-07-30T14:04:54Z</time>
      </trkpt>
      <trkpt lat="47.23813" lon="6.06973">
        <ele>375.6</ele>
        <time>2015-07-30T14:04:58Z</time>
      </trkpt>
      <trkpt lat="47.23813" lon="6.0698">
        <ele>377.2</ele>
        <time>2015-07-30T14:05:02Z</time>
      </trkpt>
      <trkpt lat="47.23811" lon="6.06987">
        <ele>378.6</ele>
        <time>2015-07-30T14:05:04Z</time>
      </trkpt>
      <trkpt lat="47.23809" lon="6.06994">
        <ele>380</ele>
        <time>2015-07-30T14:05:08Z</time>
      </trkpt>
      <trkpt lat="47.23807" lon="6.07">
        <ele>381.2</ele>
        <time>2015-07-30T14:05:12Z</time>
      </trkpt>
      <trkpt lat="47.23803" lon="6.07006">
        <ele>382.6</ele>
        <time>2015-07-30T14:05:16Z</time>
      </trkpt>
      <trkpt lat="47.23801" lon="6.07013">
        <ele>384.7</ele>
        <time>2015-07-30T14:05:20Z</time>
      </trkpt>
      <trkpt lat="47.23797" lon="6.0702">
        <ele>386.5</ele>
        <time>2015-07-30T14:05:24Z</time>
      </trkpt>
      <trkpt lat="47.23796" lon="6.07028">
        <ele>388.9</ele>
        <time>2015-07-30T14:05:28Z</time>
      </trkpt>
      <trkpt lat="47.23793" lon="6.07037">
        <ele>391.4</ele>
        <time>2015-07-30T14:05:32Z</time>
      </trkpt>
      <trkpt lat="47.23791" lon="6.07045">
        <ele>393.7</ele>
        <time>2015-07-30T14:05:36Z</time>
      </trkpt>
      <trkpt lat="47.23789" lon="6.07052">
        <ele>395.7</ele>
        <time>2015-07-30T14:05:40Z</time>
      </trkpt>
      <trkpt lat="47.23784" lon="6.07058">
        <ele>397.1</ele>
        <time>2015-07-30T14:05:44Z</time>
      </trkpt>
      <trkpt lat="47.23782" lon="6.07065">
        <ele>399</ele>
        <time>2015-07-30T14:05:48Z</time>
      </trkpt>
      <trkpt lat="47.23777" lon="6.07072">
        <ele>400.7</ele>
        <time>2015-07-30T14:05:54Z</time>
      </trkpt>
      <trkpt lat="47.23773" lon="6.07075">
        <ele>401.1</ele>
        <time>2015-07-30T14:05:58Z</time>
      </trkpt>
      <trkpt lat="47.23766" lon="6.07075">
        <ele>400.3</ele>
        <time>2015-07-30T14:06:04Z</time>
      </trkpt>
      <trkpt lat="47.23761" lon="6.07077">
        <ele>400.3</ele>
        <time>2015-07-30T14:06:08Z</time>
      </trkpt>
      <trkpt lat="47.23757" lon="6.0708">
        <ele>400.8</ele>
        <time>2015-07-30T14:06:12Z</time>
      </trkpt>
      <trkpt lat="47.23754" lon="6.07085">
        <ele>402</ele>
        <time>2015-07-30T14:06:16Z</time>
      </trkpt>
      <trkpt lat="47.23748" lon="6.07086">
        <ele>402.2</ele>
        <time>2015-07-30T14:06:20Z</time>
      </trkpt>
      <trkpt lat="47.23742" lon="6.07085">
        <ele>403</ele>
        <time>2015-07-30T14:06:22Z</time>
      </trkpt>
      <trkpt lat="47.23737" lon="6.07086">
        <ele>404.2</ele>
        <time>2015-07-30T14:06:24Z</time>
      </trkpt>
      <trkpt lat="47.23731" lon="6.07087">
        <ele>405.6</ele>
        <time>2015-07-30T14:06:28Z</time>
      </trkpt>
      <trkpt lat="47.23723" lon="6.0709">
        <ele>407.9</ele>
        <time>2015-07-30T14:06:32Z</time>
      </trkpt>
      <trkpt lat="47.23716" lon="6.0709">
        <ele>409.2</ele>
        <time>2015-07-30T14:06:36Z</time>
      </trkpt>
      <trkpt lat="47.23711" lon="6.07094">
        <ele>411.1</ele>
        <time>2015-07-30T14:06:42Z</time>
      </trkpt>
      <trkpt lat="47.23708" lon="6.07099">
        <ele>412.8</ele>
        <time>2015-07-30T14:06:46Z</time>
      </trkpt>
      <trkpt lat="47.23704" lon="6.07104">
        <ele>414.7</ele>
        <time>2015-07-30T14:06:50Z</time>
      </trkpt>
      <trkpt lat="47.23702" lon="6.07111">
        <ele>416.6</ele>
        <time>2015-07-30T14:06:56Z</time>
      </trkpt>
      <trkpt lat="47.23697" lon="6.07116">
        <ele>418.5</ele>
        <time>2015-07-30T14:07:00Z</time>
      </trkpt>
      <trkpt lat="47.23692" lon="6.0712">
        <ele>420.1</ele>
        <time>2015-07-30T14:07:04Z</time>
      </trkpt>
      <trkpt lat="47.23688" lon="6.07124">
        <ele>421.5</ele>
        <time>2015-07-30T14:07:08Z</time>
      </trkpt>
      <trkpt lat="47.23683" lon="6.07129">
        <ele>423.2</ele>
        <time>2015-07-30T14:07:14Z</time>
      </trkpt>
      <trkpt lat="47.23677" lon="6.07136">
        <ele>425.3</ele>
        <time>2015-07-30T14:07:20Z</time>
      </trkpt>
      <trkpt lat="47.23673" lon="6.07142">
        <ele>426.9</ele>
        <time>2015-07-30T14:07:24Z</time>
      </trkpt>
      <trkpt lat="47.23666" lon="6.07147">
        <ele>428.6</ele>
        <time>2015-07-30T14:07:28Z</time>
      </trkpt>
      <trkpt lat="47.23661" lon="6.07149">
        <ele>430.2</ele>
        <time>2015-07-30T14:07:31Z</time>
      </trkpt>
      <trkpt lat="47.23653" lon="6.07154">
        <ele>433</ele>
        <time>2015-07-30T14:07:38Z</time>
      </trkpt>
      <trkpt lat="47.23649" lon="6.07157">
        <ele>434.4</ele>
        <time>2015-07-30T14:07:42Z</time>
      </trkpt>
      <trkpt lat="47.23643" lon="6.0716">
        <ele>436.3</ele>
        <time>2015-07-30T14:07:48Z</time>
      </trkpt>
      <trkpt lat="47.23639" lon="6.07165">
        <ele>438</ele>
        <time>2015-07-30T14:07:53Z</time>
      </trkpt>
      <trkpt lat="47.23634" lon="6.07168">
        <ele>439.6</ele>
        <time>2015-07-30T14:07:56Z</time>
      </trkpt>
      <trkpt lat="47.23628" lon="6.07169">
        <ele>441.1</ele>
        <time>2015-07-30T14:08:02Z</time>
      </trkpt>
      <trkpt lat="47.23621" lon="6.07169">
        <ele>442.7</ele>
        <time>2015-07-30T14:08:07Z</time>
      </trkpt>
      <trkpt lat="47.23617" lon="6.07166">
        <ele>443.2</ele>
        <time>2015-07-30T14:08:12Z</time>
      </trkpt>
      <trkpt lat="47.2361" lon="6.0716">
        <ele>444</ele>
        <time>2015-07-30T14:08:16Z</time>
      </trkpt>
      <trkpt lat="47.23605" lon="6.07154">
        <ele>444.3</ele>
        <time>2015-07-30T14:08:20Z</time>
      </trkpt>
      <trkpt lat="47.23598" lon="6.0715">
        <ele>445.5</ele>
        <time>2015-07-30T14:08:24Z</time>
      </trkpt>
      <trkpt lat="47.23593" lon="6.07145">
        <ele>446</ele>
        <time>2015-07-30T14:08:28Z</time>
      </trkpt>
      <trkpt lat="47.23587" lon="6.07138">
        <ele>446.6</ele>
        <time>2015-07-30T14:08:32Z</time>
      </trkpt>
      <trkpt lat="47.23585" lon="6.07133">
        <ele>446.5</ele>
        <time>2015-07-30T14:08:36Z</time>
      </trkpt>
      <trkpt lat="47.23583" lon="6.07126">
        <ele>446.1</ele>
        <time>2015-07-30T14:08:40Z</time>
      </trkpt>
      <trkpt lat="47.23579" lon="6.0712">
        <ele>445.6</ele>
        <time>2015-07-30T14:08:46Z</time>
      </trkpt>
      <trkpt lat="47.23576" lon="6.07113">
        <ele>444.9</ele>
        <time>2015-07-30T14:08:48Z</time>
      </trkpt>
      <trkpt lat="47.23571" lon="6.07106">
        <ele>444.3</ele>
        <time>2015-07-30T14:08:50Z</time>
      </trkpt>
      <trkpt lat="47.2357" lon="6.07099">
        <ele>443.6</ele>
        <time>2015-07-30T14:08:52Z</time>
      </trkpt>
      <trkpt lat="47.23568" lon="6.07091">
        <ele>442.8</ele>
        <time>2015-07-30T14:08:58Z</time>
      </trkpt>
      <trkpt lat="47.23568" lon="6.07084">
        <ele>442</ele>
        <time>2015-07-30T14:09:04Z</time>
      </trkpt>
      <trkpt lat="47.23566" lon="6.07078">
        <ele>441.3</ele>
        <time>2015-07-30T14:09:11Z</time>
      </trkpt>
      <trkpt lat="47.23564" lon="6.07077">
        <ele>441.3</ele>
        <time>2015-07-30T14:09:13Z</time>
      </trkpt>
      <trkpt lat="47.23562" lon="6.07071">
        <ele>440.7</ele>
        <time>2015-07-30T14:09:16Z</time>
      </trkpt>
      <trkpt lat="47.23558" lon="6.07065">
        <ele>440.1</ele>
        <time>2015-07-30T14:09:20Z</time>
      </trkpt>
      <trkpt lat="47.23554" lon="6.07057">
        <ele>439.4</ele>
        <time>2015-07-30T14:09:24Z</time>
      </trkpt>
      <trkpt lat="47.2355" lon="6.07052">
        <ele>439.1</ele>
        <time>2015-07-30T14:09:28Z</time>
      </trkpt>
      <trkpt lat="47.23545" lon="6.07046">
        <ele>438.7</ele>
        <time>2015-07-30T14:09:32Z</time>
      </trkpt>
      <trkpt lat="47.23541" lon="6.07039">
        <ele>438.2</ele>
        <time>2015-07-30T14:09:34Z</time>
      </trkpt>
      <trkpt lat="47.23541" lon="6.0703">
        <ele>437.2</ele>
        <time>2015-07-30T14:09:38Z</time>
      </trkpt>
      <trkpt lat="47.23537" lon="6.0702">
        <ele>436.4</ele>
        <time>2015-07-30T14:09:43Z</time>
      </trkpt>
      <trkpt lat="47.23534" lon="6.07012">
        <ele>435.7</ele>
        <time>2015-07-30T14:09:48Z</time>
      </trkpt>
      <trkpt lat="47.2353" lon="6.07006">
        <ele>435.4</ele>
        <time>2015-07-30T14:09:52Z</time>
      </trkpt>
      <trkpt lat="47.23531" lon="6.06998">
        <ele>434.4</ele>
        <time>2015-07-30T14:09:58Z</time>
      </trkpt>
      <trkpt lat="47.23539" lon="6.06991">
        <ele>432.6</ele>
        <time>2015-07-30T14:10:12Z</time>
      </trkpt>
      <trkpt lat="47.23554" lon="6.0697">
        <ele>428</ele>
        <time>2015-07-30T14:10:28Z</time>
      </trkpt>
      <trkpt lat="47.23557" lon="6.06952">
        <ele>425.1</ele>
        <time>2015-07-30T14:10:47Z</time>
      </trkpt>
      <trkpt lat="47.23595" lon="6.069">
        <ele>408.3</ele>
        <time>2015-07-30T14:11:28Z</time>
      </trkpt>
      <trkpt lat="47.23599" lon="6.06896">
        <ele>406.1</ele>
        <time>2015-07-30T14:11:35Z</time>
      </trkpt>
      <trkpt lat="47.23605" lon="6.0689">
        <ele>402.7</ele>
        <time>2015-07-30T14:11:53Z</time>
      </trkpt>
      <trkpt lat="47.23615" lon="6.06884">
        <ele>398.1</ele>
        <time>2015-07-30T14:12:11Z</time>
      </trkpt>
      <trkpt lat="47.23623" lon="6.06874">
        <ele>392.8</ele>
        <time>2015-07-30T14:12:28Z</time>
      </trkpt>
      <trkpt lat="47.23637" lon="6.06845">
        <ele>380.3</ele>
        <time>2015-07-30T14:13:17Z</time>
      </trkpt>
      <trkpt lat="47.23643" lon="6.06851">
        <ele>380</ele>
        <time>2015-07-30T14:13:29Z</time>
      </trkpt>
      <trkpt lat="47.23647" lon="6.0684">
        <ele>375.5</ele>
        <time>2015-07-30T14:13:47Z</time>
      </trkpt>
      <trkpt lat="47.23649" lon="6.06831">
        <ele>372.3</ele>
        <time>2015-07-30T14:13:52Z</time>
      </trkpt>
      <trkpt lat="47.23652" lon="6.06825">
        <ele>369.5</ele>
        <time>2015-07-30T14:14:07Z</time>
      </trkpt>
      <trkpt lat="47.23657" lon="6.0683">
        <ele>369.3</ele>
        <time>2015-07-30T14:14:10Z</time>
      </trkpt>
      <trkpt lat="47.2366" lon="6.06835">
        <ele>369.7</ele>
        <time>2015-07-30T14:14:14Z</time>
      </trkpt>
      <trkpt lat="47.23673" lon="6.06849">
        <ele>369.3</ele>
        <time>2015-07-30T14:14:23Z</time>
      </trkpt>
      <trkpt lat="47.23677" lon="6.06853">
        <ele>368.9</ele>
        <time>2015-07-30T14:14:26Z</time>
      </trkpt>
      <trkpt lat="47.23687" lon="6.06858">
        <ele>366.4</ele>
        <time>2015-07-30T14:14:30Z</time>
      </trkpt>
      <trkpt lat="47.23695" lon="6.06859">
        <ele>363.5</ele>
        <time>2015-07-30T14:14:33Z</time>
      </trkpt>
      <trkpt lat="47.23699" lon="6.06857">
        <ele>361.4</ele>
        <time>2015-07-30T14:14:35Z</time>
      </trkpt>
      <trkpt lat="47.23697" lon="6.06826">
        <ele>353.9</ele>
        <time>2015-07-30T14:14:46Z</time>
      </trkpt>
      <trkpt lat="47.23686" lon="6.06709">
        <ele>329.3</ele>
        <time>2015-07-30T14:15:24Z</time>
      </trkpt>
      <trkpt lat="47.23683" lon="6.06697">
        <ele>327.3</ele>
        <time>2015-07-30T14:15:28Z</time>
      </trkpt>
      <trkpt lat="47.23684" lon="6.0669">
        <ele>325.6</ele>
        <time>2015-07-30T14:15:30Z</time>
      </trkpt>
      <trkpt lat="47.23667" lon="6.06606">
        <ele>309.1</ele>
        <time>2015-07-30T14:15:53Z</time>
      </trkpt>
      <trkpt lat="47.23645" lon="6.06552">
        <ele>306.4</ele>
        <time>2015-07-30T14:16:13Z</time>
      </trkpt>
      <trkpt lat="47.23641" lon="6.06547">
        <ele>306.9</ele>
        <time>2015-07-30T14:16:15Z</time>
      </trkpt>
      <trkpt lat="47.23617" lon="6.06519">
        <ele>310.1</ele>
        <time>2015-07-30T14:16:25Z</time>
      </trkpt>
      <trkpt lat="47.23609" lon="6.065">
        <ele>309.6</ele>
        <time>2015-07-30T14:16:30Z</time>
      </trkpt>
      <trkpt lat="47.23602" lon="6.0648">
        <ele>308.9</ele>
        <time>2015-07-30T14:16:35Z</time>
      </trkpt>
      <trkpt lat="47.23598" lon="6.06465">
        <ele>307.9</ele>
        <time>2015-07-30T14:16:40Z</time>
      </trkpt>
      <trkpt lat="47.23589" lon="6.06427">
        <ele>305</ele>
        <time>2015-07-30T14:16:53Z</time>
      </trkpt>
      <trkpt lat="47.23584" lon="6.06399">
        <ele>300.8</ele>
        <time>2015-07-30T14:17:02Z</time>
      </trkpt>
      <trkpt lat="47.23564" lon="6.06333">
        <ele>289.4</ele>
        <time>2015-07-30T14:17:22Z</time>
      </trkpt>
      <trkpt lat="47.23561" lon="6.06326">
        <ele>288.2</ele>
        <time>2015-07-30T14:17:24Z</time>
      </trkpt>
      <trkpt lat="47.23552" lon="6.06306">
        <ele>284.6</ele>
        <time>2015-07-30T14:17:30Z</time>
      </trkpt>
      <trkpt lat="47.23509" lon="6.06252">
        <ele>276.4</ele>
        <time>2015-07-30T14:17:50Z</time>
      </trkpt>
      <trkpt lat="47.23505" lon="6.06247">
        <ele>275.7</ele>
        <time>2015-07-30T14:17:52Z</time>
      </trkpt>
      <trkpt lat="47.23475" lon="6.0622">
        <ele>272.8</ele>
        <time>2015-07-30T14:18:10Z</time>
      </trkpt>
      <trkpt lat="47.23461" lon="6.0621">
        <ele>271.9</ele>
        <time>2015-07-30T14:18:15Z</time>
      </trkpt>
      <trkpt lat="47.23427" lon="6.06178">
        <ele>267.7</ele>
        <time>2015-07-30T14:18:30Z</time>
      </trkpt>
      <trkpt lat="47.23423" lon="6.06174">
        <ele>267.1</ele>
        <time>2015-07-30T14:18:32Z</time>
      </trkpt>
      <trkpt lat="47.23417" lon="6.0617">
        <ele>266.8</ele>
        <time>2015-07-30T14:18:35Z</time>
      </trkpt>
      <trkpt lat="47.2337" lon="6.06143">
        <ele>260.2</ele>
        <time>2015-07-30T14:18:53Z</time>
      </trkpt>
      <trkpt lat="47.2336" lon="6.06139">
        <ele>259.3</ele>
        <time>2015-07-30T14:18:57Z</time>
      </trkpt>
      <trkpt lat="47.2333" lon="6.06114">
        <ele>255.7</ele>
        <time>2015-07-30T14:19:14Z</time>
      </trkpt>
      <trkpt lat="47.23319" lon="6.0611">
        <ele>256.1</ele>
        <time>2015-07-30T14:19:19Z</time>
      </trkpt>
      <trkpt lat="47.23295" lon="6.06099">
        <ele>257.1</ele>
        <time>2015-07-30T14:19:30Z</time>
      </trkpt>
      <trkpt lat="47.23286" lon="6.06094">
        <ele>257.6</ele>
        <time>2015-07-30T14:19:35Z</time>
      </trkpt>
      <trkpt lat="47.23247" lon="6.06066">
        <ele>260.8</ele>
        <time>2015-07-30T14:19:53Z</time>
      </trkpt>
      <trkpt lat="47.23219" lon="6.06031">
        <ele>268.5</ele>
        <time>2015-07-30T14:20:07Z</time>
      </trkpt>
      <trkpt lat="47.23216" lon="6.06024">
        <ele>268.8</ele>
        <time>2015-07-30T14:20:09Z</time>
      </trkpt>
      <trkpt lat="47.23208" lon="6.06008">
        <ele>270</ele>
        <time>2015-07-30T14:20:15Z</time>
      </trkpt>
      <trkpt lat="47.23184" lon="6.05974">
        <ele>271.7</ele>
        <time>2015-07-30T14:20:28Z</time>
      </trkpt>
      <trkpt lat="47.23181" lon="6.05967">
        <ele>270.9</ele>
        <time>2015-07-30T14:20:30Z</time>
      </trkpt>
      <trkpt lat="47.23171" lon="6.05953">
        <ele>270</ele>
        <time>2015-07-30T14:20:35Z</time>
      </trkpt>
      <trkpt lat="47.23156" lon="6.05931">
        <ele>269.6</ele>
        <time>2015-07-30T14:20:43Z</time>
      </trkpt>
      <trkpt lat="47.23139" lon="6.05912">
        <ele>272.1</ele>
        <time>2015-07-30T14:20:53Z</time>
      </trkpt>
      <trkpt lat="47.23129" lon="6.05874">
        <ele>266.5</ele>
        <time>2015-07-30T14:21:06Z</time>
      </trkpt>
      <trkpt lat="47.23091" lon="6.05832">
        <ele>266.5</ele>
        <time>2015-07-30T14:21:28Z</time>
      </trkpt>
      <trkpt lat="47.23085" lon="6.05828">
        <ele>267.3</ele>
        <time>2015-07-30T14:21:31Z</time>
      </trkpt>
      <trkpt lat="47.23071" lon="6.05797">
        <ele>265.8</ele>
        <time>2015-07-30T14:21:51Z</time>
      </trkpt>
      <trkpt lat="47.23105" lon="6.05814">
        <ele>259.1</ele>
        <time>2015-07-30T14:22:13Z</time>
      </trkpt>
      <trkpt lat="47.23108" lon="6.05808">
        <ele>257.3</ele>
        <time>2015-07-30T14:22:15Z</time>
      </trkpt>
      <trkpt lat="47.23117" lon="6.05795">
        <ele>253.1</ele>
        <time>2015-07-30T14:22:20Z</time>
      </trkpt>
      <trkpt lat="47.23121" lon="6.05789">
        <ele>251.4</ele>
        <time>2015-07-30T14:22:22Z</time>
      </trkpt>
      <trkpt lat="47.23132" lon="6.05765">
        <ele>246.2</ele>
        <time>2015-07-30T14:22:30Z</time>
      </trkpt>
      <trkpt lat="47.23139" lon="6.05751">
        <ele>243.8</ele>
        <time>2015-07-30T14:22:35Z</time>
      </trkpt>
      <trkpt lat="47.23152" lon="6.05713">
        <ele>242.1</ele>
        <time>2015-07-30T14:22:51Z</time>
      </trkpt>
      <trkpt lat="47.23124" lon="6.05687">
        <ele>242.4</ele>
        <time>2015-07-30T14:23:06Z</time>
      </trkpt>
      <trkpt lat="47.23108" lon="6.05674">
        <ele>241.8</ele>
        <time>2015-07-30T14:23:15Z</time>
      </trkpt>
      <trkpt lat="47.231" lon="6.05639">
        <ele>241.5</ele>
        <time>2015-07-30T14:23:28Z</time>
      </trkpt>
      <trkpt lat="47.23101" lon="6.05631">
        <ele>241.6</ele>
        <time>2015-07-30T14:23:31Z</time>
      </trkpt>
      <trkpt lat="47.23101" lon="6.05619">
        <ele>241.8</ele>
        <time>2015-07-30T14:23:35Z</time>
      </trkpt>
      <trkpt lat="47.231" lon="6.05613">
        <ele>241.8</ele>
        <time>2015-07-30T14:23:38Z</time>
      </trkpt>
      <trkpt lat="47.23097" lon="6.05602">
        <ele>241.9</ele>
        <time>2015-07-30T14:23:42Z</time>
      </trkpt>
      <trkpt lat="47.23096" lon="6.05591">
        <ele>242.1</ele>
        <time>2015-07-30T14:23:46Z</time>
      </trkpt>
      <trkpt lat="47.23097" lon="6.05583">
        <ele>242.2</ele>
        <time>2015-07-30T14:23:50Z</time>
      </trkpt>
      <trkpt lat="47.23095" lon="6.05574">
        <ele>242.3</ele>
        <time>2015-07-30T14:23:54Z</time>
      </trkpt>
      <trkpt lat="47.23096" lon="6.05566">
        <ele>242.4</ele>
        <time>2015-07-30T14:23:58Z</time>
      </trkpt>
      <trkpt lat="47.23095" lon="6.05559">
        <ele>242.4</ele>
        <time>2015-07-30T14:24:01Z</time>
      </trkpt>
      <trkpt lat="47.23092" lon="6.05549">
        <ele>242.5</ele>
        <time>2015-07-30T14:24:06Z</time>
      </trkpt>
      <trkpt lat="47.23088" lon="6.05542">
        <ele>242.6</ele>
        <time>2015-07-30T14:24:10Z</time>
      </trkpt>
      <trkpt lat="47.23068" lon="6.05522">
        <ele>242.3</ele>
        <time>2015-07-30T14:24:19Z</time>
      </trkpt>
      <trkpt lat="47.23052" lon="6.05498">
        <ele>242</ele>
        <time>2015-07-30T14:24:30Z</time>
      </trkpt>
      <trkpt lat="47.23048" lon="6.0549">
        <ele>242.2</ele>
        <time>2015-07-30T14:24:33Z</time>
      </trkpt>
      <trkpt lat="47.23042" lon="6.05483">
        <ele>242.4</ele>
        <time>2015-07-30T14:24:36Z</time>
      </trkpt>
      <trkpt lat="47.23037" lon="6.05475">
        <ele>242.7</ele>
        <time>2015-07-30T14:24:41Z</time>
      </trkpt>
      <trkpt lat="47.2297" lon="6.05338">
        <ele>242.4</ele>
        <time>2015-07-30T14:25:29Z</time>
      </trkpt>
      <trkpt lat="47.22966" lon="6.05332">
        <ele>242.2</ele>
        <time>2015-07-30T14:25:31Z</time>
      </trkpt>
      <trkpt lat="47.2296" lon="6.05317">
        <ele>241.6</ele>
        <time>2015-07-30T14:25:36Z</time>
      </trkpt>
      <trkpt lat="47.22954" lon="6.05308">
        <ele>241.3</ele>
        <time>2015-07-30T14:25:40Z</time>
      </trkpt>
      <trkpt lat="47.22946" lon="6.05289">
        <ele>240.6</ele>
        <time>2015-07-30T14:25:47Z</time>
      </trkpt>
      <trkpt lat="47.22944" lon="6.05282">
        <ele>240.4</ele>
        <time>2015-07-30T14:25:49Z</time>
      </trkpt>
      <trkpt lat="47.22926" lon="6.05234">
        <ele>240</ele>
        <time>2015-07-30T14:26:06Z</time>
      </trkpt>
      <trkpt lat="47.22922" lon="6.05224">
        <ele>240.4</ele>
        <time>2015-07-30T14:26:09Z</time>
      </trkpt>
      <trkpt lat="47.22891" lon="6.05159">
        <ele>243.7</ele>
        <time>2015-07-30T14:26:29Z</time>
      </trkpt>
      <trkpt lat="47.22888" lon="6.05152">
        <ele>244.1</ele>
        <time>2015-07-30T14:26:31Z</time>
      </trkpt>
      <trkpt lat="47.2288" lon="6.05137">
        <ele>244.8</ele>
        <time>2015-07-30T14:26:36Z</time>
      </trkpt>
      <trkpt lat="47.22867" lon="6.05097">
        <ele>246.1</ele>
        <time>2015-07-30T14:26:49Z</time>
      </trkpt>
      <trkpt lat="47.22818" lon="6.04981">
        <ele>244.7</ele>
        <time>2015-07-30T14:27:29Z</time>
      </trkpt>
      <trkpt lat="47.22815" lon="6.04973">
        <ele>245.3</ele>
        <time>2015-07-30T14:27:31Z</time>
      </trkpt>
      <trkpt lat="47.2281" lon="6.04958">
        <ele>246</ele>
        <time>2015-07-30T14:27:36Z</time>
      </trkpt>
      <trkpt lat="47.228" lon="6.04897">
        <ele>247.1</ele>
        <time>2015-07-30T14:27:53Z</time>
      </trkpt>
      <trkpt lat="47.22788" lon="6.04814">
        <ele>246.8</ele>
        <time>2015-07-30T14:28:19Z</time>
      </trkpt>
      <trkpt lat="47.22782" lon="6.04779">
        <ele>245.6</ele>
        <time>2015-07-30T14:28:29Z</time>
      </trkpt>
      <trkpt lat="47.22776" lon="6.04697">
        <ele>248</ele>
        <time>2015-07-30T14:28:53Z</time>
      </trkpt>
      <trkpt lat="47.22776" lon="6.0456">
        <ele>247.9</ele>
        <time>2015-07-30T14:29:29Z</time>
      </trkpt>
      <trkpt lat="47.22778" lon="6.04553">
        <ele>247.8</ele>
        <time>2015-07-30T14:29:31Z</time>
      </trkpt>
      <trkpt lat="47.2278" lon="6.04538">
        <ele>247.6</ele>
        <time>2015-07-30T14:29:36Z</time>
      </trkpt>
      <trkpt lat="47.22807" lon="6.04497">
        <ele>246.8</ele>
        <time>2015-07-30T14:29:53Z</time>
      </trkpt>
      <trkpt lat="47.22849" lon="6.04392">
        <ele>251.9</ele>
        <time>2015-07-30T14:30:29Z</time>
      </trkpt>
      <trkpt lat="47.22854" lon="6.04387">
        <ele>252</ele>
        <time>2015-07-30T14:30:31Z</time>
      </trkpt>
      <trkpt lat="47.22886" lon="6.04332">
        <ele>251.8</ele>
        <time>2015-07-30T14:30:52Z</time>
      </trkpt>
      <trkpt lat="47.22887" lon="6.04325">
        <ele>251.7</ele>
        <time>2015-07-30T14:30:54Z</time>
      </trkpt>
      <trkpt lat="47.22933" lon="6.04226">
        <ele>249.8</ele>
        <time>2015-07-30T14:31:28Z</time>
      </trkpt>
      <trkpt lat="47.22935" lon="6.04217">
        <ele>249.8</ele>
        <time>2015-07-30T14:31:31Z</time>
      </trkpt>
      <trkpt lat="47.22941" lon="6.04203">
        <ele>249.9</ele>
        <time>2015-07-30T14:31:36Z</time>
      </trkpt>
      <trkpt lat="47.22948" lon="6.04192">
        <ele>249.9</ele>
        <time>2015-07-30T14:31:40Z</time>
      </trkpt>
      <trkpt lat="47.22966" lon="6.0416">
        <ele>249.4</ele>
        <time>2015-07-30T14:31:53Z</time>
      </trkpt>
      <trkpt lat="47.2304" lon="6.04088">
        <ele>251.2</ele>
        <time>2015-07-30T14:32:29Z</time>
      </trkpt>
      <trkpt lat="47.23043" lon="6.04082">
        <ele>251</ele>
        <time>2015-07-30T14:32:31Z</time>
      </trkpt>
      <trkpt lat="47.23051" lon="6.0407">
        <ele>250.7</ele>
        <time>2015-07-30T14:32:36Z</time>
      </trkpt>
      <trkpt lat="47.23056" lon="6.04069">
        <ele>250.9</ele>
        <time>2015-07-30T14:32:38Z</time>
      </trkpt>
      <trkpt lat="47.23143" lon="6.0396">
        <ele>249.8</ele>
        <time>2015-07-30T14:33:28Z</time>
      </trkpt>
      <trkpt lat="47.23149" lon="6.03956">
        <ele>249.9</ele>
        <time>2015-07-30T14:33:31Z</time>
      </trkpt>
      <trkpt lat="47.23189" lon="6.03927">
        <ele>249.3</ele>
        <time>2015-07-30T14:33:49Z</time>
      </trkpt>
      <trkpt lat="47.23262" lon="6.03851">
        <ele>249.6</ele>
        <time>2015-07-30T14:34:29Z</time>
      </trkpt>
      <trkpt lat="47.23265" lon="6.03844">
        <ele>249.3</ele>
        <time>2015-07-30T14:34:31Z</time>
      </trkpt>
      <trkpt lat="47.23309" lon="6.03792">
        <ele>247.2</ele>
        <time>2015-07-30T14:34:53Z</time>
      </trkpt>
      <trkpt lat="47.23329" lon="6.0374">
        <ele>242.4</ele>
        <time>2015-07-30T14:35:14Z</time>
      </trkpt>
      <trkpt lat="47.23332" lon="6.03732">
        <ele>242.1</ele>
        <time>2015-07-30T14:35:21Z</time>
      </trkpt>
      <trkpt lat="47.23338" lon="6.03726">
        <ele>242.1</ele>
        <time>2015-07-30T14:35:26Z</time>
      </trkpt>
      <trkpt lat="47.23342" lon="6.03722">
        <ele>242.1</ele>
        <time>2015-07-30T14:35:29Z</time>
      </trkpt>
      <trkpt lat="47.23346" lon="6.03717">
        <ele>242.1</ele>
        <time>2015-07-30T14:35:32Z</time>
      </trkpt>
      <trkpt lat="47.23351" lon="6.0371">
        <ele>242</ele>
        <time>2015-07-30T14:35:37Z</time>
      </trkpt>
      <trkpt lat="47.23361" lon="6.03704">
        <ele>242.3</ele>
        <time>2015-07-30T14:35:45Z</time>
      </trkpt>
      <trkpt lat="47.23369" lon="6.03699">
        <ele>242.4</ele>
        <time>2015-07-30T14:35:50Z</time>
      </trkpt>
      <trkpt lat="47.23387" lon="6.0367">
        <ele>241.8</ele>
        <time>2015-07-30T14:36:09Z</time>
      </trkpt>
      <trkpt lat="47.23391" lon="6.03667">
        <ele>241.8</ele>
        <time>2015-07-30T14:36:12Z</time>
      </trkpt>
      <trkpt lat="47.23406" lon="6.03637">
        <ele>242.9</ele>
        <time>2015-07-30T14:36:29Z</time>
      </trkpt>
      <trkpt lat="47.23424" lon="6.03596">
        <ele>242.9</ele>
        <time>2015-07-30T14:36:49Z</time>
      </trkpt>
      <trkpt lat="47.23427" lon="6.03588">
        <ele>242.7</ele>
        <time>2015-07-30T14:36:54Z</time>
      </trkpt>
      <trkpt lat="47.23434" lon="6.0357">
        <ele>242.9</ele>
        <time>2015-07-30T14:37:03Z</time>
      </trkpt>
      <trkpt lat="47.23457" lon="6.03525">
        <ele>243.6</ele>
        <time>2015-07-30T14:37:28Z</time>
      </trkpt>
      <trkpt lat="47.23461" lon="6.03518">
        <ele>243.8</ele>
        <time>2015-07-30T14:37:32Z</time>
      </trkpt>
      <trkpt lat="47.23464" lon="6.03508">
        <ele>244</ele>
        <time>2015-07-30T14:37:36Z</time>
      </trkpt>
      <trkpt lat="47.23467" lon="6.03497">
        <ele>244.3</ele>
        <time>2015-07-30T14:37:41Z</time>
      </trkpt>
      <trkpt lat="47.2348" lon="6.03476">
        <ele>244.9</ele>
        <time>2015-07-30T14:37:53Z</time>
      </trkpt>
      <trkpt lat="47.23526" lon="6.03445">
        <ele>245.4</ele>
        <time>2015-07-30T14:38:29Z</time>
      </trkpt>
      <trkpt lat="47.23525" lon="6.03434">
        <ele>245.9</ele>
        <time>2015-07-30T14:38:31Z</time>
      </trkpt>
      <trkpt lat="47.23533" lon="6.03435">
        <ele>245.8</ele>
        <time>2015-07-30T14:38:36Z</time>
      </trkpt>
      <trkpt lat="47.23559" lon="6.03445">
        <ele>245.2</ele>
        <time>2015-07-30T14:38:53Z</time>
      </trkpt>
      <trkpt lat="47.23611" lon="6.03422">
        <ele>246.5</ele>
        <time>2015-07-30T14:39:29Z</time>
      </trkpt>
      <trkpt lat="47.23639" lon="6.03397">
        <ele>247.6</ele>
        <time>2015-07-30T14:39:51Z</time>
      </trkpt>
      <trkpt lat="47.23644" lon="6.03395">
        <ele>247.7</ele>
        <time>2015-07-30T14:39:55Z</time>
      </trkpt>
      <trkpt lat="47.23673" lon="6.03374">
        <ele>248.5</ele>
        <time>2015-07-30T14:40:16Z</time>
      </trkpt>
      <trkpt lat="47.23692" lon="6.03361">
        <ele>248.5</ele>
        <time>2015-07-30T14:40:29Z</time>
      </trkpt>
      <trkpt lat="47.23703" lon="6.03342">
        <ele>248.5</ele>
        <time>2015-07-30T14:40:44Z</time>
      </trkpt>
      <trkpt lat="47.23714" lon="6.03337">
        <ele>248.4</ele>
        <time>2015-07-30T14:40:53Z</time>
      </trkpt>
      <trkpt lat="47.23745" lon="6.03322">
        <ele>247.7</ele>
        <time>2015-07-30T14:41:13Z</time>
      </trkpt>
      <trkpt lat="47.23755" lon="6.03313">
        <ele>247.3</ele>
        <time>2015-07-30T14:41:23Z</time>
      </trkpt>
      <trkpt lat="47.23764" lon="6.03304">
        <ele>247</ele>
        <time>2015-07-30T14:41:31Z</time>
      </trkpt>
      <trkpt lat="47.23781" lon="6.03267">
        <ele>246.1</ele>
        <time>2015-07-30T14:41:51Z</time>
      </trkpt>
      <trkpt lat="47.23802" lon="6.03297">
        <ele>246.9</ele>
        <time>2015-07-30T14:42:13Z</time>
      </trkpt>
      <trkpt lat="47.23815" lon="6.03327">
        <ele>247.2</ele>
        <time>2015-07-30T14:42:31Z</time>
      </trkpt>
      <trkpt lat="47.23818" lon="6.03332">
        <ele>247.2</ele>
        <time>2015-07-30T14:42:36Z</time>
      </trkpt>
      <trkpt lat="47.23821" lon="6.0334">
        <ele>247.1</ele>
        <time>2015-07-30T14:42:40Z</time>
      </trkpt>
      <trkpt lat="47.23827" lon="6.03366">
        <ele>247.1</ele>
        <time>2015-07-30T14:42:53Z</time>
      </trkpt>
      <trkpt lat="47.23844" lon="6.03378">
        <ele>247</ele>
        <time>2015-07-30T14:43:11Z</time>
      </trkpt>
      <trkpt lat="47.2385" lon="6.03377">
        <ele>247</ele>
        <time>2015-07-30T14:43:15Z</time>
      </trkpt>
      <trkpt lat="47.23863" lon="6.03373">
        <ele>247</ele>
        <time>2015-07-30T14:43:27Z</time>
      </trkpt>
      <trkpt lat="47.2387" lon="6.03369">
        <ele>246.9</ele>
        <time>2015-07-30T14:43:33Z</time>
      </trkpt>
      <trkpt lat="47.239" lon="6.0336">
        <ele>246.7</ele>
        <time>2015-07-30T14:43:53Z</time>
      </trkpt>
      <trkpt lat="47.23932" lon="6.03357">
        <ele>246.8</ele>
        <time>2015-07-30T14:44:15Z</time>
      </trkpt>
      <trkpt lat="47.23962" lon="6.03345">
        <ele>247.2</ele>
        <time>2015-07-30T14:44:31Z</time>
      </trkpt>
      <trkpt lat="47.23988" lon="6.03323">
        <ele>247.1</ele>
        <time>2015-07-30T14:44:53Z</time>
      </trkpt>
      <trkpt lat="47.24017" lon="6.03311">
        <ele>247.8</ele>
        <time>2015-07-30T14:45:13Z</time>
      </trkpt>
      <trkpt lat="47.24022" lon="6.03307">
        <ele>247.8</ele>
        <time>2015-07-30T14:45:17Z</time>
      </trkpt>
      <trkpt lat="47.24036" lon="6.03296">
        <ele>248</ele>
        <time>2015-07-30T14:45:27Z</time>
      </trkpt>
      <trkpt lat="47.24043" lon="6.03289">
        <ele>247.9</ele>
        <time>2015-07-30T14:45:33Z</time>
      </trkpt>
      <trkpt lat="47.24067" lon="6.0328">
        <ele>248.6</ele>
        <time>2015-07-30T14:45:53Z</time>
      </trkpt>
      <trkpt lat="47.24102" lon="6.03254">
        <ele>247.8</ele>
        <time>2015-07-30T14:46:15Z</time>
      </trkpt>
      <trkpt lat="47.24118" lon="6.03236">
        <ele>247.2</ele>
        <time>2015-07-30T14:46:31Z</time>
      </trkpt>
      <trkpt lat="47.24123" lon="6.0323">
        <ele>247</ele>
        <time>2015-07-30T14:46:35Z</time>
      </trkpt>
      <trkpt lat="47.24127" lon="6.03227">
        <ele>246.9</ele>
        <time>2015-07-30T14:46:38Z</time>
      </trkpt>
      <trkpt lat="47.24137" lon="6.032">
        <ele>245.9</ele>
        <time>2015-07-30T14:46:53Z</time>
      </trkpt>
      <trkpt lat="47.24145" lon="6.03182">
        <ele>245.2</ele>
        <time>2015-07-30T14:47:00Z</time>
      </trkpt>
      <trkpt lat="47.24149" lon="6.03178">
        <ele>245.1</ele>
        <time>2015-07-30T14:47:03Z</time>
      </trkpt>
      <trkpt lat="47.24155" lon="6.03176">
        <ele>245.2</ele>
        <time>2015-07-30T14:47:08Z</time>
      </trkpt>
      <trkpt lat="47.24159" lon="6.03167">
        <ele>244.8</ele>
        <time>2015-07-30T14:47:13Z</time>
      </trkpt>
      <trkpt lat="47.24162" lon="6.03162">
        <ele>244.7</ele>
        <time>2015-07-30T14:47:16Z</time>
      </trkpt>
      <trkpt lat="47.24165" lon="6.03157">
        <ele>244.5</ele>
        <time>2015-07-30T14:47:19Z</time>
      </trkpt>
      <trkpt lat="47.24172" lon="6.03147">
        <ele>244.3</ele>
        <time>2015-07-30T14:47:26Z</time>
      </trkpt>
      <trkpt lat="47.24175" lon="6.03139">
        <ele>244</ele>
        <time>2015-07-30T14:47:30Z</time>
      </trkpt>
      <trkpt lat="47.2418" lon="6.0313">
        <ele>243.7</ele>
        <time>2015-07-30T14:47:36Z</time>
      </trkpt>
      <trkpt lat="47.24184" lon="6.03123">
        <ele>243.5</ele>
        <time>2015-07-30T14:47:40Z</time>
      </trkpt>
      <trkpt lat="47.24191" lon="6.03118">
        <ele>243.5</ele>
        <time>2015-07-30T14:47:45Z</time>
      </trkpt>
      <trkpt lat="47.24197" lon="6.03115">
        <ele>243.5</ele>
        <time>2015-07-30T14:47:49Z</time>
      </trkpt>
      <trkpt lat="47.24202" lon="6.03116">
        <ele>243.7</ele>
        <time>2015-07-30T14:47:52Z</time>
      </trkpt>
      <trkpt lat="47.24207" lon="6.03109">
        <ele>243.5</ele>
        <time>2015-07-30T14:47:57Z</time>
      </trkpt>
      <trkpt lat="47.24211" lon="6.03103">
        <ele>243.3</ele>
        <time>2015-07-30T14:48:01Z</time>
      </trkpt>
      <trkpt lat="47.24214" lon="6.03098">
        <ele>243</ele>
        <time>2015-07-30T14:48:04Z</time>
      </trkpt>
      <trkpt lat="47.24218" lon="6.03096">
        <ele>243</ele>
        <time>2015-07-30T14:48:07Z</time>
      </trkpt>
      <trkpt lat="47.2422" lon="6.03089">
        <ele>242.6</ele>
        <time>2015-07-30T14:48:10Z</time>
      </trkpt>
      <trkpt lat="47.24219" lon="6.03081">
        <ele>242.3</ele>
        <time>2015-07-30T14:48:13Z</time>
      </trkpt>
      <trkpt lat="47.24215" lon="6.03071">
        <ele>242.2</ele>
        <time>2015-07-30T14:48:15Z</time>
      </trkpt>
      <trkpt lat="47.24215" lon="6.03064">
        <ele>242.2</ele>
        <time>2015-07-30T14:48:18Z</time>
      </trkpt>
      <trkpt lat="47.24221" lon="6.03058">
        <ele>242.4</ele>
        <time>2015-07-30T14:48:22Z</time>
      </trkpt>
      <trkpt lat="47.24223" lon="6.03051">
        <ele>242.5</ele>
        <time>2015-07-30T14:48:27Z</time>
      </trkpt>
      <trkpt lat="47.24226" lon="6.03046">
        <ele>242.6</ele>
        <time>2015-07-30T14:48:30Z</time>
      </trkpt>
      <trkpt lat="47.24228" lon="6.03038">
        <ele>242.7</ele>
        <time>2015-07-30T14:48:33Z</time>
      </trkpt>
      <trkpt lat="47.24229" lon="6.0303">
        <ele>242.8</ele>
        <time>2015-07-30T14:48:37Z</time>
      </trkpt>
      <trkpt lat="47.24229" lon="6.03023">
        <ele>242.9</ele>
        <time>2015-07-30T14:48:41Z</time>
      </trkpt>
      <trkpt lat="47.24228" lon="6.03011">
        <ele>242.9</ele>
        <time>2015-07-30T14:48:48Z</time>
      </trkpt>
      <trkpt lat="47.24229" lon="6.03003">
        <ele>243</ele>
        <time>2015-07-30T14:48:53Z</time>
      </trkpt>
      <trkpt lat="47.24231" lon="6.02995">
        <ele>243.2</ele>
        <time>2015-07-30T14:48:59Z</time>
      </trkpt>
      <trkpt lat="47.24233" lon="6.02988">
        <ele>243.5</ele>
        <time>2015-07-30T14:49:03Z</time>
      </trkpt>
      <trkpt lat="47.24234" lon="6.02981">
        <ele>243.8</ele>
        <time>2015-07-30T14:49:07Z</time>
      </trkpt>
      <trkpt lat="47.24234" lon="6.02963">
        <ele>244.3</ele>
        <time>2015-07-30T14:49:14Z</time>
      </trkpt>
      <trkpt lat="47.24236" lon="6.02957">
        <ele>244.6</ele>
        <time>2015-07-30T14:49:17Z</time>
      </trkpt>
      <trkpt lat="47.24239" lon="6.02941">
        <ele>245.3</ele>
        <time>2015-07-30T14:49:24Z</time>
      </trkpt>
      <trkpt lat="47.24237" lon="6.02932">
        <ele>245.4</ele>
        <time>2015-07-30T14:49:27Z</time>
      </trkpt>
      <trkpt lat="47.24243" lon="6.02924">
        <ele>246.2</ele>
        <time>2015-07-30T14:49:33Z</time>
      </trkpt>
      <trkpt lat="47.24247" lon="6.0292">
        <ele>246.6</ele>
        <time>2015-07-30T14:49:39Z</time>
      </trkpt>
      <trkpt lat="47.24252" lon="6.02889">
        <ele>246.1</ele>
        <time>2015-07-30T14:49:53Z</time>
      </trkpt>
      <trkpt lat="47.24267" lon="6.02866">
        <ele>246.2</ele>
        <time>2015-07-30T14:50:07Z</time>
      </trkpt>
      <trkpt lat="47.24281" lon="6.02828">
        <ele>246</ele>
        <time>2015-07-30T14:50:31Z</time>
      </trkpt>
      <trkpt lat="47.24282" lon="6.02816">
        <ele>245.6</ele>
        <time>2015-07-30T14:50:36Z</time>
      </trkpt>
      <trkpt lat="47.24283" lon="6.02776">
        <ele>244</ele>
        <time>2015-07-30T14:50:53Z</time>
      </trkpt>
      <trkpt lat="47.24285" lon="6.02764">
        <ele>243.7</ele>
        <time>2015-07-30T14:50:58Z</time>
      </trkpt>
      <trkpt lat="47.24287" lon="6.02691">
        <ele>242.2</ele>
        <time>2015-07-30T14:51:27Z</time>
      </trkpt>
      <trkpt lat="47.24286" lon="6.02677">
        <ele>241.9</ele>
        <time>2015-07-30T14:51:33Z</time>
      </trkpt>
      <trkpt lat="47.24284" lon="6.02654">
        <ele>241.5</ele>
        <time>2015-07-30T14:51:42Z</time>
      </trkpt>
      <trkpt lat="47.24289" lon="6.02626">
        <ele>241.6</ele>
        <time>2015-07-30T14:51:53Z</time>
      </trkpt>
      <trkpt lat="47.24299" lon="6.02559">
        <ele>242.1</ele>
        <time>2015-07-30T14:52:31Z</time>
      </trkpt>
      <trkpt lat="47.243" lon="6.02505">
        <ele>242.4</ele>
        <time>2015-07-30T14:52:53Z</time>
      </trkpt>
      <trkpt lat="47.24325" lon="6.02431">
        <ele>240.6</ele>
        <time>2015-07-30T14:53:31Z</time>
      </trkpt>
      <trkpt lat="47.24331" lon="6.0242">
        <ele>240.2</ele>
        <time>2015-07-30T14:53:38Z</time>
      </trkpt>
      <trkpt lat="47.24346" lon="6.02408">
        <ele>241.5</ele>
        <time>2015-07-30T14:53:49Z</time>
      </trkpt>
      <trkpt lat="47.24396" lon="6.02391">
        <ele>246.5</ele>
        <time>2015-07-30T14:54:29Z</time>
      </trkpt>
      <trkpt lat="47.24403" lon="6.02391">
        <ele>247.1</ele>
        <time>2015-07-30T14:54:33Z</time>
      </trkpt>
      <trkpt lat="47.24428" lon="6.02387">
        <ele>249.3</ele>
        <time>2015-07-30T14:54:53Z</time>
      </trkpt>
      <trkpt lat="47.24479" lon="6.02375">
        <ele>253.9</ele>
        <time>2015-07-30T14:55:31Z</time>
      </trkpt>
      <trkpt lat="47.24511" lon="6.02364">
        <ele>256.8</ele>
        <time>2015-07-30T14:55:51Z</time>
      </trkpt>
      <trkpt lat="47.24569" lon="6.0237">
        <ele>260.8</ele>
        <time>2015-07-30T14:56:33Z</time>
      </trkpt>
      <trkpt lat="47.24575" lon="6.0237">
        <ele>261.3</ele>
        <time>2015-07-30T14:56:38Z</time>
      </trkpt>
      <trkpt lat="47.246" lon="6.02369">
        <ele>264.2</ele>
        <time>2015-07-30T14:56:58Z</time>
      </trkpt>
      <trkpt lat="47.24608" lon="6.0236">
        <ele>265.9</ele>
        <time>2015-07-30T14:57:04Z</time>
      </trkpt>
      <trkpt lat="47.24632" lon="6.02316">
        <ele>271.3</ele>
        <time>2015-07-30T14:57:31Z</time>
      </trkpt>
      <trkpt lat="47.24635" lon="6.02308">
        <ele>271.8</ele>
        <time>2015-07-30T14:57:35Z</time>
      </trkpt>
      <trkpt lat="47.24637" lon="6.02302">
        <ele>272.1</ele>
        <time>2015-07-30T14:57:38Z</time>
      </trkpt>
      <trkpt lat="47.24654" lon="6.0228">
        <ele>274</ele>
        <time>2015-07-30T14:57:53Z</time>
      </trkpt>
      <trkpt lat="47.24686" lon="6.02244">
        <ele>275.8</ele>
        <time>2015-07-30T14:58:22Z</time>
      </trkpt>
      <trkpt lat="47.24697" lon="6.02239">
        <ele>276.3</ele>
        <time>2015-07-30T14:58:29Z</time>
      </trkpt>
      <trkpt lat="47.24702" lon="6.02238">
        <ele>276.4</ele>
        <time>2015-07-30T14:58:33Z</time>
      </trkpt>
      <trkpt lat="47.24714" lon="6.02232">
        <ele>276.9</ele>
        <time>2015-07-30T14:58:43Z</time>
      </trkpt>
      <trkpt lat="47.24781" lon="6.0213">
        <ele>279.3</ele>
        <time>2015-07-30T14:59:52Z</time>
      </trkpt>
      <trkpt lat="47.24812" lon="6.02116">
        <ele>280.5</ele>
        <time>2015-07-30T15:00:31Z</time>
      </trkpt>
      <trkpt lat="47.24831" lon="6.02103">
        <ele>281.5</ele>
        <time>2015-07-30T15:00:48Z</time>
      </trkpt>
      <trkpt lat="47.24871" lon="6.02034">
        <ele>287.7</ele>
        <time>2015-07-30T15:01:31Z</time>
      </trkpt>
      <trkpt lat="47.24881" lon="6.02026">
        <ele>288.8</ele>
        <time>2015-07-30T15:01:39Z</time>
      </trkpt>
      <trkpt lat="47.249" lon="6.02015">
        <ele>290.4</ele>
        <time>2015-07-30T15:01:53Z</time>
      </trkpt>
      <trkpt lat="47.2493" lon="6.01994">
        <ele>292.7</ele>
        <time>2015-07-30T15:02:16Z</time>
      </trkpt>
      <trkpt lat="47.24945" lon="6.01981">
        <ele>293.5</ele>
        <time>2015-07-30T15:02:26Z</time>
      </trkpt>
      <trkpt lat="47.24954" lon="6.01971">
        <ele>294.1</ele>
        <time>2015-07-30T15:02:34Z</time>
      </trkpt>
      <trkpt lat="47.24977" lon="6.01949">
        <ele>295.1</ele>
        <time>2015-07-30T15:02:53Z</time>
      </trkpt>
      <trkpt lat="47.2498" lon="6.01944">
        <ele>295.3</ele>
        <time>2015-07-30T15:02:56Z</time>
      </trkpt>
      <trkpt lat="47.25006" lon="6.01926">
        <ele>296.2</ele>
        <time>2015-07-30T15:03:16Z</time>
      </trkpt>
      <trkpt lat="47.25022" lon="6.01898">
        <ele>297.8</ele>
        <time>2015-07-30T15:03:31Z</time>
      </trkpt>
      <trkpt lat="47.25049" lon="6.01869">
        <ele>300</ele>
        <time>2015-07-30T15:03:53Z</time>
      </trkpt>
      <trkpt lat="47.25054" lon="6.01866">
        <ele>300.2</ele>
        <time>2015-07-30T15:03:56Z</time>
      </trkpt>
      <trkpt lat="47.25074" lon="6.01854">
        <ele>301.2</ele>
        <time>2015-07-30T15:04:11Z</time>
      </trkpt>
      <trkpt lat="47.25081" lon="6.01844">
        <ele>301.7</ele>
        <time>2015-07-30T15:04:18Z</time>
      </trkpt>
      <trkpt lat="47.25086" lon="6.01839">
        <ele>302.1</ele>
        <time>2015-07-30T15:04:22Z</time>
      </trkpt>
      <trkpt lat="47.25099" lon="6.01821">
        <ele>303.6</ele>
        <time>2015-07-30T15:04:34Z</time>
      </trkpt>
      <trkpt lat="47.25121" lon="6.01796">
        <ele>306.1</ele>
        <time>2015-07-30T15:04:52Z</time>
      </trkpt>
      <trkpt lat="47.25127" lon="6.01791">
        <ele>306.7</ele>
        <time>2015-07-30T15:04:56Z</time>
      </trkpt>
      <trkpt lat="47.25147" lon="6.01776">
        <ele>308.6</ele>
        <time>2015-07-30T15:05:09Z</time>
      </trkpt>
      <trkpt lat="47.25157" lon="6.01768">
        <ele>309.7</ele>
        <time>2015-07-30T15:05:18Z</time>
      </trkpt>
      <trkpt lat="47.25176" lon="6.01751">
        <ele>311.2</ele>
        <time>2015-07-30T15:05:32Z</time>
      </trkpt>
      <trkpt lat="47.25202" lon="6.01729">
        <ele>311.7</ele>
        <time>2015-07-30T15:05:52Z</time>
      </trkpt>
      <trkpt lat="47.25207" lon="6.01724">
        <ele>311.8</ele>
        <time>2015-07-30T15:05:56Z</time>
      </trkpt>
      <trkpt lat="47.2523" lon="6.01698">
        <ele>312.4</ele>
        <time>2015-07-30T15:06:15Z</time>
      </trkpt>
      <trkpt lat="47.2525" lon="6.01685">
        <ele>313</ele>
        <time>2015-07-30T15:06:31Z</time>
      </trkpt>
      <trkpt lat="47.25276" lon="6.01652">
        <ele>312.6</ele>
        <time>2015-07-30T15:06:53Z</time>
      </trkpt>
      <trkpt lat="47.25295" lon="6.0164">
        <ele>312.5</ele>
        <time>2015-07-30T15:07:07Z</time>
      </trkpt>
      <trkpt lat="47.25309" lon="6.01626">
        <ele>312.5</ele>
        <time>2015-07-30T15:07:18Z</time>
      </trkpt>
      <trkpt lat="47.25313" lon="6.01624">
        <ele>312.5</ele>
        <time>2015-07-30T15:07:21Z</time>
      </trkpt>
      <trkpt lat="47.25327" lon="6.01618">
        <ele>312.6</ele>
        <time>2015-07-30T15:07:31Z</time>
      </trkpt>
      <trkpt lat="47.25353" lon="6.01589">
        <ele>312.5</ele>
        <time>2015-07-30T15:07:53Z</time>
      </trkpt>
      <trkpt lat="47.25374" lon="6.01556">
        <ele>312</ele>
        <time>2015-07-30T15:08:15Z</time>
      </trkpt>
      <trkpt lat="47.25398" lon="6.0154">
        <ele>311.7</ele>
        <time>2015-07-30T15:08:32Z</time>
      </trkpt>
      <trkpt lat="47.25425" lon="6.01513">
        <ele>312.1</ele>
        <time>2015-07-30T15:08:53Z</time>
      </trkpt>
      <trkpt lat="47.2543" lon="6.01512">
        <ele>312.3</ele>
        <time>2015-07-30T15:08:56Z</time>
      </trkpt>
      <trkpt lat="47.25447" lon="6.01497">
        <ele>313.2</ele>
        <time>2015-07-30T15:09:11Z</time>
      </trkpt>
      <trkpt lat="47.25457" lon="6.0149">
        <ele>313.8</ele>
        <time>2015-07-30T15:09:18Z</time>
      </trkpt>
      <trkpt lat="47.25474" lon="6.01471">
        <ele>314.9</ele>
        <time>2015-07-30T15:09:32Z</time>
      </trkpt>
      <trkpt lat="47.25496" lon="6.01453">
        <ele>316</ele>
        <time>2015-07-30T15:09:51Z</time>
      </trkpt>
      <trkpt lat="47.255" lon="6.01448">
        <ele>316.2</ele>
        <time>2015-07-30T15:09:54Z</time>
      </trkpt>
      <trkpt lat="47.25529" lon="6.0142">
        <ele>318.7</ele>
        <time>2015-07-30T15:10:16Z</time>
      </trkpt>
      <trkpt lat="47.25545" lon="6.01399">
        <ele>320.1</ele>
        <time>2015-07-30T15:10:32Z</time>
      </trkpt>
      <trkpt lat="47.25567" lon="6.0136">
        <ele>322</ele>
        <time>2015-07-30T15:10:52Z</time>
      </trkpt>
      <trkpt lat="47.25617" lon="6.01303">
        <ele>322.3</ele>
        <time>2015-07-30T15:11:32Z</time>
      </trkpt>
      <trkpt lat="47.25621" lon="6.013">
        <ele>322.2</ele>
        <time>2015-07-30T15:11:35Z</time>
      </trkpt>
      <trkpt lat="47.25626" lon="6.01295">
        <ele>322.1</ele>
        <time>2015-07-30T15:11:39Z</time>
      </trkpt>
      <trkpt lat="47.25638" lon="6.01274">
        <ele>321.6</ele>
        <time>2015-07-30T15:11:53Z</time>
      </trkpt>
      <trkpt lat="47.25685" lon="6.01222">
        <ele>320.6</ele>
        <time>2015-07-30T15:12:34Z</time>
      </trkpt>
      <trkpt lat="47.2568" lon="6.01232">
        <ele>320.7</ele>
        <time>2015-07-30T15:12:29Z</time>
      </trkpt>
      <trkpt lat="47.25685" lon="6.01222">
        <ele>320.6</ele>
        <time>2015-07-30T15:12:34Z</time>
      </trkpt>
      <trkpt lat="47.25689" lon="6.01217">
        <ele>320.6</ele>
        <time>2015-07-30T15:12:37Z</time>
      </trkpt>
      <trkpt lat="47.25706" lon="6.01194">
        <ele>321</ele>
        <time>2015-07-30T15:12:53Z</time>
      </trkpt>
      <trkpt lat="47.25748" lon="6.01152">
        <ele>323.5</ele>
        <time>2015-07-30T15:13:27Z</time>
      </trkpt>
      <trkpt lat="47.25752" lon="6.01147">
        <ele>323.6</ele>
        <time>2015-07-30T15:13:30Z</time>
      </trkpt>
      <trkpt lat="47.25756" lon="6.01141">
        <ele>323.7</ele>
        <time>2015-07-30T15:13:34Z</time>
      </trkpt>
      <trkpt lat="47.25776" lon="6.01118">
        <ele>324.3</ele>
        <time>2015-07-30T15:13:51Z</time>
      </trkpt>
      <trkpt lat="47.25819" lon="6.01059">
        <ele>325.6</ele>
        <time>2015-07-30T15:14:32Z</time>
      </trkpt>
      <trkpt lat="47.25827" lon="6.01053">
        <ele>325.9</ele>
        <time>2015-07-30T15:14:39Z</time>
      </trkpt>
      <trkpt lat="47.25891" lon="6.00985">
        <ele>325.8</ele>
        <time>2015-07-30T15:15:29Z</time>
      </trkpt>
      <trkpt lat="47.25897" lon="6.0098">
        <ele>325.8</ele>
        <time>2015-07-30T15:15:34Z</time>
      </trkpt>
      <trkpt lat="47.2592" lon="6.0095">
        <ele>325.1</ele>
        <time>2015-07-30T15:15:52Z</time>
      </trkpt>
      <trkpt lat="47.25972" lon="6.00894">
        <ele>323.2</ele>
        <time>2015-07-30T15:16:32Z</time>
      </trkpt>
      <trkpt lat="47.25972" lon="6.00894">
        <ele>323.2</ele>
        <time>2015-07-30T15:16:32Z</time>
      </trkpt>
      <trkpt lat="47.25977" lon="6.00892">
        <ele>323.2</ele>
        <time>2015-07-30T15:16:35Z</time>
      </trkpt>
      <trkpt lat="47.25984" lon="6.00889">
        <ele>323.2</ele>
        <time>2015-07-30T15:16:39Z</time>
      </trkpt>
      <trkpt lat="47.25996" lon="6.00874">
        <ele>323.6</ele>
        <time>2015-07-30T15:16:53Z</time>
      </trkpt>
      <trkpt lat="47.2603" lon="6.0082">
        <ele>322.7</ele>
        <time>2015-07-30T15:17:28Z</time>
      </trkpt>
      <trkpt lat="47.26037" lon="6.0081">
        <ele>322.1</ele>
        <time>2015-07-30T15:17:34Z</time>
      </trkpt>
      <trkpt lat="47.26041" lon="6.008">
        <ele>321.7</ele>
        <time>2015-07-30T15:17:39Z</time>
      </trkpt>
      <trkpt lat="47.26053" lon="6.00794">
        <ele>320.6</ele>
        <time>2015-07-30T15:17:49Z</time>
      </trkpt>
      <trkpt lat="47.2606" lon="6.00788">
        <ele>319.9</ele>
        <time>2015-07-30T15:17:53Z</time>
      </trkpt>
      <trkpt lat="47.26114" lon="6.00743">
        <ele>315.5</ele>
        <time>2015-07-30T15:18:32Z</time>
      </trkpt>
      <trkpt lat="47.26142" lon="6.00712">
        <ele>314</ele>
        <time>2015-07-30T15:18:53Z</time>
      </trkpt>
      <trkpt lat="47.26184" lon="6.00673">
        <ele>312.6</ele>
        <time>2015-07-30T15:19:28Z</time>
      </trkpt>
      <trkpt lat="47.26189" lon="6.0067">
        <ele>312.5</ele>
        <time>2015-07-30T15:19:32Z</time>
      </trkpt>
      <trkpt lat="47.26194" lon="6.00665">
        <ele>312.3</ele>
        <time>2015-07-30T15:19:36Z</time>
      </trkpt>
      <trkpt lat="47.26193" lon="6.00651">
        <ele>312.1</ele>
        <time>2015-07-30T15:19:39Z</time>
      </trkpt>
      <trkpt lat="47.26197" lon="6.00652">
        <ele>312</ele>
        <time>2015-07-30T15:19:47Z</time>
      </trkpt>
      <trkpt lat="47.26201" lon="6.00659">
        <ele>312</ele>
        <time>2015-07-30T15:19:54Z</time>
      </trkpt>
      <trkpt lat="47.26204" lon="6.00664">
        <ele>312</ele>
        <time>2015-07-30T15:19:58Z</time>
      </trkpt>
      <trkpt lat="47.26209" lon="6.00672">
        <ele>312</ele>
        <time>2015-07-30T15:20:02Z</time>
      </trkpt>
      <trkpt lat="47.26214" lon="6.00679">
        <ele>311.8</ele>
        <time>2015-07-30T15:20:06Z</time>
      </trkpt>
      <trkpt lat="47.26217" lon="6.00684">
        <ele>311.7</ele>
        <time>2015-07-30T15:20:10Z</time>
      </trkpt>
      <trkpt lat="47.26223" lon="6.00689">
        <ele>311.5</ele>
        <time>2015-07-30T15:20:14Z</time>
      </trkpt>
      <trkpt lat="47.26226" lon="6.00694">
        <ele>311.3</ele>
        <time>2015-07-30T15:20:17Z</time>
      </trkpt>
      <trkpt lat="47.26234" lon="6.00705">
        <ele>311</ele>
        <time>2015-07-30T15:20:24Z</time>
      </trkpt>
      <trkpt lat="47.26238" lon="6.00711">
        <ele>310.8</ele>
        <time>2015-07-30T15:20:28Z</time>
      </trkpt>
      <trkpt lat="47.26243" lon="6.00718">
        <ele>310.6</ele>
        <time>2015-07-30T15:20:34Z</time>
      </trkpt>
      <trkpt lat="47.26249" lon="6.00724">
        <ele>310.3</ele>
        <time>2015-07-30T15:20:39Z</time>
      </trkpt>
      <trkpt lat="47.26257" lon="6.00741">
        <ele>309.8</ele>
        <time>2015-07-30T15:20:48Z</time>
      </trkpt>
      <trkpt lat="47.26264" lon="6.0075">
        <ele>309.5</ele>
        <time>2015-07-30T15:20:53Z</time>
      </trkpt>
      <trkpt lat="47.26277" lon="6.00769">
        <ele>309.8</ele>
        <time>2015-07-30T15:21:05Z</time>
      </trkpt>
      <trkpt lat="47.26273" lon="6.00762">
        <ele>309.6</ele>
        <time>2015-07-30T15:21:28Z</time>
      </trkpt>
      <trkpt lat="47.26268" lon="6.00752">
        <ele>309.4</ele>
        <time>2015-07-30T15:21:34Z</time>
      </trkpt>
      <trkpt lat="47.26263" lon="6.00744">
        <ele>309.6</ele>
        <time>2015-07-30T15:21:39Z</time>
      </trkpt>
      <trkpt lat="47.26247" lon="6.00717">
        <ele>310.5</ele>
        <time>2015-07-30T15:21:53Z</time>
      </trkpt>
      <trkpt lat="47.26231" lon="6.00695">
        <ele>311.2</ele>
        <time>2015-07-30T15:22:10Z</time>
      </trkpt>
      <trkpt lat="47.26222" lon="6.00687">
        <ele>311.5</ele>
        <time>2015-07-30T15:22:17Z</time>
      </trkpt>
      <trkpt lat="47.26219" lon="6.00682">
        <ele>311.6</ele>
        <time>2015-07-30T15:22:20Z</time>
      </trkpt>
      <trkpt lat="47.26204" lon="6.00665">
        <ele>312.1</ele>
        <time>2015-07-30T15:22:32Z</time>
      </trkpt>
      <trkpt lat="47.2621" lon="6.00621">
        <ele>310.8</ele>
        <time>2015-07-30T15:22:53Z</time>
      </trkpt>
      <trkpt lat="47.26218" lon="6.00608">
        <ele>310.2</ele>
        <time>2015-07-30T15:23:01Z</time>
      </trkpt>
      <trkpt lat="47.26251" lon="6.00557">
        <ele>307.7</ele>
        <time>2015-07-30T15:23:32Z</time>
      </trkpt>
      <trkpt lat="47.26252" lon="6.00551">
        <ele>307.6</ele>
        <time>2015-07-30T15:23:35Z</time>
      </trkpt>
      <trkpt lat="47.26252" lon="6.00544">
        <ele>307.5</ele>
        <time>2015-07-30T15:23:39Z</time>
      </trkpt>
      <trkpt lat="47.26249" lon="6.00509">
        <ele>307.1</ele>
        <time>2015-07-30T15:23:53Z</time>
      </trkpt>
      <trkpt lat="47.26236" lon="6.00461">
        <ele>307.8</ele>
        <time>2015-07-30T15:24:22Z</time>
      </trkpt>
      <trkpt lat="47.26248" lon="6.00456">
        <ele>308</ele>
        <time>2015-07-30T15:24:34Z</time>
      </trkpt>
      <trkpt lat="47.26265" lon="6.00454">
        <ele>309.3</ele>
        <time>2015-07-30T15:24:45Z</time>
      </trkpt>
      <trkpt lat="47.26322" lon="6.00419">
        <ele>317.4</ele>
        <time>2015-07-30T15:25:32Z</time>
      </trkpt>
      <trkpt lat="47.26331" lon="6.00411">
        <ele>319</ele>
        <time>2015-07-30T15:25:39Z</time>
      </trkpt>
      <trkpt lat="47.2635" lon="6.00397">
        <ele>321</ele>
        <time>2015-07-30T15:25:53Z</time>
      </trkpt>
      <trkpt lat="47.26357" lon="6.00388">
        <ele>321.9</ele>
        <time>2015-07-30T15:26:01Z</time>
      </trkpt>
      <trkpt lat="47.26376" lon="6.0038">
        <ele>323.5</ele>
        <time>2015-07-30T15:26:13Z</time>
      </trkpt>
      <trkpt lat="47.26388" lon="6.0037">
        <ele>324.9</ele>
        <time>2015-07-30T15:26:23Z</time>
      </trkpt>
      <trkpt lat="47.26401" lon="6.00361">
        <ele>326.3</ele>
        <time>2015-07-30T15:26:32Z</time>
      </trkpt>
      <trkpt lat="47.26408" lon="6.00356">
        <ele>327</ele>
        <time>2015-07-30T15:26:39Z</time>
      </trkpt>
      <trkpt lat="47.26425" lon="6.00345">
        <ele>328.7</ele>
        <time>2015-07-30T15:26:53Z</time>
      </trkpt>
      <trkpt lat="47.26445" lon="6.00325">
        <ele>331.1</ele>
        <time>2015-07-30T15:27:10Z</time>
      </trkpt>
      <trkpt lat="47.26451" lon="6.00319">
        <ele>331.7</ele>
        <time>2015-07-30T15:27:15Z</time>
      </trkpt>
      <trkpt lat="47.26469" lon="6.00302">
        <ele>333.7</ele>
        <time>2015-07-30T15:27:32Z</time>
      </trkpt>
      <trkpt lat="47.26474" lon="6.00295">
        <ele>334.5</ele>
        <time>2015-07-30T15:27:37Z</time>
      </trkpt>
      <trkpt lat="47.26488" lon="6.0028">
        <ele>336.3</ele>
        <time>2015-07-30T15:27:52Z</time>
      </trkpt>
      <trkpt lat="47.26508" lon="6.00255">
        <ele>339.5</ele>
        <time>2015-07-30T15:28:13Z</time>
      </trkpt>
      <trkpt lat="47.26527" lon="6.00247">
        <ele>341.9</ele>
        <time>2015-07-30T15:28:27Z</time>
      </trkpt>
      <trkpt lat="47.26537" lon="6.00238">
        <ele>343.6</ele>
        <time>2015-07-30T15:28:35Z</time>
      </trkpt>
      <trkpt lat="47.26561" lon="6.00226">
        <ele>347.1</ele>
        <time>2015-07-30T15:28:53Z</time>
      </trkpt>
      <trkpt lat="47.26566" lon="6.00224">
        <ele>347.8</ele>
        <time>2015-07-30T15:28:57Z</time>
      </trkpt>
      <trkpt lat="47.26593" lon="6.00211">
        <ele>351.6</ele>
        <time>2015-07-30T15:29:16Z</time>
      </trkpt>
      <trkpt lat="47.26598" lon="6.00212">
        <ele>351.9</ele>
        <time>2015-07-30T15:29:19Z</time>
      </trkpt>
      <trkpt lat="47.26615" lon="6.00197">
        <ele>354.6</ele>
        <time>2015-07-30T15:29:33Z</time>
      </trkpt>
      <trkpt lat="47.26642" lon="6.00176">
        <ele>358.5</ele>
        <time>2015-07-30T15:29:53Z</time>
      </trkpt>
      <trkpt lat="47.26647" lon="6.00172">
        <ele>359.2</ele>
        <time>2015-07-30T15:29:57Z</time>
      </trkpt>
      <trkpt lat="47.26667" lon="6.0015">
        <ele>361.6</ele>
        <time>2015-07-30T15:30:16Z</time>
      </trkpt>
      <trkpt lat="47.26685" lon="6.00128">
        <ele>362.9</ele>
        <time>2015-07-30T15:30:33Z</time>
      </trkpt>
      <trkpt lat="47.26695" lon="6.00115">
        <ele>363.8</ele>
        <time>2015-07-30T15:30:41Z</time>
      </trkpt>
      <trkpt lat="47.26699" lon="6.00111">
        <ele>364.2</ele>
        <time>2015-07-30T15:30:52Z</time>
      </trkpt>
      <trkpt lat="47.26702" lon="6.00106">
        <ele>364.5</ele>
        <time>2015-07-30T15:30:58Z</time>
      </trkpt>
      <trkpt lat="47.26704" lon="6.00098">
        <ele>365</ele>
        <time>2015-07-30T15:31:02Z</time>
      </trkpt>
      <trkpt lat="47.26707" lon="6.0009">
        <ele>365.6</ele>
        <time>2015-07-30T15:31:06Z</time>
      </trkpt>
      <trkpt lat="47.26711" lon="6.00086">
        <ele>366</ele>
        <time>2015-07-30T15:31:10Z</time>
      </trkpt>
      <trkpt lat="47.26715" lon="6.00081">
        <ele>366.4</ele>
        <time>2015-07-30T15:31:14Z</time>
      </trkpt>
      <trkpt lat="47.26719" lon="6.00074">
        <ele>366.7</ele>
        <time>2015-07-30T15:31:18Z</time>
      </trkpt>
      <trkpt lat="47.26722" lon="6.00067">
        <ele>366.9</ele>
        <time>2015-07-30T15:31:22Z</time>
      </trkpt>
      <trkpt lat="47.26727" lon="6.00062">
        <ele>367.2</ele>
        <time>2015-07-30T15:31:26Z</time>
      </trkpt>
      <trkpt lat="47.26731" lon="6.00056">
        <ele>367.5</ele>
        <time>2015-07-30T15:31:30Z</time>
      </trkpt>
      <trkpt lat="47.26734" lon="6.00049">
        <ele>367.7</ele>
        <time>2015-07-30T15:31:34Z</time>
      </trkpt>
      <trkpt lat="47.26737" lon="6.00042">
        <ele>367.9</ele>
        <time>2015-07-30T15:31:38Z</time>
      </trkpt>
      <trkpt lat="47.26741" lon="6.00034">
        <ele>368.2</ele>
        <time>2015-07-30T15:31:42Z</time>
      </trkpt>
      <trkpt lat="47.26744" lon="6.00027">
        <ele>368.4</ele>
        <time>2015-07-30T15:31:46Z</time>
      </trkpt>
      <trkpt lat="47.26745" lon="6.00019">
        <ele>368.6</ele>
        <time>2015-07-30T15:31:50Z</time>
      </trkpt>
      <trkpt lat="47.26747" lon="6.00011">
        <ele>368.8</ele>
        <time>2015-07-30T15:31:54Z</time>
      </trkpt>
      <trkpt lat="47.2675" lon="6.00003">
        <ele>369</ele>
        <time>2015-07-30T15:31:58Z</time>
      </trkpt>
      <trkpt lat="47.26751" lon="5.99995">
        <ele>369</ele>
        <time>2015-07-30T15:32:02Z</time>
      </trkpt>
      <trkpt lat="47.26753" lon="5.99988">
        <ele>369</ele>
        <time>2015-07-30T15:32:06Z</time>
      </trkpt>
      <trkpt lat="47.26756" lon="5.99979">
        <ele>369</ele>
        <time>2015-07-30T15:32:10Z</time>
      </trkpt>
      <trkpt lat="47.26762" lon="5.99956">
        <ele>369</ele>
        <time>2015-07-30T15:32:22Z</time>
      </trkpt>
      <trkpt lat="47.26769" lon="5.99935">
        <ele>368.9</ele>
        <time>2015-07-30T15:32:33Z</time>
      </trkpt>
      <trkpt lat="47.26773" lon="5.99921">
        <ele>368.8</ele>
        <time>2015-07-30T15:32:40Z</time>
      </trkpt>
      <trkpt lat="47.26779" lon="5.99892">
        <ele>368.2</ele>
        <time>2015-07-30T15:32:53Z</time>
      </trkpt>
      <trkpt lat="47.26787" lon="5.99867">
        <ele>367.6</ele>
        <time>2015-07-30T15:33:04Z</time>
      </trkpt>
      <trkpt lat="47.26809" lon="5.99844">
        <ele>367.2</ele>
        <time>2015-07-30T15:33:24Z</time>
      </trkpt>
      <trkpt lat="47.26818" lon="5.99839">
        <ele>367.1</ele>
        <time>2015-07-30T15:33:31Z</time>
      </trkpt>
      <trkpt lat="47.26823" lon="5.99837">
        <ele>367</ele>
        <time>2015-07-30T15:33:35Z</time>
      </trkpt>
      <trkpt lat="47.26839" lon="5.99825">
        <ele>366</ele>
        <time>2015-07-30T15:33:48Z</time>
      </trkpt>
      <trkpt lat="47.26845" lon="5.99819">
        <ele>365.1</ele>
        <time>2015-07-30T15:33:53Z</time>
      </trkpt>
      <trkpt lat="47.26864" lon="5.99796">
        <ele>361.6</ele>
        <time>2015-07-30T15:34:09Z</time>
      </trkpt>
      <trkpt lat="47.26883" lon="5.99779">
        <ele>358.3</ele>
        <time>2015-07-30T15:34:26Z</time>
      </trkpt>
      <trkpt lat="47.26898" lon="5.99778">
        <ele>356.8</ele>
        <time>2015-07-30T15:34:35Z</time>
      </trkpt>
      <trkpt lat="47.26919" lon="5.99792">
        <ele>356.2</ele>
        <time>2015-07-30T15:34:53Z</time>
      </trkpt>
      <trkpt lat="47.26949" lon="5.99792">
        <ele>352.1</ele>
        <time>2015-07-30T15:35:16Z</time>
      </trkpt>
      <trkpt lat="47.26953" lon="5.99792">
        <ele>351.5</ele>
        <time>2015-07-30T15:35:19Z</time>
      </trkpt>
      <trkpt lat="47.26975" lon="5.9979">
        <ele>348.3</ele>
        <time>2015-07-30T15:35:33Z</time>
      </trkpt>
      <trkpt lat="47.26984" lon="5.9979">
        <ele>347.1</ele>
        <time>2015-07-30T15:35:40Z</time>
      </trkpt>
      <trkpt lat="47.27" lon="5.99792">
        <ele>345</ele>
        <time>2015-07-30T15:35:52Z</time>
      </trkpt>
      <trkpt lat="47.27062" lon="5.99796">
        <ele>336.2</ele>
        <time>2015-07-30T15:36:32Z</time>
      </trkpt>
      <trkpt lat="47.27091" lon="5.99775">
        <ele>332.4</ele>
        <time>2015-07-30T15:36:53Z</time>
      </trkpt>
      <trkpt lat="47.27102" lon="5.99764">
        <ele>331.5</ele>
        <time>2015-07-30T15:37:01Z</time>
      </trkpt>
      <trkpt lat="47.27141" lon="5.99725">
        <ele>328</ele>
        <time>2015-07-30T15:37:33Z</time>
      </trkpt>
      <trkpt lat="47.27144" lon="5.99714">
        <ele>327.7</ele>
        <time>2015-07-30T15:37:40Z</time>
      </trkpt>
      <trkpt lat="47.27148" lon="5.99689">
        <ele>327.2</ele>
        <time>2015-07-30T15:37:53Z</time>
      </trkpt>
      <trkpt lat="47.27179" lon="5.99673">
        <ele>325.1</ele>
        <time>2015-07-30T15:38:16Z</time>
      </trkpt>
      <trkpt lat="47.27193" lon="5.99672">
        <ele>325</ele>
        <time>2015-07-30T15:38:26Z</time>
      </trkpt>
      <trkpt lat="47.27205" lon="5.99669">
        <ele>325</ele>
        <time>2015-07-30T15:38:35Z</time>
      </trkpt>
      <trkpt lat="47.27211" lon="5.99666">
        <ele>325</ele>
        <time>2015-07-30T15:38:40Z</time>
      </trkpt>
      <trkpt lat="47.27227" lon="5.9966">
        <ele>325.2</ele>
        <time>2015-07-30T15:38:53Z</time>
      </trkpt>
      <trkpt lat="47.27287" lon="5.9963">
        <ele>325.7</ele>
        <time>2015-07-30T15:39:33Z</time>
      </trkpt>
      <trkpt lat="47.27316" lon="5.99609">
        <ele>325.4</ele>
        <time>2015-07-30T15:39:53Z</time>
      </trkpt>
      <trkpt lat="47.27371" lon="5.99573">
        <ele>323.5</ele>
        <time>2015-07-30T15:40:33Z</time>
      </trkpt>
      <trkpt lat="47.27397" lon="5.99558">
        <ele>322</ele>
        <time>2015-07-30T15:40:52Z</time>
      </trkpt>
      <trkpt lat="47.27443" lon="5.99498">
        <ele>317.5</ele>
        <time>2015-07-30T15:41:35Z</time>
      </trkpt>
      <trkpt lat="47.27451" lon="5.99492">
        <ele>316.8</ele>
        <time>2015-07-30T15:41:40Z</time>
      </trkpt>
      <trkpt lat="47.27462" lon="5.9947">
        <ele>314.6</ele>
        <time>2015-07-30T15:41:53Z</time>
      </trkpt>
      <trkpt lat="47.27456" lon="5.99398">
        <ele>308.5</ele>
        <time>2015-07-30T15:42:33Z</time>
      </trkpt>
      <trkpt lat="47.27454" lon="5.99392">
        <ele>308.2</ele>
        <time>2015-07-30T15:42:37Z</time>
      </trkpt>
      <trkpt lat="47.27451" lon="5.99386">
        <ele>307.8</ele>
        <time>2015-07-30T15:42:40Z</time>
      </trkpt>
      <trkpt lat="47.27448" lon="5.99356">
        <ele>306.2</ele>
        <time>2015-07-30T15:42:52Z</time>
      </trkpt>
      <trkpt lat="47.27447" lon="5.99346">
        <ele>305.7</ele>
        <time>2015-07-30T15:42:57Z</time>
      </trkpt>
      <trkpt lat="47.27446" lon="5.99337">
        <ele>305.2</ele>
        <time>2015-07-30T15:43:01Z</time>
      </trkpt>
      <trkpt lat="47.27447" lon="5.99328">
        <ele>305.1</ele>
        <time>2015-07-30T15:43:07Z</time>
      </trkpt>
      <trkpt lat="47.27446" lon="5.99321">
        <ele>305</ele>
        <time>2015-07-30T15:43:11Z</time>
      </trkpt>
      <trkpt lat="47.27447" lon="5.99312">
        <ele>305.1</ele>
        <time>2015-07-30T15:43:16Z</time>
      </trkpt>
      <trkpt lat="47.27448" lon="5.99305">
        <ele>305.1</ele>
        <time>2015-07-30T15:43:20Z</time>
      </trkpt>
      <trkpt lat="47.27449" lon="5.99297">
        <ele>305.1</ele>
        <time>2015-07-30T15:43:24Z</time>
      </trkpt>
      <trkpt lat="47.27449" lon="5.99287">
        <ele>305.1</ele>
        <time>2015-07-30T15:43:28Z</time>
      </trkpt>
      <trkpt lat="47.27449" lon="5.99279">
        <ele>305.1</ele>
        <time>2015-07-30T15:43:32Z</time>
      </trkpt>
      <trkpt lat="47.2745" lon="5.99272">
        <ele>305.1</ele>
        <time>2015-07-30T15:43:36Z</time>
      </trkpt>
      <trkpt lat="47.27449" lon="5.99263">
        <ele>305</ele>
        <time>2015-07-30T15:43:40Z</time>
      </trkpt>
      <trkpt lat="47.2745" lon="5.99255">
        <ele>305</ele>
        <time>2015-07-30T15:43:44Z</time>
      </trkpt>
      <trkpt lat="47.2745" lon="5.99245">
        <ele>305</ele>
        <time>2015-07-30T15:43:48Z</time>
      </trkpt>
      <trkpt lat="47.27449" lon="5.99237">
        <ele>305.1</ele>
        <time>2015-07-30T15:43:52Z</time>
      </trkpt>
      <trkpt lat="47.27448" lon="5.99228">
        <ele>305.1</ele>
        <time>2015-07-30T15:43:56Z</time>
      </trkpt>
      <trkpt lat="47.27446" lon="5.99221">
        <ele>305.1</ele>
        <time>2015-07-30T15:44:00Z</time>
      </trkpt>
      <trkpt lat="47.27441" lon="5.99214">
        <ele>305.1</ele>
        <time>2015-07-30T15:44:04Z</time>
      </trkpt>
      <trkpt lat="47.27438" lon="5.99207">
        <ele>305</ele>
        <time>2015-07-30T15:44:08Z</time>
      </trkpt>
      <trkpt lat="47.27434" lon="5.99201">
        <ele>304.9</ele>
        <time>2015-07-30T15:44:12Z</time>
      </trkpt>
      <trkpt lat="47.27431" lon="5.99194">
        <ele>304.8</ele>
        <time>2015-07-30T15:44:16Z</time>
      </trkpt>
      <trkpt lat="47.27428" lon="5.99186">
        <ele>304.6</ele>
        <time>2015-07-30T15:44:20Z</time>
      </trkpt>
      <trkpt lat="47.27424" lon="5.99178">
        <ele>304.4</ele>
        <time>2015-07-30T15:44:24Z</time>
      </trkpt>
      <trkpt lat="47.27421" lon="5.99171">
        <ele>304.2</ele>
        <time>2015-07-30T15:44:28Z</time>
      </trkpt>
      <trkpt lat="47.27418" lon="5.99165">
        <ele>304.1</ele>
        <time>2015-07-30T15:44:32Z</time>
      </trkpt>
      <trkpt lat="47.27415" lon="5.99158">
        <ele>304.3</ele>
        <time>2015-07-30T15:44:36Z</time>
      </trkpt>
      <trkpt lat="47.27412" lon="5.99152">
        <ele>304.5</ele>
        <time>2015-07-30T15:44:40Z</time>
      </trkpt>
      <trkpt lat="47.27409" lon="5.99146">
        <ele>304.7</ele>
        <time>2015-07-30T15:44:44Z</time>
      </trkpt>
      <trkpt lat="47.27406" lon="5.99139">
        <ele>304.9</ele>
        <time>2015-07-30T15:44:48Z</time>
      </trkpt>
      <trkpt lat="47.27403" lon="5.99131">
        <ele>305.1</ele>
        <time>2015-07-30T15:44:52Z</time>
      </trkpt>
      <trkpt lat="47.274" lon="5.99124">
        <ele>305.2</ele>
        <time>2015-07-30T15:44:55Z</time>
      </trkpt>
      <trkpt lat="47.27398" lon="5.99119">
        <ele>305.3</ele>
        <time>2015-07-30T15:44:58Z</time>
      </trkpt>
      <trkpt lat="47.27393" lon="5.99113">
        <ele>305.4</ele>
        <time>2015-07-30T15:45:02Z</time>
      </trkpt>
      <trkpt lat="47.27383" lon="5.99095">
        <ele>305.5</ele>
        <time>2015-07-30T15:45:12Z</time>
      </trkpt>
      <trkpt lat="47.27386" lon="5.99065">
        <ele>307.1</ele>
        <time>2015-07-30T15:45:32Z</time>
      </trkpt>
      <trkpt lat="47.27389" lon="5.99057">
        <ele>307.7</ele>
        <time>2015-07-30T15:45:36Z</time>
      </trkpt>
      <trkpt lat="47.27401" lon="5.99028">
        <ele>310.2</ele>
        <time>2015-07-30T15:45:53Z</time>
      </trkpt>
      <trkpt lat="47.27437" lon="5.99002">
        <ele>313.6</ele>
        <time>2015-07-30T15:46:30Z</time>
      </trkpt>
      <trkpt lat="47.27444" lon="5.99004">
        <ele>313.7</ele>
        <time>2015-07-30T15:46:35Z</time>
      </trkpt>
      <trkpt lat="47.27452" lon="5.99001">
        <ele>314.2</ele>
        <time>2015-07-30T15:46:40Z</time>
      </trkpt>
      <trkpt lat="47.27457" lon="5.98998">
        <ele>314.5</ele>
        <time>2015-07-30T15:46:43Z</time>
      </trkpt>
      <trkpt lat="47.27481" lon="5.98978">
        <ele>316.3</ele>
        <time>2015-07-30T15:47:02Z</time>
      </trkpt>
      <trkpt lat="47.2752" lon="5.98959">
        <ele>318.2</ele>
        <time>2015-07-30T15:47:33Z</time>
      </trkpt>
      <trkpt lat="47.27525" lon="5.98962">
        <ele>318.1</ele>
        <time>2015-07-30T15:47:36Z</time>
      </trkpt>
      <trkpt lat="47.27532" lon="5.98966">
        <ele>318</ele>
        <time>2015-07-30T15:47:40Z</time>
      </trkpt>
      <trkpt lat="47.27549" lon="5.98977">
        <ele>317.7</ele>
        <time>2015-07-30T15:47:52Z</time>
      </trkpt>
      <trkpt lat="47.27593" lon="5.99028">
        <ele>316.1</ele>
        <time>2015-07-30T15:48:33Z</time>
      </trkpt>
      <trkpt lat="47.27597" lon="5.99034">
        <ele>316.1</ele>
        <time>2015-07-30T15:48:37Z</time>
      </trkpt>
      <trkpt lat="47.276" lon="5.99041">
        <ele>316</ele>
        <time>2015-07-30T15:48:41Z</time>
      </trkpt>
      <trkpt lat="47.27611" lon="5.99063">
        <ele>316.1</ele>
        <time>2015-07-30T15:48:53Z</time>
      </trkpt>
      <trkpt lat="47.27616" lon="5.99072">
        <ele>316.4</ele>
        <time>2015-07-30T15:48:59Z</time>
      </trkpt>
      <trkpt lat="47.27618" lon="5.99078">
        <ele>316.4</ele>
        <time>2015-07-30T15:49:02Z</time>
      </trkpt>
      <trkpt lat="47.2763" lon="5.99114">
        <ele>318.2</ele>
        <time>2015-07-30T15:49:22Z</time>
      </trkpt>
      <trkpt lat="47.27636" lon="5.99134">
        <ele>319.1</ele>
        <time>2015-07-30T15:49:33Z</time>
      </trkpt>
      <trkpt lat="47.27641" lon="5.99134">
        <ele>319.5</ele>
        <time>2015-07-30T15:49:36Z</time>
      </trkpt>
      <trkpt lat="47.27659" lon="5.99147">
        <ele>321.2</ele>
        <time>2015-07-30T15:49:53Z</time>
      </trkpt>
      <trkpt lat="47.27661" lon="5.9916">
        <ele>321.5</ele>
        <time>2015-07-30T15:50:00Z</time>
      </trkpt>
      <trkpt lat="47.27671" lon="5.99176">
        <ele>322.2</ele>
        <time>2015-07-30T15:50:10Z</time>
      </trkpt>
      <trkpt lat="47.27686" lon="5.99199">
        <ele>322.9</ele>
        <time>2015-07-30T15:50:24Z</time>
      </trkpt>
      <trkpt lat="47.27697" lon="5.99214">
        <ele>323.5</ele>
        <time>2015-07-30T15:50:33Z</time>
      </trkpt>
      <trkpt lat="47.27701" lon="5.99215">
        <ele>323.7</ele>
        <time>2015-07-30T15:50:36Z</time>
      </trkpt>
      <trkpt lat="47.27708" lon="5.99216">
        <ele>324.1</ele>
        <time>2015-07-30T15:50:40Z</time>
      </trkpt>
      <trkpt lat="47.27726" lon="5.99215">
        <ele>325</ele>
        <time>2015-07-30T15:50:52Z</time>
      </trkpt>
      <trkpt lat="47.27741" lon="5.99233">
        <ele>326.1</ele>
        <time>2015-07-30T15:51:07Z</time>
      </trkpt>
      <trkpt lat="47.27752" lon="5.99256">
        <ele>327</ele>
        <time>2015-07-30T15:51:18Z</time>
      </trkpt>
      <trkpt lat="47.27754" lon="5.99283">
        <ele>326.7</ele>
        <time>2015-07-30T15:51:33Z</time>
      </trkpt>
      <trkpt lat="47.27752" lon="5.99293">
        <ele>326.5</ele>
        <time>2015-07-30T15:51:37Z</time>
      </trkpt>
      <trkpt lat="47.27747" lon="5.99327">
        <ele>325.8</ele>
        <time>2015-07-30T15:51:53Z</time>
      </trkpt>
      <trkpt lat="47.27766" lon="5.99357">
        <ele>326.1</ele>
        <time>2015-07-30T15:52:13Z</time>
      </trkpt>
      <trkpt lat="47.27789" lon="5.9938">
        <ele>326.4</ele>
        <time>2015-07-30T15:52:33Z</time>
      </trkpt>
      <trkpt lat="47.27794" lon="5.99381">
        <ele>326.5</ele>
        <time>2015-07-30T15:52:35Z</time>
      </trkpt>
      <trkpt lat="47.27805" lon="5.99379">
        <ele>326.8</ele>
        <time>2015-07-30T15:52:41Z</time>
      </trkpt>
      <trkpt lat="47.27823" lon="5.99372">
        <ele>327.3</ele>
        <time>2015-07-30T15:52:53Z</time>
      </trkpt>
      <trkpt lat="47.27837" lon="5.99363">
        <ele>327.7</ele>
        <time>2015-07-30T15:53:06Z</time>
      </trkpt>
      <trkpt lat="47.27854" lon="5.99355">
        <ele>328.2</ele>
        <time>2015-07-30T15:53:16Z</time>
      </trkpt>
      <trkpt lat="47.27877" lon="5.99341">
        <ele>329</ele>
        <time>2015-07-30T15:53:34Z</time>
      </trkpt>
      <trkpt lat="47.27905" lon="5.99329">
        <ele>329.8</ele>
        <time>2015-07-30T15:53:52Z</time>
      </trkpt>
      <trkpt lat="47.27914" lon="5.99325">
        <ele>330</ele>
        <time>2015-07-30T15:53:58Z</time>
      </trkpt>
      <trkpt lat="47.2794" lon="5.99311">
        <ele>331.9</ele>
        <time>2015-07-30T15:54:16Z</time>
      </trkpt>
      <trkpt lat="47.2794" lon="5.99311">
        <ele>331.9</ele>
        <time>2015-07-30T15:54:16Z</time>
      </trkpt>
      <trkpt lat="47.27945" lon="5.99307">
        <ele>332.2</ele>
        <time>2015-07-30T15:54:20Z</time>
      </trkpt>
      <trkpt lat="47.27967" lon="5.99296">
        <ele>333.8</ele>
        <time>2015-07-30T15:54:36Z</time>
      </trkpt>
      <trkpt lat="47.27989" lon="5.99285">
        <ele>335.3</ele>
        <time>2015-07-30T15:54:53Z</time>
      </trkpt>
      <trkpt lat="47.27996" lon="5.99282">
        <ele>335.7</ele>
        <time>2015-07-30T15:54:58Z</time>
      </trkpt>
      <trkpt lat="47.28024" lon="5.99264">
        <ele>337.2</ele>
        <time>2015-07-30T15:55:18Z</time>
      </trkpt>
      <trkpt lat="47.28047" lon="5.99253">
        <ele>338.3</ele>
        <time>2015-07-30T15:55:34Z</time>
      </trkpt>
      <trkpt lat="47.28073" lon="5.99239">
        <ele>339.6</ele>
        <time>2015-07-30T15:55:52Z</time>
      </trkpt>
      <trkpt lat="47.2808" lon="5.99235">
        <ele>340</ele>
        <time>2015-07-30T15:55:58Z</time>
      </trkpt>
      <trkpt lat="47.28106" lon="5.99227">
        <ele>341.4</ele>
        <time>2015-07-30T15:56:16Z</time>
      </trkpt>
      <trkpt lat="47.28112" lon="5.99225">
        <ele>341.7</ele>
        <time>2015-07-30T15:56:20Z</time>
      </trkpt>
      <trkpt lat="47.28134" lon="5.99219">
        <ele>342.7</ele>
        <time>2015-07-30T15:56:34Z</time>
      </trkpt>
      <trkpt lat="47.2815" lon="5.99219">
        <ele>343.5</ele>
        <time>2015-07-30T15:56:45Z</time>
      </trkpt>
      <trkpt lat="47.28158" lon="5.99219">
        <ele>343.9</ele>
        <time>2015-07-30T15:56:51Z</time>
      </trkpt>
      <trkpt lat="47.282" lon="5.99227">
        <ele>344.4</ele>
        <time>2015-07-30T15:57:18Z</time>
      </trkpt>
      <trkpt lat="47.2822" lon="5.99235">
        <ele>344.3</ele>
        <time>2015-07-30T15:57:34Z</time>
      </trkpt>
      <trkpt lat="47.28225" lon="5.99238">
        <ele>344.3</ele>
        <time>2015-07-30T15:57:38Z</time>
      </trkpt>
      <trkpt lat="47.2823" lon="5.99239">
        <ele>344.3</ele>
        <time>2015-07-30T15:57:41Z</time>
      </trkpt>
      <trkpt lat="47.28248" lon="5.9925">
        <ele>344</ele>
        <time>2015-07-30T15:57:52Z</time>
      </trkpt>
      <trkpt lat="47.28299" lon="5.99266">
        <ele>343.2</ele>
        <time>2015-07-30T15:58:25Z</time>
      </trkpt>
      <trkpt lat="47.28305" lon="5.99268">
        <ele>343.1</ele>
        <time>2015-07-30T15:58:29Z</time>
      </trkpt>
      <trkpt lat="47.28315" lon="5.99269">
        <ele>342.9</ele>
        <time>2015-07-30T15:58:36Z</time>
      </trkpt>
      <trkpt lat="47.28339" lon="5.99274">
        <ele>342.5</ele>
        <time>2015-07-30T15:58:53Z</time>
      </trkpt>
      <trkpt lat="47.2839" lon="5.99271">
        <ele>340.6</ele>
        <time>2015-07-30T15:59:24Z</time>
      </trkpt>
      <trkpt lat="47.28402" lon="5.9927">
        <ele>340.2</ele>
        <time>2015-07-30T15:59:34Z</time>
      </trkpt>
      <trkpt lat="47.28407" lon="5.99264">
        <ele>339.8</ele>
        <time>2015-07-30T15:59:41Z</time>
      </trkpt>
      <trkpt lat="47.2842" lon="5.99268">
        <ele>339.7</ele>
        <time>2015-07-30T15:59:53Z</time>
      </trkpt>
      <trkpt lat="47.28471" lon="5.99276">
        <ele>340.8</ele>
        <time>2015-07-30T16:00:29Z</time>
      </trkpt>
      <trkpt lat="47.28484" lon="5.99278">
        <ele>341.1</ele>
        <time>2015-07-30T16:00:36Z</time>
      </trkpt>
      <trkpt lat="47.28505" lon="5.99278">
        <ele>341.4</ele>
        <time>2015-07-30T16:00:52Z</time>
      </trkpt>
      <trkpt lat="47.28566" lon="5.99281">
        <ele>341.7</ele>
        <time>2015-07-30T16:01:31Z</time>
      </trkpt>
      <trkpt lat="47.28573" lon="5.9928">
        <ele>341.7</ele>
        <time>2015-07-30T16:01:35Z</time>
      </trkpt>
      <trkpt lat="47.28579" lon="5.9928">
        <ele>341.7</ele>
        <time>2015-07-30T16:01:41Z</time>
      </trkpt>
      <trkpt lat="47.28597" lon="5.99279">
        <ele>341.6</ele>
        <time>2015-07-30T16:01:53Z</time>
      </trkpt>
      <trkpt lat="47.28647" lon="5.99275">
        <ele>341.4</ele>
        <time>2015-07-30T16:02:28Z</time>
      </trkpt>
      <trkpt lat="47.28659" lon="5.99276">
        <ele>341.3</ele>
        <time>2015-07-30T16:02:36Z</time>
      </trkpt>
      <trkpt lat="47.28664" lon="5.99276">
        <ele>341.3</ele>
        <time>2015-07-30T16:02:41Z</time>
      </trkpt>
      <trkpt lat="47.28679" lon="5.99278">
        <ele>341.6</ele>
        <time>2015-07-30T16:02:52Z</time>
      </trkpt>
      <trkpt lat="47.28693" lon="5.99281">
        <ele>342</ele>
        <time>2015-07-30T16:03:01Z</time>
      </trkpt>
      <trkpt lat="47.28742" lon="5.99293">
        <ele>343.3</ele>
        <time>2015-07-30T16:03:34Z</time>
      </trkpt>
      <trkpt lat="47.28769" lon="5.99279">
        <ele>343.9</ele>
        <time>2015-07-30T16:03:53Z</time>
      </trkpt>
      <trkpt lat="47.28806" lon="5.99291">
        <ele>345.2</ele>
        <time>2015-07-30T16:04:21Z</time>
      </trkpt>
      <trkpt lat="47.2883" lon="5.99292">
        <ele>345.9</ele>
        <time>2015-07-30T16:04:36Z</time>
      </trkpt>
      <trkpt lat="47.2884" lon="5.99292">
        <ele>346</ele>
        <time>2015-07-30T16:04:42Z</time>
      </trkpt>
      <trkpt lat="47.28898" lon="5.99302">
        <ele>346</ele>
        <time>2015-07-30T16:05:17Z</time>
      </trkpt>
      <trkpt lat="47.28902" lon="5.99302">
        <ele>345.9</ele>
        <time>2015-07-30T16:05:20Z</time>
      </trkpt>
      <trkpt lat="47.28921" lon="5.99298">
        <ele>345.7</ele>
        <time>2015-07-30T16:05:34Z</time>
      </trkpt>
      <trkpt lat="47.28931" lon="5.99298">
        <ele>345.6</ele>
        <time>2015-07-30T16:05:41Z</time>
      </trkpt>
      <trkpt lat="47.28946" lon="5.99298">
        <ele>345.5</ele>
        <time>2015-07-30T16:05:51Z</time>
      </trkpt>
      <trkpt lat="47.29013" lon="5.99298">
        <ele>345.1</ele>
        <time>2015-07-30T16:06:34Z</time>
      </trkpt>
      <trkpt lat="47.29042" lon="5.99301">
        <ele>345.2</ele>
        <time>2015-07-30T16:06:53Z</time>
      </trkpt>
      <trkpt lat="47.2909" lon="5.99299">
        <ele>345.9</ele>
        <time>2015-07-30T16:07:28Z</time>
      </trkpt>
      <trkpt lat="47.29102" lon="5.99301">
        <ele>346.8</ele>
        <time>2015-07-30T16:07:36Z</time>
      </trkpt>
      <trkpt lat="47.29128" lon="5.99299">
        <ele>348.8</ele>
        <time>2015-07-30T16:07:53Z</time>
      </trkpt>
      <trkpt lat="47.29184" lon="5.99299">
        <ele>352.8</ele>
        <time>2015-07-30T16:08:34Z</time>
      </trkpt>
      <trkpt lat="47.2919" lon="5.993">
        <ele>353.1</ele>
        <time>2015-07-30T16:08:38Z</time>
      </trkpt>
      <trkpt lat="47.29194" lon="5.99299">
        <ele>353.4</ele>
        <time>2015-07-30T16:08:41Z</time>
      </trkpt>
      <trkpt lat="47.2921" lon="5.99297">
        <ele>354.6</ele>
        <time>2015-07-30T16:08:53Z</time>
      </trkpt>
      <trkpt lat="47.29267" lon="5.99302">
        <ele>358.3</ele>
        <time>2015-07-30T16:09:34Z</time>
      </trkpt>
      <trkpt lat="47.29273" lon="5.99302">
        <ele>358.8</ele>
        <time>2015-07-30T16:09:38Z</time>
      </trkpt>
      <trkpt lat="47.29294" lon="5.99303">
        <ele>360.5</ele>
        <time>2015-07-30T16:09:53Z</time>
      </trkpt>
      <trkpt lat="47.29357" lon="5.99307">
        <ele>364.1</ele>
        <time>2015-07-30T16:10:34Z</time>
      </trkpt>
      <trkpt lat="47.29372" lon="5.99307">
        <ele>364.5</ele>
        <time>2015-07-30T16:10:44Z</time>
      </trkpt>
      <trkpt lat="47.2939" lon="5.99309">
        <ele>364.8</ele>
        <time>2015-07-30T16:10:54Z</time>
      </trkpt>
      <trkpt lat="47.29453" lon="5.99318">
        <ele>366.9</ele>
        <time>2015-07-30T16:11:36Z</time>
      </trkpt>
      <trkpt lat="47.29459" lon="5.9932">
        <ele>367.1</ele>
        <time>2015-07-30T16:11:41Z</time>
      </trkpt>
      <trkpt lat="47.29478" lon="5.99329">
        <ele>367.8</ele>
        <time>2015-07-30T16:11:52Z</time>
      </trkpt>
      <trkpt lat="47.29492" lon="5.99332">
        <ele>368.6</ele>
        <time>2015-07-30T16:12:03Z</time>
      </trkpt>
      <trkpt lat="47.2952" lon="5.99347">
        <ele>368.7</ele>
        <time>2015-07-30T16:12:23Z</time>
      </trkpt>
      <trkpt lat="47.29532" lon="5.99354">
        <ele>368.8</ele>
        <time>2015-07-30T16:12:34Z</time>
      </trkpt>
      <trkpt lat="47.29536" lon="5.99359">
        <ele>368.6</ele>
        <time>2015-07-30T16:12:38Z</time>
      </trkpt>
      <trkpt lat="47.29554" lon="5.99372">
        <ele>368.9</ele>
        <time>2015-07-30T16:12:53Z</time>
      </trkpt>
      <trkpt lat="47.29584" lon="5.99387">
        <ele>370.5</ele>
        <time>2015-07-30T16:13:13Z</time>
      </trkpt>
      <trkpt lat="47.29596" lon="5.99398">
        <ele>371.2</ele>
        <time>2015-07-30T16:13:23Z</time>
      </trkpt>
      <trkpt lat="47.29606" lon="5.99404">
        <ele>371.9</ele>
        <time>2015-07-30T16:13:29Z</time>
      </trkpt>
      <trkpt lat="47.29616" lon="5.99411">
        <ele>372.7</ele>
        <time>2015-07-30T16:13:36Z</time>
      </trkpt>
      <trkpt lat="47.29624" lon="5.99414">
        <ele>373.5</ele>
        <time>2015-07-30T16:13:41Z</time>
      </trkpt>
      <trkpt lat="47.29666" lon="5.99438">
        <ele>378.7</ele>
        <time>2015-07-30T16:14:13Z</time>
      </trkpt>
      <trkpt lat="47.29689" lon="5.99451">
        <ele>380.5</ele>
        <time>2015-07-30T16:14:34Z</time>
      </trkpt>
      <trkpt lat="47.29701" lon="5.99457">
        <ele>381.5</ele>
        <time>2015-07-30T16:14:42Z</time>
      </trkpt>
      <trkpt lat="47.29716" lon="5.99464">
        <ele>382.7</ele>
        <time>2015-07-30T16:14:52Z</time>
      </trkpt>
      <trkpt lat="47.29731" lon="5.99467">
        <ele>383.8</ele>
        <time>2015-07-30T16:15:01Z</time>
      </trkpt>
      <trkpt lat="47.29736" lon="5.99469">
        <ele>384.3</ele>
        <time>2015-07-30T16:15:04Z</time>
      </trkpt>
      <trkpt lat="47.29761" lon="5.99476">
        <ele>385.3</ele>
        <time>2015-07-30T16:15:22Z</time>
      </trkpt>
      <trkpt lat="47.29768" lon="5.9948">
        <ele>385.4</ele>
        <time>2015-07-30T16:15:27Z</time>
      </trkpt>
      <trkpt lat="47.2978" lon="5.99486">
        <ele>385.4</ele>
        <time>2015-07-30T16:15:36Z</time>
      </trkpt>
      <trkpt lat="47.29788" lon="5.99488">
        <ele>385.4</ele>
        <time>2015-07-30T16:15:42Z</time>
      </trkpt>
      <trkpt lat="47.29803" lon="5.99491">
        <ele>385.2</ele>
        <time>2015-07-30T16:15:52Z</time>
      </trkpt>
      <trkpt lat="47.29832" lon="5.99496">
        <ele>384.8</ele>
        <time>2015-07-30T16:16:14Z</time>
      </trkpt>
      <trkpt lat="47.29865" lon="5.9952">
        <ele>385.8</ele>
        <time>2015-07-30T16:16:34Z</time>
      </trkpt>
      <trkpt lat="47.2987" lon="5.99525">
        <ele>386.1</ele>
        <time>2015-07-30T16:16:38Z</time>
      </trkpt>
      <trkpt lat="47.29882" lon="5.99535">
        <ele>387</ele>
        <time>2015-07-30T16:16:49Z</time>
      </trkpt>
      <trkpt lat="47.29902" lon="5.99547">
        <ele>388.2</ele>
        <time>2015-07-30T16:17:01Z</time>
      </trkpt>
      <trkpt lat="47.2993" lon="5.99571">
        <ele>389.5</ele>
        <time>2015-07-30T16:17:23Z</time>
      </trkpt>
      <trkpt lat="47.29948" lon="5.99581">
        <ele>388.2</ele>
        <time>2015-07-30T16:17:35Z</time>
      </trkpt>
      <trkpt lat="47.29974" lon="5.99602">
        <ele>386.4</ele>
        <time>2015-07-30T16:17:53Z</time>
      </trkpt>
      <trkpt lat="47.29978" lon="5.99607">
        <ele>386.4</ele>
        <time>2015-07-30T16:17:57Z</time>
      </trkpt>
      <trkpt lat="47.30002" lon="5.99636">
        <ele>387.1</ele>
        <time>2015-07-30T16:18:18Z</time>
      </trkpt>
      <trkpt lat="47.30016" lon="5.99663">
        <ele>388.6</ele>
        <time>2015-07-30T16:18:34Z</time>
      </trkpt>
      <trkpt lat="47.30034" lon="5.99689">
        <ele>389.5</ele>
        <time>2015-07-30T16:18:52Z</time>
      </trkpt>
      <trkpt lat="47.30039" lon="5.997">
        <ele>390.3</ele>
        <time>2015-07-30T16:18:58Z</time>
      </trkpt>
      <trkpt lat="47.30057" lon="5.99737">
        <ele>393.2</ele>
        <time>2015-07-30T16:19:18Z</time>
      </trkpt>
      <trkpt lat="47.30072" lon="5.99762">
        <ele>394.3</ele>
        <time>2015-07-30T16:19:34Z</time>
      </trkpt>
      <trkpt lat="47.30091" lon="5.99775">
        <ele>392.4</ele>
        <time>2015-07-30T16:19:49Z</time>
      </trkpt>
      <trkpt lat="47.30096" lon="5.99779">
        <ele>391.6</ele>
        <time>2015-07-30T16:19:52Z</time>
      </trkpt>
      <trkpt lat="47.30127" lon="5.99816">
        <ele>390.2</ele>
        <time>2015-07-30T16:20:18Z</time>
      </trkpt>
      <trkpt lat="47.30145" lon="5.99829">
        <ele>390.3</ele>
        <time>2015-07-30T16:20:33Z</time>
      </trkpt>
      <trkpt lat="47.30151" lon="5.99833">
        <ele>390.4</ele>
        <time>2015-07-30T16:20:37Z</time>
      </trkpt>
      <trkpt lat="47.30155" lon="5.99838">
        <ele>390.9</ele>
        <time>2015-07-30T16:20:41Z</time>
      </trkpt>
      <trkpt lat="47.30167" lon="5.9985">
        <ele>391.9</ele>
        <time>2015-07-30T16:20:52Z</time>
      </trkpt>
      <trkpt lat="47.30217" lon="5.999">
        <ele>392.5</ele>
        <time>2015-07-30T16:21:32Z</time>
      </trkpt>
      <trkpt lat="47.3022" lon="5.99906">
        <ele>393.6</ele>
        <time>2015-07-30T16:21:36Z</time>
      </trkpt>
      <trkpt lat="47.30225" lon="5.99912">
        <ele>394.4</ele>
        <time>2015-07-30T16:21:41Z</time>
      </trkpt>
      <trkpt lat="47.30237" lon="5.99925">
        <ele>395.2</ele>
        <time>2015-07-30T16:21:51Z</time>
      </trkpt>
      <trkpt lat="47.30265" lon="5.9996">
        <ele>395.5</ele>
        <time>2015-07-30T16:22:16Z</time>
      </trkpt>
      <trkpt lat="47.3027" lon="5.99963">
        <ele>394.8</ele>
        <time>2015-07-30T16:22:19Z</time>
      </trkpt>
      <trkpt lat="47.30288" lon="5.99987">
        <ele>395.9</ele>
        <time>2015-07-30T16:22:34Z</time>
      </trkpt>
      <trkpt lat="47.30309" lon="6.00013">
        <ele>396.2</ele>
        <time>2015-07-30T16:22:52Z</time>
      </trkpt>
      <trkpt lat="47.30358" lon="6.0007">
        <ele>392.3</ele>
        <time>2015-07-30T16:23:34Z</time>
      </trkpt>
      <trkpt lat="47.30362" lon="6.00073">
        <ele>391.5</ele>
        <time>2015-07-30T16:23:37Z</time>
      </trkpt>
      <trkpt lat="47.30368" lon="6.00078">
        <ele>390.6</ele>
        <time>2015-07-30T16:23:41Z</time>
      </trkpt>
      <trkpt lat="47.30385" lon="6.00086">
        <ele>386.9</ele>
        <time>2015-07-30T16:23:52Z</time>
      </trkpt>
      <trkpt lat="47.30445" lon="6.00113">
        <ele>375</ele>
        <time>2015-07-30T16:24:30Z</time>
      </trkpt>
      <trkpt lat="47.30453" lon="6.00116">
        <ele>373</ele>
        <time>2015-07-30T16:24:36Z</time>
      </trkpt>
      <trkpt lat="47.30468" lon="6.00119">
        <ele>368.7</ele>
        <time>2015-07-30T16:24:52Z</time>
      </trkpt>
      <trkpt lat="47.30524" lon="6.00139">
        <ele>358.3</ele>
        <time>2015-07-30T16:25:34Z</time>
      </trkpt>
      <trkpt lat="47.30553" lon="6.00159">
        <ele>356</ele>
        <time>2015-07-30T16:25:52Z</time>
      </trkpt>
      <trkpt lat="47.30616" lon="6.00144">
        <ele>345.3</ele>
        <time>2015-07-30T16:26:34Z</time>
      </trkpt>
      <trkpt lat="47.30621" lon="6.00141">
        <ele>344.7</ele>
        <time>2015-07-30T16:26:37Z</time>
      </trkpt>
      <trkpt lat="47.30627" lon="6.00136">
        <ele>343.7</ele>
        <time>2015-07-30T16:26:41Z</time>
      </trkpt>
      <trkpt lat="47.30639" lon="6.00136">
        <ele>343</ele>
        <time>2015-07-30T16:26:48Z</time>
      </trkpt>
      <trkpt lat="47.30705" lon="6.00099">
        <ele>336.4</ele>
        <time>2015-07-30T16:27:32Z</time>
      </trkpt>
      <trkpt lat="47.30711" lon="6.00095">
        <ele>335.9</ele>
        <time>2015-07-30T16:27:36Z</time>
      </trkpt>
      <trkpt lat="47.30718" lon="6.00092">
        <ele>335.4</ele>
        <time>2015-07-30T16:27:41Z</time>
      </trkpt>
      <trkpt lat="47.30731" lon="6.0009">
        <ele>335</ele>
        <time>2015-07-30T16:27:50Z</time>
      </trkpt>
      <trkpt lat="47.30782" lon="6.00061">
        <ele>331.2</ele>
        <time>2015-07-30T16:28:25Z</time>
      </trkpt>
      <trkpt lat="47.30788" lon="6.00057">
        <ele>330.7</ele>
        <time>2015-07-30T16:28:30Z</time>
      </trkpt>
      <trkpt lat="47.30795" lon="6.00054">
        <ele>330.3</ele>
        <time>2015-07-30T16:28:36Z</time>
      </trkpt>
      <trkpt lat="47.3081" lon="6.0005">
        <ele>329.9</ele>
        <time>2015-07-30T16:28:49Z</time>
      </trkpt>
      <trkpt lat="47.30815" lon="6.00045">
        <ele>329.3</ele>
        <time>2015-07-30T16:28:52Z</time>
      </trkpt>
      <trkpt lat="47.30869" lon="6.0001">
        <ele>325.6</ele>
        <time>2015-07-30T16:29:34Z</time>
      </trkpt>
      <trkpt lat="47.30873" lon="6.00007">
        <ele>325.3</ele>
        <time>2015-07-30T16:29:37Z</time>
      </trkpt>
      <trkpt lat="47.30879" lon="6.00002">
        <ele>324.8</ele>
        <time>2015-07-30T16:29:41Z</time>
      </trkpt>
      <trkpt lat="47.30892" lon="5.99988">
        <ele>323.3</ele>
        <time>2015-07-30T16:29:52Z</time>
      </trkpt>
      <trkpt lat="47.30948" lon="5.99961">
        <ele>320.9</ele>
        <time>2015-07-30T16:30:32Z</time>
      </trkpt>
      <trkpt lat="47.30953" lon="5.9996">
        <ele>320.9</ele>
        <time>2015-07-30T16:30:36Z</time>
      </trkpt>
      <trkpt lat="47.30958" lon="5.99958">
        <ele>320.7</ele>
        <time>2015-07-30T16:30:40Z</time>
      </trkpt>
      <trkpt lat="47.30971" lon="5.99956">
        <ele>320.7</ele>
        <time>2015-07-30T16:30:50Z</time>
      </trkpt>
      <trkpt lat="47.31044" lon="5.99968">
        <ele>319.5</ele>
        <time>2015-07-30T16:31:34Z</time>
      </trkpt>
      <trkpt lat="47.31049" lon="5.99967">
        <ele>319</ele>
        <time>2015-07-30T16:31:37Z</time>
      </trkpt>
      <trkpt lat="47.31054" lon="5.99968">
        <ele>318.7</ele>
        <time>2015-07-30T16:31:41Z</time>
      </trkpt>
      <trkpt lat="47.31068" lon="5.99967">
        <ele>317.6</ele>
        <time>2015-07-30T16:31:52Z</time>
      </trkpt>
      <trkpt lat="47.31126" lon="5.99958">
        <ele>313.2</ele>
        <time>2015-07-30T16:32:30Z</time>
      </trkpt>
      <trkpt lat="47.31133" lon="5.99956">
        <ele>312.5</ele>
        <time>2015-07-30T16:32:36Z</time>
      </trkpt>
      <trkpt lat="47.3114" lon="5.99955">
        <ele>312.1</ele>
        <time>2015-07-30T16:32:41Z</time>
      </trkpt>
      <trkpt lat="47.31155" lon="5.99952">
        <ele>310.9</ele>
        <time>2015-07-30T16:32:52Z</time>
      </trkpt>
      <trkpt lat="47.31214" lon="5.99964">
        <ele>308.8</ele>
        <time>2015-07-30T16:33:34Z</time>
      </trkpt>
      <trkpt lat="47.3122" lon="5.99964">
        <ele>308.5</ele>
        <time>2015-07-30T16:33:39Z</time>
      </trkpt>
      <trkpt lat="47.31295" lon="5.99981">
        <ele>303.6</ele>
        <time>2015-07-30T16:34:31Z</time>
      </trkpt>
      <trkpt lat="47.31303" lon="5.99982">
        <ele>302.8</ele>
        <time>2015-07-30T16:34:36Z</time>
      </trkpt>
      <trkpt lat="47.31311" lon="5.99984">
        <ele>302</ele>
        <time>2015-07-30T16:34:41Z</time>
      </trkpt>
      <trkpt lat="47.31328" lon="5.99989">
        <ele>300.6</ele>
        <time>2015-07-30T16:34:52Z</time>
      </trkpt>
      <trkpt lat="47.31343" lon="5.99994">
        <ele>299.6</ele>
        <time>2015-07-30T16:35:03Z</time>
      </trkpt>
      <trkpt lat="47.31358" lon="6.00009">
        <ele>300</ele>
        <time>2015-07-30T16:35:17Z</time>
      </trkpt>
      <trkpt lat="47.31368" lon="6.00013">
        <ele>299.5</ele>
        <time>2015-07-30T16:35:23Z</time>
      </trkpt>
      <trkpt lat="47.31384" lon="6.00019">
        <ele>298.7</ele>
        <time>2015-07-30T16:35:34Z</time>
      </trkpt>
      <trkpt lat="47.31388" lon="6.00021">
        <ele>298.5</ele>
        <time>2015-07-30T16:35:37Z</time>
      </trkpt>
      <trkpt lat="47.31393" lon="6.00024">
        <ele>298.3</ele>
        <time>2015-07-30T16:35:41Z</time>
      </trkpt>
      <trkpt lat="47.31408" lon="6.00028">
        <ele>297.2</ele>
        <time>2015-07-30T16:35:52Z</time>
      </trkpt>
      <trkpt lat="47.31424" lon="6.00031">
        <ele>295.7</ele>
        <time>2015-07-30T16:36:02Z</time>
      </trkpt>
      <trkpt lat="47.31466" lon="6.00043">
        <ele>291.4</ele>
        <time>2015-07-30T16:36:26Z</time>
      </trkpt>
      <trkpt lat="47.31471" lon="6.00044">
        <ele>290.8</ele>
        <time>2015-07-30T16:36:29Z</time>
      </trkpt>
      <trkpt lat="47.3148" lon="6.00051">
        <ele>290.2</ele>
        <time>2015-07-30T16:36:36Z</time>
      </trkpt>
      <trkpt lat="47.31486" lon="6.00058">
        <ele>290</ele>
        <time>2015-07-30T16:36:41Z</time>
      </trkpt>
      <trkpt lat="47.31494" lon="6.00065">
        <ele>289.5</ele>
        <time>2015-07-30T16:36:51Z</time>
      </trkpt>
      <trkpt lat="47.31508" lon="6.00067">
        <ele>287.9</ele>
        <time>2015-07-30T16:36:59Z</time>
      </trkpt>
      <trkpt lat="47.31512" lon="6.00068">
        <ele>287.6</ele>
        <time>2015-07-30T16:37:02Z</time>
      </trkpt>
      <trkpt lat="47.31541" lon="6.00076">
        <ele>285</ele>
        <time>2015-07-30T16:37:22Z</time>
      </trkpt>
      <trkpt lat="47.3156" lon="6.00084">
        <ele>283.6</ele>
        <time>2015-07-30T16:37:34Z</time>
      </trkpt>
      <trkpt lat="47.31566" lon="6.00093">
        <ele>283.3</ele>
        <time>2015-07-30T16:37:41Z</time>
      </trkpt>
      <trkpt lat="47.31608" lon="6.00109">
        <ele>280</ele>
        <time>2015-07-30T16:38:12Z</time>
      </trkpt>
      <trkpt lat="47.31644" lon="6.00119">
        <ele>277.3</ele>
        <time>2015-07-30T16:38:33Z</time>
      </trkpt>
      <trkpt lat="47.31649" lon="6.0012">
        <ele>276.9</ele>
        <time>2015-07-30T16:38:36Z</time>
      </trkpt>
      <trkpt lat="47.31655" lon="6.00122">
        <ele>276.4</ele>
        <time>2015-07-30T16:38:41Z</time>
      </trkpt>
      <trkpt lat="47.31662" lon="6.0012">
        <ele>275.8</ele>
        <time>2015-07-30T16:38:48Z</time>
      </trkpt>
      <trkpt lat="47.31684" lon="6.00123">
        <ele>274.7</ele>
        <time>2015-07-30T16:39:01Z</time>
      </trkpt>
      <trkpt lat="47.31714" lon="6.00121">
        <ele>273.4</ele>
        <time>2015-07-30T16:39:23Z</time>
      </trkpt>
      <trkpt lat="47.31733" lon="6.00128">
        <ele>272.8</ele>
        <time>2015-07-30T16:39:36Z</time>
      </trkpt>
      <trkpt lat="47.31747" lon="6.00133">
        <ele>272.5</ele>
        <time>2015-07-30T16:39:45Z</time>
      </trkpt>
      <trkpt lat="47.31784" lon="6.00117">
        <ele>270.9</ele>
        <time>2015-07-30T16:40:12Z</time>
      </trkpt>
      <trkpt lat="47.31808" lon="6.00109">
        <ele>270.1</ele>
        <time>2015-07-30T16:40:28Z</time>
      </trkpt>
      <trkpt lat="47.31821" lon="6.00105">
        <ele>269.7</ele>
        <time>2015-07-30T16:40:36Z</time>
      </trkpt>
      <trkpt lat="47.31828" lon="6.00101">
        <ele>269.5</ele>
        <time>2015-07-30T16:40:41Z</time>
      </trkpt>
      <trkpt lat="47.31841" lon="6.00097">
        <ele>269.4</ele>
        <time>2015-07-30T16:40:52Z</time>
      </trkpt>
      <trkpt lat="47.31857" lon="6.0009">
        <ele>269.4</ele>
        <time>2015-07-30T16:41:01Z</time>
      </trkpt>
      <trkpt lat="47.31876" lon="6.00088">
        <ele>269.6</ele>
        <time>2015-07-30T16:41:12Z</time>
      </trkpt>
      <trkpt lat="47.31885" lon="6.00079">
        <ele>269.5</ele>
        <time>2015-07-30T16:41:20Z</time>
      </trkpt>
      <trkpt lat="47.31885" lon="6.00079">
        <ele>269.5</ele>
        <time>2015-07-30T16:41:20Z</time>
      </trkpt>
      <trkpt lat="47.31889" lon="6.0007">
        <ele>269.2</ele>
        <time>2015-07-30T16:41:25Z</time>
      </trkpt>
      <trkpt lat="47.31896" lon="6.00055">
        <ele>268.8</ele>
        <time>2015-07-30T16:41:34Z</time>
      </trkpt>
      <trkpt lat="47.31902" lon="6.00046">
        <ele>268.6</ele>
        <time>2015-07-30T16:41:40Z</time>
      </trkpt>
      <trkpt lat="47.31913" lon="6.00022">
        <ele>267.8</ele>
        <time>2015-07-30T16:41:52Z</time>
      </trkpt>
      <trkpt lat="47.31921" lon="6.00002">
        <ele>267</ele>
        <time>2015-07-30T16:42:02Z</time>
      </trkpt>
      <trkpt lat="47.31938" lon="5.99971">
        <ele>266.5</ele>
        <time>2015-07-30T16:42:22Z</time>
      </trkpt>
      <trkpt lat="47.31943" lon="5.99965">
        <ele>266.3</ele>
        <time>2015-07-30T16:42:26Z</time>
      </trkpt>
      <trkpt lat="47.31955" lon="5.99969">
        <ele>266</ele>
        <time>2015-07-30T16:42:35Z</time>
      </trkpt>
      <trkpt lat="47.31969" lon="5.99977">
        <ele>265.9</ele>
        <time>2015-07-30T16:42:46Z</time>
      </trkpt>
      <trkpt lat="47.31978" lon="5.99985">
        <ele>265.9</ele>
        <time>2015-07-30T16:42:52Z</time>
      </trkpt>
      <trkpt lat="47.32026" lon="6.00019">
        <ele>266.4</ele>
        <time>2015-07-30T16:43:26Z</time>
      </trkpt>
      <trkpt lat="47.32035" lon="6.00032">
        <ele>266.7</ele>
        <time>2015-07-30T16:43:35Z</time>
      </trkpt>
      <trkpt lat="47.32048" lon="6.00043">
        <ele>267</ele>
        <time>2015-07-30T16:43:46Z</time>
      </trkpt>
      <trkpt lat="47.32087" lon="6.00134">
        <ele>266</ele>
        <time>2015-07-30T16:44:35Z</time>
      </trkpt>
      <trkpt lat="47.32093" lon="6.00145">
        <ele>265.4</ele>
        <time>2015-07-30T16:44:42Z</time>
      </trkpt>
      <trkpt lat="47.321" lon="6.00166">
        <ele>264.6</ele>
        <time>2015-07-30T16:44:52Z</time>
      </trkpt>
      <trkpt lat="47.3212" lon="6.00236">
        <ele>260.6</ele>
        <time>2015-07-30T16:45:27Z</time>
      </trkpt>
      <trkpt lat="47.32124" lon="6.00258">
        <ele>259.7</ele>
        <time>2015-07-30T16:45:37Z</time>
      </trkpt>
      <trkpt lat="47.32137" lon="6.0028">
        <ele>259.2</ele>
        <time>2015-07-30T16:45:52Z</time>
      </trkpt>
      <trkpt lat="47.32177" lon="6.00323">
        <ele>257.8</ele>
        <time>2015-07-30T16:46:26Z</time>
      </trkpt>
      <trkpt lat="47.32187" lon="6.00332">
        <ele>257.1</ele>
        <time>2015-07-30T16:46:35Z</time>
      </trkpt>
      <trkpt lat="47.32194" lon="6.00337">
        <ele>256.6</ele>
        <time>2015-07-30T16:46:41Z</time>
      </trkpt>
      <trkpt lat="47.32207" lon="6.00352">
        <ele>255.6</ele>
        <time>2015-07-30T16:46:52Z</time>
      </trkpt>
      <trkpt lat="47.32264" lon="6.00413">
        <ele>250.9</ele>
        <time>2015-07-30T16:47:35Z</time>
      </trkpt>
      <trkpt lat="47.32272" lon="6.00423">
        <ele>250.1</ele>
        <time>2015-07-30T16:47:42Z</time>
      </trkpt>
      <trkpt lat="47.32276" lon="6.00428">
        <ele>249.8</ele>
        <time>2015-07-30T16:47:45Z</time>
      </trkpt>
      <trkpt lat="47.32333" lon="6.00486">
        <ele>245.9</ele>
        <time>2015-07-30T16:48:34Z</time>
      </trkpt>
      <trkpt lat="47.3234" lon="6.00492">
        <ele>245.8</ele>
        <time>2015-07-30T16:48:38Z</time>
      </trkpt>
      <trkpt lat="47.32359" lon="6.00508">
        <ele>245.6</ele>
        <time>2015-07-30T16:48:52Z</time>
      </trkpt>
      <trkpt lat="47.3241" lon="6.0055">
        <ele>243.4</ele>
        <time>2015-07-30T16:49:35Z</time>
      </trkpt>
      <trkpt lat="47.32433" lon="6.00573">
        <ele>242.3</ele>
        <time>2015-07-30T16:49:52Z</time>
      </trkpt>
      <trkpt lat="47.32487" lon="6.00619">
        <ele>240.4</ele>
        <time>2015-07-30T16:50:35Z</time>
      </trkpt>
      <trkpt lat="47.32491" lon="6.00624">
        <ele>240.2</ele>
        <time>2015-07-30T16:50:38Z</time>
      </trkpt>
      <trkpt lat="47.32496" lon="6.00626">
        <ele>240</ele>
        <time>2015-07-30T16:50:42Z</time>
      </trkpt>
      <trkpt lat="47.32507" lon="6.00637">
        <ele>239.3</ele>
        <time>2015-07-30T16:50:50Z</time>
      </trkpt>
      <trkpt lat="47.32565" lon="6.00686">
        <ele>237.5</ele>
        <time>2015-07-30T16:51:35Z</time>
      </trkpt>
      <trkpt lat="47.3257" lon="6.00692">
        <ele>237.3</ele>
        <time>2015-07-30T16:51:38Z</time>
      </trkpt>
      <trkpt lat="47.32586" lon="6.00709">
        <ele>237</ele>
        <time>2015-07-30T16:51:51Z</time>
      </trkpt>
      <trkpt lat="47.32604" lon="6.00724">
        <ele>236.5</ele>
        <time>2015-07-30T16:52:04Z</time>
      </trkpt>
      <trkpt lat="47.32637" lon="6.00761">
        <ele>235.7</ele>
        <time>2015-07-30T16:52:35Z</time>
      </trkpt>
      <trkpt lat="47.32652" lon="6.00774">
        <ele>235.4</ele>
        <time>2015-07-30T16:52:48Z</time>
      </trkpt>
      <trkpt lat="47.32708" lon="6.00821">
        <ele>233.8</ele>
        <time>2015-07-30T16:53:35Z</time>
      </trkpt>
      <trkpt lat="47.32718" lon="6.00831">
        <ele>233.4</ele>
        <time>2015-07-30T16:53:42Z</time>
      </trkpt>
      <trkpt lat="47.32725" lon="6.00849">
        <ele>232.9</ele>
        <time>2015-07-30T16:53:52Z</time>
      </trkpt>
      <trkpt lat="47.32772" lon="6.00891">
        <ele>232.2</ele>
        <time>2015-07-30T16:54:34Z</time>
      </trkpt>
      <trkpt lat="47.32776" lon="6.00896">
        <ele>232.3</ele>
        <time>2015-07-30T16:54:37Z</time>
      </trkpt>
      <trkpt lat="47.32807" lon="6.00996">
        <ele>229.8</ele>
        <time>2015-07-30T16:55:27Z</time>
      </trkpt>
      <trkpt lat="47.32807" lon="6.00996">
        <ele>229.8</ele>
        <time>2015-07-30T16:55:27Z</time>
      </trkpt>
      <trkpt lat="47.32808" lon="6.01005">
        <ele>229.6</ele>
        <time>2015-07-30T16:55:32Z</time>
      </trkpt>
      <trkpt lat="47.32808" lon="6.01012">
        <ele>229.5</ele>
        <time>2015-07-30T16:55:36Z</time>
      </trkpt>
      <trkpt lat="47.32808" lon="6.0102">
        <ele>229.3</ele>
        <time>2015-07-30T16:55:40Z</time>
      </trkpt>
      <trkpt lat="47.32808" lon="6.01029">
        <ele>229.1</ele>
        <time>2015-07-30T16:55:44Z</time>
      </trkpt>
      <trkpt lat="47.3281" lon="6.01037">
        <ele>229</ele>
        <time>2015-07-30T16:55:48Z</time>
      </trkpt>
      <trkpt lat="47.32813" lon="6.01046">
        <ele>228.8</ele>
        <time>2015-07-30T16:55:52Z</time>
      </trkpt>
      <trkpt lat="47.32814" lon="6.01056">
        <ele>228.6</ele>
        <time>2015-07-30T16:55:55Z</time>
      </trkpt>
      <trkpt lat="47.32811" lon="6.01063">
        <ele>228.4</ele>
        <time>2015-07-30T16:56:00Z</time>
      </trkpt>
      <trkpt lat="47.32809" lon="6.01069">
        <ele>228.3</ele>
        <time>2015-07-30T16:56:08Z</time>
      </trkpt>
      <trkpt lat="47.32808" lon="6.01077">
        <ele>228.1</ele>
        <time>2015-07-30T16:56:11Z</time>
      </trkpt>
      <trkpt lat="47.32806" lon="6.01084">
        <ele>228</ele>
        <time>2015-07-30T16:56:13Z</time>
      </trkpt>
      <trkpt lat="47.32801" lon="6.01092">
        <ele>227.8</ele>
        <time>2015-07-30T16:56:16Z</time>
      </trkpt>
      <trkpt lat="47.328" lon="6.01101">
        <ele>227.5</ele>
        <time>2015-07-30T16:56:22Z</time>
      </trkpt>
      <trkpt lat="47.32802" lon="6.01109">
        <ele>227.3</ele>
        <time>2015-07-30T16:56:26Z</time>
      </trkpt>
      <trkpt lat="47.328" lon="6.01116">
        <ele>227.1</ele>
        <time>2015-07-30T16:56:31Z</time>
      </trkpt>
      <trkpt lat="47.32798" lon="6.0112">
        <ele>226.9</ele>
        <time>2015-07-30T16:56:42Z</time>
      </trkpt>
    </trkseg>
  </trk>
</gpx>